<?xml version="1.0" encoding="UTF-8" standalone="no" ?>
<gpx xmlns="http://www.topografix.com/GPX/1/1" xmlns:xsi="http://www.w3.org/2001/XMLSchema-instance" xsi:schemaLocation="http://www.topografix.com/GPX/1/1 http://www.topografix.com/GPX/1/1/gpx.xsd" version="1.1" creator="VisuGPX - https://www.visugpx.com">
  <metadata>
    <name>Montségur Sur Lauzon </name>
    <desc><![CDATA[Encore une petite boucle à ajouter avant de valider la version topo.
J'ai ajouté un POI au bas de Pierre Rousse, c'est à partir d'ici que l'on peux facilement rajouter des variantes pour rouler sur le secteur de Chamaret.
Il y a toujours la possibilité de rajouter çà et là d'autres sentiers..
Fin de sortie à : 50 % de 625 Wh (Nadine) et 41 % de 750 Wh (Alain)
Dénivelé mesuré : 825 M]]></desc>
  </metadata>
  <wpt lat="44.37374" lon="4.85296">
    <ele>172.9</ele>
    <name><![CDATA[Variantes Chamaret]]></name>
    <desc><![CDATA[Piste sans revêtement]]></desc>
    <cmt><![CDATA[Piste sans revêtement]]></cmt>
  </wpt>
  <trk>
    <name><![CDATA[Montségur 40,8 km 27-08-26]]></name>
    <trkseg>
      <trkpt lat="44.36165" lon="4.85797">
        <ele>152.48</ele>
        <time>2026-08-27T06:45:49Z</time>
      </trkpt>
      <trkpt lat="44.36157" lon="4.85784">
        <ele>152.32</ele>
        <time>2026-08-27T06:45:55Z</time>
      </trkpt>
      <trkpt lat="44.36155" lon="4.85782">
        <ele>152.36</ele>
        <time>2026-08-27T06:45:56Z</time>
      </trkpt>
      <trkpt lat="44.36152" lon="4.85781">
        <ele>152.33</ele>
        <time>2026-08-27T06:45:57Z</time>
      </trkpt>
      <trkpt lat="44.3615" lon="4.85778">
        <ele>152.27</ele>
        <time>2026-08-27T06:45:58Z</time>
      </trkpt>
      <trkpt lat="44.36116" lon="4.85738">
        <ele>151.93</ele>
        <time>2026-08-27T06:46:13Z</time>
      </trkpt>
      <trkpt lat="44.36114" lon="4.85733">
        <ele>151.84</ele>
        <time>2026-08-27T06:46:23Z</time>
      </trkpt>
      <trkpt lat="44.36113" lon="4.85731">
        <ele>151.86</ele>
        <time>2026-08-27T06:46:24Z</time>
      </trkpt>
      <trkpt lat="44.36113" lon="4.85727">
        <ele>151.77</ele>
        <time>2026-08-27T06:46:25Z</time>
      </trkpt>
      <trkpt lat="44.36114" lon="4.85723">
        <ele>151.81</ele>
        <time>2026-08-27T06:46:26Z</time>
      </trkpt>
      <trkpt lat="44.36115" lon="4.85719">
        <ele>152.01</ele>
        <time>2026-08-27T06:46:27Z</time>
      </trkpt>
      <trkpt lat="44.36118" lon="4.85699">
        <ele>151.88</ele>
        <time>2026-08-27T06:46:32Z</time>
      </trkpt>
      <trkpt lat="44.36116" lon="4.85696">
        <ele>151.92</ele>
        <time>2026-08-27T06:46:33Z</time>
      </trkpt>
      <trkpt lat="44.36113" lon="4.85694">
        <ele>151.84</ele>
        <time>2026-08-27T06:46:34Z</time>
      </trkpt>
      <trkpt lat="44.3611" lon="4.85694">
        <ele>151.78</ele>
        <time>2026-08-27T06:46:35Z</time>
      </trkpt>
      <trkpt lat="44.36107" lon="4.85696">
        <ele>151.74</ele>
        <time>2026-08-27T06:46:36Z</time>
      </trkpt>
      <trkpt lat="44.36105" lon="4.857">
        <ele>151.73</ele>
        <time>2026-08-27T06:46:37Z</time>
      </trkpt>
      <trkpt lat="44.36104" lon="4.85704">
        <ele>151.84</ele>
        <time>2026-08-27T06:46:38Z</time>
      </trkpt>
      <trkpt lat="44.36074" lon="4.85715">
        <ele>151.84</ele>
        <time>2026-08-27T06:46:49Z</time>
      </trkpt>
      <trkpt lat="44.36032" lon="4.85661">
        <ele>151.45</ele>
        <time>2026-08-27T06:47:05Z</time>
      </trkpt>
      <trkpt lat="44.35991" lon="4.85574">
        <ele>150.63</ele>
        <time>2026-08-27T06:47:25Z</time>
      </trkpt>
      <trkpt lat="44.35958" lon="4.85505">
        <ele>150.06</ele>
        <time>2026-08-27T06:47:41Z</time>
      </trkpt>
      <trkpt lat="44.35925" lon="4.85437">
        <ele>149.65</ele>
        <time>2026-08-27T06:47:57Z</time>
      </trkpt>
      <trkpt lat="44.359" lon="4.8537">
        <ele>149.33</ele>
        <time>2026-08-27T06:48:12Z</time>
      </trkpt>
      <trkpt lat="44.35843" lon="4.85346">
        <ele>148.47</ele>
        <time>2026-08-27T06:48:28Z</time>
      </trkpt>
      <trkpt lat="44.35809" lon="4.85325">
        <ele>148.26</ele>
        <time>2026-08-27T06:48:38Z</time>
      </trkpt>
      <trkpt lat="44.35808" lon="4.8532">
        <ele>148.12</ele>
        <time>2026-08-27T06:48:39Z</time>
      </trkpt>
      <trkpt lat="44.35808" lon="4.85315">
        <ele>148.03</ele>
        <time>2026-08-27T06:48:40Z</time>
      </trkpt>
      <trkpt lat="44.35821" lon="4.85234">
        <ele>146.83</ele>
        <time>2026-08-27T06:48:56Z</time>
      </trkpt>
      <trkpt lat="44.35821" lon="4.85224">
        <ele>146.75</ele>
        <time>2026-08-27T06:48:58Z</time>
      </trkpt>
      <trkpt lat="44.35819" lon="4.85219">
        <ele>146.54</ele>
        <time>2026-08-27T06:48:59Z</time>
      </trkpt>
      <trkpt lat="44.35776" lon="4.85132">
        <ele>144.5</ele>
        <time>2026-08-27T06:49:16Z</time>
      </trkpt>
      <trkpt lat="44.3573" lon="4.8507">
        <ele>143.89</ele>
        <time>2026-08-27T06:49:33Z</time>
      </trkpt>
      <trkpt lat="44.35651" lon="4.85016">
        <ele>142.77</ele>
        <time>2026-08-27T06:49:55Z</time>
      </trkpt>
      <trkpt lat="44.35579" lon="4.84977">
        <ele>141.25</ele>
        <time>2026-08-27T06:50:13Z</time>
      </trkpt>
      <trkpt lat="44.35492" lon="4.84933">
        <ele>141.14</ele>
        <time>2026-08-27T06:50:36Z</time>
      </trkpt>
      <trkpt lat="44.35423" lon="4.84903">
        <ele>141.59</ele>
        <time>2026-08-27T06:50:55Z</time>
      </trkpt>
      <trkpt lat="44.35352" lon="4.84863">
        <ele>141.58</ele>
        <time>2026-08-27T06:51:14Z</time>
      </trkpt>
      <trkpt lat="44.35348" lon="4.8486">
        <ele>141.54</ele>
        <time>2026-08-27T06:51:15Z</time>
      </trkpt>
      <trkpt lat="44.35333" lon="4.84851">
        <ele>141.58</ele>
        <time>2026-08-27T06:51:19Z</time>
      </trkpt>
      <trkpt lat="44.35329" lon="4.84848">
        <ele>141.4</ele>
        <time>2026-08-27T06:51:20Z</time>
      </trkpt>
      <trkpt lat="44.35272" lon="4.84811">
        <ele>141.61</ele>
        <time>2026-08-27T06:51:36Z</time>
      </trkpt>
      <trkpt lat="44.35215" lon="4.84749">
        <ele>140.55</ele>
        <time>2026-08-27T06:51:54Z</time>
      </trkpt>
      <trkpt lat="44.35155" lon="4.84671">
        <ele>140.08</ele>
        <time>2026-08-27T06:52:15Z</time>
      </trkpt>
      <trkpt lat="44.35137" lon="4.84641">
        <ele>139.72</ele>
        <time>2026-08-27T06:52:22Z</time>
      </trkpt>
      <trkpt lat="44.35072" lon="4.8457">
        <ele>138.14</ele>
        <time>2026-08-27T06:52:42Z</time>
      </trkpt>
      <trkpt lat="44.34982" lon="4.84479">
        <ele>137.07</ele>
        <time>2026-08-27T06:53:09Z</time>
      </trkpt>
      <trkpt lat="44.34919" lon="4.84424">
        <ele>135.73</ele>
        <time>2026-08-27T06:53:28Z</time>
      </trkpt>
      <trkpt lat="44.34911" lon="4.84422">
        <ele>135.78</ele>
        <time>2026-08-27T06:53:31Z</time>
      </trkpt>
      <trkpt lat="44.34909" lon="4.84423">
        <ele>136.06</ele>
        <time>2026-08-27T06:53:32Z</time>
      </trkpt>
      <trkpt lat="44.34907" lon="4.84426">
        <ele>136.31</ele>
        <time>2026-08-27T06:53:33Z</time>
      </trkpt>
      <trkpt lat="44.34906" lon="4.84429">
        <ele>136.51</ele>
        <time>2026-08-27T06:53:34Z</time>
      </trkpt>
      <trkpt lat="44.34905" lon="4.84433">
        <ele>136.76</ele>
        <time>2026-08-27T06:53:35Z</time>
      </trkpt>
      <trkpt lat="44.34904" lon="4.84438">
        <ele>136.9</ele>
        <time>2026-08-27T06:53:36Z</time>
      </trkpt>
      <trkpt lat="44.34904" lon="4.84442">
        <ele>136.86</ele>
        <time>2026-08-27T06:53:37Z</time>
      </trkpt>
      <trkpt lat="44.34904" lon="4.84447">
        <ele>136.92</ele>
        <time>2026-08-27T06:53:38Z</time>
      </trkpt>
      <trkpt lat="44.34904" lon="4.84451">
        <ele>137.04</ele>
        <time>2026-08-27T06:53:39Z</time>
      </trkpt>
      <trkpt lat="44.34902" lon="4.84526">
        <ele>137.26</ele>
        <time>2026-08-27T06:53:56Z</time>
      </trkpt>
      <trkpt lat="44.34897" lon="4.84613">
        <ele>137.28</ele>
        <time>2026-08-27T06:54:15Z</time>
      </trkpt>
      <trkpt lat="44.34894" lon="4.84693">
        <ele>137.07</ele>
        <time>2026-08-27T06:54:31Z</time>
      </trkpt>
      <trkpt lat="44.34881" lon="4.84814">
        <ele>137.33</ele>
        <time>2026-08-27T06:54:55Z</time>
      </trkpt>
      <trkpt lat="44.34863" lon="4.84916">
        <ele>137.93</ele>
        <time>2026-08-27T06:55:17Z</time>
      </trkpt>
      <trkpt lat="44.34861" lon="4.8499">
        <ele>136.17</ele>
        <time>2026-08-27T06:55:30Z</time>
      </trkpt>
      <trkpt lat="44.34854" lon="4.85081">
        <ele>132.82</ele>
        <time>2026-08-27T06:55:40Z</time>
      </trkpt>
      <trkpt lat="44.34834" lon="4.85222">
        <ele>129.75</ele>
        <time>2026-08-27T06:55:55Z</time>
      </trkpt>
      <trkpt lat="44.34817" lon="4.85337">
        <ele>129.6</ele>
        <time>2026-08-27T06:56:12Z</time>
      </trkpt>
      <trkpt lat="44.34803" lon="4.85492">
        <ele>129.22</ele>
        <time>2026-08-27T06:56:36Z</time>
      </trkpt>
      <trkpt lat="44.34789" lon="4.85618">
        <ele>129.77</ele>
        <time>2026-08-27T06:56:58Z</time>
      </trkpt>
      <trkpt lat="44.34766" lon="4.85697">
        <ele>129.81</ele>
        <time>2026-08-27T06:57:14Z</time>
      </trkpt>
      <trkpt lat="44.3474" lon="4.85772">
        <ele>130.53</ele>
        <time>2026-08-27T06:57:30Z</time>
      </trkpt>
      <trkpt lat="44.347" lon="4.85848">
        <ele>131.12</ele>
        <time>2026-08-27T06:57:48Z</time>
      </trkpt>
      <trkpt lat="44.34653" lon="4.85887">
        <ele>130.78</ele>
        <time>2026-08-27T06:58:03Z</time>
      </trkpt>
      <trkpt lat="44.34601" lon="4.85914">
        <ele>131.36</ele>
        <time>2026-08-27T06:58:19Z</time>
      </trkpt>
      <trkpt lat="44.3455" lon="4.85923">
        <ele>132.48</ele>
        <time>2026-08-27T06:58:36Z</time>
      </trkpt>
      <trkpt lat="44.34548" lon="4.85921">
        <ele>132.48</ele>
        <time>2026-08-27T06:58:37Z</time>
      </trkpt>
      <trkpt lat="44.3455" lon="4.85898">
        <ele>134.84</ele>
        <time>2026-08-27T06:58:47Z</time>
      </trkpt>
      <trkpt lat="44.34573" lon="4.8587">
        <ele>135.85</ele>
        <time>2026-08-27T06:59:03Z</time>
      </trkpt>
      <trkpt lat="44.34594" lon="4.85855">
        <ele>135.48</ele>
        <time>2026-08-27T06:59:12Z</time>
      </trkpt>
      <trkpt lat="44.34616" lon="4.85816">
        <ele>137.15</ele>
        <time>2026-08-27T06:59:26Z</time>
      </trkpt>
      <trkpt lat="44.3462" lon="4.85808">
        <ele>137.49</ele>
        <time>2026-08-27T06:59:29Z</time>
      </trkpt>
      <trkpt lat="44.34623" lon="4.85793">
        <ele>137.85</ele>
        <time>2026-08-27T06:59:34Z</time>
      </trkpt>
      <trkpt lat="44.34629" lon="4.85768">
        <ele>137.42</ele>
        <time>2026-08-27T06:59:41Z</time>
      </trkpt>
      <trkpt lat="44.34633" lon="4.85751">
        <ele>137.13</ele>
        <time>2026-08-27T06:59:48Z</time>
      </trkpt>
      <trkpt lat="44.3464" lon="4.85725">
        <ele>136.33</ele>
        <time>2026-08-27T06:59:57Z</time>
      </trkpt>
      <trkpt lat="44.34632" lon="4.85709">
        <ele>137.16</ele>
        <time>2026-08-27T07:00:06Z</time>
      </trkpt>
      <trkpt lat="44.346" lon="4.85702">
        <ele>140.37</ele>
        <time>2026-08-27T07:00:21Z</time>
      </trkpt>
      <trkpt lat="44.34579" lon="4.85703">
        <ele>142.62</ele>
        <time>2026-08-27T07:00:31Z</time>
      </trkpt>
      <trkpt lat="44.34572" lon="4.85716">
        <ele>144.51</ele>
        <time>2026-08-27T07:00:37Z</time>
      </trkpt>
      <trkpt lat="44.3455" lon="4.85721">
        <ele>147.9</ele>
        <time>2026-08-27T07:00:50Z</time>
      </trkpt>
      <trkpt lat="44.34531" lon="4.85708">
        <ele>150.94</ele>
        <time>2026-08-27T07:01:01Z</time>
      </trkpt>
      <trkpt lat="44.34503" lon="4.85705">
        <ele>153.23</ele>
        <time>2026-08-27T07:01:15Z</time>
      </trkpt>
      <trkpt lat="44.34494" lon="4.85703">
        <ele>153.8</ele>
        <time>2026-08-27T07:01:20Z</time>
      </trkpt>
      <trkpt lat="44.34486" lon="4.85699">
        <ele>154.41</ele>
        <time>2026-08-27T07:01:24Z</time>
      </trkpt>
      <trkpt lat="44.3448" lon="4.85687">
        <ele>154.41</ele>
        <time>2026-08-27T07:01:33Z</time>
      </trkpt>
      <trkpt lat="44.34483" lon="4.85672">
        <ele>154.33</ele>
        <time>2026-08-27T07:01:40Z</time>
      </trkpt>
      <trkpt lat="44.34493" lon="4.85651">
        <ele>153.48</ele>
        <time>2026-08-27T07:01:50Z</time>
      </trkpt>
      <trkpt lat="44.34464" lon="4.85636">
        <ele>155.79</ele>
        <time>2026-08-27T07:02:04Z</time>
      </trkpt>
      <trkpt lat="44.34452" lon="4.85632">
        <ele>156.04</ele>
        <time>2026-08-27T07:02:13Z</time>
      </trkpt>
      <trkpt lat="44.3445" lon="4.85621">
        <ele>154.53</ele>
        <time>2026-08-27T07:02:24Z</time>
      </trkpt>
      <trkpt lat="44.34454" lon="4.85603">
        <ele>150.38</ele>
        <time>2026-08-27T07:02:30Z</time>
      </trkpt>
      <trkpt lat="44.34459" lon="4.85592">
        <ele>147.32</ele>
        <time>2026-08-27T07:02:36Z</time>
      </trkpt>
      <trkpt lat="44.34462" lon="4.85589">
        <ele>146.66</ele>
        <time>2026-08-27T07:02:41Z</time>
      </trkpt>
      <trkpt lat="44.34486" lon="4.85579">
        <ele>143.2</ele>
        <time>2026-08-27T07:02:49Z</time>
      </trkpt>
      <trkpt lat="44.34481" lon="4.85553">
        <ele>141.69</ele>
        <time>2026-08-27T07:02:55Z</time>
      </trkpt>
      <trkpt lat="44.34481" lon="4.8555">
        <ele>141.24</ele>
        <time>2026-08-27T07:03:01Z</time>
      </trkpt>
      <trkpt lat="44.34478" lon="4.85543">
        <ele>141.32</ele>
        <time>2026-08-27T07:03:12Z</time>
      </trkpt>
      <trkpt lat="44.34478" lon="4.85543">
        <ele>141.19</ele>
        <time>2026-08-27T07:03:22Z</time>
      </trkpt>
      <trkpt lat="44.34458" lon="4.85519">
        <ele>141.43</ele>
        <time>2026-08-27T07:03:33Z</time>
      </trkpt>
      <trkpt lat="44.34427" lon="4.85483">
        <ele>142.25</ele>
        <time>2026-08-27T07:03:47Z</time>
      </trkpt>
      <trkpt lat="44.34424" lon="4.85481">
        <ele>142.24</ele>
        <time>2026-08-27T07:03:48Z</time>
      </trkpt>
      <trkpt lat="44.3441" lon="4.85465">
        <ele>142.64</ele>
        <time>2026-08-27T07:03:54Z</time>
      </trkpt>
      <trkpt lat="44.34399" lon="4.85452">
        <ele>142.88</ele>
        <time>2026-08-27T07:03:59Z</time>
      </trkpt>
      <trkpt lat="44.34396" lon="4.85442">
        <ele>142.5</ele>
        <time>2026-08-27T07:04:04Z</time>
      </trkpt>
      <trkpt lat="44.34389" lon="4.85439">
        <ele>143.01</ele>
        <time>2026-08-27T07:04:09Z</time>
      </trkpt>
      <trkpt lat="44.34385" lon="4.8544">
        <ele>143.66</ele>
        <time>2026-08-27T07:04:11Z</time>
      </trkpt>
      <trkpt lat="44.3438" lon="4.8544">
        <ele>145.04</ele>
        <time>2026-08-27T07:04:14Z</time>
      </trkpt>
      <trkpt lat="44.34376" lon="4.85443">
        <ele>145.82</ele>
        <time>2026-08-27T07:04:20Z</time>
      </trkpt>
      <trkpt lat="44.34368" lon="4.85445">
        <ele>147.67</ele>
        <time>2026-08-27T07:04:25Z</time>
      </trkpt>
      <trkpt lat="44.34363" lon="4.85448">
        <ele>149.07</ele>
        <time>2026-08-27T07:04:28Z</time>
      </trkpt>
      <trkpt lat="44.34358" lon="4.8545">
        <ele>150.38</ele>
        <time>2026-08-27T07:04:31Z</time>
      </trkpt>
      <trkpt lat="44.34338" lon="4.85441">
        <ele>151.73</ele>
        <time>2026-08-27T07:04:41Z</time>
      </trkpt>
      <trkpt lat="44.34311" lon="4.85439">
        <ele>151.56</ele>
        <time>2026-08-27T07:04:53Z</time>
      </trkpt>
      <trkpt lat="44.34295" lon="4.85439">
        <ele>151.04</ele>
        <time>2026-08-27T07:05:01Z</time>
      </trkpt>
      <trkpt lat="44.34288" lon="4.85438">
        <ele>151.17</ele>
        <time>2026-08-27T07:05:04Z</time>
      </trkpt>
      <trkpt lat="44.34282" lon="4.85434">
        <ele>150.89</ele>
        <time>2026-08-27T07:05:06Z</time>
      </trkpt>
      <trkpt lat="44.34253" lon="4.8543">
        <ele>150.2</ele>
        <time>2026-08-27T07:05:16Z</time>
      </trkpt>
      <trkpt lat="44.34221" lon="4.85426">
        <ele>149.45</ele>
        <time>2026-08-27T07:05:25Z</time>
      </trkpt>
      <trkpt lat="44.34213" lon="4.85432">
        <ele>149.05</ele>
        <time>2026-08-27T07:05:28Z</time>
      </trkpt>
      <trkpt lat="44.34211" lon="4.85433">
        <ele>148.91</ele>
        <time>2026-08-27T07:05:29Z</time>
      </trkpt>
      <trkpt lat="44.34207" lon="4.85435">
        <ele>148.55</ele>
        <time>2026-08-27T07:05:30Z</time>
      </trkpt>
      <trkpt lat="44.34205" lon="4.85437">
        <ele>148.41</ele>
        <time>2026-08-27T07:05:31Z</time>
      </trkpt>
      <trkpt lat="44.34202" lon="4.85438">
        <ele>148.06</ele>
        <time>2026-08-27T07:05:41Z</time>
      </trkpt>
      <trkpt lat="44.34201" lon="4.8544">
        <ele>148.15</ele>
        <time>2026-08-27T07:05:59Z</time>
      </trkpt>
      <trkpt lat="44.34202" lon="4.85442">
        <ele>148.11</ele>
        <time>2026-08-27T07:06:00Z</time>
      </trkpt>
      <trkpt lat="44.34204" lon="4.85443">
        <ele>148.14</ele>
        <time>2026-08-27T07:06:01Z</time>
      </trkpt>
      <trkpt lat="44.34205" lon="4.85444">
        <ele>148.02</ele>
        <time>2026-08-27T07:06:02Z</time>
      </trkpt>
      <trkpt lat="44.34207" lon="4.85444">
        <ele>148.18</ele>
        <time>2026-08-27T07:06:03Z</time>
      </trkpt>
      <trkpt lat="44.34209" lon="4.85444">
        <ele>148.25</ele>
        <time>2026-08-27T07:06:04Z</time>
      </trkpt>
      <trkpt lat="44.34233" lon="4.8546">
        <ele>148.96</ele>
        <time>2026-08-27T07:06:14Z</time>
      </trkpt>
      <trkpt lat="44.34237" lon="4.85464">
        <ele>149.13</ele>
        <time>2026-08-27T07:06:16Z</time>
      </trkpt>
      <trkpt lat="44.3424" lon="4.85464">
        <ele>149.16</ele>
        <time>2026-08-27T07:06:17Z</time>
      </trkpt>
      <trkpt lat="44.34256" lon="4.85466">
        <ele>149.68</ele>
        <time>2026-08-27T07:06:23Z</time>
      </trkpt>
      <trkpt lat="44.34258" lon="4.85465">
        <ele>149.96</ele>
        <time>2026-08-27T07:06:24Z</time>
      </trkpt>
      <trkpt lat="44.3427" lon="4.85465">
        <ele>150.43</ele>
        <time>2026-08-27T07:06:29Z</time>
      </trkpt>
      <trkpt lat="44.3427" lon="4.85468">
        <ele>150.59</ele>
        <time>2026-08-27T07:06:30Z</time>
      </trkpt>
      <trkpt lat="44.34271" lon="4.85472">
        <ele>150.65</ele>
        <time>2026-08-27T07:06:31Z</time>
      </trkpt>
      <trkpt lat="44.34272" lon="4.85475">
        <ele>150.64</ele>
        <time>2026-08-27T07:06:32Z</time>
      </trkpt>
      <trkpt lat="44.34274" lon="4.85477">
        <ele>150.65</ele>
        <time>2026-08-27T07:06:33Z</time>
      </trkpt>
      <trkpt lat="44.34277" lon="4.85478">
        <ele>150.75</ele>
        <time>2026-08-27T07:06:34Z</time>
      </trkpt>
      <trkpt lat="44.3428" lon="4.85477">
        <ele>150.86</ele>
        <time>2026-08-27T07:06:35Z</time>
      </trkpt>
      <trkpt lat="44.34297" lon="4.85472">
        <ele>152.62</ele>
        <time>2026-08-27T07:06:42Z</time>
      </trkpt>
      <trkpt lat="44.34298" lon="4.85472">
        <ele>152.69</ele>
        <time>2026-08-27T07:06:43Z</time>
      </trkpt>
      <trkpt lat="44.343" lon="4.85472">
        <ele>153.04</ele>
        <time>2026-08-27T07:06:44Z</time>
      </trkpt>
      <trkpt lat="44.34302" lon="4.85472">
        <ele>153.06</ele>
        <time>2026-08-27T07:06:45Z</time>
      </trkpt>
      <trkpt lat="44.34304" lon="4.85473">
        <ele>153.46</ele>
        <time>2026-08-27T07:06:46Z</time>
      </trkpt>
      <trkpt lat="44.34305" lon="4.85472">
        <ele>153.44</ele>
        <time>2026-08-27T07:06:47Z</time>
      </trkpt>
      <trkpt lat="44.34305" lon="4.85464">
        <ele>153.43</ele>
        <time>2026-08-27T07:06:51Z</time>
      </trkpt>
      <trkpt lat="44.3431" lon="4.85466">
        <ele>153.53</ele>
        <time>2026-08-27T07:06:55Z</time>
      </trkpt>
      <trkpt lat="44.34328" lon="4.85462">
        <ele>154.27</ele>
        <time>2026-08-27T07:07:03Z</time>
      </trkpt>
      <trkpt lat="44.34334" lon="4.85462">
        <ele>154.44</ele>
        <time>2026-08-27T07:07:06Z</time>
      </trkpt>
      <trkpt lat="44.34355" lon="4.85467">
        <ele>153</ele>
        <time>2026-08-27T07:07:16Z</time>
      </trkpt>
      <trkpt lat="44.34358" lon="4.85469">
        <ele>152.3</ele>
        <time>2026-08-27T07:07:18Z</time>
      </trkpt>
      <trkpt lat="44.34379" lon="4.85483">
        <ele>148.86</ele>
        <time>2026-08-27T07:07:26Z</time>
      </trkpt>
      <trkpt lat="44.34385" lon="4.85486">
        <ele>147.46</ele>
        <time>2026-08-27T07:07:29Z</time>
      </trkpt>
      <trkpt lat="44.34399" lon="4.85481">
        <ele>143.9</ele>
        <time>2026-08-27T07:07:34Z</time>
      </trkpt>
      <trkpt lat="44.34409" lon="4.85473">
        <ele>141.36</ele>
        <time>2026-08-27T07:07:39Z</time>
      </trkpt>
      <trkpt lat="44.34415" lon="4.85471">
        <ele>141.12</ele>
        <time>2026-08-27T07:07:49Z</time>
      </trkpt>
      <trkpt lat="44.34417" lon="4.85472">
        <ele>141.19</ele>
        <time>2026-08-27T07:08:01Z</time>
      </trkpt>
      <trkpt lat="44.34402" lon="4.85455">
        <ele>141.66</ele>
        <time>2026-08-27T07:08:10Z</time>
      </trkpt>
      <trkpt lat="44.34396" lon="4.85448">
        <ele>142.05</ele>
        <time>2026-08-27T07:08:14Z</time>
      </trkpt>
      <trkpt lat="44.34388" lon="4.85433">
        <ele>142.27</ele>
        <time>2026-08-27T07:08:24Z</time>
      </trkpt>
      <trkpt lat="44.34388" lon="4.8543">
        <ele>142.21</ele>
        <time>2026-08-27T07:08:25Z</time>
      </trkpt>
      <trkpt lat="44.34381" lon="4.85408">
        <ele>141.67</ele>
        <time>2026-08-27T07:08:35Z</time>
      </trkpt>
      <trkpt lat="44.3438" lon="4.85404">
        <ele>141.49</ele>
        <time>2026-08-27T07:08:36Z</time>
      </trkpt>
      <trkpt lat="44.3439" lon="4.85376">
        <ele>138.95</ele>
        <time>2026-08-27T07:08:42Z</time>
      </trkpt>
      <trkpt lat="44.34389" lon="4.85373">
        <ele>138.86</ele>
        <time>2026-08-27T07:08:43Z</time>
      </trkpt>
      <trkpt lat="44.34388" lon="4.8537">
        <ele>138.71</ele>
        <time>2026-08-27T07:08:44Z</time>
      </trkpt>
      <trkpt lat="44.34387" lon="4.85367">
        <ele>138.66</ele>
        <time>2026-08-27T07:08:45Z</time>
      </trkpt>
      <trkpt lat="44.34387" lon="4.85364">
        <ele>138.37</ele>
        <time>2026-08-27T07:08:46Z</time>
      </trkpt>
      <trkpt lat="44.34388" lon="4.8536">
        <ele>137.28</ele>
        <time>2026-08-27T07:08:48Z</time>
      </trkpt>
      <trkpt lat="44.34389" lon="4.8536">
        <ele>137.1</ele>
        <time>2026-08-27T07:08:50Z</time>
      </trkpt>
      <trkpt lat="44.3439" lon="4.85362">
        <ele>136.95</ele>
        <time>2026-08-27T07:08:51Z</time>
      </trkpt>
      <trkpt lat="44.34391" lon="4.85364">
        <ele>136.99</ele>
        <time>2026-08-27T07:08:52Z</time>
      </trkpt>
      <trkpt lat="44.34392" lon="4.85365">
        <ele>136.99</ele>
        <time>2026-08-27T07:08:53Z</time>
      </trkpt>
      <trkpt lat="44.34393" lon="4.85367">
        <ele>136.92</ele>
        <time>2026-08-27T07:08:54Z</time>
      </trkpt>
      <trkpt lat="44.34411" lon="4.85394">
        <ele>137.48</ele>
        <time>2026-08-27T07:09:08Z</time>
      </trkpt>
      <trkpt lat="44.34423" lon="4.85403">
        <ele>137.04</ele>
        <time>2026-08-27T07:09:12Z</time>
      </trkpt>
      <trkpt lat="44.34431" lon="4.85392">
        <ele>136.25</ele>
        <time>2026-08-27T07:09:15Z</time>
      </trkpt>
      <trkpt lat="44.3446" lon="4.85335">
        <ele>133.75</ele>
        <time>2026-08-27T07:09:25Z</time>
      </trkpt>
      <trkpt lat="44.3446" lon="4.85311">
        <ele>133.52</ele>
        <time>2026-08-27T07:09:31Z</time>
      </trkpt>
      <trkpt lat="44.34426" lon="4.85271">
        <ele>133.37</ele>
        <time>2026-08-27T07:09:48Z</time>
      </trkpt>
      <trkpt lat="44.34434" lon="4.85203">
        <ele>134.21</ele>
        <time>2026-08-27T07:10:04Z</time>
      </trkpt>
      <trkpt lat="44.3444" lon="4.85156">
        <ele>136.26</ele>
        <time>2026-08-27T07:10:17Z</time>
      </trkpt>
      <trkpt lat="44.34439" lon="4.85141">
        <ele>137.9</ele>
        <time>2026-08-27T07:10:27Z</time>
      </trkpt>
      <trkpt lat="44.34441" lon="4.85138">
        <ele>138.06</ele>
        <time>2026-08-27T07:10:29Z</time>
      </trkpt>
      <trkpt lat="44.34459" lon="4.85128">
        <ele>139.7</ele>
        <time>2026-08-27T07:10:40Z</time>
      </trkpt>
      <trkpt lat="44.34471" lon="4.85123">
        <ele>139.75</ele>
        <time>2026-08-27T07:10:50Z</time>
      </trkpt>
      <trkpt lat="44.34475" lon="4.85125">
        <ele>139.5</ele>
        <time>2026-08-27T07:11:08Z</time>
      </trkpt>
      <trkpt lat="44.34487" lon="4.85124">
        <ele>139.7</ele>
        <time>2026-08-27T07:11:13Z</time>
      </trkpt>
      <trkpt lat="44.34509" lon="4.85102">
        <ele>142.92</ele>
        <time>2026-08-27T07:11:26Z</time>
      </trkpt>
      <trkpt lat="44.34523" lon="4.85075">
        <ele>146.34</ele>
        <time>2026-08-27T07:11:37Z</time>
      </trkpt>
      <trkpt lat="44.34524" lon="4.85069">
        <ele>147.13</ele>
        <time>2026-08-27T07:11:39Z</time>
      </trkpt>
      <trkpt lat="44.34517" lon="4.85061">
        <ele>148.45</ele>
        <time>2026-08-27T07:11:44Z</time>
      </trkpt>
      <trkpt lat="44.345" lon="4.85061">
        <ele>151.99</ele>
        <time>2026-08-27T07:11:52Z</time>
      </trkpt>
      <trkpt lat="44.34498" lon="4.8506">
        <ele>152.28</ele>
        <time>2026-08-27T07:11:53Z</time>
      </trkpt>
      <trkpt lat="44.34494" lon="4.85058">
        <ele>153.02</ele>
        <time>2026-08-27T07:11:55Z</time>
      </trkpt>
      <trkpt lat="44.3449" lon="4.8506">
        <ele>152.95</ele>
        <time>2026-08-27T07:12:06Z</time>
      </trkpt>
      <trkpt lat="44.34489" lon="4.8506">
        <ele>153.02</ele>
        <time>2026-08-27T07:12:51Z</time>
      </trkpt>
      <trkpt lat="44.34477" lon="4.85056">
        <ele>153.01</ele>
        <time>2026-08-27T07:12:57Z</time>
      </trkpt>
      <trkpt lat="44.34459" lon="4.8505">
        <ele>152.2</ele>
        <time>2026-08-27T07:13:02Z</time>
      </trkpt>
      <trkpt lat="44.34442" lon="4.85044">
        <ele>149.97</ele>
        <time>2026-08-27T07:13:07Z</time>
      </trkpt>
      <trkpt lat="44.34427" lon="4.85055">
        <ele>149.23</ele>
        <time>2026-08-27T07:13:12Z</time>
      </trkpt>
      <trkpt lat="44.34395" lon="4.85043">
        <ele>145.7</ele>
        <time>2026-08-27T07:13:20Z</time>
      </trkpt>
      <trkpt lat="44.34388" lon="4.85053">
        <ele>144.82</ele>
        <time>2026-08-27T07:13:25Z</time>
      </trkpt>
      <trkpt lat="44.34382" lon="4.85067">
        <ele>144.26</ele>
        <time>2026-08-27T07:13:29Z</time>
      </trkpt>
      <trkpt lat="44.34371" lon="4.85072">
        <ele>143.39</ele>
        <time>2026-08-27T07:13:33Z</time>
      </trkpt>
      <trkpt lat="44.34346" lon="4.85074">
        <ele>142.14</ele>
        <time>2026-08-27T07:13:39Z</time>
      </trkpt>
      <trkpt lat="44.34337" lon="4.8507">
        <ele>141.06</ele>
        <time>2026-08-27T07:13:48Z</time>
      </trkpt>
      <trkpt lat="44.34335" lon="4.85063">
        <ele>140.64</ele>
        <time>2026-08-27T07:13:51Z</time>
      </trkpt>
      <trkpt lat="44.34334" lon="4.8506">
        <ele>140.51</ele>
        <time>2026-08-27T07:13:52Z</time>
      </trkpt>
      <trkpt lat="44.34333" lon="4.85057">
        <ele>140.54</ele>
        <time>2026-08-27T07:13:53Z</time>
      </trkpt>
      <trkpt lat="44.34332" lon="4.85054">
        <ele>140.35</ele>
        <time>2026-08-27T07:13:54Z</time>
      </trkpt>
      <trkpt lat="44.34331" lon="4.85053">
        <ele>140.37</ele>
        <time>2026-08-27T07:13:55Z</time>
      </trkpt>
      <trkpt lat="44.34331" lon="4.85048">
        <ele>140.3</ele>
        <time>2026-08-27T07:14:03Z</time>
      </trkpt>
      <trkpt lat="44.34333" lon="4.8504">
        <ele>139.49</ele>
        <time>2026-08-27T07:14:13Z</time>
      </trkpt>
      <trkpt lat="44.34332" lon="4.85037">
        <ele>139.54</ele>
        <time>2026-08-27T07:14:14Z</time>
      </trkpt>
      <trkpt lat="44.34331" lon="4.85035">
        <ele>139.36</ele>
        <time>2026-08-27T07:14:15Z</time>
      </trkpt>
      <trkpt lat="44.34329" lon="4.85034">
        <ele>139.11</ele>
        <time>2026-08-27T07:14:16Z</time>
      </trkpt>
      <trkpt lat="44.34327" lon="4.85035">
        <ele>138.22</ele>
        <time>2026-08-27T07:14:26Z</time>
      </trkpt>
      <trkpt lat="44.34326" lon="4.85038">
        <ele>138.54</ele>
        <time>2026-08-27T07:15:38Z</time>
      </trkpt>
      <trkpt lat="44.34326" lon="4.85038">
        <ele>139.16</ele>
        <time>2026-08-27T07:16:02Z</time>
      </trkpt>
      <trkpt lat="44.34322" lon="4.85039">
        <ele>139.12</ele>
        <time>2026-08-27T07:16:05Z</time>
      </trkpt>
      <trkpt lat="44.34321" lon="4.85041">
        <ele>139.1</ele>
        <time>2026-08-27T07:16:06Z</time>
      </trkpt>
      <trkpt lat="44.3432" lon="4.85043">
        <ele>139.26</ele>
        <time>2026-08-27T07:16:07Z</time>
      </trkpt>
      <trkpt lat="44.3432" lon="4.85046">
        <ele>139.19</ele>
        <time>2026-08-27T07:16:08Z</time>
      </trkpt>
      <trkpt lat="44.3432" lon="4.85049">
        <ele>139.08</ele>
        <time>2026-08-27T07:16:09Z</time>
      </trkpt>
      <trkpt lat="44.3432" lon="4.85052">
        <ele>138.94</ele>
        <time>2026-08-27T07:16:10Z</time>
      </trkpt>
      <trkpt lat="44.3432" lon="4.85055">
        <ele>138.93</ele>
        <time>2026-08-27T07:16:11Z</time>
      </trkpt>
      <trkpt lat="44.34322" lon="4.85069">
        <ele>139.61</ele>
        <time>2026-08-27T07:16:16Z</time>
      </trkpt>
      <trkpt lat="44.34322" lon="4.85071">
        <ele>139.82</ele>
        <time>2026-08-27T07:16:17Z</time>
      </trkpt>
      <trkpt lat="44.34322" lon="4.85074">
        <ele>139.95</ele>
        <time>2026-08-27T07:16:18Z</time>
      </trkpt>
      <trkpt lat="44.34322" lon="4.85076">
        <ele>140.1</ele>
        <time>2026-08-27T07:16:19Z</time>
      </trkpt>
      <trkpt lat="44.34323" lon="4.85079">
        <ele>140.15</ele>
        <time>2026-08-27T07:16:20Z</time>
      </trkpt>
      <trkpt lat="44.34324" lon="4.85082">
        <ele>140.07</ele>
        <time>2026-08-27T07:16:21Z</time>
      </trkpt>
      <trkpt lat="44.34324" lon="4.85086">
        <ele>140.17</ele>
        <time>2026-08-27T07:16:22Z</time>
      </trkpt>
      <trkpt lat="44.34323" lon="4.85125">
        <ele>139.08</ele>
        <time>2026-08-27T07:16:30Z</time>
      </trkpt>
      <trkpt lat="44.34321" lon="4.8513">
        <ele>138.84</ele>
        <time>2026-08-27T07:16:31Z</time>
      </trkpt>
      <trkpt lat="44.34318" lon="4.85135">
        <ele>138.19</ele>
        <time>2026-08-27T07:16:32Z</time>
      </trkpt>
      <trkpt lat="44.34315" lon="4.8514">
        <ele>137.88</ele>
        <time>2026-08-27T07:16:33Z</time>
      </trkpt>
      <trkpt lat="44.34314" lon="4.85145">
        <ele>137.42</ele>
        <time>2026-08-27T07:16:34Z</time>
      </trkpt>
      <trkpt lat="44.34313" lon="4.8515">
        <ele>137.03</ele>
        <time>2026-08-27T07:16:35Z</time>
      </trkpt>
      <trkpt lat="44.34312" lon="4.85158">
        <ele>136.42</ele>
        <time>2026-08-27T07:16:36Z</time>
      </trkpt>
      <trkpt lat="44.34313" lon="4.85164">
        <ele>136.09</ele>
        <time>2026-08-27T07:16:37Z</time>
      </trkpt>
      <trkpt lat="44.34313" lon="4.85168">
        <ele>135.74</ele>
        <time>2026-08-27T07:16:38Z</time>
      </trkpt>
      <trkpt lat="44.34313" lon="4.85172">
        <ele>135.57</ele>
        <time>2026-08-27T07:16:39Z</time>
      </trkpt>
      <trkpt lat="44.34312" lon="4.85177">
        <ele>135.45</ele>
        <time>2026-08-27T07:16:40Z</time>
      </trkpt>
      <trkpt lat="44.34311" lon="4.85181">
        <ele>134.96</ele>
        <time>2026-08-27T07:16:41Z</time>
      </trkpt>
      <trkpt lat="44.34309" lon="4.85185">
        <ele>134.64</ele>
        <time>2026-08-27T07:16:42Z</time>
      </trkpt>
      <trkpt lat="44.34306" lon="4.8519">
        <ele>134.67</ele>
        <time>2026-08-27T07:16:43Z</time>
      </trkpt>
      <trkpt lat="44.34285" lon="4.85249">
        <ele>135.51</ele>
        <time>2026-08-27T07:16:58Z</time>
      </trkpt>
      <trkpt lat="44.3428" lon="4.85263">
        <ele>136.75</ele>
        <time>2026-08-27T07:17:02Z</time>
      </trkpt>
      <trkpt lat="44.34257" lon="4.85267">
        <ele>138.78</ele>
        <time>2026-08-27T07:17:13Z</time>
      </trkpt>
      <trkpt lat="44.34217" lon="4.85269">
        <ele>141.67</ele>
        <time>2026-08-27T07:17:30Z</time>
      </trkpt>
      <trkpt lat="44.34177" lon="4.85283">
        <ele>142.51</ele>
        <time>2026-08-27T07:17:45Z</time>
      </trkpt>
      <trkpt lat="44.3413" lon="4.85303">
        <ele>142.41</ele>
        <time>2026-08-27T07:18:00Z</time>
      </trkpt>
      <trkpt lat="44.34098" lon="4.85325">
        <ele>141.87</ele>
        <time>2026-08-27T07:18:11Z</time>
      </trkpt>
      <trkpt lat="44.34096" lon="4.85325">
        <ele>141.7</ele>
        <time>2026-08-27T07:18:12Z</time>
      </trkpt>
      <trkpt lat="44.34078" lon="4.85329">
        <ele>140.83</ele>
        <time>2026-08-27T07:18:20Z</time>
      </trkpt>
      <trkpt lat="44.34065" lon="4.85331">
        <ele>140.37</ele>
        <time>2026-08-27T07:18:23Z</time>
      </trkpt>
      <trkpt lat="44.34037" lon="4.8534">
        <ele>138.56</ele>
        <time>2026-08-27T07:18:28Z</time>
      </trkpt>
      <trkpt lat="44.33968" lon="4.85362">
        <ele>135.34</ele>
        <time>2026-08-27T07:18:38Z</time>
      </trkpt>
      <trkpt lat="44.33914" lon="4.85383">
        <ele>132.05</ele>
        <time>2026-08-27T07:18:45Z</time>
      </trkpt>
      <trkpt lat="44.33902" lon="4.85387">
        <ele>131.35</ele>
        <time>2026-08-27T07:18:47Z</time>
      </trkpt>
      <trkpt lat="44.33896" lon="4.85386">
        <ele>130.95</ele>
        <time>2026-08-27T07:18:48Z</time>
      </trkpt>
      <trkpt lat="44.33891" lon="4.85382">
        <ele>130.72</ele>
        <time>2026-08-27T07:18:49Z</time>
      </trkpt>
      <trkpt lat="44.33886" lon="4.85378">
        <ele>130.65</ele>
        <time>2026-08-27T07:18:50Z</time>
      </trkpt>
      <trkpt lat="44.33882" lon="4.85373">
        <ele>130.74</ele>
        <time>2026-08-27T07:18:51Z</time>
      </trkpt>
      <trkpt lat="44.33878" lon="4.85368">
        <ele>130.76</ele>
        <time>2026-08-27T07:18:52Z</time>
      </trkpt>
      <trkpt lat="44.33841" lon="4.85307">
        <ele>130.84</ele>
        <time>2026-08-27T07:19:05Z</time>
      </trkpt>
      <trkpt lat="44.33818" lon="4.85238">
        <ele>131.87</ele>
        <time>2026-08-27T07:19:21Z</time>
      </trkpt>
      <trkpt lat="44.33781" lon="4.85177">
        <ele>132.63</ele>
        <time>2026-08-27T07:19:38Z</time>
      </trkpt>
      <trkpt lat="44.33778" lon="4.85175">
        <ele>133</ele>
        <time>2026-08-27T07:19:39Z</time>
      </trkpt>
      <trkpt lat="44.33775" lon="4.85175">
        <ele>132.96</ele>
        <time>2026-08-27T07:19:40Z</time>
      </trkpt>
      <trkpt lat="44.3376" lon="4.85177">
        <ele>131.16</ele>
        <time>2026-08-27T07:19:44Z</time>
      </trkpt>
      <trkpt lat="44.33756" lon="4.85179">
        <ele>131.07</ele>
        <time>2026-08-27T07:19:45Z</time>
      </trkpt>
      <trkpt lat="44.33743" lon="4.85195">
        <ele>129.59</ele>
        <time>2026-08-27T07:19:49Z</time>
      </trkpt>
      <trkpt lat="44.33742" lon="4.85199">
        <ele>128.94</ele>
        <time>2026-08-27T07:19:50Z</time>
      </trkpt>
      <trkpt lat="44.3374" lon="4.85202">
        <ele>128.7</ele>
        <time>2026-08-27T07:19:51Z</time>
      </trkpt>
      <trkpt lat="44.33738" lon="4.85204">
        <ele>128.58</ele>
        <time>2026-08-27T07:19:52Z</time>
      </trkpt>
      <trkpt lat="44.33735" lon="4.85206">
        <ele>128.43</ele>
        <time>2026-08-27T07:19:53Z</time>
      </trkpt>
      <trkpt lat="44.33726" lon="4.85209">
        <ele>128.01</ele>
        <time>2026-08-27T07:19:56Z</time>
      </trkpt>
      <trkpt lat="44.33724" lon="4.85208">
        <ele>127.67</ele>
        <time>2026-08-27T07:19:57Z</time>
      </trkpt>
      <trkpt lat="44.33721" lon="4.85207">
        <ele>127.67</ele>
        <time>2026-08-27T07:19:58Z</time>
      </trkpt>
      <trkpt lat="44.33719" lon="4.85205">
        <ele>127.38</ele>
        <time>2026-08-27T07:19:59Z</time>
      </trkpt>
      <trkpt lat="44.33716" lon="4.85205">
        <ele>127.26</ele>
        <time>2026-08-27T07:20:00Z</time>
      </trkpt>
      <trkpt lat="44.33714" lon="4.85205">
        <ele>127.13</ele>
        <time>2026-08-27T07:20:01Z</time>
      </trkpt>
      <trkpt lat="44.33711" lon="4.85204">
        <ele>127.15</ele>
        <time>2026-08-27T07:20:02Z</time>
      </trkpt>
      <trkpt lat="44.33709" lon="4.85202">
        <ele>127.19</ele>
        <time>2026-08-27T07:20:03Z</time>
      </trkpt>
      <trkpt lat="44.33672" lon="4.8518">
        <ele>126.19</ele>
        <time>2026-08-27T07:20:16Z</time>
      </trkpt>
      <trkpt lat="44.33645" lon="4.85169">
        <ele>125.44</ele>
        <time>2026-08-27T07:20:25Z</time>
      </trkpt>
      <trkpt lat="44.33625" lon="4.85165">
        <ele>124.42</ele>
        <time>2026-08-27T07:20:31Z</time>
      </trkpt>
      <trkpt lat="44.33624" lon="4.85163">
        <ele>124.34</ele>
        <time>2026-08-27T07:20:32Z</time>
      </trkpt>
      <trkpt lat="44.33623" lon="4.85161">
        <ele>124.37</ele>
        <time>2026-08-27T07:20:35Z</time>
      </trkpt>
      <trkpt lat="44.33624" lon="4.85144">
        <ele>124.89</ele>
        <time>2026-08-27T07:20:40Z</time>
      </trkpt>
      <trkpt lat="44.3364" lon="4.85097">
        <ele>127.21</ele>
        <time>2026-08-27T07:20:54Z</time>
      </trkpt>
      <trkpt lat="44.33648" lon="4.8505">
        <ele>128.88</ele>
        <time>2026-08-27T07:21:07Z</time>
      </trkpt>
      <trkpt lat="44.3367" lon="4.85022">
        <ele>130.28</ele>
        <time>2026-08-27T07:21:19Z</time>
      </trkpt>
      <trkpt lat="44.33691" lon="4.84994">
        <ele>132.57</ele>
        <time>2026-08-27T07:21:31Z</time>
      </trkpt>
      <trkpt lat="44.33704" lon="4.84975">
        <ele>133.82</ele>
        <time>2026-08-27T07:21:39Z</time>
      </trkpt>
      <trkpt lat="44.33728" lon="4.84944">
        <ele>135.67</ele>
        <time>2026-08-27T07:21:54Z</time>
      </trkpt>
      <trkpt lat="44.33739" lon="4.84926">
        <ele>136.56</ele>
        <time>2026-08-27T07:22:02Z</time>
      </trkpt>
      <trkpt lat="44.33738" lon="4.8492">
        <ele>136.48</ele>
        <time>2026-08-27T07:22:08Z</time>
      </trkpt>
      <trkpt lat="44.33711" lon="4.84923">
        <ele>135.39</ele>
        <time>2026-08-27T07:22:20Z</time>
      </trkpt>
      <trkpt lat="44.33681" lon="4.84915">
        <ele>134.13</ele>
        <time>2026-08-27T07:22:30Z</time>
      </trkpt>
      <trkpt lat="44.33642" lon="4.84891">
        <ele>132.96</ele>
        <time>2026-08-27T07:22:43Z</time>
      </trkpt>
      <trkpt lat="44.33619" lon="4.8486">
        <ele>133.03</ele>
        <time>2026-08-27T07:22:56Z</time>
      </trkpt>
      <trkpt lat="44.33613" lon="4.8485">
        <ele>133.05</ele>
        <time>2026-08-27T07:22:59Z</time>
      </trkpt>
      <trkpt lat="44.33612" lon="4.84846">
        <ele>133.07</ele>
        <time>2026-08-27T07:23:00Z</time>
      </trkpt>
      <trkpt lat="44.33615" lon="4.84834">
        <ele>134.33</ele>
        <time>2026-08-27T07:23:04Z</time>
      </trkpt>
      <trkpt lat="44.33605" lon="4.84786">
        <ele>136.29</ele>
        <time>2026-08-27T07:23:19Z</time>
      </trkpt>
      <trkpt lat="44.33602" lon="4.84759">
        <ele>137.15</ele>
        <time>2026-08-27T07:23:27Z</time>
      </trkpt>
      <trkpt lat="44.33581" lon="4.84748">
        <ele>136.76</ele>
        <time>2026-08-27T07:23:36Z</time>
      </trkpt>
      <trkpt lat="44.33571" lon="4.84755">
        <ele>135.9</ele>
        <time>2026-08-27T07:23:40Z</time>
      </trkpt>
      <trkpt lat="44.33569" lon="4.84757">
        <ele>135.45</ele>
        <time>2026-08-27T07:23:41Z</time>
      </trkpt>
      <trkpt lat="44.33567" lon="4.84757">
        <ele>135.16</ele>
        <time>2026-08-27T07:23:42Z</time>
      </trkpt>
      <trkpt lat="44.33566" lon="4.84756">
        <ele>135.09</ele>
        <time>2026-08-27T07:23:43Z</time>
      </trkpt>
      <trkpt lat="44.33565" lon="4.84755">
        <ele>134.98</ele>
        <time>2026-08-27T07:23:44Z</time>
      </trkpt>
      <trkpt lat="44.33564" lon="4.84754">
        <ele>135.13</ele>
        <time>2026-08-27T07:23:45Z</time>
      </trkpt>
      <trkpt lat="44.33563" lon="4.84752">
        <ele>135.1</ele>
        <time>2026-08-27T07:23:46Z</time>
      </trkpt>
      <trkpt lat="44.3356" lon="4.84751">
        <ele>135.29</ele>
        <time>2026-08-27T07:23:50Z</time>
      </trkpt>
      <trkpt lat="44.33558" lon="4.84748">
        <ele>135.27</ele>
        <time>2026-08-27T07:23:51Z</time>
      </trkpt>
      <trkpt lat="44.33556" lon="4.84746">
        <ele>135.23</ele>
        <time>2026-08-27T07:23:52Z</time>
      </trkpt>
      <trkpt lat="44.33554" lon="4.84743">
        <ele>135.15</ele>
        <time>2026-08-27T07:23:53Z</time>
      </trkpt>
      <trkpt lat="44.33552" lon="4.84741">
        <ele>135.36</ele>
        <time>2026-08-27T07:23:54Z</time>
      </trkpt>
      <trkpt lat="44.3355" lon="4.84738">
        <ele>135.37</ele>
        <time>2026-08-27T07:23:55Z</time>
      </trkpt>
      <trkpt lat="44.33548" lon="4.84736">
        <ele>135.61</ele>
        <time>2026-08-27T07:23:56Z</time>
      </trkpt>
      <trkpt lat="44.33534" lon="4.84696">
        <ele>136.69</ele>
        <time>2026-08-27T07:24:09Z</time>
      </trkpt>
      <trkpt lat="44.33527" lon="4.84658">
        <ele>137.41</ele>
        <time>2026-08-27T07:24:20Z</time>
      </trkpt>
      <trkpt lat="44.33532" lon="4.8462">
        <ele>137.94</ele>
        <time>2026-08-27T07:24:31Z</time>
      </trkpt>
      <trkpt lat="44.33535" lon="4.84578">
        <ele>139.45</ele>
        <time>2026-08-27T07:24:44Z</time>
      </trkpt>
      <trkpt lat="44.33527" lon="4.84547">
        <ele>140.18</ele>
        <time>2026-08-27T07:24:54Z</time>
      </trkpt>
      <trkpt lat="44.33505" lon="4.84517">
        <ele>140.51</ele>
        <time>2026-08-27T07:25:06Z</time>
      </trkpt>
      <trkpt lat="44.33501" lon="4.84509">
        <ele>140.57</ele>
        <time>2026-08-27T07:25:09Z</time>
      </trkpt>
      <trkpt lat="44.33501" lon="4.84507">
        <ele>140.64</ele>
        <time>2026-08-27T07:25:10Z</time>
      </trkpt>
      <trkpt lat="44.33499" lon="4.84505">
        <ele>140.7</ele>
        <time>2026-08-27T07:25:11Z</time>
      </trkpt>
      <trkpt lat="44.33498" lon="4.84504">
        <ele>140.61</ele>
        <time>2026-08-27T07:25:12Z</time>
      </trkpt>
      <trkpt lat="44.33497" lon="4.84503">
        <ele>140.75</ele>
        <time>2026-08-27T07:25:13Z</time>
      </trkpt>
      <trkpt lat="44.33495" lon="4.84503">
        <ele>140.6</ele>
        <time>2026-08-27T07:25:14Z</time>
      </trkpt>
      <trkpt lat="44.33494" lon="4.84503">
        <ele>140.53</ele>
        <time>2026-08-27T07:25:15Z</time>
      </trkpt>
      <trkpt lat="44.33492" lon="4.84503">
        <ele>140.48</ele>
        <time>2026-08-27T07:25:16Z</time>
      </trkpt>
      <trkpt lat="44.33487" lon="4.84492">
        <ele>140.27</ele>
        <time>2026-08-27T07:25:22Z</time>
      </trkpt>
      <trkpt lat="44.33487" lon="4.84488">
        <ele>140.42</ele>
        <time>2026-08-27T07:25:23Z</time>
      </trkpt>
      <trkpt lat="44.33488" lon="4.84486">
        <ele>140.47</ele>
        <time>2026-08-27T07:25:24Z</time>
      </trkpt>
      <trkpt lat="44.33487" lon="4.84481">
        <ele>140.57</ele>
        <time>2026-08-27T07:25:35Z</time>
      </trkpt>
      <trkpt lat="44.33488" lon="4.84481">
        <ele>140.58</ele>
        <time>2026-08-27T07:25:39Z</time>
      </trkpt>
      <trkpt lat="44.33489" lon="4.84482">
        <ele>140.63</ele>
        <time>2026-08-27T07:25:40Z</time>
      </trkpt>
      <trkpt lat="44.33491" lon="4.84483">
        <ele>140.85</ele>
        <time>2026-08-27T07:25:41Z</time>
      </trkpt>
      <trkpt lat="44.33493" lon="4.84486">
        <ele>140.74</ele>
        <time>2026-08-27T07:25:42Z</time>
      </trkpt>
      <trkpt lat="44.33496" lon="4.84487">
        <ele>140.77</ele>
        <time>2026-08-27T07:25:43Z</time>
      </trkpt>
      <trkpt lat="44.33498" lon="4.84489">
        <ele>140.9</ele>
        <time>2026-08-27T07:25:44Z</time>
      </trkpt>
      <trkpt lat="44.33501" lon="4.84489">
        <ele>140.93</ele>
        <time>2026-08-27T07:25:45Z</time>
      </trkpt>
      <trkpt lat="44.33503" lon="4.8449">
        <ele>141.08</ele>
        <time>2026-08-27T07:25:46Z</time>
      </trkpt>
      <trkpt lat="44.33506" lon="4.8449">
        <ele>141.21</ele>
        <time>2026-08-27T07:25:47Z</time>
      </trkpt>
      <trkpt lat="44.33508" lon="4.84489">
        <ele>141.46</ele>
        <time>2026-08-27T07:25:48Z</time>
      </trkpt>
      <trkpt lat="44.33517" lon="4.84486">
        <ele>142.06</ele>
        <time>2026-08-27T07:25:52Z</time>
      </trkpt>
      <trkpt lat="44.33519" lon="4.84484">
        <ele>142.16</ele>
        <time>2026-08-27T07:25:53Z</time>
      </trkpt>
      <trkpt lat="44.33522" lon="4.8448">
        <ele>142.81</ele>
        <time>2026-08-27T07:25:55Z</time>
      </trkpt>
      <trkpt lat="44.33531" lon="4.84474">
        <ele>143.21</ele>
        <time>2026-08-27T07:25:59Z</time>
      </trkpt>
      <trkpt lat="44.33532" lon="4.84472">
        <ele>143.4</ele>
        <time>2026-08-27T07:26:00Z</time>
      </trkpt>
      <trkpt lat="44.33534" lon="4.8447">
        <ele>143.6</ele>
        <time>2026-08-27T07:26:01Z</time>
      </trkpt>
      <trkpt lat="44.33536" lon="4.84468">
        <ele>143.65</ele>
        <time>2026-08-27T07:26:02Z</time>
      </trkpt>
      <trkpt lat="44.33538" lon="4.84467">
        <ele>143.69</ele>
        <time>2026-08-27T07:26:03Z</time>
      </trkpt>
      <trkpt lat="44.33564" lon="4.84449">
        <ele>144.97</ele>
        <time>2026-08-27T07:26:16Z</time>
      </trkpt>
      <trkpt lat="44.33587" lon="4.84439">
        <ele>146.56</ele>
        <time>2026-08-27T07:26:26Z</time>
      </trkpt>
      <trkpt lat="44.33613" lon="4.84428">
        <ele>147.25</ele>
        <time>2026-08-27T07:26:38Z</time>
      </trkpt>
      <trkpt lat="44.33619" lon="4.84425">
        <ele>147.32</ele>
        <time>2026-08-27T07:26:41Z</time>
      </trkpt>
      <trkpt lat="44.33621" lon="4.84424">
        <ele>147.47</ele>
        <time>2026-08-27T07:26:42Z</time>
      </trkpt>
      <trkpt lat="44.33623" lon="4.84423">
        <ele>147.49</ele>
        <time>2026-08-27T07:26:43Z</time>
      </trkpt>
      <trkpt lat="44.33625" lon="4.84422">
        <ele>147.47</ele>
        <time>2026-08-27T07:26:44Z</time>
      </trkpt>
      <trkpt lat="44.33627" lon="4.8442">
        <ele>147.66</ele>
        <time>2026-08-27T07:26:45Z</time>
      </trkpt>
      <trkpt lat="44.33629" lon="4.84419">
        <ele>147.75</ele>
        <time>2026-08-27T07:26:46Z</time>
      </trkpt>
      <trkpt lat="44.33631" lon="4.84419">
        <ele>147.74</ele>
        <time>2026-08-27T07:26:47Z</time>
      </trkpt>
      <trkpt lat="44.33653" lon="4.84415">
        <ele>148.37</ele>
        <time>2026-08-27T07:26:56Z</time>
      </trkpt>
      <trkpt lat="44.33655" lon="4.84414">
        <ele>148.4</ele>
        <time>2026-08-27T07:26:57Z</time>
      </trkpt>
      <trkpt lat="44.33656" lon="4.84413">
        <ele>148.47</ele>
        <time>2026-08-27T07:26:58Z</time>
      </trkpt>
      <trkpt lat="44.33654" lon="4.8438">
        <ele>148.39</ele>
        <time>2026-08-27T07:27:11Z</time>
      </trkpt>
      <trkpt lat="44.33647" lon="4.84335">
        <ele>148.58</ele>
        <time>2026-08-27T07:27:25Z</time>
      </trkpt>
      <trkpt lat="44.33642" lon="4.84313">
        <ele>148.91</ele>
        <time>2026-08-27T07:27:31Z</time>
      </trkpt>
      <trkpt lat="44.33639" lon="4.84311">
        <ele>148.65</ele>
        <time>2026-08-27T07:27:32Z</time>
      </trkpt>
      <trkpt lat="44.33637" lon="4.84309">
        <ele>148.55</ele>
        <time>2026-08-27T07:27:33Z</time>
      </trkpt>
      <trkpt lat="44.33634" lon="4.84307">
        <ele>148.47</ele>
        <time>2026-08-27T07:27:34Z</time>
      </trkpt>
      <trkpt lat="44.33631" lon="4.84306">
        <ele>148.21</ele>
        <time>2026-08-27T07:27:35Z</time>
      </trkpt>
      <trkpt lat="44.33608" lon="4.84295">
        <ele>146.81</ele>
        <time>2026-08-27T07:27:42Z</time>
      </trkpt>
      <trkpt lat="44.33605" lon="4.84291">
        <ele>146.8</ele>
        <time>2026-08-27T07:27:43Z</time>
      </trkpt>
      <trkpt lat="44.33602" lon="4.84288">
        <ele>146.72</ele>
        <time>2026-08-27T07:27:44Z</time>
      </trkpt>
      <trkpt lat="44.33591" lon="4.84279">
        <ele>145.76</ele>
        <time>2026-08-27T07:27:47Z</time>
      </trkpt>
      <trkpt lat="44.33579" lon="4.84272">
        <ele>144.72</ele>
        <time>2026-08-27T07:27:50Z</time>
      </trkpt>
      <trkpt lat="44.33575" lon="4.84269">
        <ele>144.56</ele>
        <time>2026-08-27T07:27:51Z</time>
      </trkpt>
      <trkpt lat="44.33572" lon="4.84266">
        <ele>143.99</ele>
        <time>2026-08-27T07:27:52Z</time>
      </trkpt>
      <trkpt lat="44.33568" lon="4.84262">
        <ele>143.77</ele>
        <time>2026-08-27T07:27:53Z</time>
      </trkpt>
      <trkpt lat="44.33565" lon="4.84258">
        <ele>143.16</ele>
        <time>2026-08-27T07:27:54Z</time>
      </trkpt>
      <trkpt lat="44.33561" lon="4.84254">
        <ele>142.93</ele>
        <time>2026-08-27T07:27:55Z</time>
      </trkpt>
      <trkpt lat="44.33552" lon="4.84246">
        <ele>142.42</ele>
        <time>2026-08-27T07:27:57Z</time>
      </trkpt>
      <trkpt lat="44.33545" lon="4.84237">
        <ele>141.59</ele>
        <time>2026-08-27T07:27:59Z</time>
      </trkpt>
      <trkpt lat="44.33542" lon="4.84235">
        <ele>141.6</ele>
        <time>2026-08-27T07:28:00Z</time>
      </trkpt>
      <trkpt lat="44.33527" lon="4.84225">
        <ele>139.75</ele>
        <time>2026-08-27T07:28:09Z</time>
      </trkpt>
      <trkpt lat="44.33525" lon="4.84223">
        <ele>139.84</ele>
        <time>2026-08-27T07:28:15Z</time>
      </trkpt>
      <trkpt lat="44.33523" lon="4.84222">
        <ele>139.83</ele>
        <time>2026-08-27T07:28:16Z</time>
      </trkpt>
      <trkpt lat="44.3352" lon="4.8422">
        <ele>139.73</ele>
        <time>2026-08-27T07:28:17Z</time>
      </trkpt>
      <trkpt lat="44.33517" lon="4.84218">
        <ele>139.38</ele>
        <time>2026-08-27T07:28:18Z</time>
      </trkpt>
      <trkpt lat="44.33513" lon="4.84215">
        <ele>139.31</ele>
        <time>2026-08-27T07:28:19Z</time>
      </trkpt>
      <trkpt lat="44.3351" lon="4.84212">
        <ele>139.25</ele>
        <time>2026-08-27T07:28:20Z</time>
      </trkpt>
      <trkpt lat="44.33502" lon="4.84206">
        <ele>138.65</ele>
        <time>2026-08-27T07:28:22Z</time>
      </trkpt>
      <trkpt lat="44.33499" lon="4.84203">
        <ele>138.3</ele>
        <time>2026-08-27T07:28:23Z</time>
      </trkpt>
      <trkpt lat="44.33495" lon="4.84201">
        <ele>138.29</ele>
        <time>2026-08-27T07:28:24Z</time>
      </trkpt>
      <trkpt lat="44.3349" lon="4.842">
        <ele>138.09</ele>
        <time>2026-08-27T07:28:25Z</time>
      </trkpt>
      <trkpt lat="44.33487" lon="4.84202">
        <ele>137.65</ele>
        <time>2026-08-27T07:28:26Z</time>
      </trkpt>
      <trkpt lat="44.33484" lon="4.84205">
        <ele>137.63</ele>
        <time>2026-08-27T07:28:27Z</time>
      </trkpt>
      <trkpt lat="44.33481" lon="4.84209">
        <ele>137.56</ele>
        <time>2026-08-27T07:28:28Z</time>
      </trkpt>
      <trkpt lat="44.3348" lon="4.84213">
        <ele>137.27</ele>
        <time>2026-08-27T07:28:29Z</time>
      </trkpt>
      <trkpt lat="44.33479" lon="4.84214">
        <ele>137.11</ele>
        <time>2026-08-27T07:28:30Z</time>
      </trkpt>
      <trkpt lat="44.33478" lon="4.84214">
        <ele>137.05</ele>
        <time>2026-08-27T07:28:31Z</time>
      </trkpt>
      <trkpt lat="44.33475" lon="4.84214">
        <ele>136.86</ele>
        <time>2026-08-27T07:28:32Z</time>
      </trkpt>
      <trkpt lat="44.33473" lon="4.84213">
        <ele>136.5</ele>
        <time>2026-08-27T07:28:33Z</time>
      </trkpt>
      <trkpt lat="44.3347" lon="4.84211">
        <ele>136.12</ele>
        <time>2026-08-27T07:28:37Z</time>
      </trkpt>
      <trkpt lat="44.33469" lon="4.8421">
        <ele>136.17</ele>
        <time>2026-08-27T07:28:38Z</time>
      </trkpt>
      <trkpt lat="44.33468" lon="4.84207">
        <ele>136.02</ele>
        <time>2026-08-27T07:28:39Z</time>
      </trkpt>
      <trkpt lat="44.33466" lon="4.84205">
        <ele>135.87</ele>
        <time>2026-08-27T07:28:40Z</time>
      </trkpt>
      <trkpt lat="44.33462" lon="4.84195">
        <ele>135.31</ele>
        <time>2026-08-27T07:28:51Z</time>
      </trkpt>
      <trkpt lat="44.33439" lon="4.8416">
        <ele>134.27</ele>
        <time>2026-08-27T07:29:00Z</time>
      </trkpt>
      <trkpt lat="44.33416" lon="4.84106">
        <ele>133.61</ele>
        <time>2026-08-27T07:29:12Z</time>
      </trkpt>
      <trkpt lat="44.33413" lon="4.84102">
        <ele>133.39</ele>
        <time>2026-08-27T07:29:13Z</time>
      </trkpt>
      <trkpt lat="44.3341" lon="4.84098">
        <ele>133.36</ele>
        <time>2026-08-27T07:29:14Z</time>
      </trkpt>
      <trkpt lat="44.33407" lon="4.84095">
        <ele>133.13</ele>
        <time>2026-08-27T07:29:15Z</time>
      </trkpt>
      <trkpt lat="44.33404" lon="4.84093">
        <ele>133.08</ele>
        <time>2026-08-27T07:29:16Z</time>
      </trkpt>
      <trkpt lat="44.33401" lon="4.84093">
        <ele>133.06</ele>
        <time>2026-08-27T07:29:17Z</time>
      </trkpt>
      <trkpt lat="44.33397" lon="4.84092">
        <ele>132.69</ele>
        <time>2026-08-27T07:29:18Z</time>
      </trkpt>
      <trkpt lat="44.33393" lon="4.84091">
        <ele>132.53</ele>
        <time>2026-08-27T07:29:19Z</time>
      </trkpt>
      <trkpt lat="44.33388" lon="4.84091">
        <ele>132.2</ele>
        <time>2026-08-27T07:29:20Z</time>
      </trkpt>
      <trkpt lat="44.33383" lon="4.8409">
        <ele>131.75</ele>
        <time>2026-08-27T07:29:21Z</time>
      </trkpt>
      <trkpt lat="44.33378" lon="4.84088">
        <ele>131.61</ele>
        <time>2026-08-27T07:29:22Z</time>
      </trkpt>
      <trkpt lat="44.33373" lon="4.84087">
        <ele>131.22</ele>
        <time>2026-08-27T07:29:23Z</time>
      </trkpt>
      <trkpt lat="44.33367" lon="4.84086">
        <ele>131.38</ele>
        <time>2026-08-27T07:29:24Z</time>
      </trkpt>
      <trkpt lat="44.33362" lon="4.84085">
        <ele>130.73</ele>
        <time>2026-08-27T07:29:25Z</time>
      </trkpt>
      <trkpt lat="44.33357" lon="4.84085">
        <ele>130.57</ele>
        <time>2026-08-27T07:29:26Z</time>
      </trkpt>
      <trkpt lat="44.33351" lon="4.84083">
        <ele>129.77</ele>
        <time>2026-08-27T07:29:27Z</time>
      </trkpt>
      <trkpt lat="44.33347" lon="4.84082">
        <ele>129.76</ele>
        <time>2026-08-27T07:29:28Z</time>
      </trkpt>
      <trkpt lat="44.33336" lon="4.84078">
        <ele>129.41</ele>
        <time>2026-08-27T07:29:34Z</time>
      </trkpt>
      <trkpt lat="44.33333" lon="4.84078">
        <ele>129.19</ele>
        <time>2026-08-27T07:29:35Z</time>
      </trkpt>
      <trkpt lat="44.33331" lon="4.84078">
        <ele>129.32</ele>
        <time>2026-08-27T07:29:36Z</time>
      </trkpt>
      <trkpt lat="44.33329" lon="4.84078">
        <ele>129.06</ele>
        <time>2026-08-27T07:29:37Z</time>
      </trkpt>
      <trkpt lat="44.33309" lon="4.84076">
        <ele>128.82</ele>
        <time>2026-08-27T07:29:52Z</time>
      </trkpt>
      <trkpt lat="44.3327" lon="4.84061">
        <ele>126.66</ele>
        <time>2026-08-27T07:30:03Z</time>
      </trkpt>
      <trkpt lat="44.33265" lon="4.8406">
        <ele>126.23</ele>
        <time>2026-08-27T07:30:04Z</time>
      </trkpt>
      <trkpt lat="44.33261" lon="4.8406">
        <ele>125.67</ele>
        <time>2026-08-27T07:30:05Z</time>
      </trkpt>
      <trkpt lat="44.33256" lon="4.84061">
        <ele>125.36</ele>
        <time>2026-08-27T07:30:06Z</time>
      </trkpt>
      <trkpt lat="44.33234" lon="4.84077">
        <ele>123.71</ele>
        <time>2026-08-27T07:30:11Z</time>
      </trkpt>
      <trkpt lat="44.33229" lon="4.84082">
        <ele>123.51</ele>
        <time>2026-08-27T07:30:12Z</time>
      </trkpt>
      <trkpt lat="44.33226" lon="4.84088">
        <ele>122.95</ele>
        <time>2026-08-27T07:30:13Z</time>
      </trkpt>
      <trkpt lat="44.33225" lon="4.84094">
        <ele>122.56</ele>
        <time>2026-08-27T07:30:14Z</time>
      </trkpt>
      <trkpt lat="44.33225" lon="4.841">
        <ele>122.45</ele>
        <time>2026-08-27T07:30:15Z</time>
      </trkpt>
      <trkpt lat="44.33225" lon="4.84105">
        <ele>122.37</ele>
        <time>2026-08-27T07:30:16Z</time>
      </trkpt>
      <trkpt lat="44.33225" lon="4.84111">
        <ele>122.22</ele>
        <time>2026-08-27T07:30:17Z</time>
      </trkpt>
      <trkpt lat="44.33223" lon="4.84116">
        <ele>122.25</ele>
        <time>2026-08-27T07:30:18Z</time>
      </trkpt>
      <trkpt lat="44.33221" lon="4.84119">
        <ele>122.19</ele>
        <time>2026-08-27T07:30:19Z</time>
      </trkpt>
      <trkpt lat="44.33218" lon="4.84121">
        <ele>121.95</ele>
        <time>2026-08-27T07:30:20Z</time>
      </trkpt>
      <trkpt lat="44.33214" lon="4.84121">
        <ele>122.05</ele>
        <time>2026-08-27T07:30:21Z</time>
      </trkpt>
      <trkpt lat="44.3318" lon="4.84132">
        <ele>122.88</ele>
        <time>2026-08-27T07:30:36Z</time>
      </trkpt>
      <trkpt lat="44.33177" lon="4.84132">
        <ele>122.87</ele>
        <time>2026-08-27T07:30:40Z</time>
      </trkpt>
      <trkpt lat="44.33176" lon="4.84133">
        <ele>122.89</ele>
        <time>2026-08-27T07:30:41Z</time>
      </trkpt>
      <trkpt lat="44.33173" lon="4.84135">
        <ele>122.83</ele>
        <time>2026-08-27T07:30:42Z</time>
      </trkpt>
      <trkpt lat="44.33169" lon="4.84137">
        <ele>122.99</ele>
        <time>2026-08-27T07:30:43Z</time>
      </trkpt>
      <trkpt lat="44.33165" lon="4.84139">
        <ele>122.7</ele>
        <time>2026-08-27T07:30:44Z</time>
      </trkpt>
      <trkpt lat="44.33157" lon="4.84144">
        <ele>122.48</ele>
        <time>2026-08-27T07:30:46Z</time>
      </trkpt>
      <trkpt lat="44.33154" lon="4.84148">
        <ele>122.37</ele>
        <time>2026-08-27T07:30:47Z</time>
      </trkpt>
      <trkpt lat="44.33106" lon="4.84202">
        <ele>119.19</ele>
        <time>2026-08-27T07:31:02Z</time>
      </trkpt>
      <trkpt lat="44.33097" lon="4.84212">
        <ele>118.47</ele>
        <time>2026-08-27T07:31:05Z</time>
      </trkpt>
      <trkpt lat="44.33091" lon="4.84221">
        <ele>118.1</ele>
        <time>2026-08-27T07:31:07Z</time>
      </trkpt>
      <trkpt lat="44.33061" lon="4.84261">
        <ele>116.63</ele>
        <time>2026-08-27T07:31:17Z</time>
      </trkpt>
      <trkpt lat="44.33057" lon="4.84265">
        <ele>116.37</ele>
        <time>2026-08-27T07:31:18Z</time>
      </trkpt>
      <trkpt lat="44.33043" lon="4.84276">
        <ele>115.61</ele>
        <time>2026-08-27T07:31:22Z</time>
      </trkpt>
      <trkpt lat="44.33022" lon="4.84291">
        <ele>113.57</ele>
        <time>2026-08-27T07:31:28Z</time>
      </trkpt>
      <trkpt lat="44.33006" lon="4.84305">
        <ele>112.65</ele>
        <time>2026-08-27T07:31:33Z</time>
      </trkpt>
      <trkpt lat="44.33003" lon="4.84309">
        <ele>112.27</ele>
        <time>2026-08-27T07:31:34Z</time>
      </trkpt>
      <trkpt lat="44.33" lon="4.84312">
        <ele>111.93</ele>
        <time>2026-08-27T07:31:35Z</time>
      </trkpt>
      <trkpt lat="44.32997" lon="4.84314">
        <ele>111.83</ele>
        <time>2026-08-27T07:31:36Z</time>
      </trkpt>
      <trkpt lat="44.32996" lon="4.84315">
        <ele>111.74</ele>
        <time>2026-08-27T07:31:37Z</time>
      </trkpt>
      <trkpt lat="44.32994" lon="4.84315">
        <ele>111.61</ele>
        <time>2026-08-27T07:31:38Z</time>
      </trkpt>
      <trkpt lat="44.32992" lon="4.84316">
        <ele>111.57</ele>
        <time>2026-08-27T07:31:39Z</time>
      </trkpt>
      <trkpt lat="44.32986" lon="4.84317">
        <ele>111.65</ele>
        <time>2026-08-27T07:31:50Z</time>
      </trkpt>
      <trkpt lat="44.32984" lon="4.84318">
        <ele>111.58</ele>
        <time>2026-08-27T07:31:51Z</time>
      </trkpt>
      <trkpt lat="44.32981" lon="4.84319">
        <ele>111.52</ele>
        <time>2026-08-27T07:31:52Z</time>
      </trkpt>
      <trkpt lat="44.32977" lon="4.8432">
        <ele>111.57</ele>
        <time>2026-08-27T07:31:53Z</time>
      </trkpt>
      <trkpt lat="44.32974" lon="4.84322">
        <ele>111.45</ele>
        <time>2026-08-27T07:31:54Z</time>
      </trkpt>
      <trkpt lat="44.32972" lon="4.84323">
        <ele>111.58</ele>
        <time>2026-08-27T07:31:55Z</time>
      </trkpt>
      <trkpt lat="44.32969" lon="4.84325">
        <ele>111.41</ele>
        <time>2026-08-27T07:31:56Z</time>
      </trkpt>
      <trkpt lat="44.32966" lon="4.84327">
        <ele>111.38</ele>
        <time>2026-08-27T07:31:57Z</time>
      </trkpt>
      <trkpt lat="44.32963" lon="4.84329">
        <ele>111.13</ele>
        <time>2026-08-27T07:31:58Z</time>
      </trkpt>
      <trkpt lat="44.32919" lon="4.84372">
        <ele>110.91</ele>
        <time>2026-08-27T07:32:12Z</time>
      </trkpt>
      <trkpt lat="44.32878" lon="4.84396">
        <ele>111.28</ele>
        <time>2026-08-27T07:32:24Z</time>
      </trkpt>
      <trkpt lat="44.32853" lon="4.84436">
        <ele>110.28</ele>
        <time>2026-08-27T07:32:35Z</time>
      </trkpt>
      <trkpt lat="44.32841" lon="4.84475">
        <ele>109.39</ele>
        <time>2026-08-27T07:32:44Z</time>
      </trkpt>
      <trkpt lat="44.32808" lon="4.84488">
        <ele>109.76</ele>
        <time>2026-08-27T07:32:56Z</time>
      </trkpt>
      <trkpt lat="44.32775" lon="4.84498">
        <ele>109.54</ele>
        <time>2026-08-27T07:33:07Z</time>
      </trkpt>
      <trkpt lat="44.32726" lon="4.84514">
        <ele>110.25</ele>
        <time>2026-08-27T07:33:21Z</time>
      </trkpt>
      <trkpt lat="44.3267" lon="4.84551">
        <ele>111.08</ele>
        <time>2026-08-27T07:33:38Z</time>
      </trkpt>
      <trkpt lat="44.32665" lon="4.84554">
        <ele>111.24</ele>
        <time>2026-08-27T07:33:40Z</time>
      </trkpt>
      <trkpt lat="44.32663" lon="4.84553">
        <ele>111.25</ele>
        <time>2026-08-27T07:33:41Z</time>
      </trkpt>
      <trkpt lat="44.32659" lon="4.84543">
        <ele>111.78</ele>
        <time>2026-08-27T07:33:44Z</time>
      </trkpt>
      <trkpt lat="44.32658" lon="4.84542">
        <ele>112.17</ele>
        <time>2026-08-27T07:33:45Z</time>
      </trkpt>
      <trkpt lat="44.32657" lon="4.8454">
        <ele>112.22</ele>
        <time>2026-08-27T07:33:46Z</time>
      </trkpt>
      <trkpt lat="44.32655" lon="4.84538">
        <ele>112.37</ele>
        <time>2026-08-27T07:33:47Z</time>
      </trkpt>
      <trkpt lat="44.32653" lon="4.84537">
        <ele>112.5</ele>
        <time>2026-08-27T07:33:48Z</time>
      </trkpt>
      <trkpt lat="44.32616" lon="4.84532">
        <ele>111.99</ele>
        <time>2026-08-27T07:34:00Z</time>
      </trkpt>
      <trkpt lat="44.32572" lon="4.8452">
        <ele>111.34</ele>
        <time>2026-08-27T07:34:12Z</time>
      </trkpt>
      <trkpt lat="44.32557" lon="4.84518">
        <ele>110.75</ele>
        <time>2026-08-27T07:34:15Z</time>
      </trkpt>
      <trkpt lat="44.32539" lon="4.8451">
        <ele>109.93</ele>
        <time>2026-08-27T07:34:19Z</time>
      </trkpt>
      <trkpt lat="44.32529" lon="4.84508">
        <ele>109.73</ele>
        <time>2026-08-27T07:34:21Z</time>
      </trkpt>
      <trkpt lat="44.32521" lon="4.84504">
        <ele>109.59</ele>
        <time>2026-08-27T07:34:23Z</time>
      </trkpt>
      <trkpt lat="44.32517" lon="4.84502">
        <ele>109.4</ele>
        <time>2026-08-27T07:34:24Z</time>
      </trkpt>
      <trkpt lat="44.32514" lon="4.845">
        <ele>109.46</ele>
        <time>2026-08-27T07:34:25Z</time>
      </trkpt>
      <trkpt lat="44.3251" lon="4.84497">
        <ele>109.48</ele>
        <time>2026-08-27T07:34:26Z</time>
      </trkpt>
      <trkpt lat="44.32508" lon="4.84493">
        <ele>109.18</ele>
        <time>2026-08-27T07:34:27Z</time>
      </trkpt>
      <trkpt lat="44.32506" lon="4.84491">
        <ele>109.12</ele>
        <time>2026-08-27T07:34:28Z</time>
      </trkpt>
      <trkpt lat="44.32505" lon="4.84488">
        <ele>109.04</ele>
        <time>2026-08-27T07:34:29Z</time>
      </trkpt>
      <trkpt lat="44.32504" lon="4.84484">
        <ele>109.18</ele>
        <time>2026-08-27T07:34:30Z</time>
      </trkpt>
      <trkpt lat="44.32502" lon="4.84472">
        <ele>109.29</ele>
        <time>2026-08-27T07:34:33Z</time>
      </trkpt>
      <trkpt lat="44.32503" lon="4.84467">
        <ele>109.24</ele>
        <time>2026-08-27T07:34:34Z</time>
      </trkpt>
      <trkpt lat="44.32505" lon="4.84463">
        <ele>109.45</ele>
        <time>2026-08-27T07:34:35Z</time>
      </trkpt>
      <trkpt lat="44.32506" lon="4.84459">
        <ele>109.48</ele>
        <time>2026-08-27T07:34:36Z</time>
      </trkpt>
      <trkpt lat="44.32506" lon="4.84455">
        <ele>109.58</ele>
        <time>2026-08-27T07:34:37Z</time>
      </trkpt>
      <trkpt lat="44.32503" lon="4.84425">
        <ele>110.52</ele>
        <time>2026-08-27T07:34:45Z</time>
      </trkpt>
      <trkpt lat="44.32459" lon="4.84402">
        <ele>110.07</ele>
        <time>2026-08-27T07:34:59Z</time>
      </trkpt>
      <trkpt lat="44.32382" lon="4.84368">
        <ele>108.91</ele>
        <time>2026-08-27T07:35:19Z</time>
      </trkpt>
      <trkpt lat="44.32329" lon="4.84346">
        <ele>108.47</ele>
        <time>2026-08-27T07:35:33Z</time>
      </trkpt>
      <trkpt lat="44.32325" lon="4.84344">
        <ele>108.43</ele>
        <time>2026-08-27T07:35:34Z</time>
      </trkpt>
      <trkpt lat="44.32271" lon="4.8432">
        <ele>107.24</ele>
        <time>2026-08-27T07:35:48Z</time>
      </trkpt>
      <trkpt lat="44.32269" lon="4.84316">
        <ele>107.21</ele>
        <time>2026-08-27T07:35:49Z</time>
      </trkpt>
      <trkpt lat="44.32268" lon="4.84311">
        <ele>107.1</ele>
        <time>2026-08-27T07:35:50Z</time>
      </trkpt>
      <trkpt lat="44.32268" lon="4.84307">
        <ele>107.1</ele>
        <time>2026-08-27T07:35:51Z</time>
      </trkpt>
      <trkpt lat="44.32268" lon="4.84302">
        <ele>107.13</ele>
        <time>2026-08-27T07:35:52Z</time>
      </trkpt>
      <trkpt lat="44.32268" lon="4.84298">
        <ele>107.08</ele>
        <time>2026-08-27T07:35:53Z</time>
      </trkpt>
      <trkpt lat="44.32269" lon="4.84293">
        <ele>107.52</ele>
        <time>2026-08-27T07:35:54Z</time>
      </trkpt>
      <trkpt lat="44.32278" lon="4.84228">
        <ele>110.23</ele>
        <time>2026-08-27T07:36:10Z</time>
      </trkpt>
      <trkpt lat="44.3227" lon="4.84177">
        <ele>111.5</ele>
        <time>2026-08-27T07:36:24Z</time>
      </trkpt>
      <trkpt lat="44.32264" lon="4.84166">
        <ele>112.68</ele>
        <time>2026-08-27T07:36:28Z</time>
      </trkpt>
      <trkpt lat="44.3225" lon="4.84165">
        <ele>112.87</ele>
        <time>2026-08-27T07:36:34Z</time>
      </trkpt>
      <trkpt lat="44.32236" lon="4.8416">
        <ele>112.23</ele>
        <time>2026-08-27T07:36:41Z</time>
      </trkpt>
      <trkpt lat="44.32228" lon="4.84155">
        <ele>111.67</ele>
        <time>2026-08-27T07:36:45Z</time>
      </trkpt>
      <trkpt lat="44.32226" lon="4.84151">
        <ele>111.79</ele>
        <time>2026-08-27T07:36:47Z</time>
      </trkpt>
      <trkpt lat="44.32214" lon="4.84124">
        <ele>112.52</ele>
        <time>2026-08-27T07:36:57Z</time>
      </trkpt>
      <trkpt lat="44.32214" lon="4.8412">
        <ele>112.5</ele>
        <time>2026-08-27T07:36:58Z</time>
      </trkpt>
      <trkpt lat="44.32212" lon="4.84106">
        <ele>112.82</ele>
        <time>2026-08-27T07:37:02Z</time>
      </trkpt>
      <trkpt lat="44.32199" lon="4.84092">
        <ele>112.5</ele>
        <time>2026-08-27T07:37:08Z</time>
      </trkpt>
      <trkpt lat="44.32194" lon="4.84079">
        <ele>111.58</ele>
        <time>2026-08-27T07:37:15Z</time>
      </trkpt>
      <trkpt lat="44.32178" lon="4.8405">
        <ele>108.3</ele>
        <time>2026-08-27T07:37:25Z</time>
      </trkpt>
      <trkpt lat="44.32167" lon="4.84038">
        <ele>109.12</ele>
        <time>2026-08-27T07:37:32Z</time>
      </trkpt>
      <trkpt lat="44.32157" lon="4.84007">
        <ele>109.24</ele>
        <time>2026-08-27T07:37:42Z</time>
      </trkpt>
      <trkpt lat="44.32153" lon="4.84002">
        <ele>110.58</ele>
        <time>2026-08-27T07:37:44Z</time>
      </trkpt>
      <trkpt lat="44.32149" lon="4.84">
        <ele>111.69</ele>
        <time>2026-08-27T07:37:46Z</time>
      </trkpt>
      <trkpt lat="44.32145" lon="4.83987">
        <ele>111.73</ele>
        <time>2026-08-27T07:37:55Z</time>
      </trkpt>
      <trkpt lat="44.32147" lon="4.83973">
        <ele>110.72</ele>
        <time>2026-08-27T07:38:03Z</time>
      </trkpt>
      <trkpt lat="44.32146" lon="4.83966">
        <ele>110.77</ele>
        <time>2026-08-27T07:38:15Z</time>
      </trkpt>
      <trkpt lat="44.32135" lon="4.8394">
        <ele>111.15</ele>
        <time>2026-08-27T07:38:24Z</time>
      </trkpt>
      <trkpt lat="44.32133" lon="4.83935">
        <ele>111.01</ele>
        <time>2026-08-27T07:38:26Z</time>
      </trkpt>
      <trkpt lat="44.32119" lon="4.83926">
        <ele>110.53</ele>
        <time>2026-08-27T07:38:37Z</time>
      </trkpt>
      <trkpt lat="44.32116" lon="4.83919">
        <ele>110.11</ele>
        <time>2026-08-27T07:38:43Z</time>
      </trkpt>
      <trkpt lat="44.32104" lon="4.83916">
        <ele>109.78</ele>
        <time>2026-08-27T07:38:48Z</time>
      </trkpt>
      <trkpt lat="44.32089" lon="4.83918">
        <ele>107.84</ele>
        <time>2026-08-27T07:38:53Z</time>
      </trkpt>
      <trkpt lat="44.32082" lon="4.83905">
        <ele>104.49</ele>
        <time>2026-08-27T07:38:57Z</time>
      </trkpt>
      <trkpt lat="44.32066" lon="4.83896">
        <ele>103.52</ele>
        <time>2026-08-27T07:39:04Z</time>
      </trkpt>
      <trkpt lat="44.32066" lon="4.83879">
        <ele>103.78</ele>
        <time>2026-08-27T07:39:19Z</time>
      </trkpt>
      <trkpt lat="44.32067" lon="4.83876">
        <ele>103.76</ele>
        <time>2026-08-27T07:39:20Z</time>
      </trkpt>
      <trkpt lat="44.3208" lon="4.83843">
        <ele>104.95</ele>
        <time>2026-08-27T07:39:34Z</time>
      </trkpt>
      <trkpt lat="44.32083" lon="4.83829">
        <ele>105.05</ele>
        <time>2026-08-27T07:39:38Z</time>
      </trkpt>
      <trkpt lat="44.32098" lon="4.83735">
        <ele>104.46</ele>
        <time>2026-08-27T07:39:55Z</time>
      </trkpt>
      <trkpt lat="44.32112" lon="4.83679">
        <ele>104.59</ele>
        <time>2026-08-27T07:40:06Z</time>
      </trkpt>
      <trkpt lat="44.32123" lon="4.8358">
        <ele>101.94</ele>
        <time>2026-08-27T07:40:21Z</time>
      </trkpt>
      <trkpt lat="44.32125" lon="4.83551">
        <ele>100.79</ele>
        <time>2026-08-27T07:40:26Z</time>
      </trkpt>
      <trkpt lat="44.32123" lon="4.83548">
        <ele>100.81</ele>
        <time>2026-08-27T07:40:27Z</time>
      </trkpt>
      <trkpt lat="44.32121" lon="4.83547">
        <ele>100.57</ele>
        <time>2026-08-27T07:40:28Z</time>
      </trkpt>
      <trkpt lat="44.32119" lon="4.83546">
        <ele>100.7</ele>
        <time>2026-08-27T07:40:29Z</time>
      </trkpt>
      <trkpt lat="44.32117" lon="4.83546">
        <ele>100.59</ele>
        <time>2026-08-27T07:40:30Z</time>
      </trkpt>
      <trkpt lat="44.32112" lon="4.83547">
        <ele>100.67</ele>
        <time>2026-08-27T07:40:32Z</time>
      </trkpt>
      <trkpt lat="44.3211" lon="4.83548">
        <ele>100.81</ele>
        <time>2026-08-27T07:40:33Z</time>
      </trkpt>
      <trkpt lat="44.32108" lon="4.8355">
        <ele>100.84</ele>
        <time>2026-08-27T07:40:34Z</time>
      </trkpt>
      <trkpt lat="44.32098" lon="4.83576">
        <ele>103.19</ele>
        <time>2026-08-27T07:40:44Z</time>
      </trkpt>
      <trkpt lat="44.32087" lon="4.83603">
        <ele>105.5</ele>
        <time>2026-08-27T07:40:56Z</time>
      </trkpt>
      <trkpt lat="44.32064" lon="4.83627">
        <ele>107.25</ele>
        <time>2026-08-27T07:41:09Z</time>
      </trkpt>
      <trkpt lat="44.32051" lon="4.83637">
        <ele>107.72</ele>
        <time>2026-08-27T07:41:18Z</time>
      </trkpt>
      <trkpt lat="44.32034" lon="4.8365">
        <ele>108.59</ele>
        <time>2026-08-27T07:41:26Z</time>
      </trkpt>
      <trkpt lat="44.32032" lon="4.83652">
        <ele>108.8</ele>
        <time>2026-08-27T07:41:27Z</time>
      </trkpt>
      <trkpt lat="44.32015" lon="4.83671">
        <ele>110.01</ele>
        <time>2026-08-27T07:41:36Z</time>
      </trkpt>
      <trkpt lat="44.32012" lon="4.83672">
        <ele>109.96</ele>
        <time>2026-08-27T07:41:37Z</time>
      </trkpt>
      <trkpt lat="44.31987" lon="4.83678">
        <ele>112.46</ele>
        <time>2026-08-27T07:41:48Z</time>
      </trkpt>
      <trkpt lat="44.31959" lon="4.83677">
        <ele>114.44</ele>
        <time>2026-08-27T07:42:00Z</time>
      </trkpt>
      <trkpt lat="44.31922" lon="4.83665">
        <ele>115.86</ele>
        <time>2026-08-27T07:42:14Z</time>
      </trkpt>
      <trkpt lat="44.31888" lon="4.83644">
        <ele>115.02</ele>
        <time>2026-08-27T07:42:26Z</time>
      </trkpt>
      <trkpt lat="44.31854" lon="4.83634">
        <ele>114.6</ele>
        <time>2026-08-27T07:42:37Z</time>
      </trkpt>
      <trkpt lat="44.31828" lon="4.83634">
        <ele>115.03</ele>
        <time>2026-08-27T07:42:47Z</time>
      </trkpt>
      <trkpt lat="44.31825" lon="4.83637">
        <ele>115.21</ele>
        <time>2026-08-27T07:42:48Z</time>
      </trkpt>
      <trkpt lat="44.31807" lon="4.83653">
        <ele>115.54</ele>
        <time>2026-08-27T07:42:56Z</time>
      </trkpt>
      <trkpt lat="44.31805" lon="4.83654">
        <ele>115.62</ele>
        <time>2026-08-27T07:42:57Z</time>
      </trkpt>
      <trkpt lat="44.31802" lon="4.83655">
        <ele>115.69</ele>
        <time>2026-08-27T07:42:58Z</time>
      </trkpt>
      <trkpt lat="44.318" lon="4.83656">
        <ele>115.77</ele>
        <time>2026-08-27T07:42:59Z</time>
      </trkpt>
      <trkpt lat="44.31797" lon="4.83657">
        <ele>115.8</ele>
        <time>2026-08-27T07:43:00Z</time>
      </trkpt>
      <trkpt lat="44.31794" lon="4.83658">
        <ele>115.7</ele>
        <time>2026-08-27T07:43:01Z</time>
      </trkpt>
      <trkpt lat="44.3179" lon="4.83659">
        <ele>115.88</ele>
        <time>2026-08-27T07:43:02Z</time>
      </trkpt>
      <trkpt lat="44.31761" lon="4.83677">
        <ele>115.21</ele>
        <time>2026-08-27T07:43:11Z</time>
      </trkpt>
      <trkpt lat="44.31738" lon="4.83698">
        <ele>112.51</ele>
        <time>2026-08-27T07:43:18Z</time>
      </trkpt>
      <trkpt lat="44.31732" lon="4.83702">
        <ele>112.26</ele>
        <time>2026-08-27T07:43:19Z</time>
      </trkpt>
      <trkpt lat="44.31722" lon="4.8371">
        <ele>111.75</ele>
        <time>2026-08-27T07:43:21Z</time>
      </trkpt>
      <trkpt lat="44.31717" lon="4.83713">
        <ele>111.29</ele>
        <time>2026-08-27T07:43:22Z</time>
      </trkpt>
      <trkpt lat="44.31714" lon="4.83716">
        <ele>110.66</ele>
        <time>2026-08-27T07:43:23Z</time>
      </trkpt>
      <trkpt lat="44.31709" lon="4.83718">
        <ele>110.73</ele>
        <time>2026-08-27T07:43:24Z</time>
      </trkpt>
      <trkpt lat="44.31705" lon="4.83719">
        <ele>110.63</ele>
        <time>2026-08-27T07:43:25Z</time>
      </trkpt>
      <trkpt lat="44.31701" lon="4.83719">
        <ele>110.49</ele>
        <time>2026-08-27T07:43:26Z</time>
      </trkpt>
      <trkpt lat="44.31657" lon="4.8373">
        <ele>111.19</ele>
        <time>2026-08-27T07:43:39Z</time>
      </trkpt>
      <trkpt lat="44.31625" lon="4.83736">
        <ele>110.92</ele>
        <time>2026-08-27T07:43:49Z</time>
      </trkpt>
      <trkpt lat="44.31581" lon="4.83741">
        <ele>110.1</ele>
        <time>2026-08-27T07:44:00Z</time>
      </trkpt>
      <trkpt lat="44.31541" lon="4.83741">
        <ele>108.73</ele>
        <time>2026-08-27T07:44:11Z</time>
      </trkpt>
      <trkpt lat="44.31516" lon="4.83738">
        <ele>108.06</ele>
        <time>2026-08-27T07:44:19Z</time>
      </trkpt>
      <trkpt lat="44.31493" lon="4.83716">
        <ele>108.74</ele>
        <time>2026-08-27T07:44:30Z</time>
      </trkpt>
      <trkpt lat="44.31493" lon="4.83715">
        <ele>109.04</ele>
        <time>2026-08-27T07:44:31Z</time>
      </trkpt>
      <trkpt lat="44.31492" lon="4.8371">
        <ele>109.67</ele>
        <time>2026-08-27T07:44:35Z</time>
      </trkpt>
      <trkpt lat="44.31493" lon="4.8371">
        <ele>109.95</ele>
        <time>2026-08-27T07:44:36Z</time>
      </trkpt>
      <trkpt lat="44.31494" lon="4.83709">
        <ele>110.5</ele>
        <time>2026-08-27T07:44:37Z</time>
      </trkpt>
      <trkpt lat="44.31495" lon="4.83707">
        <ele>110.68</ele>
        <time>2026-08-27T07:44:38Z</time>
      </trkpt>
      <trkpt lat="44.31496" lon="4.83706">
        <ele>111.1</ele>
        <time>2026-08-27T07:44:39Z</time>
      </trkpt>
      <trkpt lat="44.31497" lon="4.83706">
        <ele>111.29</ele>
        <time>2026-08-27T07:44:40Z</time>
      </trkpt>
      <trkpt lat="44.31499" lon="4.83705">
        <ele>111.58</ele>
        <time>2026-08-27T07:44:41Z</time>
      </trkpt>
      <trkpt lat="44.315" lon="4.83704">
        <ele>111.84</ele>
        <time>2026-08-27T07:44:42Z</time>
      </trkpt>
      <trkpt lat="44.315" lon="4.83703">
        <ele>112.27</ele>
        <time>2026-08-27T07:44:43Z</time>
      </trkpt>
      <trkpt lat="44.31502" lon="4.83703">
        <ele>112.57</ele>
        <time>2026-08-27T07:44:44Z</time>
      </trkpt>
      <trkpt lat="44.31504" lon="4.83703">
        <ele>112.93</ele>
        <time>2026-08-27T07:44:45Z</time>
      </trkpt>
      <trkpt lat="44.31505" lon="4.83702">
        <ele>113.4</ele>
        <time>2026-08-27T07:44:46Z</time>
      </trkpt>
      <trkpt lat="44.31507" lon="4.83702">
        <ele>113.75</ele>
        <time>2026-08-27T07:44:47Z</time>
      </trkpt>
      <trkpt lat="44.31509" lon="4.83702">
        <ele>114.16</ele>
        <time>2026-08-27T07:44:48Z</time>
      </trkpt>
      <trkpt lat="44.31511" lon="4.83703">
        <ele>114.7</ele>
        <time>2026-08-27T07:44:49Z</time>
      </trkpt>
      <trkpt lat="44.31529" lon="4.83706">
        <ele>117.4</ele>
        <time>2026-08-27T07:45:01Z</time>
      </trkpt>
      <trkpt lat="44.31551" lon="4.83709">
        <ele>118.46</ele>
        <time>2026-08-27T07:45:12Z</time>
      </trkpt>
      <trkpt lat="44.31574" lon="4.83706">
        <ele>120.1</ele>
        <time>2026-08-27T07:45:24Z</time>
      </trkpt>
      <trkpt lat="44.31602" lon="4.83696">
        <ele>122.62</ele>
        <time>2026-08-27T07:45:37Z</time>
      </trkpt>
      <trkpt lat="44.31604" lon="4.83694">
        <ele>122.85</ele>
        <time>2026-08-27T07:45:38Z</time>
      </trkpt>
      <trkpt lat="44.31623" lon="4.83669">
        <ele>125.6</ele>
        <time>2026-08-27T07:45:50Z</time>
      </trkpt>
      <trkpt lat="44.3163" lon="4.83664">
        <ele>126.4</ele>
        <time>2026-08-27T07:45:54Z</time>
      </trkpt>
      <trkpt lat="44.31631" lon="4.83663">
        <ele>126.68</ele>
        <time>2026-08-27T07:45:55Z</time>
      </trkpt>
      <trkpt lat="44.31633" lon="4.83663">
        <ele>126.95</ele>
        <time>2026-08-27T07:45:56Z</time>
      </trkpt>
      <trkpt lat="44.31636" lon="4.83662">
        <ele>127.33</ele>
        <time>2026-08-27T07:45:57Z</time>
      </trkpt>
      <trkpt lat="44.31638" lon="4.83662">
        <ele>127.6</ele>
        <time>2026-08-27T07:45:58Z</time>
      </trkpt>
      <trkpt lat="44.31654" lon="4.83654">
        <ele>129.55</ele>
        <time>2026-08-27T07:46:05Z</time>
      </trkpt>
      <trkpt lat="44.31655" lon="4.83653">
        <ele>129.78</ele>
        <time>2026-08-27T07:46:06Z</time>
      </trkpt>
      <trkpt lat="44.3166" lon="4.83649">
        <ele>129.52</ele>
        <time>2026-08-27T07:46:21Z</time>
      </trkpt>
      <trkpt lat="44.31681" lon="4.8364">
        <ele>126.69</ele>
        <time>2026-08-27T07:46:42Z</time>
      </trkpt>
      <trkpt lat="44.31684" lon="4.83639">
        <ele>126.39</ele>
        <time>2026-08-27T07:46:43Z</time>
      </trkpt>
      <trkpt lat="44.31694" lon="4.83637">
        <ele>124.79</ele>
        <time>2026-08-27T07:46:46Z</time>
      </trkpt>
      <trkpt lat="44.317" lon="4.83622">
        <ele>123.42</ele>
        <time>2026-08-27T07:46:51Z</time>
      </trkpt>
      <trkpt lat="44.31697" lon="4.83609">
        <ele>121.8</ele>
        <time>2026-08-27T07:46:54Z</time>
      </trkpt>
      <trkpt lat="44.31686" lon="4.83588">
        <ele>119.8</ele>
        <time>2026-08-27T07:46:58Z</time>
      </trkpt>
      <trkpt lat="44.31675" lon="4.83574">
        <ele>118.54</ele>
        <time>2026-08-27T07:47:01Z</time>
      </trkpt>
      <trkpt lat="44.31635" lon="4.83539">
        <ele>115.41</ele>
        <time>2026-08-27T07:47:10Z</time>
      </trkpt>
      <trkpt lat="44.31624" lon="4.83532">
        <ele>114.56</ele>
        <time>2026-08-27T07:47:12Z</time>
      </trkpt>
      <trkpt lat="44.31601" lon="4.8352">
        <ele>113.31</ele>
        <time>2026-08-27T07:47:16Z</time>
      </trkpt>
      <trkpt lat="44.3159" lon="4.83513">
        <ele>112.91</ele>
        <time>2026-08-27T07:47:18Z</time>
      </trkpt>
      <trkpt lat="44.31579" lon="4.83507">
        <ele>111.93</ele>
        <time>2026-08-27T07:47:20Z</time>
      </trkpt>
      <trkpt lat="44.31558" lon="4.83507">
        <ele>110.76</ele>
        <time>2026-08-27T07:47:24Z</time>
      </trkpt>
      <trkpt lat="44.31511" lon="4.83528">
        <ele>108.84</ele>
        <time>2026-08-27T07:47:36Z</time>
      </trkpt>
      <trkpt lat="44.31495" lon="4.8354">
        <ele>107.95</ele>
        <time>2026-08-27T07:47:44Z</time>
      </trkpt>
      <trkpt lat="44.3149" lon="4.83539">
        <ele>107.93</ele>
        <time>2026-08-27T07:48:38Z</time>
      </trkpt>
      <trkpt lat="44.3149" lon="4.83539">
        <ele>108.24</ele>
        <time>2026-08-27T07:48:52Z</time>
      </trkpt>
      <trkpt lat="44.31482" lon="4.83546">
        <ele>107.82</ele>
        <time>2026-08-27T07:48:57Z</time>
      </trkpt>
      <trkpt lat="44.31481" lon="4.8355">
        <ele>107.7</ele>
        <time>2026-08-27T07:48:58Z</time>
      </trkpt>
      <trkpt lat="44.31481" lon="4.83553">
        <ele>107.68</ele>
        <time>2026-08-27T07:48:59Z</time>
      </trkpt>
      <trkpt lat="44.31481" lon="4.83563">
        <ele>108.28</ele>
        <time>2026-08-27T07:49:04Z</time>
      </trkpt>
      <trkpt lat="44.31481" lon="4.83565">
        <ele>108.23</ele>
        <time>2026-08-27T07:49:05Z</time>
      </trkpt>
      <trkpt lat="44.31476" lon="4.83611">
        <ele>109.23</ele>
        <time>2026-08-27T07:49:17Z</time>
      </trkpt>
      <trkpt lat="44.3146" lon="4.83653">
        <ele>108.96</ele>
        <time>2026-08-27T07:49:28Z</time>
      </trkpt>
      <trkpt lat="44.31456" lon="4.83657">
        <ele>108.68</ele>
        <time>2026-08-27T07:49:29Z</time>
      </trkpt>
      <trkpt lat="44.31445" lon="4.83666">
        <ele>108.52</ele>
        <time>2026-08-27T07:49:32Z</time>
      </trkpt>
      <trkpt lat="44.31442" lon="4.83669">
        <ele>108.42</ele>
        <time>2026-08-27T07:49:33Z</time>
      </trkpt>
      <trkpt lat="44.3144" lon="4.83673">
        <ele>108.31</ele>
        <time>2026-08-27T07:49:34Z</time>
      </trkpt>
      <trkpt lat="44.31439" lon="4.83678">
        <ele>108.14</ele>
        <time>2026-08-27T07:49:35Z</time>
      </trkpt>
      <trkpt lat="44.31438" lon="4.83683">
        <ele>108.02</ele>
        <time>2026-08-27T07:49:36Z</time>
      </trkpt>
      <trkpt lat="44.31439" lon="4.83705">
        <ele>107.03</ele>
        <time>2026-08-27T07:49:41Z</time>
      </trkpt>
      <trkpt lat="44.31442" lon="4.8371">
        <ele>106.9</ele>
        <time>2026-08-27T07:49:42Z</time>
      </trkpt>
      <trkpt lat="44.31448" lon="4.83718">
        <ele>106.47</ele>
        <time>2026-08-27T07:49:44Z</time>
      </trkpt>
      <trkpt lat="44.31451" lon="4.83721">
        <ele>106.49</ele>
        <time>2026-08-27T07:49:45Z</time>
      </trkpt>
      <trkpt lat="44.31453" lon="4.83724">
        <ele>106.22</ele>
        <time>2026-08-27T07:49:46Z</time>
      </trkpt>
      <trkpt lat="44.31456" lon="4.83728">
        <ele>105.79</ele>
        <time>2026-08-27T07:49:47Z</time>
      </trkpt>
      <trkpt lat="44.31459" lon="4.83733">
        <ele>105.82</ele>
        <time>2026-08-27T07:49:48Z</time>
      </trkpt>
      <trkpt lat="44.31462" lon="4.83738">
        <ele>105.56</ele>
        <time>2026-08-27T07:49:49Z</time>
      </trkpt>
      <trkpt lat="44.31463" lon="4.83742">
        <ele>105.41</ele>
        <time>2026-08-27T07:49:50Z</time>
      </trkpt>
      <trkpt lat="44.31464" lon="4.83746">
        <ele>105.54</ele>
        <time>2026-08-27T07:49:51Z</time>
      </trkpt>
      <trkpt lat="44.31464" lon="4.83749">
        <ele>105.27</ele>
        <time>2026-08-27T07:49:52Z</time>
      </trkpt>
      <trkpt lat="44.31464" lon="4.83753">
        <ele>105.24</ele>
        <time>2026-08-27T07:49:53Z</time>
      </trkpt>
      <trkpt lat="44.31463" lon="4.83756">
        <ele>104.97</ele>
        <time>2026-08-27T07:49:54Z</time>
      </trkpt>
      <trkpt lat="44.31461" lon="4.83758">
        <ele>105.08</ele>
        <time>2026-08-27T07:49:55Z</time>
      </trkpt>
      <trkpt lat="44.31459" lon="4.83759">
        <ele>105.25</ele>
        <time>2026-08-27T07:49:56Z</time>
      </trkpt>
      <trkpt lat="44.31457" lon="4.8376">
        <ele>105.72</ele>
        <time>2026-08-27T07:49:57Z</time>
      </trkpt>
      <trkpt lat="44.31456" lon="4.83759">
        <ele>106.21</ele>
        <time>2026-08-27T07:49:58Z</time>
      </trkpt>
      <trkpt lat="44.31455" lon="4.83759">
        <ele>106.41</ele>
        <time>2026-08-27T07:49:59Z</time>
      </trkpt>
      <trkpt lat="44.31454" lon="4.83758">
        <ele>106.53</ele>
        <time>2026-08-27T07:50:00Z</time>
      </trkpt>
      <trkpt lat="44.31453" lon="4.83758">
        <ele>106.9</ele>
        <time>2026-08-27T07:50:01Z</time>
      </trkpt>
      <trkpt lat="44.31451" lon="4.83759">
        <ele>106.93</ele>
        <time>2026-08-27T07:50:02Z</time>
      </trkpt>
      <trkpt lat="44.31432" lon="4.8377">
        <ele>109.34</ele>
        <time>2026-08-27T07:50:14Z</time>
      </trkpt>
      <trkpt lat="44.31426" lon="4.83774">
        <ele>110.03</ele>
        <time>2026-08-27T07:50:17Z</time>
      </trkpt>
      <trkpt lat="44.31413" lon="4.83806">
        <ele>112.67</ele>
        <time>2026-08-27T07:50:29Z</time>
      </trkpt>
      <trkpt lat="44.31387" lon="4.8383">
        <ele>111.76</ele>
        <time>2026-08-27T07:50:39Z</time>
      </trkpt>
      <trkpt lat="44.31349" lon="4.83852">
        <ele>111.26</ele>
        <time>2026-08-27T07:50:52Z</time>
      </trkpt>
      <trkpt lat="44.31318" lon="4.8388">
        <ele>109.87</ele>
        <time>2026-08-27T07:51:02Z</time>
      </trkpt>
      <trkpt lat="44.31285" lon="4.83915">
        <ele>108.63</ele>
        <time>2026-08-27T07:51:13Z</time>
      </trkpt>
      <trkpt lat="44.31274" lon="4.83923">
        <ele>108.11</ele>
        <time>2026-08-27T07:51:17Z</time>
      </trkpt>
      <trkpt lat="44.31271" lon="4.83924">
        <ele>108.06</ele>
        <time>2026-08-27T07:51:18Z</time>
      </trkpt>
      <trkpt lat="44.31239" lon="4.83925">
        <ele>107.57</ele>
        <time>2026-08-27T07:51:29Z</time>
      </trkpt>
      <trkpt lat="44.31215" lon="4.83922">
        <ele>106.85</ele>
        <time>2026-08-27T07:51:39Z</time>
      </trkpt>
      <trkpt lat="44.31176" lon="4.83923">
        <ele>107.46</ele>
        <time>2026-08-27T07:51:50Z</time>
      </trkpt>
      <trkpt lat="44.31144" lon="4.83917">
        <ele>106.64</ele>
        <time>2026-08-27T07:51:59Z</time>
      </trkpt>
      <trkpt lat="44.31139" lon="4.83917">
        <ele>106.03</ele>
        <time>2026-08-27T07:52:00Z</time>
      </trkpt>
      <trkpt lat="44.31135" lon="4.83918">
        <ele>105.99</ele>
        <time>2026-08-27T07:52:01Z</time>
      </trkpt>
      <trkpt lat="44.31102" lon="4.83918">
        <ele>104.64</ele>
        <time>2026-08-27T07:52:10Z</time>
      </trkpt>
      <trkpt lat="44.31094" lon="4.83916">
        <ele>104.07</ele>
        <time>2026-08-27T07:52:12Z</time>
      </trkpt>
      <trkpt lat="44.3109" lon="4.83913">
        <ele>103.9</ele>
        <time>2026-08-27T07:52:13Z</time>
      </trkpt>
      <trkpt lat="44.31076" lon="4.83906">
        <ele>103.2</ele>
        <time>2026-08-27T07:52:16Z</time>
      </trkpt>
      <trkpt lat="44.31051" lon="4.83902">
        <ele>101.88</ele>
        <time>2026-08-27T07:52:23Z</time>
      </trkpt>
      <trkpt lat="44.31048" lon="4.83901">
        <ele>101.87</ele>
        <time>2026-08-27T07:52:24Z</time>
      </trkpt>
      <trkpt lat="44.31031" lon="4.83895">
        <ele>101.12</ele>
        <time>2026-08-27T07:52:29Z</time>
      </trkpt>
      <trkpt lat="44.31028" lon="4.83897">
        <ele>100.94</ele>
        <time>2026-08-27T07:52:30Z</time>
      </trkpt>
      <trkpt lat="44.31025" lon="4.839">
        <ele>101.09</ele>
        <time>2026-08-27T07:52:31Z</time>
      </trkpt>
      <trkpt lat="44.31013" lon="4.83916">
        <ele>102.76</ele>
        <time>2026-08-27T07:52:37Z</time>
      </trkpt>
      <trkpt lat="44.3101" lon="4.83918">
        <ele>102.99</ele>
        <time>2026-08-27T07:52:38Z</time>
      </trkpt>
      <trkpt lat="44.30981" lon="4.83919">
        <ele>104.68</ele>
        <time>2026-08-27T07:52:48Z</time>
      </trkpt>
      <trkpt lat="44.30978" lon="4.8392">
        <ele>104.74</ele>
        <time>2026-08-27T07:52:49Z</time>
      </trkpt>
      <trkpt lat="44.30976" lon="4.8392">
        <ele>104.89</ele>
        <time>2026-08-27T07:52:50Z</time>
      </trkpt>
      <trkpt lat="44.30973" lon="4.83919">
        <ele>104.78</ele>
        <time>2026-08-27T07:52:51Z</time>
      </trkpt>
      <trkpt lat="44.3097" lon="4.83918">
        <ele>104.78</ele>
        <time>2026-08-27T07:52:52Z</time>
      </trkpt>
      <trkpt lat="44.30967" lon="4.83916">
        <ele>104.71</ele>
        <time>2026-08-27T07:52:53Z</time>
      </trkpt>
      <trkpt lat="44.30963" lon="4.83915">
        <ele>104.63</ele>
        <time>2026-08-27T07:52:54Z</time>
      </trkpt>
      <trkpt lat="44.30926" lon="4.83906">
        <ele>104.23</ele>
        <time>2026-08-27T07:53:07Z</time>
      </trkpt>
      <trkpt lat="44.30886" lon="4.83896">
        <ele>104.41</ele>
        <time>2026-08-27T07:53:20Z</time>
      </trkpt>
      <trkpt lat="44.30846" lon="4.83878">
        <ele>104.81</ele>
        <time>2026-08-27T07:53:32Z</time>
      </trkpt>
      <trkpt lat="44.3083" lon="4.8385">
        <ele>105.2</ele>
        <time>2026-08-27T07:53:39Z</time>
      </trkpt>
      <trkpt lat="44.30826" lon="4.83847">
        <ele>105.06</ele>
        <time>2026-08-27T07:53:40Z</time>
      </trkpt>
      <trkpt lat="44.30823" lon="4.83845">
        <ele>104.9</ele>
        <time>2026-08-27T07:53:41Z</time>
      </trkpt>
      <trkpt lat="44.30767" lon="4.83818">
        <ele>105.11</ele>
        <time>2026-08-27T07:53:56Z</time>
      </trkpt>
      <trkpt lat="44.30757" lon="4.83809">
        <ele>105.96</ele>
        <time>2026-08-27T07:54:00Z</time>
      </trkpt>
      <trkpt lat="44.30756" lon="4.83806">
        <ele>106.18</ele>
        <time>2026-08-27T07:54:01Z</time>
      </trkpt>
      <trkpt lat="44.30756" lon="4.83802">
        <ele>106.31</ele>
        <time>2026-08-27T07:54:02Z</time>
      </trkpt>
      <trkpt lat="44.30756" lon="4.83798">
        <ele>106.36</ele>
        <time>2026-08-27T07:54:03Z</time>
      </trkpt>
      <trkpt lat="44.30757" lon="4.83795">
        <ele>106.43</ele>
        <time>2026-08-27T07:54:04Z</time>
      </trkpt>
      <trkpt lat="44.30758" lon="4.83791">
        <ele>106.72</ele>
        <time>2026-08-27T07:54:05Z</time>
      </trkpt>
      <trkpt lat="44.30766" lon="4.83738">
        <ele>109.65</ele>
        <time>2026-08-27T07:54:18Z</time>
      </trkpt>
      <trkpt lat="44.30765" lon="4.83734">
        <ele>109.63</ele>
        <time>2026-08-27T07:54:19Z</time>
      </trkpt>
      <trkpt lat="44.30755" lon="4.83671">
        <ele>110.04</ele>
        <time>2026-08-27T07:54:35Z</time>
      </trkpt>
      <trkpt lat="44.30747" lon="4.83613">
        <ele>110.47</ele>
        <time>2026-08-27T07:54:48Z</time>
      </trkpt>
      <trkpt lat="44.30741" lon="4.83599">
        <ele>110.88</ele>
        <time>2026-08-27T07:54:52Z</time>
      </trkpt>
      <trkpt lat="44.30738" lon="4.83597">
        <ele>110.72</ele>
        <time>2026-08-27T07:54:53Z</time>
      </trkpt>
      <trkpt lat="44.30696" lon="4.8357">
        <ele>111.95</ele>
        <time>2026-08-27T07:55:07Z</time>
      </trkpt>
      <trkpt lat="44.30664" lon="4.83539">
        <ele>113.06</ele>
        <time>2026-08-27T07:55:19Z</time>
      </trkpt>
      <trkpt lat="44.30664" lon="4.83534">
        <ele>113.31</ele>
        <time>2026-08-27T07:55:20Z</time>
      </trkpt>
      <trkpt lat="44.30665" lon="4.83529">
        <ele>112.99</ele>
        <time>2026-08-27T07:55:21Z</time>
      </trkpt>
      <trkpt lat="44.30667" lon="4.83523">
        <ele>112.9</ele>
        <time>2026-08-27T07:55:22Z</time>
      </trkpt>
      <trkpt lat="44.30669" lon="4.83517">
        <ele>112.51</ele>
        <time>2026-08-27T07:55:23Z</time>
      </trkpt>
      <trkpt lat="44.30672" lon="4.83511">
        <ele>112.18</ele>
        <time>2026-08-27T07:55:24Z</time>
      </trkpt>
      <trkpt lat="44.30678" lon="4.83497">
        <ele>111.22</ele>
        <time>2026-08-27T07:55:26Z</time>
      </trkpt>
      <trkpt lat="44.30685" lon="4.83484">
        <ele>110.59</ele>
        <time>2026-08-27T07:55:28Z</time>
      </trkpt>
      <trkpt lat="44.30686" lon="4.83478">
        <ele>110.47</ele>
        <time>2026-08-27T07:55:29Z</time>
      </trkpt>
      <trkpt lat="44.30686" lon="4.83474">
        <ele>110.17</ele>
        <time>2026-08-27T07:55:30Z</time>
      </trkpt>
      <trkpt lat="44.30685" lon="4.8347">
        <ele>109.98</ele>
        <time>2026-08-27T07:55:31Z</time>
      </trkpt>
      <trkpt lat="44.30683" lon="4.83467">
        <ele>110.03</ele>
        <time>2026-08-27T07:55:32Z</time>
      </trkpt>
      <trkpt lat="44.30681" lon="4.83466">
        <ele>109.98</ele>
        <time>2026-08-27T07:55:33Z</time>
      </trkpt>
      <trkpt lat="44.30679" lon="4.83464">
        <ele>109.92</ele>
        <time>2026-08-27T07:55:34Z</time>
      </trkpt>
      <trkpt lat="44.30644" lon="4.83426">
        <ele>110.39</ele>
        <time>2026-08-27T07:55:48Z</time>
      </trkpt>
      <trkpt lat="44.30601" lon="4.83381">
        <ele>109.15</ele>
        <time>2026-08-27T07:56:03Z</time>
      </trkpt>
      <trkpt lat="44.30585" lon="4.83368">
        <ele>108.56</ele>
        <time>2026-08-27T07:56:09Z</time>
      </trkpt>
      <trkpt lat="44.30584" lon="4.83366">
        <ele>108.3</ele>
        <time>2026-08-27T07:56:11Z</time>
      </trkpt>
      <trkpt lat="44.30586" lon="4.83366">
        <ele>108.18</ele>
        <time>2026-08-27T07:56:12Z</time>
      </trkpt>
      <trkpt lat="44.30611" lon="4.83368">
        <ele>108.58</ele>
        <time>2026-08-27T07:56:22Z</time>
      </trkpt>
      <trkpt lat="44.30647" lon="4.83363">
        <ele>108.89</ele>
        <time>2026-08-27T07:56:34Z</time>
      </trkpt>
      <trkpt lat="44.30682" lon="4.83359">
        <ele>109.34</ele>
        <time>2026-08-27T07:56:45Z</time>
      </trkpt>
      <trkpt lat="44.3069" lon="4.83356">
        <ele>109.7</ele>
        <time>2026-08-27T07:56:48Z</time>
      </trkpt>
      <trkpt lat="44.30691" lon="4.83353">
        <ele>110.01</ele>
        <time>2026-08-27T07:56:49Z</time>
      </trkpt>
      <trkpt lat="44.30693" lon="4.8335">
        <ele>109.95</ele>
        <time>2026-08-27T07:56:50Z</time>
      </trkpt>
      <trkpt lat="44.30694" lon="4.83348">
        <ele>109.96</ele>
        <time>2026-08-27T07:56:51Z</time>
      </trkpt>
      <trkpt lat="44.30697" lon="4.83347">
        <ele>110.02</ele>
        <time>2026-08-27T07:56:52Z</time>
      </trkpt>
      <trkpt lat="44.30698" lon="4.83345">
        <ele>109.99</ele>
        <time>2026-08-27T07:56:53Z</time>
      </trkpt>
      <trkpt lat="44.307" lon="4.83343">
        <ele>109.91</ele>
        <time>2026-08-27T07:56:54Z</time>
      </trkpt>
      <trkpt lat="44.30702" lon="4.83341">
        <ele>109.97</ele>
        <time>2026-08-27T07:56:55Z</time>
      </trkpt>
      <trkpt lat="44.30705" lon="4.8334">
        <ele>109.89</ele>
        <time>2026-08-27T07:56:56Z</time>
      </trkpt>
      <trkpt lat="44.30711" lon="4.83339">
        <ele>109.88</ele>
        <time>2026-08-27T07:56:58Z</time>
      </trkpt>
      <trkpt lat="44.30714" lon="4.83339">
        <ele>109.96</ele>
        <time>2026-08-27T07:56:59Z</time>
      </trkpt>
      <trkpt lat="44.30717" lon="4.83338">
        <ele>110.07</ele>
        <time>2026-08-27T07:57:00Z</time>
      </trkpt>
      <trkpt lat="44.3072" lon="4.83337">
        <ele>109.85</ele>
        <time>2026-08-27T07:57:01Z</time>
      </trkpt>
      <trkpt lat="44.30723" lon="4.83335">
        <ele>109.96</ele>
        <time>2026-08-27T07:57:02Z</time>
      </trkpt>
      <trkpt lat="44.30726" lon="4.83334">
        <ele>110.12</ele>
        <time>2026-08-27T07:57:03Z</time>
      </trkpt>
      <trkpt lat="44.30729" lon="4.83332">
        <ele>109.97</ele>
        <time>2026-08-27T07:57:04Z</time>
      </trkpt>
      <trkpt lat="44.30731" lon="4.8333">
        <ele>110</ele>
        <time>2026-08-27T07:57:05Z</time>
      </trkpt>
      <trkpt lat="44.30765" lon="4.83322">
        <ele>110.64</ele>
        <time>2026-08-27T07:57:16Z</time>
      </trkpt>
      <trkpt lat="44.30802" lon="4.83302">
        <ele>109.72</ele>
        <time>2026-08-27T07:57:27Z</time>
      </trkpt>
      <trkpt lat="44.30804" lon="4.83299">
        <ele>109.33</ele>
        <time>2026-08-27T07:57:28Z</time>
      </trkpt>
      <trkpt lat="44.30806" lon="4.83294">
        <ele>109.15</ele>
        <time>2026-08-27T07:57:29Z</time>
      </trkpt>
      <trkpt lat="44.30807" lon="4.8329">
        <ele>108.69</ele>
        <time>2026-08-27T07:57:30Z</time>
      </trkpt>
      <trkpt lat="44.30808" lon="4.83285">
        <ele>108.52</ele>
        <time>2026-08-27T07:57:31Z</time>
      </trkpt>
      <trkpt lat="44.30808" lon="4.8328">
        <ele>108.21</ele>
        <time>2026-08-27T07:57:32Z</time>
      </trkpt>
      <trkpt lat="44.30809" lon="4.83273">
        <ele>107.79</ele>
        <time>2026-08-27T07:57:34Z</time>
      </trkpt>
      <trkpt lat="44.3082" lon="4.83241">
        <ele>107.44</ele>
        <time>2026-08-27T07:57:45Z</time>
      </trkpt>
      <trkpt lat="44.30822" lon="4.83239">
        <ele>107.35</ele>
        <time>2026-08-27T07:57:46Z</time>
      </trkpt>
      <trkpt lat="44.30824" lon="4.83238">
        <ele>107.31</ele>
        <time>2026-08-27T07:57:47Z</time>
      </trkpt>
      <trkpt lat="44.3084" lon="4.83222">
        <ele>106.76</ele>
        <time>2026-08-27T07:57:57Z</time>
      </trkpt>
      <trkpt lat="44.30854" lon="4.83205">
        <ele>105.75</ele>
        <time>2026-08-27T07:58:05Z</time>
      </trkpt>
      <trkpt lat="44.30868" lon="4.83188">
        <ele>104.3</ele>
        <time>2026-08-27T07:58:10Z</time>
      </trkpt>
      <trkpt lat="44.30873" lon="4.83187">
        <ele>103.9</ele>
        <time>2026-08-27T07:58:11Z</time>
      </trkpt>
      <trkpt lat="44.30877" lon="4.83187">
        <ele>103.67</ele>
        <time>2026-08-27T07:58:12Z</time>
      </trkpt>
      <trkpt lat="44.30914" lon="4.83199">
        <ele>103.29</ele>
        <time>2026-08-27T07:58:24Z</time>
      </trkpt>
      <trkpt lat="44.30929" lon="4.83207">
        <ele>101.73</ele>
        <time>2026-08-27T07:58:31Z</time>
      </trkpt>
      <trkpt lat="44.3093" lon="4.83206">
        <ele>101.06</ele>
        <time>2026-08-27T07:58:32Z</time>
      </trkpt>
      <trkpt lat="44.30933" lon="4.83206">
        <ele>100.02</ele>
        <time>2026-08-27T07:58:33Z</time>
      </trkpt>
      <trkpt lat="44.30935" lon="4.83209">
        <ele>99.58</ele>
        <time>2026-08-27T07:58:34Z</time>
      </trkpt>
      <trkpt lat="44.30937" lon="4.83212">
        <ele>98.96</ele>
        <time>2026-08-27T07:58:35Z</time>
      </trkpt>
      <trkpt lat="44.30938" lon="4.83215">
        <ele>98.26</ele>
        <time>2026-08-27T07:58:36Z</time>
      </trkpt>
      <trkpt lat="44.30938" lon="4.83216">
        <ele>98.24</ele>
        <time>2026-08-27T07:58:37Z</time>
      </trkpt>
      <trkpt lat="44.3094" lon="4.8322">
        <ele>97.68</ele>
        <time>2026-08-27T07:59:03Z</time>
      </trkpt>
      <trkpt lat="44.30943" lon="4.83223">
        <ele>98.55</ele>
        <time>2026-08-27T07:59:27Z</time>
      </trkpt>
      <trkpt lat="44.30944" lon="4.83225">
        <ele>98.64</ele>
        <time>2026-08-27T07:59:28Z</time>
      </trkpt>
      <trkpt lat="44.30946" lon="4.83229">
        <ele>98.67</ele>
        <time>2026-08-27T07:59:29Z</time>
      </trkpt>
      <trkpt lat="44.30947" lon="4.83233">
        <ele>98.72</ele>
        <time>2026-08-27T07:59:30Z</time>
      </trkpt>
      <trkpt lat="44.30947" lon="4.83236">
        <ele>98.96</ele>
        <time>2026-08-27T07:59:31Z</time>
      </trkpt>
      <trkpt lat="44.30948" lon="4.8324">
        <ele>99.02</ele>
        <time>2026-08-27T07:59:32Z</time>
      </trkpt>
      <trkpt lat="44.30952" lon="4.83302">
        <ele>101.67</ele>
        <time>2026-08-27T07:59:48Z</time>
      </trkpt>
      <trkpt lat="44.30941" lon="4.83363">
        <ele>103.81</ele>
        <time>2026-08-27T08:00:04Z</time>
      </trkpt>
      <trkpt lat="44.30949" lon="4.83403">
        <ele>107.22</ele>
        <time>2026-08-27T08:00:16Z</time>
      </trkpt>
      <trkpt lat="44.30955" lon="4.83412">
        <ele>109.37</ele>
        <time>2026-08-27T08:00:20Z</time>
      </trkpt>
      <trkpt lat="44.3096" lon="4.83422">
        <ele>111.3</ele>
        <time>2026-08-27T08:00:24Z</time>
      </trkpt>
      <trkpt lat="44.30971" lon="4.83446">
        <ele>114.51</ele>
        <time>2026-08-27T08:00:34Z</time>
      </trkpt>
      <trkpt lat="44.30989" lon="4.83488">
        <ele>115.01</ele>
        <time>2026-08-27T08:00:49Z</time>
      </trkpt>
      <trkpt lat="44.30997" lon="4.83506">
        <ele>114.25</ele>
        <time>2026-08-27T08:00:54Z</time>
      </trkpt>
      <trkpt lat="44.30999" lon="4.83511">
        <ele>113.7</ele>
        <time>2026-08-27T08:00:55Z</time>
      </trkpt>
      <trkpt lat="44.31001" lon="4.83515">
        <ele>112.88</ele>
        <time>2026-08-27T08:00:56Z</time>
      </trkpt>
      <trkpt lat="44.31008" lon="4.83531">
        <ele>109.52</ele>
        <time>2026-08-27T08:01:00Z</time>
      </trkpt>
      <trkpt lat="44.31014" lon="4.83544">
        <ele>105.95</ele>
        <time>2026-08-27T08:01:04Z</time>
      </trkpt>
      <trkpt lat="44.31016" lon="4.83545">
        <ele>105.06</ele>
        <time>2026-08-27T08:01:05Z</time>
      </trkpt>
      <trkpt lat="44.31019" lon="4.83546">
        <ele>104.17</ele>
        <time>2026-08-27T08:01:06Z</time>
      </trkpt>
      <trkpt lat="44.31022" lon="4.83547">
        <ele>103.99</ele>
        <time>2026-08-27T08:01:07Z</time>
      </trkpt>
      <trkpt lat="44.31024" lon="4.83547">
        <ele>103.89</ele>
        <time>2026-08-27T08:01:08Z</time>
      </trkpt>
      <trkpt lat="44.31027" lon="4.83547">
        <ele>103.79</ele>
        <time>2026-08-27T08:01:09Z</time>
      </trkpt>
      <trkpt lat="44.3103" lon="4.83555">
        <ele>104.08</ele>
        <time>2026-08-27T08:01:20Z</time>
      </trkpt>
      <trkpt lat="44.31053" lon="4.8356">
        <ele>104.38</ele>
        <time>2026-08-27T08:01:29Z</time>
      </trkpt>
      <trkpt lat="44.31067" lon="4.83562">
        <ele>104.66</ele>
        <time>2026-08-27T08:01:35Z</time>
      </trkpt>
      <trkpt lat="44.3107" lon="4.83561">
        <ele>104.96</ele>
        <time>2026-08-27T08:01:36Z</time>
      </trkpt>
      <trkpt lat="44.31072" lon="4.83559">
        <ele>105.59</ele>
        <time>2026-08-27T08:01:37Z</time>
      </trkpt>
      <trkpt lat="44.31074" lon="4.83558">
        <ele>105.79</ele>
        <time>2026-08-27T08:01:38Z</time>
      </trkpt>
      <trkpt lat="44.31076" lon="4.83556">
        <ele>106.04</ele>
        <time>2026-08-27T08:01:39Z</time>
      </trkpt>
      <trkpt lat="44.31105" lon="4.83538">
        <ele>108.68</ele>
        <time>2026-08-27T08:01:51Z</time>
      </trkpt>
      <trkpt lat="44.31135" lon="4.83525">
        <ele>109.77</ele>
        <time>2026-08-27T08:02:03Z</time>
      </trkpt>
      <trkpt lat="44.31147" lon="4.83513">
        <ele>108.73</ele>
        <time>2026-08-27T08:02:08Z</time>
      </trkpt>
      <trkpt lat="44.31149" lon="4.8351">
        <ele>108.37</ele>
        <time>2026-08-27T08:02:09Z</time>
      </trkpt>
      <trkpt lat="44.31149" lon="4.83507">
        <ele>108.06</ele>
        <time>2026-08-27T08:02:10Z</time>
      </trkpt>
      <trkpt lat="44.3115" lon="4.83505">
        <ele>108.08</ele>
        <time>2026-08-27T08:02:11Z</time>
      </trkpt>
      <trkpt lat="44.31151" lon="4.83502">
        <ele>108.21</ele>
        <time>2026-08-27T08:02:14Z</time>
      </trkpt>
      <trkpt lat="44.31155" lon="4.83498">
        <ele>107.19</ele>
        <time>2026-08-27T08:02:17Z</time>
      </trkpt>
      <trkpt lat="44.31158" lon="4.83497">
        <ele>106.59</ele>
        <time>2026-08-27T08:02:18Z</time>
      </trkpt>
      <trkpt lat="44.3116" lon="4.83496">
        <ele>106.32</ele>
        <time>2026-08-27T08:02:19Z</time>
      </trkpt>
      <trkpt lat="44.31162" lon="4.83495">
        <ele>106.21</ele>
        <time>2026-08-27T08:02:20Z</time>
      </trkpt>
      <trkpt lat="44.31165" lon="4.83493">
        <ele>105.93</ele>
        <time>2026-08-27T08:02:21Z</time>
      </trkpt>
      <trkpt lat="44.31167" lon="4.8349">
        <ele>105.77</ele>
        <time>2026-08-27T08:02:22Z</time>
      </trkpt>
      <trkpt lat="44.31177" lon="4.83469">
        <ele>104.89</ele>
        <time>2026-08-27T08:02:31Z</time>
      </trkpt>
      <trkpt lat="44.31177" lon="4.83465">
        <ele>104.57</ele>
        <time>2026-08-27T08:02:32Z</time>
      </trkpt>
      <trkpt lat="44.31178" lon="4.83459">
        <ele>104.19</ele>
        <time>2026-08-27T08:02:33Z</time>
      </trkpt>
      <trkpt lat="44.3118" lon="4.83454">
        <ele>103.81</ele>
        <time>2026-08-27T08:02:34Z</time>
      </trkpt>
      <trkpt lat="44.31182" lon="4.83448">
        <ele>103.26</ele>
        <time>2026-08-27T08:02:35Z</time>
      </trkpt>
      <trkpt lat="44.31184" lon="4.83441">
        <ele>102.63</ele>
        <time>2026-08-27T08:02:36Z</time>
      </trkpt>
      <trkpt lat="44.31186" lon="4.83432">
        <ele>102.16</ele>
        <time>2026-08-27T08:02:37Z</time>
      </trkpt>
      <trkpt lat="44.31191" lon="4.83415">
        <ele>101.41</ele>
        <time>2026-08-27T08:02:39Z</time>
      </trkpt>
      <trkpt lat="44.31201" lon="4.83389">
        <ele>100.47</ele>
        <time>2026-08-27T08:02:42Z</time>
      </trkpt>
      <trkpt lat="44.31205" lon="4.83382">
        <ele>100.26</ele>
        <time>2026-08-27T08:02:43Z</time>
      </trkpt>
      <trkpt lat="44.31212" lon="4.83372">
        <ele>100.44</ele>
        <time>2026-08-27T08:02:45Z</time>
      </trkpt>
      <trkpt lat="44.31215" lon="4.83367">
        <ele>100.58</ele>
        <time>2026-08-27T08:02:46Z</time>
      </trkpt>
      <trkpt lat="44.31228" lon="4.83328">
        <ele>102.09</ele>
        <time>2026-08-27T08:02:57Z</time>
      </trkpt>
      <trkpt lat="44.31229" lon="4.83322">
        <ele>102.88</ele>
        <time>2026-08-27T08:02:59Z</time>
      </trkpt>
      <trkpt lat="44.31228" lon="4.83319">
        <ele>103.06</ele>
        <time>2026-08-27T08:03:00Z</time>
      </trkpt>
      <trkpt lat="44.31227" lon="4.83315">
        <ele>103.21</ele>
        <time>2026-08-27T08:03:01Z</time>
      </trkpt>
      <trkpt lat="44.31226" lon="4.83311">
        <ele>103.11</ele>
        <time>2026-08-27T08:03:02Z</time>
      </trkpt>
      <trkpt lat="44.31226" lon="4.83308">
        <ele>103.29</ele>
        <time>2026-08-27T08:03:03Z</time>
      </trkpt>
      <trkpt lat="44.31226" lon="4.83304">
        <ele>103.37</ele>
        <time>2026-08-27T08:03:04Z</time>
      </trkpt>
      <trkpt lat="44.31221" lon="4.83274">
        <ele>102.89</ele>
        <time>2026-08-27T08:03:12Z</time>
      </trkpt>
      <trkpt lat="44.31221" lon="4.83271">
        <ele>102.62</ele>
        <time>2026-08-27T08:03:13Z</time>
      </trkpt>
      <trkpt lat="44.31222" lon="4.83267">
        <ele>102.39</ele>
        <time>2026-08-27T08:03:14Z</time>
      </trkpt>
      <trkpt lat="44.31222" lon="4.83264">
        <ele>102.23</ele>
        <time>2026-08-27T08:03:15Z</time>
      </trkpt>
      <trkpt lat="44.31221" lon="4.83257">
        <ele>101.96</ele>
        <time>2026-08-27T08:03:19Z</time>
      </trkpt>
      <trkpt lat="44.31221" lon="4.83254">
        <ele>101.66</ele>
        <time>2026-08-27T08:03:20Z</time>
      </trkpt>
      <trkpt lat="44.31221" lon="4.8325">
        <ele>101.42</ele>
        <time>2026-08-27T08:03:21Z</time>
      </trkpt>
      <trkpt lat="44.31222" lon="4.83247">
        <ele>101.17</ele>
        <time>2026-08-27T08:03:22Z</time>
      </trkpt>
      <trkpt lat="44.31223" lon="4.83245">
        <ele>101.16</ele>
        <time>2026-08-27T08:03:23Z</time>
      </trkpt>
      <trkpt lat="44.31224" lon="4.83242">
        <ele>100.99</ele>
        <time>2026-08-27T08:03:24Z</time>
      </trkpt>
      <trkpt lat="44.3124" lon="4.83215">
        <ele>99.83</ele>
        <time>2026-08-27T08:03:33Z</time>
      </trkpt>
      <trkpt lat="44.31247" lon="4.83209">
        <ele>99.62</ele>
        <time>2026-08-27T08:03:37Z</time>
      </trkpt>
      <trkpt lat="44.31252" lon="4.83206">
        <ele>99.13</ele>
        <time>2026-08-27T08:03:39Z</time>
      </trkpt>
      <trkpt lat="44.31271" lon="4.83201">
        <ele>97.83</ele>
        <time>2026-08-27T08:03:43Z</time>
      </trkpt>
      <trkpt lat="44.313" lon="4.83195">
        <ele>96.71</ele>
        <time>2026-08-27T08:03:53Z</time>
      </trkpt>
      <trkpt lat="44.31322" lon="4.83191">
        <ele>96.43</ele>
        <time>2026-08-27T08:04:10Z</time>
      </trkpt>
      <trkpt lat="44.31377" lon="4.83207">
        <ele>94.56</ele>
        <time>2026-08-27T08:04:24Z</time>
      </trkpt>
      <trkpt lat="44.3143" lon="4.83251">
        <ele>95.09</ele>
        <time>2026-08-27T08:04:41Z</time>
      </trkpt>
      <trkpt lat="44.31481" lon="4.83292">
        <ele>94.05</ele>
        <time>2026-08-27T08:04:55Z</time>
      </trkpt>
      <trkpt lat="44.31485" lon="4.83293">
        <ele>93.86</ele>
        <time>2026-08-27T08:04:56Z</time>
      </trkpt>
      <trkpt lat="44.31494" lon="4.83295">
        <ele>93.47</ele>
        <time>2026-08-27T08:04:58Z</time>
      </trkpt>
      <trkpt lat="44.31498" lon="4.83297">
        <ele>93.26</ele>
        <time>2026-08-27T08:04:59Z</time>
      </trkpt>
      <trkpt lat="44.31502" lon="4.833">
        <ele>92.98</ele>
        <time>2026-08-27T08:05:00Z</time>
      </trkpt>
      <trkpt lat="44.31545" lon="4.83355">
        <ele>91.77</ele>
        <time>2026-08-27T08:05:14Z</time>
      </trkpt>
      <trkpt lat="44.31548" lon="4.83359">
        <ele>91.64</ele>
        <time>2026-08-27T08:05:15Z</time>
      </trkpt>
      <trkpt lat="44.31572" lon="4.83389">
        <ele>91.54</ele>
        <time>2026-08-27T08:05:23Z</time>
      </trkpt>
      <trkpt lat="44.31575" lon="4.83392">
        <ele>91.52</ele>
        <time>2026-08-27T08:05:24Z</time>
      </trkpt>
      <trkpt lat="44.31579" lon="4.83395">
        <ele>91.46</ele>
        <time>2026-08-27T08:05:25Z</time>
      </trkpt>
      <trkpt lat="44.31586" lon="4.83401">
        <ele>91.56</ele>
        <time>2026-08-27T08:05:27Z</time>
      </trkpt>
      <trkpt lat="44.31594" lon="4.83407">
        <ele>91.38</ele>
        <time>2026-08-27T08:05:29Z</time>
      </trkpt>
      <trkpt lat="44.31598" lon="4.83409">
        <ele>91.24</ele>
        <time>2026-08-27T08:05:30Z</time>
      </trkpt>
      <trkpt lat="44.31641" lon="4.83428">
        <ele>91.29</ele>
        <time>2026-08-27T08:05:41Z</time>
      </trkpt>
      <trkpt lat="44.31712" lon="4.83438">
        <ele>89.83</ele>
        <time>2026-08-27T08:05:58Z</time>
      </trkpt>
      <trkpt lat="44.31786" lon="4.83431">
        <ele>89.99</ele>
        <time>2026-08-27T08:06:16Z</time>
      </trkpt>
      <trkpt lat="44.31861" lon="4.83402">
        <ele>90.87</ele>
        <time>2026-08-27T08:06:36Z</time>
      </trkpt>
      <trkpt lat="44.31901" lon="4.83361">
        <ele>91.59</ele>
        <time>2026-08-27T08:06:50Z</time>
      </trkpt>
      <trkpt lat="44.31904" lon="4.8334">
        <ele>91.21</ele>
        <time>2026-08-27T08:06:54Z</time>
      </trkpt>
      <trkpt lat="44.31907" lon="4.83282">
        <ele>90.29</ele>
        <time>2026-08-27T08:07:06Z</time>
      </trkpt>
      <trkpt lat="44.31893" lon="4.83233">
        <ele>89.96</ele>
        <time>2026-08-27T08:07:18Z</time>
      </trkpt>
      <trkpt lat="44.31893" lon="4.83225">
        <ele>89.78</ele>
        <time>2026-08-27T08:07:20Z</time>
      </trkpt>
      <trkpt lat="44.31894" lon="4.83222">
        <ele>89.89</ele>
        <time>2026-08-27T08:07:21Z</time>
      </trkpt>
      <trkpt lat="44.31896" lon="4.83221">
        <ele>89.77</ele>
        <time>2026-08-27T08:07:22Z</time>
      </trkpt>
      <trkpt lat="44.31898" lon="4.83221">
        <ele>89.59</ele>
        <time>2026-08-27T08:07:23Z</time>
      </trkpt>
      <trkpt lat="44.319" lon="4.83222">
        <ele>89.8</ele>
        <time>2026-08-27T08:07:24Z</time>
      </trkpt>
      <trkpt lat="44.31902" lon="4.83223">
        <ele>89.65</ele>
        <time>2026-08-27T08:07:25Z</time>
      </trkpt>
      <trkpt lat="44.31904" lon="4.83225">
        <ele>89.69</ele>
        <time>2026-08-27T08:07:26Z</time>
      </trkpt>
      <trkpt lat="44.31938" lon="4.83252">
        <ele>90.18</ele>
        <time>2026-08-27T08:07:39Z</time>
      </trkpt>
      <trkpt lat="44.31955" lon="4.83262">
        <ele>90.55</ele>
        <time>2026-08-27T08:07:45Z</time>
      </trkpt>
      <trkpt lat="44.31958" lon="4.83261">
        <ele>90.64</ele>
        <time>2026-08-27T08:07:46Z</time>
      </trkpt>
      <trkpt lat="44.3196" lon="4.83259">
        <ele>90.76</ele>
        <time>2026-08-27T08:07:47Z</time>
      </trkpt>
      <trkpt lat="44.31963" lon="4.83257">
        <ele>90.92</ele>
        <time>2026-08-27T08:07:48Z</time>
      </trkpt>
      <trkpt lat="44.31965" lon="4.83254">
        <ele>91.03</ele>
        <time>2026-08-27T08:07:49Z</time>
      </trkpt>
      <trkpt lat="44.31967" lon="4.8325">
        <ele>91.43</ele>
        <time>2026-08-27T08:07:50Z</time>
      </trkpt>
      <trkpt lat="44.31969" lon="4.83247">
        <ele>91.48</ele>
        <time>2026-08-27T08:07:51Z</time>
      </trkpt>
      <trkpt lat="44.31976" lon="4.83236">
        <ele>92.21</ele>
        <time>2026-08-27T08:07:54Z</time>
      </trkpt>
      <trkpt lat="44.31979" lon="4.83234">
        <ele>92.29</ele>
        <time>2026-08-27T08:07:55Z</time>
      </trkpt>
      <trkpt lat="44.31981" lon="4.83232">
        <ele>92.69</ele>
        <time>2026-08-27T08:07:56Z</time>
      </trkpt>
      <trkpt lat="44.31983" lon="4.83229">
        <ele>93.05</ele>
        <time>2026-08-27T08:07:57Z</time>
      </trkpt>
      <trkpt lat="44.31984" lon="4.83226">
        <ele>93.62</ele>
        <time>2026-08-27T08:07:58Z</time>
      </trkpt>
      <trkpt lat="44.32009" lon="4.83169">
        <ele>96.21</ele>
        <time>2026-08-27T08:08:16Z</time>
      </trkpt>
      <trkpt lat="44.3204" lon="4.8313">
        <ele>97.62</ele>
        <time>2026-08-27T08:08:31Z</time>
      </trkpt>
      <trkpt lat="44.3207" lon="4.83116">
        <ele>99.21</ele>
        <time>2026-08-27T08:08:43Z</time>
      </trkpt>
      <trkpt lat="44.32117" lon="4.83101">
        <ele>100.68</ele>
        <time>2026-08-27T08:08:59Z</time>
      </trkpt>
      <trkpt lat="44.32139" lon="4.83133">
        <ele>100.85</ele>
        <time>2026-08-27T08:09:09Z</time>
      </trkpt>
      <trkpt lat="44.32139" lon="4.83139">
        <ele>100.29</ele>
        <time>2026-08-27T08:09:10Z</time>
      </trkpt>
      <trkpt lat="44.32141" lon="4.83146">
        <ele>100.34</ele>
        <time>2026-08-27T08:09:11Z</time>
      </trkpt>
      <trkpt lat="44.32143" lon="4.83153">
        <ele>99.58</ele>
        <time>2026-08-27T08:09:12Z</time>
      </trkpt>
      <trkpt lat="44.32145" lon="4.83158">
        <ele>99.13</ele>
        <time>2026-08-27T08:09:13Z</time>
      </trkpt>
      <trkpt lat="44.32148" lon="4.8316">
        <ele>98.64</ele>
        <time>2026-08-27T08:09:14Z</time>
      </trkpt>
      <trkpt lat="44.32151" lon="4.83161">
        <ele>98.24</ele>
        <time>2026-08-27T08:09:15Z</time>
      </trkpt>
      <trkpt lat="44.32153" lon="4.83159">
        <ele>98.2</ele>
        <time>2026-08-27T08:09:16Z</time>
      </trkpt>
      <trkpt lat="44.32156" lon="4.83157">
        <ele>97.8</ele>
        <time>2026-08-27T08:09:17Z</time>
      </trkpt>
      <trkpt lat="44.32158" lon="4.83155">
        <ele>97.32</ele>
        <time>2026-08-27T08:09:18Z</time>
      </trkpt>
      <trkpt lat="44.3216" lon="4.83151">
        <ele>96.31</ele>
        <time>2026-08-27T08:09:19Z</time>
      </trkpt>
      <trkpt lat="44.32162" lon="4.83146">
        <ele>96.04</ele>
        <time>2026-08-27T08:09:20Z</time>
      </trkpt>
      <trkpt lat="44.32165" lon="4.83142">
        <ele>95.46</ele>
        <time>2026-08-27T08:09:21Z</time>
      </trkpt>
      <trkpt lat="44.32168" lon="4.8314">
        <ele>95.2</ele>
        <time>2026-08-27T08:09:22Z</time>
      </trkpt>
      <trkpt lat="44.32172" lon="4.83137">
        <ele>94.95</ele>
        <time>2026-08-27T08:09:23Z</time>
      </trkpt>
      <trkpt lat="44.32174" lon="4.83134">
        <ele>94.73</ele>
        <time>2026-08-27T08:09:24Z</time>
      </trkpt>
      <trkpt lat="44.32176" lon="4.83131">
        <ele>94.78</ele>
        <time>2026-08-27T08:09:25Z</time>
      </trkpt>
      <trkpt lat="44.32177" lon="4.83128">
        <ele>95.01</ele>
        <time>2026-08-27T08:09:26Z</time>
      </trkpt>
      <trkpt lat="44.32178" lon="4.83126">
        <ele>95.06</ele>
        <time>2026-08-27T08:09:27Z</time>
      </trkpt>
      <trkpt lat="44.32179" lon="4.83124">
        <ele>95.25</ele>
        <time>2026-08-27T08:09:28Z</time>
      </trkpt>
      <trkpt lat="44.32183" lon="4.83119">
        <ele>95.5</ele>
        <time>2026-08-27T08:09:43Z</time>
      </trkpt>
      <trkpt lat="44.32185" lon="4.83118">
        <ele>95.42</ele>
        <time>2026-08-27T08:09:44Z</time>
      </trkpt>
      <trkpt lat="44.32186" lon="4.83117">
        <ele>95.15</ele>
        <time>2026-08-27T08:09:45Z</time>
      </trkpt>
      <trkpt lat="44.32189" lon="4.83115">
        <ele>95.02</ele>
        <time>2026-08-27T08:09:46Z</time>
      </trkpt>
      <trkpt lat="44.32191" lon="4.83114">
        <ele>94.47</ele>
        <time>2026-08-27T08:09:47Z</time>
      </trkpt>
      <trkpt lat="44.32195" lon="4.83113">
        <ele>94.41</ele>
        <time>2026-08-27T08:09:48Z</time>
      </trkpt>
      <trkpt lat="44.32199" lon="4.83114">
        <ele>94.31</ele>
        <time>2026-08-27T08:09:49Z</time>
      </trkpt>
      <trkpt lat="44.32203" lon="4.83114">
        <ele>93.96</ele>
        <time>2026-08-27T08:09:50Z</time>
      </trkpt>
      <trkpt lat="44.32207" lon="4.83115">
        <ele>93.39</ele>
        <time>2026-08-27T08:09:51Z</time>
      </trkpt>
      <trkpt lat="44.32212" lon="4.83115">
        <ele>93.02</ele>
        <time>2026-08-27T08:09:52Z</time>
      </trkpt>
      <trkpt lat="44.32217" lon="4.83114">
        <ele>93.02</ele>
        <time>2026-08-27T08:09:53Z</time>
      </trkpt>
      <trkpt lat="44.32221" lon="4.83113">
        <ele>92.69</ele>
        <time>2026-08-27T08:09:54Z</time>
      </trkpt>
      <trkpt lat="44.32232" lon="4.83115">
        <ele>92.28</ele>
        <time>2026-08-27T08:09:58Z</time>
      </trkpt>
      <trkpt lat="44.32233" lon="4.83118">
        <ele>92.15</ele>
        <time>2026-08-27T08:09:59Z</time>
      </trkpt>
      <trkpt lat="44.32233" lon="4.8312">
        <ele>91.96</ele>
        <time>2026-08-27T08:10:00Z</time>
      </trkpt>
      <trkpt lat="44.32233" lon="4.83123">
        <ele>91.71</ele>
        <time>2026-08-27T08:10:01Z</time>
      </trkpt>
      <trkpt lat="44.32233" lon="4.83125">
        <ele>91.56</ele>
        <time>2026-08-27T08:10:02Z</time>
      </trkpt>
      <trkpt lat="44.32233" lon="4.83127">
        <ele>91.32</ele>
        <time>2026-08-27T08:10:03Z</time>
      </trkpt>
      <trkpt lat="44.32233" lon="4.83129">
        <ele>91.33</ele>
        <time>2026-08-27T08:10:04Z</time>
      </trkpt>
      <trkpt lat="44.32233" lon="4.83131">
        <ele>91.21</ele>
        <time>2026-08-27T08:10:05Z</time>
      </trkpt>
      <trkpt lat="44.32232" lon="4.83133">
        <ele>90.93</ele>
        <time>2026-08-27T08:10:06Z</time>
      </trkpt>
      <trkpt lat="44.32227" lon="4.83147">
        <ele>90.64</ele>
        <time>2026-08-27T08:10:12Z</time>
      </trkpt>
      <trkpt lat="44.32227" lon="4.83151">
        <ele>90.6</ele>
        <time>2026-08-27T08:10:13Z</time>
      </trkpt>
      <trkpt lat="44.32228" lon="4.83155">
        <ele>90.3</ele>
        <time>2026-08-27T08:10:14Z</time>
      </trkpt>
      <trkpt lat="44.3223" lon="4.8316">
        <ele>90.36</ele>
        <time>2026-08-27T08:10:15Z</time>
      </trkpt>
      <trkpt lat="44.32231" lon="4.83163">
        <ele>90.34</ele>
        <time>2026-08-27T08:10:16Z</time>
      </trkpt>
      <trkpt lat="44.32233" lon="4.83167">
        <ele>90.32</ele>
        <time>2026-08-27T08:10:17Z</time>
      </trkpt>
      <trkpt lat="44.32235" lon="4.8317">
        <ele>90.06</ele>
        <time>2026-08-27T08:10:18Z</time>
      </trkpt>
      <trkpt lat="44.32237" lon="4.83174">
        <ele>89.89</ele>
        <time>2026-08-27T08:10:19Z</time>
      </trkpt>
      <trkpt lat="44.32239" lon="4.83177">
        <ele>89.8</ele>
        <time>2026-08-27T08:10:20Z</time>
      </trkpt>
      <trkpt lat="44.32241" lon="4.83179">
        <ele>89.67</ele>
        <time>2026-08-27T08:10:21Z</time>
      </trkpt>
      <trkpt lat="44.32243" lon="4.83183">
        <ele>89.65</ele>
        <time>2026-08-27T08:10:22Z</time>
      </trkpt>
      <trkpt lat="44.32245" lon="4.83186">
        <ele>89.64</ele>
        <time>2026-08-27T08:10:23Z</time>
      </trkpt>
      <trkpt lat="44.32247" lon="4.83189">
        <ele>89.66</ele>
        <time>2026-08-27T08:10:24Z</time>
      </trkpt>
      <trkpt lat="44.32248" lon="4.83191">
        <ele>89.47</ele>
        <time>2026-08-27T08:10:25Z</time>
      </trkpt>
      <trkpt lat="44.3225" lon="4.83193">
        <ele>89.49</ele>
        <time>2026-08-27T08:10:26Z</time>
      </trkpt>
      <trkpt lat="44.32252" lon="4.83197">
        <ele>89.39</ele>
        <time>2026-08-27T08:10:27Z</time>
      </trkpt>
      <trkpt lat="44.32257" lon="4.83202">
        <ele>89.2</ele>
        <time>2026-08-27T08:10:30Z</time>
      </trkpt>
      <trkpt lat="44.32258" lon="4.83204">
        <ele>89.24</ele>
        <time>2026-08-27T08:10:31Z</time>
      </trkpt>
      <trkpt lat="44.3226" lon="4.83207">
        <ele>89.08</ele>
        <time>2026-08-27T08:10:32Z</time>
      </trkpt>
      <trkpt lat="44.32262" lon="4.8321">
        <ele>89.23</ele>
        <time>2026-08-27T08:10:33Z</time>
      </trkpt>
      <trkpt lat="44.32264" lon="4.83213">
        <ele>89.1</ele>
        <time>2026-08-27T08:10:34Z</time>
      </trkpt>
      <trkpt lat="44.32266" lon="4.83216">
        <ele>89.09</ele>
        <time>2026-08-27T08:10:35Z</time>
      </trkpt>
      <trkpt lat="44.32268" lon="4.8322">
        <ele>89.06</ele>
        <time>2026-08-27T08:10:36Z</time>
      </trkpt>
      <trkpt lat="44.3227" lon="4.83223">
        <ele>89.1</ele>
        <time>2026-08-27T08:10:37Z</time>
      </trkpt>
      <trkpt lat="44.32272" lon="4.83228">
        <ele>88.98</ele>
        <time>2026-08-27T08:10:38Z</time>
      </trkpt>
      <trkpt lat="44.32287" lon="4.83265">
        <ele>88.39</ele>
        <time>2026-08-27T08:10:47Z</time>
      </trkpt>
      <trkpt lat="44.32305" lon="4.8332">
        <ele>88.03</ele>
        <time>2026-08-27T08:11:00Z</time>
      </trkpt>
      <trkpt lat="44.32304" lon="4.83326">
        <ele>88.32</ele>
        <time>2026-08-27T08:11:02Z</time>
      </trkpt>
      <trkpt lat="44.32302" lon="4.83328">
        <ele>88.34</ele>
        <time>2026-08-27T08:11:03Z</time>
      </trkpt>
      <trkpt lat="44.32301" lon="4.83331">
        <ele>88.46</ele>
        <time>2026-08-27T08:11:04Z</time>
      </trkpt>
      <trkpt lat="44.32301" lon="4.83334">
        <ele>88.48</ele>
        <time>2026-08-27T08:11:05Z</time>
      </trkpt>
      <trkpt lat="44.32301" lon="4.83337">
        <ele>88.4</ele>
        <time>2026-08-27T08:11:06Z</time>
      </trkpt>
      <trkpt lat="44.32301" lon="4.8334">
        <ele>88.47</ele>
        <time>2026-08-27T08:11:07Z</time>
      </trkpt>
      <trkpt lat="44.32302" lon="4.83343">
        <ele>88.46</ele>
        <time>2026-08-27T08:11:08Z</time>
      </trkpt>
      <trkpt lat="44.32302" lon="4.83347">
        <ele>88.42</ele>
        <time>2026-08-27T08:11:09Z</time>
      </trkpt>
      <trkpt lat="44.32302" lon="4.83351">
        <ele>88.43</ele>
        <time>2026-08-27T08:11:10Z</time>
      </trkpt>
      <trkpt lat="44.32303" lon="4.83354">
        <ele>88.43</ele>
        <time>2026-08-27T08:11:11Z</time>
      </trkpt>
      <trkpt lat="44.32303" lon="4.83357">
        <ele>88.46</ele>
        <time>2026-08-27T08:11:12Z</time>
      </trkpt>
      <trkpt lat="44.32304" lon="4.83361">
        <ele>88.43</ele>
        <time>2026-08-27T08:11:13Z</time>
      </trkpt>
      <trkpt lat="44.32305" lon="4.83365">
        <ele>88.53</ele>
        <time>2026-08-27T08:11:14Z</time>
      </trkpt>
      <trkpt lat="44.32326" lon="4.83403">
        <ele>88.51</ele>
        <time>2026-08-27T08:11:26Z</time>
      </trkpt>
      <trkpt lat="44.32357" lon="4.83449">
        <ele>87.95</ele>
        <time>2026-08-27T08:11:42Z</time>
      </trkpt>
      <trkpt lat="44.32366" lon="4.83475">
        <ele>88.87</ele>
        <time>2026-08-27T08:11:50Z</time>
      </trkpt>
      <trkpt lat="44.32368" lon="4.83478">
        <ele>88.88</ele>
        <time>2026-08-27T08:11:51Z</time>
      </trkpt>
      <trkpt lat="44.3237" lon="4.8348">
        <ele>88.88</ele>
        <time>2026-08-27T08:11:52Z</time>
      </trkpt>
      <trkpt lat="44.32371" lon="4.83482">
        <ele>88.72</ele>
        <time>2026-08-27T08:11:53Z</time>
      </trkpt>
      <trkpt lat="44.32373" lon="4.83485">
        <ele>88.8</ele>
        <time>2026-08-27T08:11:54Z</time>
      </trkpt>
      <trkpt lat="44.32374" lon="4.83487">
        <ele>88.68</ele>
        <time>2026-08-27T08:11:55Z</time>
      </trkpt>
      <trkpt lat="44.32375" lon="4.83489">
        <ele>88.71</ele>
        <time>2026-08-27T08:11:56Z</time>
      </trkpt>
      <trkpt lat="44.32378" lon="4.83493">
        <ele>88.78</ele>
        <time>2026-08-27T08:12:00Z</time>
      </trkpt>
      <trkpt lat="44.3238" lon="4.83496">
        <ele>88.65</ele>
        <time>2026-08-27T08:12:01Z</time>
      </trkpt>
      <trkpt lat="44.32383" lon="4.83499">
        <ele>88.72</ele>
        <time>2026-08-27T08:12:02Z</time>
      </trkpt>
      <trkpt lat="44.32386" lon="4.83502">
        <ele>88.75</ele>
        <time>2026-08-27T08:12:03Z</time>
      </trkpt>
      <trkpt lat="44.32389" lon="4.83505">
        <ele>88.67</ele>
        <time>2026-08-27T08:12:04Z</time>
      </trkpt>
      <trkpt lat="44.32423" lon="4.83558">
        <ele>88.3</ele>
        <time>2026-08-27T08:12:18Z</time>
      </trkpt>
      <trkpt lat="44.32429" lon="4.83568">
        <ele>88.22</ele>
        <time>2026-08-27T08:12:27Z</time>
      </trkpt>
      <trkpt lat="44.32431" lon="4.83572">
        <ele>88.41</ele>
        <time>2026-08-27T08:12:35Z</time>
      </trkpt>
      <trkpt lat="44.32431" lon="4.83575">
        <ele>88.71</ele>
        <time>2026-08-27T08:12:36Z</time>
      </trkpt>
      <trkpt lat="44.32432" lon="4.83577">
        <ele>88.81</ele>
        <time>2026-08-27T08:12:37Z</time>
      </trkpt>
      <trkpt lat="44.32434" lon="4.83579">
        <ele>88.99</ele>
        <time>2026-08-27T08:12:38Z</time>
      </trkpt>
      <trkpt lat="44.32435" lon="4.83581">
        <ele>89.03</ele>
        <time>2026-08-27T08:12:39Z</time>
      </trkpt>
      <trkpt lat="44.32455" lon="4.83606">
        <ele>88.91</ele>
        <time>2026-08-27T08:12:49Z</time>
      </trkpt>
      <trkpt lat="44.32483" lon="4.83627">
        <ele>89.04</ele>
        <time>2026-08-27T08:12:59Z</time>
      </trkpt>
      <trkpt lat="44.32515" lon="4.8363">
        <ele>88.61</ele>
        <time>2026-08-27T08:13:09Z</time>
      </trkpt>
      <trkpt lat="44.32523" lon="4.83633">
        <ele>88.75</ele>
        <time>2026-08-27T08:13:20Z</time>
      </trkpt>
      <trkpt lat="44.32524" lon="4.83634">
        <ele>88.62</ele>
        <time>2026-08-27T08:13:23Z</time>
      </trkpt>
      <trkpt lat="44.32527" lon="4.83634">
        <ele>88.67</ele>
        <time>2026-08-27T08:13:24Z</time>
      </trkpt>
      <trkpt lat="44.32549" lon="4.83639">
        <ele>89.06</ele>
        <time>2026-08-27T08:13:32Z</time>
      </trkpt>
      <trkpt lat="44.32559" lon="4.83635">
        <ele>89.41</ele>
        <time>2026-08-27T08:13:36Z</time>
      </trkpt>
      <trkpt lat="44.32561" lon="4.83635">
        <ele>89.61</ele>
        <time>2026-08-27T08:13:37Z</time>
      </trkpt>
      <trkpt lat="44.32563" lon="4.83636">
        <ele>89.89</ele>
        <time>2026-08-27T08:13:38Z</time>
      </trkpt>
      <trkpt lat="44.32564" lon="4.83637">
        <ele>90.15</ele>
        <time>2026-08-27T08:13:39Z</time>
      </trkpt>
      <trkpt lat="44.32566" lon="4.83639">
        <ele>90.4</ele>
        <time>2026-08-27T08:13:40Z</time>
      </trkpt>
      <trkpt lat="44.32571" lon="4.83641">
        <ele>90.46</ele>
        <time>2026-08-27T08:13:43Z</time>
      </trkpt>
      <trkpt lat="44.32574" lon="4.8364">
        <ele>90.67</ele>
        <time>2026-08-27T08:13:44Z</time>
      </trkpt>
      <trkpt lat="44.32575" lon="4.8364">
        <ele>90.62</ele>
        <time>2026-08-27T08:13:45Z</time>
      </trkpt>
      <trkpt lat="44.32577" lon="4.83639">
        <ele>90.68</ele>
        <time>2026-08-27T08:13:46Z</time>
      </trkpt>
      <trkpt lat="44.3258" lon="4.83639">
        <ele>90.74</ele>
        <time>2026-08-27T08:13:47Z</time>
      </trkpt>
      <trkpt lat="44.32582" lon="4.83639">
        <ele>90.88</ele>
        <time>2026-08-27T08:13:48Z</time>
      </trkpt>
      <trkpt lat="44.32604" lon="4.83645">
        <ele>91.36</ele>
        <time>2026-08-27T08:13:56Z</time>
      </trkpt>
      <trkpt lat="44.32606" lon="4.83644">
        <ele>91.57</ele>
        <time>2026-08-27T08:13:57Z</time>
      </trkpt>
      <trkpt lat="44.32609" lon="4.83643">
        <ele>91.5</ele>
        <time>2026-08-27T08:13:58Z</time>
      </trkpt>
      <trkpt lat="44.32612" lon="4.83642">
        <ele>91.63</ele>
        <time>2026-08-27T08:13:59Z</time>
      </trkpt>
      <trkpt lat="44.32615" lon="4.83642">
        <ele>91.69</ele>
        <time>2026-08-27T08:14:00Z</time>
      </trkpt>
      <trkpt lat="44.32618" lon="4.83641">
        <ele>91.7</ele>
        <time>2026-08-27T08:14:01Z</time>
      </trkpt>
      <trkpt lat="44.32621" lon="4.83641">
        <ele>91.99</ele>
        <time>2026-08-27T08:14:02Z</time>
      </trkpt>
      <trkpt lat="44.32624" lon="4.8364">
        <ele>92.07</ele>
        <time>2026-08-27T08:14:03Z</time>
      </trkpt>
      <trkpt lat="44.32626" lon="4.83637">
        <ele>92.14</ele>
        <time>2026-08-27T08:14:04Z</time>
      </trkpt>
      <trkpt lat="44.32648" lon="4.83602">
        <ele>91.3</ele>
        <time>2026-08-27T08:14:15Z</time>
      </trkpt>
      <trkpt lat="44.32659" lon="4.83579">
        <ele>91.34</ele>
        <time>2026-08-27T08:14:22Z</time>
      </trkpt>
      <trkpt lat="44.32661" lon="4.83577">
        <ele>91.23</ele>
        <time>2026-08-27T08:14:23Z</time>
      </trkpt>
      <trkpt lat="44.32685" lon="4.83536">
        <ele>90.04</ele>
        <time>2026-08-27T08:14:36Z</time>
      </trkpt>
      <trkpt lat="44.32707" lon="4.83498">
        <ele>89.8</ele>
        <time>2026-08-27T08:14:47Z</time>
      </trkpt>
      <trkpt lat="44.32715" lon="4.83484">
        <ele>89.66</ele>
        <time>2026-08-27T08:14:51Z</time>
      </trkpt>
      <trkpt lat="44.32715" lon="4.8348">
        <ele>89.45</ele>
        <time>2026-08-27T08:14:52Z</time>
      </trkpt>
      <trkpt lat="44.32731" lon="4.83436">
        <ele>89.21</ele>
        <time>2026-08-27T08:15:03Z</time>
      </trkpt>
      <trkpt lat="44.32741" lon="4.8342">
        <ele>89.37</ele>
        <time>2026-08-27T08:15:09Z</time>
      </trkpt>
      <trkpt lat="44.32743" lon="4.83418">
        <ele>89.19</ele>
        <time>2026-08-27T08:15:10Z</time>
      </trkpt>
      <trkpt lat="44.32744" lon="4.83415">
        <ele>89.13</ele>
        <time>2026-08-27T08:15:11Z</time>
      </trkpt>
      <trkpt lat="44.32747" lon="4.83412">
        <ele>89.1</ele>
        <time>2026-08-27T08:15:12Z</time>
      </trkpt>
      <trkpt lat="44.3275" lon="4.83411">
        <ele>89.09</ele>
        <time>2026-08-27T08:15:13Z</time>
      </trkpt>
      <trkpt lat="44.32752" lon="4.83409">
        <ele>88.95</ele>
        <time>2026-08-27T08:15:14Z</time>
      </trkpt>
      <trkpt lat="44.32761" lon="4.83403">
        <ele>88.8</ele>
        <time>2026-08-27T08:15:18Z</time>
      </trkpt>
      <trkpt lat="44.32769" lon="4.83397">
        <ele>88.83</ele>
        <time>2026-08-27T08:15:21Z</time>
      </trkpt>
      <trkpt lat="44.32772" lon="4.83392">
        <ele>88.99</ele>
        <time>2026-08-27T08:15:22Z</time>
      </trkpt>
      <trkpt lat="44.32779" lon="4.83385">
        <ele>89.28</ele>
        <time>2026-08-27T08:15:25Z</time>
      </trkpt>
      <trkpt lat="44.32789" lon="4.83372">
        <ele>88.77</ele>
        <time>2026-08-27T08:15:29Z</time>
      </trkpt>
      <trkpt lat="44.32793" lon="4.83368">
        <ele>88.84</ele>
        <time>2026-08-27T08:15:30Z</time>
      </trkpt>
      <trkpt lat="44.32796" lon="4.83362">
        <ele>88.97</ele>
        <time>2026-08-27T08:15:31Z</time>
      </trkpt>
      <trkpt lat="44.32798" lon="4.83356">
        <ele>88.95</ele>
        <time>2026-08-27T08:15:32Z</time>
      </trkpt>
      <trkpt lat="44.328" lon="4.83351">
        <ele>89.04</ele>
        <time>2026-08-27T08:15:33Z</time>
      </trkpt>
      <trkpt lat="44.32802" lon="4.83347">
        <ele>88.93</ele>
        <time>2026-08-27T08:15:34Z</time>
      </trkpt>
      <trkpt lat="44.32805" lon="4.83342">
        <ele>88.8</ele>
        <time>2026-08-27T08:15:35Z</time>
      </trkpt>
      <trkpt lat="44.32807" lon="4.83337">
        <ele>88.72</ele>
        <time>2026-08-27T08:15:36Z</time>
      </trkpt>
      <trkpt lat="44.32813" lon="4.83329">
        <ele>88.67</ele>
        <time>2026-08-27T08:15:38Z</time>
      </trkpt>
      <trkpt lat="44.32816" lon="4.83326">
        <ele>88.6</ele>
        <time>2026-08-27T08:15:39Z</time>
      </trkpt>
      <trkpt lat="44.3282" lon="4.83325">
        <ele>88.66</ele>
        <time>2026-08-27T08:15:40Z</time>
      </trkpt>
      <trkpt lat="44.32822" lon="4.83323">
        <ele>88.72</ele>
        <time>2026-08-27T08:15:41Z</time>
      </trkpt>
      <trkpt lat="44.32824" lon="4.83319">
        <ele>88.76</ele>
        <time>2026-08-27T08:15:42Z</time>
      </trkpt>
      <trkpt lat="44.32826" lon="4.83317">
        <ele>88.66</ele>
        <time>2026-08-27T08:15:43Z</time>
      </trkpt>
      <trkpt lat="44.32828" lon="4.83316">
        <ele>88.46</ele>
        <time>2026-08-27T08:15:44Z</time>
      </trkpt>
      <trkpt lat="44.32831" lon="4.83315">
        <ele>88.49</ele>
        <time>2026-08-27T08:15:45Z</time>
      </trkpt>
      <trkpt lat="44.32835" lon="4.83315">
        <ele>88.48</ele>
        <time>2026-08-27T08:15:46Z</time>
      </trkpt>
      <trkpt lat="44.32838" lon="4.83315">
        <ele>88.5</ele>
        <time>2026-08-27T08:15:47Z</time>
      </trkpt>
      <trkpt lat="44.32841" lon="4.83314">
        <ele>88.58</ele>
        <time>2026-08-27T08:15:48Z</time>
      </trkpt>
      <trkpt lat="44.32857" lon="4.83305">
        <ele>88.65</ele>
        <time>2026-08-27T08:15:54Z</time>
      </trkpt>
      <trkpt lat="44.32881" lon="4.83296">
        <ele>89.74</ele>
        <time>2026-08-27T08:16:02Z</time>
      </trkpt>
      <trkpt lat="44.32883" lon="4.83296">
        <ele>89.94</ele>
        <time>2026-08-27T08:16:03Z</time>
      </trkpt>
      <trkpt lat="44.32885" lon="4.83297">
        <ele>90.01</ele>
        <time>2026-08-27T08:16:04Z</time>
      </trkpt>
      <trkpt lat="44.32886" lon="4.83299">
        <ele>89.96</ele>
        <time>2026-08-27T08:16:05Z</time>
      </trkpt>
      <trkpt lat="44.32889" lon="4.83302">
        <ele>90.05</ele>
        <time>2026-08-27T08:16:16Z</time>
      </trkpt>
      <trkpt lat="44.32889" lon="4.83304">
        <ele>90.08</ele>
        <time>2026-08-27T08:16:17Z</time>
      </trkpt>
      <trkpt lat="44.32888" lon="4.83307">
        <ele>90.25</ele>
        <time>2026-08-27T08:16:18Z</time>
      </trkpt>
      <trkpt lat="44.32887" lon="4.83309">
        <ele>90.16</ele>
        <time>2026-08-27T08:16:19Z</time>
      </trkpt>
      <trkpt lat="44.32887" lon="4.83311">
        <ele>90.44</ele>
        <time>2026-08-27T08:16:20Z</time>
      </trkpt>
      <trkpt lat="44.32886" lon="4.83314">
        <ele>90.57</ele>
        <time>2026-08-27T08:16:21Z</time>
      </trkpt>
      <trkpt lat="44.32885" lon="4.83316">
        <ele>90.65</ele>
        <time>2026-08-27T08:16:22Z</time>
      </trkpt>
      <trkpt lat="44.32863" lon="4.83368">
        <ele>91.3</ele>
        <time>2026-08-27T08:16:36Z</time>
      </trkpt>
      <trkpt lat="44.32835" lon="4.83408">
        <ele>91.68</ele>
        <time>2026-08-27T08:16:49Z</time>
      </trkpt>
      <trkpt lat="44.328" lon="4.83463">
        <ele>92.49</ele>
        <time>2026-08-27T08:17:05Z</time>
      </trkpt>
      <trkpt lat="44.3276" lon="4.83519">
        <ele>94.17</ele>
        <time>2026-08-27T08:17:22Z</time>
      </trkpt>
      <trkpt lat="44.3274" lon="4.83571">
        <ele>96.38</ele>
        <time>2026-08-27T08:17:36Z</time>
      </trkpt>
      <trkpt lat="44.32724" lon="4.83636">
        <ele>98.43</ele>
        <time>2026-08-27T08:17:52Z</time>
      </trkpt>
      <trkpt lat="44.32729" lon="4.83686">
        <ele>99.86</ele>
        <time>2026-08-27T08:18:04Z</time>
      </trkpt>
      <trkpt lat="44.3273" lon="4.83689">
        <ele>99.94</ele>
        <time>2026-08-27T08:18:05Z</time>
      </trkpt>
      <trkpt lat="44.32732" lon="4.83692">
        <ele>100.25</ele>
        <time>2026-08-27T08:18:06Z</time>
      </trkpt>
      <trkpt lat="44.32739" lon="4.83701">
        <ele>102.36</ele>
        <time>2026-08-27T08:18:10Z</time>
      </trkpt>
      <trkpt lat="44.3274" lon="4.83704">
        <ele>102.62</ele>
        <time>2026-08-27T08:18:11Z</time>
      </trkpt>
      <trkpt lat="44.32741" lon="4.83707">
        <ele>103.01</ele>
        <time>2026-08-27T08:18:12Z</time>
      </trkpt>
      <trkpt lat="44.32742" lon="4.83709">
        <ele>103.4</ele>
        <time>2026-08-27T08:18:13Z</time>
      </trkpt>
      <trkpt lat="44.32744" lon="4.83712">
        <ele>103.79</ele>
        <time>2026-08-27T08:18:14Z</time>
      </trkpt>
      <trkpt lat="44.32746" lon="4.83713">
        <ele>104.13</ele>
        <time>2026-08-27T08:18:15Z</time>
      </trkpt>
      <trkpt lat="44.32758" lon="4.83716">
        <ele>105.44</ele>
        <time>2026-08-27T08:18:25Z</time>
      </trkpt>
      <trkpt lat="44.3276" lon="4.83715">
        <ele>105.44</ele>
        <time>2026-08-27T08:18:42Z</time>
      </trkpt>
      <trkpt lat="44.32761" lon="4.83713">
        <ele>105.56</ele>
        <time>2026-08-27T08:18:43Z</time>
      </trkpt>
      <trkpt lat="44.32762" lon="4.83711">
        <ele>105.64</ele>
        <time>2026-08-27T08:18:44Z</time>
      </trkpt>
      <trkpt lat="44.32764" lon="4.83707">
        <ele>105.99</ele>
        <time>2026-08-27T08:18:45Z</time>
      </trkpt>
      <trkpt lat="44.32766" lon="4.83704">
        <ele>106.05</ele>
        <time>2026-08-27T08:18:46Z</time>
      </trkpt>
      <trkpt lat="44.32767" lon="4.83701">
        <ele>106.01</ele>
        <time>2026-08-27T08:18:47Z</time>
      </trkpt>
      <trkpt lat="44.32767" lon="4.83698">
        <ele>106.16</ele>
        <time>2026-08-27T08:18:48Z</time>
      </trkpt>
      <trkpt lat="44.32768" lon="4.83695">
        <ele>106.16</ele>
        <time>2026-08-27T08:18:49Z</time>
      </trkpt>
      <trkpt lat="44.32769" lon="4.83692">
        <ele>106.36</ele>
        <time>2026-08-27T08:18:50Z</time>
      </trkpt>
      <trkpt lat="44.32771" lon="4.8369">
        <ele>106.57</ele>
        <time>2026-08-27T08:18:51Z</time>
      </trkpt>
      <trkpt lat="44.32773" lon="4.83687">
        <ele>106.77</ele>
        <time>2026-08-27T08:18:52Z</time>
      </trkpt>
      <trkpt lat="44.32775" lon="4.83685">
        <ele>106.61</ele>
        <time>2026-08-27T08:18:53Z</time>
      </trkpt>
      <trkpt lat="44.32778" lon="4.83683">
        <ele>107.02</ele>
        <time>2026-08-27T08:18:54Z</time>
      </trkpt>
      <trkpt lat="44.3278" lon="4.83681">
        <ele>106.95</ele>
        <time>2026-08-27T08:18:55Z</time>
      </trkpt>
      <trkpt lat="44.32789" lon="4.83674">
        <ele>107.76</ele>
        <time>2026-08-27T08:18:59Z</time>
      </trkpt>
      <trkpt lat="44.3282" lon="4.83659">
        <ele>108.51</ele>
        <time>2026-08-27T08:19:12Z</time>
      </trkpt>
      <trkpt lat="44.32849" lon="4.83627">
        <ele>109.33</ele>
        <time>2026-08-27T08:19:23Z</time>
      </trkpt>
      <trkpt lat="44.32901" lon="4.8358">
        <ele>110.63</ele>
        <time>2026-08-27T08:19:40Z</time>
      </trkpt>
      <trkpt lat="44.32929" lon="4.83548">
        <ele>111.9</ele>
        <time>2026-08-27T08:19:53Z</time>
      </trkpt>
      <trkpt lat="44.32931" lon="4.83546">
        <ele>112.15</ele>
        <time>2026-08-27T08:19:54Z</time>
      </trkpt>
      <trkpt lat="44.32932" lon="4.83542">
        <ele>112.16</ele>
        <time>2026-08-27T08:19:55Z</time>
      </trkpt>
      <trkpt lat="44.32934" lon="4.83539">
        <ele>112.35</ele>
        <time>2026-08-27T08:19:56Z</time>
      </trkpt>
      <trkpt lat="44.32936" lon="4.83537">
        <ele>112.36</ele>
        <time>2026-08-27T08:19:57Z</time>
      </trkpt>
      <trkpt lat="44.32939" lon="4.83535">
        <ele>112.53</ele>
        <time>2026-08-27T08:19:58Z</time>
      </trkpt>
      <trkpt lat="44.3294" lon="4.83531">
        <ele>112.58</ele>
        <time>2026-08-27T08:19:59Z</time>
      </trkpt>
      <trkpt lat="44.32941" lon="4.83528">
        <ele>112.81</ele>
        <time>2026-08-27T08:20:00Z</time>
      </trkpt>
      <trkpt lat="44.32942" lon="4.83524">
        <ele>112.75</ele>
        <time>2026-08-27T08:20:01Z</time>
      </trkpt>
      <trkpt lat="44.32962" lon="4.83474">
        <ele>114.4</ele>
        <time>2026-08-27T08:20:15Z</time>
      </trkpt>
      <trkpt lat="44.32974" lon="4.83441">
        <ele>116.32</ele>
        <time>2026-08-27T08:20:26Z</time>
      </trkpt>
      <trkpt lat="44.32973" lon="4.83407">
        <ele>117.58</ele>
        <time>2026-08-27T08:20:37Z</time>
      </trkpt>
      <trkpt lat="44.32979" lon="4.83372">
        <ele>118.98</ele>
        <time>2026-08-27T08:20:48Z</time>
      </trkpt>
      <trkpt lat="44.33001" lon="4.83328">
        <ele>120.54</ele>
        <time>2026-08-27T08:21:02Z</time>
      </trkpt>
      <trkpt lat="44.33027" lon="4.83285">
        <ele>121.42</ele>
        <time>2026-08-27T08:21:16Z</time>
      </trkpt>
      <trkpt lat="44.33056" lon="4.83236">
        <ele>122.13</ele>
        <time>2026-08-27T08:21:30Z</time>
      </trkpt>
      <trkpt lat="44.33064" lon="4.8318">
        <ele>123.24</ele>
        <time>2026-08-27T08:21:42Z</time>
      </trkpt>
      <trkpt lat="44.33067" lon="4.83138">
        <ele>123.97</ele>
        <time>2026-08-27T08:21:53Z</time>
      </trkpt>
      <trkpt lat="44.33089" lon="4.83108">
        <ele>124.65</ele>
        <time>2026-08-27T08:22:05Z</time>
      </trkpt>
      <trkpt lat="44.33105" lon="4.83069">
        <ele>125</ele>
        <time>2026-08-27T08:22:16Z</time>
      </trkpt>
      <trkpt lat="44.33121" lon="4.83017">
        <ele>125.04</ele>
        <time>2026-08-27T08:22:28Z</time>
      </trkpt>
      <trkpt lat="44.33137" lon="4.82961">
        <ele>124.94</ele>
        <time>2026-08-27T08:22:40Z</time>
      </trkpt>
      <trkpt lat="44.33149" lon="4.82898">
        <ele>124.75</ele>
        <time>2026-08-27T08:22:52Z</time>
      </trkpt>
      <trkpt lat="44.33168" lon="4.82855">
        <ele>124.38</ele>
        <time>2026-08-27T08:23:02Z</time>
      </trkpt>
      <trkpt lat="44.33178" lon="4.82814">
        <ele>123.87</ele>
        <time>2026-08-27T08:23:11Z</time>
      </trkpt>
      <trkpt lat="44.33181" lon="4.82807">
        <ele>123.87</ele>
        <time>2026-08-27T08:23:13Z</time>
      </trkpt>
      <trkpt lat="44.33182" lon="4.82804">
        <ele>123.73</ele>
        <time>2026-08-27T08:23:14Z</time>
      </trkpt>
      <trkpt lat="44.33184" lon="4.82802">
        <ele>123.88</ele>
        <time>2026-08-27T08:23:15Z</time>
      </trkpt>
      <trkpt lat="44.33186" lon="4.82801">
        <ele>123.58</ele>
        <time>2026-08-27T08:23:16Z</time>
      </trkpt>
      <trkpt lat="44.33188" lon="4.82799">
        <ele>123.5</ele>
        <time>2026-08-27T08:23:17Z</time>
      </trkpt>
      <trkpt lat="44.33189" lon="4.82797">
        <ele>123.5</ele>
        <time>2026-08-27T08:23:18Z</time>
      </trkpt>
      <trkpt lat="44.33189" lon="4.82794">
        <ele>123.49</ele>
        <time>2026-08-27T08:23:19Z</time>
      </trkpt>
      <trkpt lat="44.33189" lon="4.82792">
        <ele>123.42</ele>
        <time>2026-08-27T08:23:20Z</time>
      </trkpt>
      <trkpt lat="44.33188" lon="4.82787">
        <ele>123.32</ele>
        <time>2026-08-27T08:23:22Z</time>
      </trkpt>
      <trkpt lat="44.33189" lon="4.82781">
        <ele>123.29</ele>
        <time>2026-08-27T08:23:24Z</time>
      </trkpt>
      <trkpt lat="44.3319" lon="4.82777">
        <ele>122.74</ele>
        <time>2026-08-27T08:23:25Z</time>
      </trkpt>
      <trkpt lat="44.33191" lon="4.82773">
        <ele>122.81</ele>
        <time>2026-08-27T08:23:26Z</time>
      </trkpt>
      <trkpt lat="44.33192" lon="4.82768">
        <ele>122.77</ele>
        <time>2026-08-27T08:23:27Z</time>
      </trkpt>
      <trkpt lat="44.33193" lon="4.82763">
        <ele>122.41</ele>
        <time>2026-08-27T08:23:28Z</time>
      </trkpt>
      <trkpt lat="44.33195" lon="4.82759">
        <ele>122.58</ele>
        <time>2026-08-27T08:23:29Z</time>
      </trkpt>
      <trkpt lat="44.33196" lon="4.82755">
        <ele>122.34</ele>
        <time>2026-08-27T08:23:30Z</time>
      </trkpt>
      <trkpt lat="44.33197" lon="4.8275">
        <ele>122.46</ele>
        <time>2026-08-27T08:23:31Z</time>
      </trkpt>
      <trkpt lat="44.33198" lon="4.82745">
        <ele>122.25</ele>
        <time>2026-08-27T08:23:32Z</time>
      </trkpt>
      <trkpt lat="44.33199" lon="4.82741">
        <ele>122.21</ele>
        <time>2026-08-27T08:23:33Z</time>
      </trkpt>
      <trkpt lat="44.332" lon="4.82736">
        <ele>122.13</ele>
        <time>2026-08-27T08:23:34Z</time>
      </trkpt>
      <trkpt lat="44.332" lon="4.82732">
        <ele>121.98</ele>
        <time>2026-08-27T08:23:35Z</time>
      </trkpt>
      <trkpt lat="44.33201" lon="4.82727">
        <ele>121.89</ele>
        <time>2026-08-27T08:23:36Z</time>
      </trkpt>
      <trkpt lat="44.33201" lon="4.82723">
        <ele>121.73</ele>
        <time>2026-08-27T08:23:37Z</time>
      </trkpt>
      <trkpt lat="44.33205" lon="4.82681">
        <ele>120.65</ele>
        <time>2026-08-27T08:23:46Z</time>
      </trkpt>
      <trkpt lat="44.33206" lon="4.82677">
        <ele>120.57</ele>
        <time>2026-08-27T08:23:47Z</time>
      </trkpt>
      <trkpt lat="44.33205" lon="4.82673">
        <ele>120.48</ele>
        <time>2026-08-27T08:23:48Z</time>
      </trkpt>
      <trkpt lat="44.33205" lon="4.82671">
        <ele>120.71</ele>
        <time>2026-08-27T08:23:49Z</time>
      </trkpt>
      <trkpt lat="44.33204" lon="4.82668">
        <ele>120.72</ele>
        <time>2026-08-27T08:23:50Z</time>
      </trkpt>
      <trkpt lat="44.33204" lon="4.82666">
        <ele>120.52</ele>
        <time>2026-08-27T08:23:51Z</time>
      </trkpt>
      <trkpt lat="44.33206" lon="4.82664">
        <ele>120.57</ele>
        <time>2026-08-27T08:23:52Z</time>
      </trkpt>
      <trkpt lat="44.33207" lon="4.82661">
        <ele>120.38</ele>
        <time>2026-08-27T08:23:53Z</time>
      </trkpt>
      <trkpt lat="44.33209" lon="4.82658">
        <ele>120.27</ele>
        <time>2026-08-27T08:23:54Z</time>
      </trkpt>
      <trkpt lat="44.3321" lon="4.82653">
        <ele>120.26</ele>
        <time>2026-08-27T08:23:55Z</time>
      </trkpt>
      <trkpt lat="44.3321" lon="4.82649">
        <ele>120.04</ele>
        <time>2026-08-27T08:23:56Z</time>
      </trkpt>
      <trkpt lat="44.3321" lon="4.82645">
        <ele>119.96</ele>
        <time>2026-08-27T08:23:57Z</time>
      </trkpt>
      <trkpt lat="44.3321" lon="4.82641">
        <ele>120.04</ele>
        <time>2026-08-27T08:23:58Z</time>
      </trkpt>
      <trkpt lat="44.33209" lon="4.82596">
        <ele>119.16</ele>
        <time>2026-08-27T08:24:07Z</time>
      </trkpt>
      <trkpt lat="44.33214" lon="4.82548">
        <ele>117.35</ele>
        <time>2026-08-27T08:24:17Z</time>
      </trkpt>
      <trkpt lat="44.33215" lon="4.82542">
        <ele>117.41</ele>
        <time>2026-08-27T08:24:18Z</time>
      </trkpt>
      <trkpt lat="44.33215" lon="4.82536">
        <ele>117.11</ele>
        <time>2026-08-27T08:24:19Z</time>
      </trkpt>
      <trkpt lat="44.33216" lon="4.82532">
        <ele>116.93</ele>
        <time>2026-08-27T08:24:20Z</time>
      </trkpt>
      <trkpt lat="44.33217" lon="4.82527">
        <ele>116.44</ele>
        <time>2026-08-27T08:24:21Z</time>
      </trkpt>
      <trkpt lat="44.33219" lon="4.82523">
        <ele>116.41</ele>
        <time>2026-08-27T08:24:22Z</time>
      </trkpt>
      <trkpt lat="44.33221" lon="4.8252">
        <ele>116.07</ele>
        <time>2026-08-27T08:24:23Z</time>
      </trkpt>
      <trkpt lat="44.33223" lon="4.82515">
        <ele>115.67</ele>
        <time>2026-08-27T08:24:24Z</time>
      </trkpt>
      <trkpt lat="44.33226" lon="4.82511">
        <ele>115.55</ele>
        <time>2026-08-27T08:24:25Z</time>
      </trkpt>
      <trkpt lat="44.33229" lon="4.82508">
        <ele>115.48</ele>
        <time>2026-08-27T08:24:26Z</time>
      </trkpt>
      <trkpt lat="44.33242" lon="4.82496">
        <ele>115.2</ele>
        <time>2026-08-27T08:24:31Z</time>
      </trkpt>
      <trkpt lat="44.33245" lon="4.82496">
        <ele>115.23</ele>
        <time>2026-08-27T08:24:32Z</time>
      </trkpt>
      <trkpt lat="44.33248" lon="4.82495">
        <ele>115.27</ele>
        <time>2026-08-27T08:24:33Z</time>
      </trkpt>
      <trkpt lat="44.33251" lon="4.82494">
        <ele>115.48</ele>
        <time>2026-08-27T08:24:34Z</time>
      </trkpt>
      <trkpt lat="44.33254" lon="4.82493">
        <ele>115.4</ele>
        <time>2026-08-27T08:24:35Z</time>
      </trkpt>
      <trkpt lat="44.33257" lon="4.82491">
        <ele>115.54</ele>
        <time>2026-08-27T08:24:36Z</time>
      </trkpt>
      <trkpt lat="44.33274" lon="4.82464">
        <ele>114.83</ele>
        <time>2026-08-27T08:24:45Z</time>
      </trkpt>
      <trkpt lat="44.33281" lon="4.82439">
        <ele>113.45</ele>
        <time>2026-08-27T08:24:49Z</time>
      </trkpt>
      <trkpt lat="44.33284" lon="4.82425">
        <ele>113.24</ele>
        <time>2026-08-27T08:24:51Z</time>
      </trkpt>
      <trkpt lat="44.33285" lon="4.82418">
        <ele>112.65</ele>
        <time>2026-08-27T08:24:52Z</time>
      </trkpt>
      <trkpt lat="44.33285" lon="4.82411">
        <ele>112.44</ele>
        <time>2026-08-27T08:24:53Z</time>
      </trkpt>
      <trkpt lat="44.33283" lon="4.82405">
        <ele>111.85</ele>
        <time>2026-08-27T08:24:54Z</time>
      </trkpt>
      <trkpt lat="44.33282" lon="4.82398">
        <ele>111.5</ele>
        <time>2026-08-27T08:24:55Z</time>
      </trkpt>
      <trkpt lat="44.33281" lon="4.82393">
        <ele>111.02</ele>
        <time>2026-08-27T08:24:56Z</time>
      </trkpt>
      <trkpt lat="44.33282" lon="4.82389">
        <ele>110.72</ele>
        <time>2026-08-27T08:24:57Z</time>
      </trkpt>
      <trkpt lat="44.33282" lon="4.82384">
        <ele>110.21</ele>
        <time>2026-08-27T08:24:58Z</time>
      </trkpt>
      <trkpt lat="44.33283" lon="4.82382">
        <ele>109.72</ele>
        <time>2026-08-27T08:24:59Z</time>
      </trkpt>
      <trkpt lat="44.33284" lon="4.82381">
        <ele>109.49</ele>
        <time>2026-08-27T08:25:00Z</time>
      </trkpt>
      <trkpt lat="44.33286" lon="4.82381">
        <ele>109.26</ele>
        <time>2026-08-27T08:25:01Z</time>
      </trkpt>
      <trkpt lat="44.33288" lon="4.8238">
        <ele>109.07</ele>
        <time>2026-08-27T08:25:02Z</time>
      </trkpt>
      <trkpt lat="44.33312" lon="4.82387">
        <ele>110.58</ele>
        <time>2026-08-27T08:25:12Z</time>
      </trkpt>
      <trkpt lat="44.33339" lon="4.82401">
        <ele>111.95</ele>
        <time>2026-08-27T08:25:25Z</time>
      </trkpt>
      <trkpt lat="44.33385" lon="4.82413">
        <ele>114.31</ele>
        <time>2026-08-27T08:25:40Z</time>
      </trkpt>
      <trkpt lat="44.33413" lon="4.82429">
        <ele>115.49</ele>
        <time>2026-08-27T08:25:50Z</time>
      </trkpt>
      <trkpt lat="44.33437" lon="4.82453">
        <ele>114.71</ele>
        <time>2026-08-27T08:25:57Z</time>
      </trkpt>
      <trkpt lat="44.33445" lon="4.82461">
        <ele>113.79</ele>
        <time>2026-08-27T08:25:59Z</time>
      </trkpt>
      <trkpt lat="44.33449" lon="4.82464">
        <ele>113.46</ele>
        <time>2026-08-27T08:26:00Z</time>
      </trkpt>
      <trkpt lat="44.33454" lon="4.82467">
        <ele>112.79</ele>
        <time>2026-08-27T08:26:01Z</time>
      </trkpt>
      <trkpt lat="44.33478" lon="4.82484">
        <ele>111.57</ele>
        <time>2026-08-27T08:26:06Z</time>
      </trkpt>
      <trkpt lat="44.33497" lon="4.82501">
        <ele>110.86</ele>
        <time>2026-08-27T08:26:10Z</time>
      </trkpt>
      <trkpt lat="44.3355" lon="4.82541">
        <ele>110.18</ele>
        <time>2026-08-27T08:26:23Z</time>
      </trkpt>
      <trkpt lat="44.3358" lon="4.82553">
        <ele>111.26</ele>
        <time>2026-08-27T08:26:34Z</time>
      </trkpt>
      <trkpt lat="44.33606" lon="4.82565">
        <ele>110.42</ele>
        <time>2026-08-27T08:26:44Z</time>
      </trkpt>
      <trkpt lat="44.3361" lon="4.82568">
        <ele>109.85</ele>
        <time>2026-08-27T08:26:45Z</time>
      </trkpt>
      <trkpt lat="44.33614" lon="4.82571">
        <ele>109.58</ele>
        <time>2026-08-27T08:26:46Z</time>
      </trkpt>
      <trkpt lat="44.33618" lon="4.82573">
        <ele>109.64</ele>
        <time>2026-08-27T08:26:47Z</time>
      </trkpt>
      <trkpt lat="44.33628" lon="4.82576">
        <ele>109.14</ele>
        <time>2026-08-27T08:26:49Z</time>
      </trkpt>
      <trkpt lat="44.33647" lon="4.82579">
        <ele>107.13</ele>
        <time>2026-08-27T08:26:54Z</time>
      </trkpt>
      <trkpt lat="44.33648" lon="4.82577">
        <ele>106.75</ele>
        <time>2026-08-27T08:26:55Z</time>
      </trkpt>
      <trkpt lat="44.33649" lon="4.82574">
        <ele>106.59</ele>
        <time>2026-08-27T08:26:56Z</time>
      </trkpt>
      <trkpt lat="44.3365" lon="4.82572">
        <ele>106.25</ele>
        <time>2026-08-27T08:26:57Z</time>
      </trkpt>
      <trkpt lat="44.3366" lon="4.8257">
        <ele>106.13</ele>
        <time>2026-08-27T08:27:05Z</time>
      </trkpt>
      <trkpt lat="44.33663" lon="4.8257">
        <ele>106.05</ele>
        <time>2026-08-27T08:27:06Z</time>
      </trkpt>
      <trkpt lat="44.33665" lon="4.8257">
        <ele>106.16</ele>
        <time>2026-08-27T08:27:07Z</time>
      </trkpt>
      <trkpt lat="44.33668" lon="4.82571">
        <ele>106.44</ele>
        <time>2026-08-27T08:27:08Z</time>
      </trkpt>
      <trkpt lat="44.33671" lon="4.82573">
        <ele>106.55</ele>
        <time>2026-08-27T08:27:09Z</time>
      </trkpt>
      <trkpt lat="44.33674" lon="4.82575">
        <ele>106.65</ele>
        <time>2026-08-27T08:27:10Z</time>
      </trkpt>
      <trkpt lat="44.33704" lon="4.82595">
        <ele>108.93</ele>
        <time>2026-08-27T08:27:21Z</time>
      </trkpt>
      <trkpt lat="44.33735" lon="4.82615">
        <ele>109.17</ele>
        <time>2026-08-27T08:27:32Z</time>
      </trkpt>
      <trkpt lat="44.33739" lon="4.82622">
        <ele>109.16</ele>
        <time>2026-08-27T08:27:34Z</time>
      </trkpt>
      <trkpt lat="44.33739" lon="4.82626">
        <ele>109.06</ele>
        <time>2026-08-27T08:27:35Z</time>
      </trkpt>
      <trkpt lat="44.33739" lon="4.82629">
        <ele>109.09</ele>
        <time>2026-08-27T08:27:36Z</time>
      </trkpt>
      <trkpt lat="44.33738" lon="4.82631">
        <ele>109.05</ele>
        <time>2026-08-27T08:27:37Z</time>
      </trkpt>
      <trkpt lat="44.33739" lon="4.82632">
        <ele>109.27</ele>
        <time>2026-08-27T08:27:38Z</time>
      </trkpt>
      <trkpt lat="44.33741" lon="4.82633">
        <ele>109.4</ele>
        <time>2026-08-27T08:27:39Z</time>
      </trkpt>
      <trkpt lat="44.33743" lon="4.82634">
        <ele>109.37</ele>
        <time>2026-08-27T08:27:40Z</time>
      </trkpt>
      <trkpt lat="44.33748" lon="4.82637">
        <ele>109.06</ele>
        <time>2026-08-27T08:27:42Z</time>
      </trkpt>
      <trkpt lat="44.33749" lon="4.82641">
        <ele>109.03</ele>
        <time>2026-08-27T08:27:44Z</time>
      </trkpt>
      <trkpt lat="44.33747" lon="4.82643">
        <ele>109.35</ele>
        <time>2026-08-27T08:27:45Z</time>
      </trkpt>
      <trkpt lat="44.33746" lon="4.82646">
        <ele>109.54</ele>
        <time>2026-08-27T08:27:46Z</time>
      </trkpt>
      <trkpt lat="44.33746" lon="4.82649">
        <ele>109.72</ele>
        <time>2026-08-27T08:27:47Z</time>
      </trkpt>
      <trkpt lat="44.33745" lon="4.82653">
        <ele>109.77</ele>
        <time>2026-08-27T08:27:48Z</time>
      </trkpt>
      <trkpt lat="44.33744" lon="4.82655">
        <ele>109.97</ele>
        <time>2026-08-27T08:27:49Z</time>
      </trkpt>
      <trkpt lat="44.33742" lon="4.82654">
        <ele>110.16</ele>
        <time>2026-08-27T08:27:51Z</time>
      </trkpt>
      <trkpt lat="44.3374" lon="4.82652">
        <ele>110.19</ele>
        <time>2026-08-27T08:27:52Z</time>
      </trkpt>
      <trkpt lat="44.33738" lon="4.82652">
        <ele>110.23</ele>
        <time>2026-08-27T08:27:53Z</time>
      </trkpt>
      <trkpt lat="44.33735" lon="4.82651">
        <ele>110.34</ele>
        <time>2026-08-27T08:27:54Z</time>
      </trkpt>
      <trkpt lat="44.33732" lon="4.82651">
        <ele>110.26</ele>
        <time>2026-08-27T08:27:55Z</time>
      </trkpt>
      <trkpt lat="44.33731" lon="4.82652">
        <ele>110.5</ele>
        <time>2026-08-27T08:27:56Z</time>
      </trkpt>
      <trkpt lat="44.3373" lon="4.82654">
        <ele>110.36</ele>
        <time>2026-08-27T08:27:57Z</time>
      </trkpt>
      <trkpt lat="44.3373" lon="4.82656">
        <ele>110.42</ele>
        <time>2026-08-27T08:28:02Z</time>
      </trkpt>
      <trkpt lat="44.3373" lon="4.82658">
        <ele>110.46</ele>
        <time>2026-08-27T08:28:03Z</time>
      </trkpt>
      <trkpt lat="44.33731" lon="4.82661">
        <ele>110.45</ele>
        <time>2026-08-27T08:28:04Z</time>
      </trkpt>
      <trkpt lat="44.33732" lon="4.82664">
        <ele>110.63</ele>
        <time>2026-08-27T08:28:05Z</time>
      </trkpt>
      <trkpt lat="44.33733" lon="4.82668">
        <ele>110.72</ele>
        <time>2026-08-27T08:28:06Z</time>
      </trkpt>
      <trkpt lat="44.33734" lon="4.82672">
        <ele>110.87</ele>
        <time>2026-08-27T08:28:07Z</time>
      </trkpt>
      <trkpt lat="44.33737" lon="4.82674">
        <ele>111.02</ele>
        <time>2026-08-27T08:28:08Z</time>
      </trkpt>
      <trkpt lat="44.3374" lon="4.82676">
        <ele>110.91</ele>
        <time>2026-08-27T08:28:09Z</time>
      </trkpt>
      <trkpt lat="44.33743" lon="4.82678">
        <ele>110.88</ele>
        <time>2026-08-27T08:28:10Z</time>
      </trkpt>
      <trkpt lat="44.33758" lon="4.82686">
        <ele>109.92</ele>
        <time>2026-08-27T08:28:18Z</time>
      </trkpt>
      <trkpt lat="44.3376" lon="4.82683">
        <ele>109.62</ele>
        <time>2026-08-27T08:28:19Z</time>
      </trkpt>
      <trkpt lat="44.33761" lon="4.82679">
        <ele>109.48</ele>
        <time>2026-08-27T08:28:20Z</time>
      </trkpt>
      <trkpt lat="44.33763" lon="4.82674">
        <ele>109.34</ele>
        <time>2026-08-27T08:28:21Z</time>
      </trkpt>
      <trkpt lat="44.33765" lon="4.82669">
        <ele>109.03</ele>
        <time>2026-08-27T08:28:22Z</time>
      </trkpt>
      <trkpt lat="44.33766" lon="4.82658">
        <ele>108.32</ele>
        <time>2026-08-27T08:28:24Z</time>
      </trkpt>
      <trkpt lat="44.33767" lon="4.82653">
        <ele>108.14</ele>
        <time>2026-08-27T08:28:25Z</time>
      </trkpt>
      <trkpt lat="44.33772" lon="4.82658">
        <ele>107.23</ele>
        <time>2026-08-27T08:28:31Z</time>
      </trkpt>
      <trkpt lat="44.33773" lon="4.82662">
        <ele>107.53</ele>
        <time>2026-08-27T08:28:32Z</time>
      </trkpt>
      <trkpt lat="44.33774" lon="4.82665">
        <ele>107.71</ele>
        <time>2026-08-27T08:28:33Z</time>
      </trkpt>
      <trkpt lat="44.33775" lon="4.82668">
        <ele>107.52</ele>
        <time>2026-08-27T08:28:34Z</time>
      </trkpt>
      <trkpt lat="44.33777" lon="4.8267">
        <ele>107.73</ele>
        <time>2026-08-27T08:28:35Z</time>
      </trkpt>
      <trkpt lat="44.33778" lon="4.82673">
        <ele>107.59</ele>
        <time>2026-08-27T08:28:36Z</time>
      </trkpt>
      <trkpt lat="44.33778" lon="4.82675">
        <ele>107.54</ele>
        <time>2026-08-27T08:28:37Z</time>
      </trkpt>
      <trkpt lat="44.33778" lon="4.82677">
        <ele>107.49</ele>
        <time>2026-08-27T08:28:38Z</time>
      </trkpt>
      <trkpt lat="44.33777" lon="4.82678">
        <ele>107.52</ele>
        <time>2026-08-27T08:28:39Z</time>
      </trkpt>
      <trkpt lat="44.33776" lon="4.8268">
        <ele>107.64</ele>
        <time>2026-08-27T08:28:40Z</time>
      </trkpt>
      <trkpt lat="44.33774" lon="4.82684">
        <ele>107.87</ele>
        <time>2026-08-27T08:28:46Z</time>
      </trkpt>
      <trkpt lat="44.33773" lon="4.82685">
        <ele>107.87</ele>
        <time>2026-08-27T08:28:47Z</time>
      </trkpt>
      <trkpt lat="44.33771" lon="4.82686">
        <ele>108.02</ele>
        <time>2026-08-27T08:28:48Z</time>
      </trkpt>
      <trkpt lat="44.33768" lon="4.82688">
        <ele>108.51</ele>
        <time>2026-08-27T08:28:49Z</time>
      </trkpt>
      <trkpt lat="44.33766" lon="4.82689">
        <ele>108.5</ele>
        <time>2026-08-27T08:28:50Z</time>
      </trkpt>
      <trkpt lat="44.33764" lon="4.82692">
        <ele>108.88</ele>
        <time>2026-08-27T08:28:51Z</time>
      </trkpt>
      <trkpt lat="44.33762" lon="4.82694">
        <ele>109.18</ele>
        <time>2026-08-27T08:28:52Z</time>
      </trkpt>
      <trkpt lat="44.33742" lon="4.82714">
        <ele>111.13</ele>
        <time>2026-08-27T08:29:02Z</time>
      </trkpt>
      <trkpt lat="44.33741" lon="4.82717">
        <ele>111.17</ele>
        <time>2026-08-27T08:29:03Z</time>
      </trkpt>
      <trkpt lat="44.33739" lon="4.8272">
        <ele>111.37</ele>
        <time>2026-08-27T08:29:04Z</time>
      </trkpt>
      <trkpt lat="44.33737" lon="4.82722">
        <ele>111.91</ele>
        <time>2026-08-27T08:29:05Z</time>
      </trkpt>
      <trkpt lat="44.33736" lon="4.82723">
        <ele>112.02</ele>
        <time>2026-08-27T08:29:06Z</time>
      </trkpt>
      <trkpt lat="44.33736" lon="4.82724">
        <ele>112.16</ele>
        <time>2026-08-27T08:29:07Z</time>
      </trkpt>
      <trkpt lat="44.33737" lon="4.82726">
        <ele>112.21</ele>
        <time>2026-08-27T08:29:08Z</time>
      </trkpt>
      <trkpt lat="44.33738" lon="4.82728">
        <ele>112.15</ele>
        <time>2026-08-27T08:29:09Z</time>
      </trkpt>
      <trkpt lat="44.33739" lon="4.8273">
        <ele>112.19</ele>
        <time>2026-08-27T08:29:10Z</time>
      </trkpt>
      <trkpt lat="44.33744" lon="4.82744">
        <ele>112.16</ele>
        <time>2026-08-27T08:29:22Z</time>
      </trkpt>
      <trkpt lat="44.3377" lon="4.82794">
        <ele>111.76</ele>
        <time>2026-08-27T08:29:36Z</time>
      </trkpt>
      <trkpt lat="44.33792" lon="4.8284">
        <ele>112.64</ele>
        <time>2026-08-27T08:29:50Z</time>
      </trkpt>
      <trkpt lat="44.33809" lon="4.82878">
        <ele>112.89</ele>
        <time>2026-08-27T08:30:03Z</time>
      </trkpt>
      <trkpt lat="44.33827" lon="4.82935">
        <ele>113.57</ele>
        <time>2026-08-27T08:30:18Z</time>
      </trkpt>
      <trkpt lat="44.33842" lon="4.82991">
        <ele>114.66</ele>
        <time>2026-08-27T08:30:34Z</time>
      </trkpt>
      <trkpt lat="44.33848" lon="4.83013">
        <ele>114.95</ele>
        <time>2026-08-27T08:30:41Z</time>
      </trkpt>
      <trkpt lat="44.33848" lon="4.83016">
        <ele>115.32</ele>
        <time>2026-08-27T08:30:42Z</time>
      </trkpt>
      <trkpt lat="44.33839" lon="4.83029">
        <ele>118.51</ele>
        <time>2026-08-27T08:30:49Z</time>
      </trkpt>
      <trkpt lat="44.33841" lon="4.83037">
        <ele>118.73</ele>
        <time>2026-08-27T08:30:55Z</time>
      </trkpt>
      <trkpt lat="44.33842" lon="4.8304">
        <ele>119.11</ele>
        <time>2026-08-27T08:30:56Z</time>
      </trkpt>
      <trkpt lat="44.33847" lon="4.83066">
        <ele>119.39</ele>
        <time>2026-08-27T08:31:07Z</time>
      </trkpt>
      <trkpt lat="44.33848" lon="4.83075">
        <ele>119.11</ele>
        <time>2026-08-27T08:31:10Z</time>
      </trkpt>
      <trkpt lat="44.33841" lon="4.83083">
        <ele>121.14</ele>
        <time>2026-08-27T08:31:15Z</time>
      </trkpt>
      <trkpt lat="44.33835" lon="4.83104">
        <ele>124.69</ele>
        <time>2026-08-27T08:31:25Z</time>
      </trkpt>
      <trkpt lat="44.33831" lon="4.83127">
        <ele>127.27</ele>
        <time>2026-08-27T08:31:35Z</time>
      </trkpt>
      <trkpt lat="44.33834" lon="4.8314">
        <ele>126.12</ele>
        <time>2026-08-27T08:31:40Z</time>
      </trkpt>
      <trkpt lat="44.33835" lon="4.83148">
        <ele>125.9</ele>
        <time>2026-08-27T08:31:50Z</time>
      </trkpt>
      <trkpt lat="44.3384" lon="4.83157">
        <ele>125.17</ele>
        <time>2026-08-27T08:31:54Z</time>
      </trkpt>
      <trkpt lat="44.33845" lon="4.83161">
        <ele>124.46</ele>
        <time>2026-08-27T08:31:57Z</time>
      </trkpt>
      <trkpt lat="44.33851" lon="4.83172">
        <ele>122.42</ele>
        <time>2026-08-27T08:32:00Z</time>
      </trkpt>
      <trkpt lat="44.33866" lon="4.83192">
        <ele>119.66</ele>
        <time>2026-08-27T08:32:05Z</time>
      </trkpt>
      <trkpt lat="44.33867" lon="4.83195">
        <ele>119.52</ele>
        <time>2026-08-27T08:32:06Z</time>
      </trkpt>
      <trkpt lat="44.33869" lon="4.83201">
        <ele>119.18</ele>
        <time>2026-08-27T08:32:12Z</time>
      </trkpt>
      <trkpt lat="44.33871" lon="4.83201">
        <ele>119.1</ele>
        <time>2026-08-27T08:32:13Z</time>
      </trkpt>
      <trkpt lat="44.33873" lon="4.83202">
        <ele>118.94</ele>
        <time>2026-08-27T08:32:14Z</time>
      </trkpt>
      <trkpt lat="44.33876" lon="4.83203">
        <ele>118.33</ele>
        <time>2026-08-27T08:32:15Z</time>
      </trkpt>
      <trkpt lat="44.33878" lon="4.83206">
        <ele>117.89</ele>
        <time>2026-08-27T08:32:16Z</time>
      </trkpt>
      <trkpt lat="44.3388" lon="4.83209">
        <ele>117.63</ele>
        <time>2026-08-27T08:32:17Z</time>
      </trkpt>
      <trkpt lat="44.33881" lon="4.83212">
        <ele>117.51</ele>
        <time>2026-08-27T08:32:18Z</time>
      </trkpt>
      <trkpt lat="44.33882" lon="4.83214">
        <ele>117.39</ele>
        <time>2026-08-27T08:32:19Z</time>
      </trkpt>
      <trkpt lat="44.33884" lon="4.83217">
        <ele>117.22</ele>
        <time>2026-08-27T08:32:20Z</time>
      </trkpt>
      <trkpt lat="44.33886" lon="4.83224">
        <ele>116.15</ele>
        <time>2026-08-27T08:32:22Z</time>
      </trkpt>
      <trkpt lat="44.33886" lon="4.83228">
        <ele>115.52</ele>
        <time>2026-08-27T08:32:23Z</time>
      </trkpt>
      <trkpt lat="44.33886" lon="4.83231">
        <ele>115.4</ele>
        <time>2026-08-27T08:32:24Z</time>
      </trkpt>
      <trkpt lat="44.33879" lon="4.83248">
        <ele>118.93</ele>
        <time>2026-08-27T08:32:30Z</time>
      </trkpt>
      <trkpt lat="44.33878" lon="4.83256">
        <ele>118.99</ele>
        <time>2026-08-27T08:32:35Z</time>
      </trkpt>
      <trkpt lat="44.33879" lon="4.83265">
        <ele>118.03</ele>
        <time>2026-08-27T08:32:37Z</time>
      </trkpt>
      <trkpt lat="44.3388" lon="4.83271">
        <ele>117.77</ele>
        <time>2026-08-27T08:32:38Z</time>
      </trkpt>
      <trkpt lat="44.3388" lon="4.83275">
        <ele>118.15</ele>
        <time>2026-08-27T08:32:39Z</time>
      </trkpt>
      <trkpt lat="44.3388" lon="4.83279">
        <ele>118.62</ele>
        <time>2026-08-27T08:32:40Z</time>
      </trkpt>
      <trkpt lat="44.33881" lon="4.83282">
        <ele>118.87</ele>
        <time>2026-08-27T08:32:41Z</time>
      </trkpt>
      <trkpt lat="44.33883" lon="4.83299">
        <ele>118.93</ele>
        <time>2026-08-27T08:32:45Z</time>
      </trkpt>
      <trkpt lat="44.33883" lon="4.83304">
        <ele>119.11</ele>
        <time>2026-08-27T08:32:46Z</time>
      </trkpt>
      <trkpt lat="44.33882" lon="4.83307">
        <ele>119.43</ele>
        <time>2026-08-27T08:32:47Z</time>
      </trkpt>
      <trkpt lat="44.33881" lon="4.83311">
        <ele>119.64</ele>
        <time>2026-08-27T08:32:48Z</time>
      </trkpt>
      <trkpt lat="44.33881" lon="4.83314">
        <ele>119.83</ele>
        <time>2026-08-27T08:32:49Z</time>
      </trkpt>
      <trkpt lat="44.33882" lon="4.83318">
        <ele>119.5</ele>
        <time>2026-08-27T08:32:50Z</time>
      </trkpt>
      <trkpt lat="44.33884" lon="4.83325">
        <ele>118.85</ele>
        <time>2026-08-27T08:32:51Z</time>
      </trkpt>
      <trkpt lat="44.33885" lon="4.83331">
        <ele>118.71</ele>
        <time>2026-08-27T08:32:52Z</time>
      </trkpt>
      <trkpt lat="44.33887" lon="4.83335">
        <ele>118.9</ele>
        <time>2026-08-27T08:32:53Z</time>
      </trkpt>
      <trkpt lat="44.33889" lon="4.83339">
        <ele>118.8</ele>
        <time>2026-08-27T08:32:54Z</time>
      </trkpt>
      <trkpt lat="44.33891" lon="4.83343">
        <ele>118.28</ele>
        <time>2026-08-27T08:32:55Z</time>
      </trkpt>
      <trkpt lat="44.33891" lon="4.8335">
        <ele>117.91</ele>
        <time>2026-08-27T08:32:56Z</time>
      </trkpt>
      <trkpt lat="44.33891" lon="4.83357">
        <ele>117.32</ele>
        <time>2026-08-27T08:32:57Z</time>
      </trkpt>
      <trkpt lat="44.33892" lon="4.83363">
        <ele>117.55</ele>
        <time>2026-08-27T08:32:58Z</time>
      </trkpt>
      <trkpt lat="44.33893" lon="4.83368">
        <ele>118.23</ele>
        <time>2026-08-27T08:32:59Z</time>
      </trkpt>
      <trkpt lat="44.33895" lon="4.83372">
        <ele>118.91</ele>
        <time>2026-08-27T08:33:00Z</time>
      </trkpt>
      <trkpt lat="44.33897" lon="4.83376">
        <ele>119.13</ele>
        <time>2026-08-27T08:33:01Z</time>
      </trkpt>
      <trkpt lat="44.339" lon="4.83382">
        <ele>118.75</ele>
        <time>2026-08-27T08:33:02Z</time>
      </trkpt>
      <trkpt lat="44.33904" lon="4.83395">
        <ele>118.06</ele>
        <time>2026-08-27T08:33:04Z</time>
      </trkpt>
      <trkpt lat="44.33905" lon="4.834">
        <ele>118.21</ele>
        <time>2026-08-27T08:33:05Z</time>
      </trkpt>
      <trkpt lat="44.33906" lon="4.83405">
        <ele>118.41</ele>
        <time>2026-08-27T08:33:06Z</time>
      </trkpt>
      <trkpt lat="44.33911" lon="4.83444">
        <ele>117.9</ele>
        <time>2026-08-27T08:33:14Z</time>
      </trkpt>
      <trkpt lat="44.33912" lon="4.83451">
        <ele>117.66</ele>
        <time>2026-08-27T08:33:15Z</time>
      </trkpt>
      <trkpt lat="44.33912" lon="4.83467">
        <ele>118.82</ele>
        <time>2026-08-27T08:33:19Z</time>
      </trkpt>
      <trkpt lat="44.33911" lon="4.83471">
        <ele>119</ele>
        <time>2026-08-27T08:33:20Z</time>
      </trkpt>
      <trkpt lat="44.3391" lon="4.83474">
        <ele>119.19</ele>
        <time>2026-08-27T08:33:21Z</time>
      </trkpt>
      <trkpt lat="44.3391" lon="4.83478">
        <ele>119.4</ele>
        <time>2026-08-27T08:33:22Z</time>
      </trkpt>
      <trkpt lat="44.33911" lon="4.83481">
        <ele>119.37</ele>
        <time>2026-08-27T08:33:23Z</time>
      </trkpt>
      <trkpt lat="44.33913" lon="4.83485">
        <ele>119.02</ele>
        <time>2026-08-27T08:33:24Z</time>
      </trkpt>
      <trkpt lat="44.33914" lon="4.8349">
        <ele>118.82</ele>
        <time>2026-08-27T08:33:25Z</time>
      </trkpt>
      <trkpt lat="44.33914" lon="4.83494">
        <ele>118.91</ele>
        <time>2026-08-27T08:33:26Z</time>
      </trkpt>
      <trkpt lat="44.33913" lon="4.83499">
        <ele>119.04</ele>
        <time>2026-08-27T08:33:27Z</time>
      </trkpt>
      <trkpt lat="44.33911" lon="4.83503">
        <ele>119.28</ele>
        <time>2026-08-27T08:33:28Z</time>
      </trkpt>
      <trkpt lat="44.33908" lon="4.83505">
        <ele>119.8</ele>
        <time>2026-08-27T08:33:29Z</time>
      </trkpt>
      <trkpt lat="44.33906" lon="4.83507">
        <ele>120.19</ele>
        <time>2026-08-27T08:33:30Z</time>
      </trkpt>
      <trkpt lat="44.33904" lon="4.83508">
        <ele>120.62</ele>
        <time>2026-08-27T08:33:31Z</time>
      </trkpt>
      <trkpt lat="44.33901" lon="4.83509">
        <ele>120.76</ele>
        <time>2026-08-27T08:33:32Z</time>
      </trkpt>
      <trkpt lat="44.339" lon="4.83512">
        <ele>121.18</ele>
        <time>2026-08-27T08:33:33Z</time>
      </trkpt>
      <trkpt lat="44.33898" lon="4.83515">
        <ele>121.42</ele>
        <time>2026-08-27T08:33:34Z</time>
      </trkpt>
      <trkpt lat="44.33895" lon="4.83536">
        <ele>121.94</ele>
        <time>2026-08-27T08:33:43Z</time>
      </trkpt>
      <trkpt lat="44.33896" lon="4.83538">
        <ele>121.64</ele>
        <time>2026-08-27T08:33:51Z</time>
      </trkpt>
      <trkpt lat="44.33904" lon="4.83545">
        <ele>120.52</ele>
        <time>2026-08-27T08:33:57Z</time>
      </trkpt>
      <trkpt lat="44.33908" lon="4.83547">
        <ele>120.12</ele>
        <time>2026-08-27T08:33:58Z</time>
      </trkpt>
      <trkpt lat="44.33912" lon="4.83547">
        <ele>119.53</ele>
        <time>2026-08-27T08:33:59Z</time>
      </trkpt>
      <trkpt lat="44.33915" lon="4.83544">
        <ele>119.16</ele>
        <time>2026-08-27T08:34:00Z</time>
      </trkpt>
      <trkpt lat="44.33918" lon="4.8354">
        <ele>118.73</ele>
        <time>2026-08-27T08:34:01Z</time>
      </trkpt>
      <trkpt lat="44.33921" lon="4.83535">
        <ele>118.2</ele>
        <time>2026-08-27T08:34:02Z</time>
      </trkpt>
      <trkpt lat="44.33925" lon="4.8353">
        <ele>117.68</ele>
        <time>2026-08-27T08:34:03Z</time>
      </trkpt>
      <trkpt lat="44.33928" lon="4.83527">
        <ele>117</ele>
        <time>2026-08-27T08:34:04Z</time>
      </trkpt>
      <trkpt lat="44.3393" lon="4.83526">
        <ele>116.21</ele>
        <time>2026-08-27T08:34:05Z</time>
      </trkpt>
      <trkpt lat="44.33932" lon="4.83527">
        <ele>115.79</ele>
        <time>2026-08-27T08:34:06Z</time>
      </trkpt>
      <trkpt lat="44.33933" lon="4.83528">
        <ele>115.36</ele>
        <time>2026-08-27T08:34:07Z</time>
      </trkpt>
      <trkpt lat="44.33934" lon="4.83531">
        <ele>115.09</ele>
        <time>2026-08-27T08:34:08Z</time>
      </trkpt>
      <trkpt lat="44.33934" lon="4.83533">
        <ele>115.28</ele>
        <time>2026-08-27T08:34:09Z</time>
      </trkpt>
      <trkpt lat="44.33924" lon="4.83575">
        <ele>114.3</ele>
        <time>2026-08-27T08:34:19Z</time>
      </trkpt>
      <trkpt lat="44.33913" lon="4.8359">
        <ele>113.86</ele>
        <time>2026-08-27T08:34:29Z</time>
      </trkpt>
      <trkpt lat="44.3391" lon="4.83595">
        <ele>113.92</ele>
        <time>2026-08-27T08:35:28Z</time>
      </trkpt>
      <trkpt lat="44.33909" lon="4.83595">
        <ele>114.71</ele>
        <time>2026-08-27T08:36:16Z</time>
      </trkpt>
      <trkpt lat="44.33909" lon="4.83598">
        <ele>114.99</ele>
        <time>2026-08-27T08:36:48Z</time>
      </trkpt>
      <trkpt lat="44.33907" lon="4.83597">
        <ele>115.39</ele>
        <time>2026-08-27T08:37:38Z</time>
      </trkpt>
      <trkpt lat="44.33906" lon="4.83598">
        <ele>115.49</ele>
        <time>2026-08-27T08:37:39Z</time>
      </trkpt>
      <trkpt lat="44.33904" lon="4.83598">
        <ele>115.58</ele>
        <time>2026-08-27T08:37:40Z</time>
      </trkpt>
      <trkpt lat="44.33901" lon="4.83599">
        <ele>115.58</ele>
        <time>2026-08-27T08:37:41Z</time>
      </trkpt>
      <trkpt lat="44.33899" lon="4.836">
        <ele>115.72</ele>
        <time>2026-08-27T08:37:42Z</time>
      </trkpt>
      <trkpt lat="44.33897" lon="4.83601">
        <ele>115.77</ele>
        <time>2026-08-27T08:37:43Z</time>
      </trkpt>
      <trkpt lat="44.33895" lon="4.83602">
        <ele>115.78</ele>
        <time>2026-08-27T08:37:44Z</time>
      </trkpt>
      <trkpt lat="44.33893" lon="4.83603">
        <ele>115.76</ele>
        <time>2026-08-27T08:37:45Z</time>
      </trkpt>
      <trkpt lat="44.33891" lon="4.83604">
        <ele>115.87</ele>
        <time>2026-08-27T08:37:46Z</time>
      </trkpt>
      <trkpt lat="44.33878" lon="4.83607">
        <ele>116.18</ele>
        <time>2026-08-27T08:37:52Z</time>
      </trkpt>
      <trkpt lat="44.33876" lon="4.83607">
        <ele>116.3</ele>
        <time>2026-08-27T08:37:53Z</time>
      </trkpt>
      <trkpt lat="44.33843" lon="4.83613">
        <ele>116.78</ele>
        <time>2026-08-27T08:38:04Z</time>
      </trkpt>
      <trkpt lat="44.33813" lon="4.83613">
        <ele>116.83</ele>
        <time>2026-08-27T08:38:13Z</time>
      </trkpt>
      <trkpt lat="44.33812" lon="4.83615">
        <ele>116.72</ele>
        <time>2026-08-27T08:38:14Z</time>
      </trkpt>
      <trkpt lat="44.33806" lon="4.83628">
        <ele>116.52</ele>
        <time>2026-08-27T08:38:18Z</time>
      </trkpt>
      <trkpt lat="44.33805" lon="4.83632">
        <ele>116.63</ele>
        <time>2026-08-27T08:38:19Z</time>
      </trkpt>
      <trkpt lat="44.33804" lon="4.83635">
        <ele>116.68</ele>
        <time>2026-08-27T08:38:20Z</time>
      </trkpt>
      <trkpt lat="44.33803" lon="4.83637">
        <ele>116.73</ele>
        <time>2026-08-27T08:38:21Z</time>
      </trkpt>
      <trkpt lat="44.33803" lon="4.8364">
        <ele>116.67</ele>
        <time>2026-08-27T08:38:22Z</time>
      </trkpt>
      <trkpt lat="44.33802" lon="4.83643">
        <ele>116.73</ele>
        <time>2026-08-27T08:38:23Z</time>
      </trkpt>
      <trkpt lat="44.33801" lon="4.83646">
        <ele>116.7</ele>
        <time>2026-08-27T08:38:24Z</time>
      </trkpt>
      <trkpt lat="44.338" lon="4.83662">
        <ele>117.22</ele>
        <time>2026-08-27T08:38:29Z</time>
      </trkpt>
      <trkpt lat="44.33801" lon="4.83665">
        <ele>117.08</ele>
        <time>2026-08-27T08:38:30Z</time>
      </trkpt>
      <trkpt lat="44.33802" lon="4.83668">
        <ele>117.13</ele>
        <time>2026-08-27T08:38:31Z</time>
      </trkpt>
      <trkpt lat="44.33803" lon="4.83672">
        <ele>117.02</ele>
        <time>2026-08-27T08:38:32Z</time>
      </trkpt>
      <trkpt lat="44.33803" lon="4.83674">
        <ele>117.07</ele>
        <time>2026-08-27T08:38:33Z</time>
      </trkpt>
      <trkpt lat="44.33804" lon="4.83676">
        <ele>116.97</ele>
        <time>2026-08-27T08:38:34Z</time>
      </trkpt>
      <trkpt lat="44.33805" lon="4.83678">
        <ele>116.93</ele>
        <time>2026-08-27T08:38:35Z</time>
      </trkpt>
      <trkpt lat="44.33807" lon="4.83685">
        <ele>116.56</ele>
        <time>2026-08-27T08:38:46Z</time>
      </trkpt>
      <trkpt lat="44.33808" lon="4.83686">
        <ele>116.71</ele>
        <time>2026-08-27T08:38:50Z</time>
      </trkpt>
      <trkpt lat="44.3381" lon="4.83685">
        <ele>116.66</ele>
        <time>2026-08-27T08:38:51Z</time>
      </trkpt>
      <trkpt lat="44.33812" lon="4.83685">
        <ele>116.66</ele>
        <time>2026-08-27T08:38:52Z</time>
      </trkpt>
      <trkpt lat="44.33814" lon="4.83685">
        <ele>116.61</ele>
        <time>2026-08-27T08:38:53Z</time>
      </trkpt>
      <trkpt lat="44.33816" lon="4.83685">
        <ele>116.59</ele>
        <time>2026-08-27T08:38:54Z</time>
      </trkpt>
      <trkpt lat="44.33858" lon="4.83682">
        <ele>115.86</ele>
        <time>2026-08-27T08:39:07Z</time>
      </trkpt>
      <trkpt lat="44.33909" lon="4.83682">
        <ele>115.32</ele>
        <time>2026-08-27T08:39:20Z</time>
      </trkpt>
      <trkpt lat="44.33982" lon="4.83679">
        <ele>114.81</ele>
        <time>2026-08-27T08:39:35Z</time>
      </trkpt>
      <trkpt lat="44.34075" lon="4.83678">
        <ele>114.01</ele>
        <time>2026-08-27T08:39:53Z</time>
      </trkpt>
      <trkpt lat="44.34113" lon="4.83682">
        <ele>113.29</ele>
        <time>2026-08-27T08:40:05Z</time>
      </trkpt>
      <trkpt lat="44.34134" lon="4.83685">
        <ele>113.32</ele>
        <time>2026-08-27T08:40:16Z</time>
      </trkpt>
      <trkpt lat="44.34185" lon="4.83688">
        <ele>113.63</ele>
        <time>2026-08-27T08:40:30Z</time>
      </trkpt>
      <trkpt lat="44.34224" lon="4.83692">
        <ele>113.78</ele>
        <time>2026-08-27T08:40:41Z</time>
      </trkpt>
      <trkpt lat="44.34259" lon="4.83699">
        <ele>114.14</ele>
        <time>2026-08-27T08:40:52Z</time>
      </trkpt>
      <trkpt lat="44.34281" lon="4.8368">
        <ele>113.67</ele>
        <time>2026-08-27T08:41:01Z</time>
      </trkpt>
      <trkpt lat="44.34293" lon="4.83601">
        <ele>113.16</ele>
        <time>2026-08-27T08:41:16Z</time>
      </trkpt>
      <trkpt lat="44.34297" lon="4.83577">
        <ele>113.35</ele>
        <time>2026-08-27T08:41:20Z</time>
      </trkpt>
      <trkpt lat="44.34299" lon="4.83571">
        <ele>113.34</ele>
        <time>2026-08-27T08:41:21Z</time>
      </trkpt>
      <trkpt lat="44.34301" lon="4.83565">
        <ele>113.2</ele>
        <time>2026-08-27T08:41:22Z</time>
      </trkpt>
      <trkpt lat="44.34304" lon="4.83559">
        <ele>113.26</ele>
        <time>2026-08-27T08:41:23Z</time>
      </trkpt>
      <trkpt lat="44.34307" lon="4.83553">
        <ele>112.98</ele>
        <time>2026-08-27T08:41:24Z</time>
      </trkpt>
      <trkpt lat="44.34312" lon="4.8354">
        <ele>112.66</ele>
        <time>2026-08-27T08:41:26Z</time>
      </trkpt>
      <trkpt lat="44.34314" lon="4.83533">
        <ele>112.02</ele>
        <time>2026-08-27T08:41:27Z</time>
      </trkpt>
      <trkpt lat="44.34315" lon="4.83526">
        <ele>112.28</ele>
        <time>2026-08-27T08:41:28Z</time>
      </trkpt>
      <trkpt lat="44.34316" lon="4.83517">
        <ele>111.41</ele>
        <time>2026-08-27T08:41:29Z</time>
      </trkpt>
      <trkpt lat="44.34316" lon="4.83509">
        <ele>110.86</ele>
        <time>2026-08-27T08:41:30Z</time>
      </trkpt>
      <trkpt lat="44.34316" lon="4.83501">
        <ele>110.82</ele>
        <time>2026-08-27T08:41:31Z</time>
      </trkpt>
      <trkpt lat="44.34312" lon="4.8346">
        <ele>109.57</ele>
        <time>2026-08-27T08:41:36Z</time>
      </trkpt>
      <trkpt lat="44.34312" lon="4.83452">
        <ele>108.93</ele>
        <time>2026-08-27T08:41:37Z</time>
      </trkpt>
      <trkpt lat="44.3431" lon="4.83436">
        <ele>108.16</ele>
        <time>2026-08-27T08:41:39Z</time>
      </trkpt>
      <trkpt lat="44.34304" lon="4.83393">
        <ele>106.26</ele>
        <time>2026-08-27T08:41:44Z</time>
      </trkpt>
      <trkpt lat="44.34302" lon="4.83351">
        <ele>104.2</ele>
        <time>2026-08-27T08:41:48Z</time>
      </trkpt>
      <trkpt lat="44.34297" lon="4.83319">
        <ele>103.09</ele>
        <time>2026-08-27T08:41:51Z</time>
      </trkpt>
      <trkpt lat="44.34281" lon="4.83215">
        <ele>100.08</ele>
        <time>2026-08-27T08:42:02Z</time>
      </trkpt>
      <trkpt lat="44.34273" lon="4.83167">
        <ele>98.73</ele>
        <time>2026-08-27T08:42:09Z</time>
      </trkpt>
      <trkpt lat="44.34275" lon="4.83164">
        <ele>98.61</ele>
        <time>2026-08-27T08:42:10Z</time>
      </trkpt>
      <trkpt lat="44.34277" lon="4.83162">
        <ele>98.4</ele>
        <time>2026-08-27T08:42:11Z</time>
      </trkpt>
      <trkpt lat="44.3428" lon="4.83162">
        <ele>98.26</ele>
        <time>2026-08-27T08:42:12Z</time>
      </trkpt>
      <trkpt lat="44.34283" lon="4.83162">
        <ele>98.05</ele>
        <time>2026-08-27T08:42:13Z</time>
      </trkpt>
      <trkpt lat="44.34286" lon="4.83163">
        <ele>97.99</ele>
        <time>2026-08-27T08:42:14Z</time>
      </trkpt>
      <trkpt lat="44.34289" lon="4.83164">
        <ele>97.93</ele>
        <time>2026-08-27T08:42:15Z</time>
      </trkpt>
      <trkpt lat="44.34306" lon="4.83158">
        <ele>97.13</ele>
        <time>2026-08-27T08:42:20Z</time>
      </trkpt>
      <trkpt lat="44.34307" lon="4.83152">
        <ele>96.92</ele>
        <time>2026-08-27T08:42:21Z</time>
      </trkpt>
      <trkpt lat="44.34307" lon="4.83147">
        <ele>96.72</ele>
        <time>2026-08-27T08:42:22Z</time>
      </trkpt>
      <trkpt lat="44.34306" lon="4.83141">
        <ele>96.62</ele>
        <time>2026-08-27T08:42:23Z</time>
      </trkpt>
      <trkpt lat="44.34305" lon="4.83135">
        <ele>96.57</ele>
        <time>2026-08-27T08:42:24Z</time>
      </trkpt>
      <trkpt lat="44.34288" lon="4.83084">
        <ele>96.17</ele>
        <time>2026-08-27T08:42:36Z</time>
      </trkpt>
      <trkpt lat="44.34279" lon="4.83002">
        <ele>96.12</ele>
        <time>2026-08-27T08:42:52Z</time>
      </trkpt>
      <trkpt lat="44.3431" lon="4.82925">
        <ele>97.96</ele>
        <time>2026-08-27T08:43:09Z</time>
      </trkpt>
      <trkpt lat="44.34334" lon="4.82856">
        <ele>99.56</ele>
        <time>2026-08-27T08:43:24Z</time>
      </trkpt>
      <trkpt lat="44.34373" lon="4.82828">
        <ele>100.99</ele>
        <time>2026-08-27T08:43:37Z</time>
      </trkpt>
      <trkpt lat="44.34403" lon="4.8279">
        <ele>101.06</ele>
        <time>2026-08-27T08:43:48Z</time>
      </trkpt>
      <trkpt lat="44.34411" lon="4.8277">
        <ele>101</ele>
        <time>2026-08-27T08:43:52Z</time>
      </trkpt>
      <trkpt lat="44.34413" lon="4.82765">
        <ele>101.1</ele>
        <time>2026-08-27T08:43:53Z</time>
      </trkpt>
      <trkpt lat="44.34444" lon="4.8268">
        <ele>101.32</ele>
        <time>2026-08-27T08:44:09Z</time>
      </trkpt>
      <trkpt lat="44.34496" lon="4.82537">
        <ele>102.37</ele>
        <time>2026-08-27T08:44:36Z</time>
      </trkpt>
      <trkpt lat="44.34504" lon="4.82516">
        <ele>102.83</ele>
        <time>2026-08-27T08:44:40Z</time>
      </trkpt>
      <trkpt lat="44.34507" lon="4.82512">
        <ele>102.87</ele>
        <time>2026-08-27T08:44:41Z</time>
      </trkpt>
      <trkpt lat="44.34511" lon="4.82508">
        <ele>103.09</ele>
        <time>2026-08-27T08:44:42Z</time>
      </trkpt>
      <trkpt lat="44.34514" lon="4.82506">
        <ele>102.94</ele>
        <time>2026-08-27T08:44:43Z</time>
      </trkpt>
      <trkpt lat="44.34518" lon="4.82504">
        <ele>103.15</ele>
        <time>2026-08-27T08:44:44Z</time>
      </trkpt>
      <trkpt lat="44.34523" lon="4.82504">
        <ele>102.79</ele>
        <time>2026-08-27T08:44:45Z</time>
      </trkpt>
      <trkpt lat="44.34527" lon="4.82504">
        <ele>103.19</ele>
        <time>2026-08-27T08:44:46Z</time>
      </trkpt>
      <trkpt lat="44.34531" lon="4.82504">
        <ele>103.23</ele>
        <time>2026-08-27T08:44:47Z</time>
      </trkpt>
      <trkpt lat="44.34536" lon="4.82505">
        <ele>103.27</ele>
        <time>2026-08-27T08:44:48Z</time>
      </trkpt>
      <trkpt lat="44.34568" lon="4.82507">
        <ele>104.97</ele>
        <time>2026-08-27T08:44:58Z</time>
      </trkpt>
      <trkpt lat="44.3457" lon="4.82505">
        <ele>105.12</ele>
        <time>2026-08-27T08:44:59Z</time>
      </trkpt>
      <trkpt lat="44.34571" lon="4.82501">
        <ele>105.39</ele>
        <time>2026-08-27T08:45:00Z</time>
      </trkpt>
      <trkpt lat="44.34571" lon="4.82497">
        <ele>105.59</ele>
        <time>2026-08-27T08:45:01Z</time>
      </trkpt>
      <trkpt lat="44.34571" lon="4.82493">
        <ele>105.8</ele>
        <time>2026-08-27T08:45:02Z</time>
      </trkpt>
      <trkpt lat="44.34571" lon="4.82489">
        <ele>105.81</ele>
        <time>2026-08-27T08:45:03Z</time>
      </trkpt>
      <trkpt lat="44.34571" lon="4.82485">
        <ele>105.81</ele>
        <time>2026-08-27T08:45:04Z</time>
      </trkpt>
      <trkpt lat="44.34571" lon="4.82481">
        <ele>105.82</ele>
        <time>2026-08-27T08:45:05Z</time>
      </trkpt>
      <trkpt lat="44.34571" lon="4.82478">
        <ele>105.83</ele>
        <time>2026-08-27T08:45:06Z</time>
      </trkpt>
      <trkpt lat="44.34571" lon="4.82474">
        <ele>105.85</ele>
        <time>2026-08-27T08:45:07Z</time>
      </trkpt>
      <trkpt lat="44.34572" lon="4.8247">
        <ele>106.06</ele>
        <time>2026-08-27T08:45:08Z</time>
      </trkpt>
      <trkpt lat="44.34572" lon="4.82466">
        <ele>106.04</ele>
        <time>2026-08-27T08:45:09Z</time>
      </trkpt>
      <trkpt lat="44.34573" lon="4.82463">
        <ele>106.25</ele>
        <time>2026-08-27T08:45:10Z</time>
      </trkpt>
      <trkpt lat="44.34575" lon="4.82461">
        <ele>106.13</ele>
        <time>2026-08-27T08:45:11Z</time>
      </trkpt>
      <trkpt lat="44.34577" lon="4.82462">
        <ele>106.19</ele>
        <time>2026-08-27T08:45:12Z</time>
      </trkpt>
      <trkpt lat="44.34578" lon="4.82465">
        <ele>106.18</ele>
        <time>2026-08-27T08:45:13Z</time>
      </trkpt>
      <trkpt lat="44.3458" lon="4.82467">
        <ele>106.03</ele>
        <time>2026-08-27T08:45:14Z</time>
      </trkpt>
      <trkpt lat="44.34581" lon="4.82469">
        <ele>106</ele>
        <time>2026-08-27T08:45:15Z</time>
      </trkpt>
      <trkpt lat="44.34584" lon="4.82466">
        <ele>106.08</ele>
        <time>2026-08-27T08:45:29Z</time>
      </trkpt>
      <trkpt lat="44.34586" lon="4.82465">
        <ele>106.12</ele>
        <time>2026-08-27T08:45:41Z</time>
      </trkpt>
      <trkpt lat="44.34587" lon="4.82463">
        <ele>106.16</ele>
        <time>2026-08-27T08:45:42Z</time>
      </trkpt>
      <trkpt lat="44.34587" lon="4.82459">
        <ele>106.18</ele>
        <time>2026-08-27T08:45:43Z</time>
      </trkpt>
      <trkpt lat="44.34585" lon="4.82456">
        <ele>106.02</ele>
        <time>2026-08-27T08:45:44Z</time>
      </trkpt>
      <trkpt lat="44.34583" lon="4.82452">
        <ele>106.13</ele>
        <time>2026-08-27T08:45:45Z</time>
      </trkpt>
      <trkpt lat="44.34577" lon="4.82436">
        <ele>105.51</ele>
        <time>2026-08-27T08:45:55Z</time>
      </trkpt>
      <trkpt lat="44.34579" lon="4.82406">
        <ele>105.6</ele>
        <time>2026-08-27T08:46:13Z</time>
      </trkpt>
      <trkpt lat="44.34582" lon="4.82388">
        <ele>105.63</ele>
        <time>2026-08-27T08:46:18Z</time>
      </trkpt>
      <trkpt lat="44.34584" lon="4.82387">
        <ele>105.54</ele>
        <time>2026-08-27T08:46:19Z</time>
      </trkpt>
      <trkpt lat="44.34586" lon="4.82387">
        <ele>105.72</ele>
        <time>2026-08-27T08:46:20Z</time>
      </trkpt>
      <trkpt lat="44.34588" lon="4.82389">
        <ele>105.58</ele>
        <time>2026-08-27T08:46:21Z</time>
      </trkpt>
      <trkpt lat="44.3459" lon="4.82392">
        <ele>105.61</ele>
        <time>2026-08-27T08:46:22Z</time>
      </trkpt>
      <trkpt lat="44.34592" lon="4.82395">
        <ele>105.66</ele>
        <time>2026-08-27T08:46:23Z</time>
      </trkpt>
      <trkpt lat="44.34593" lon="4.82398">
        <ele>105.64</ele>
        <time>2026-08-27T08:46:24Z</time>
      </trkpt>
      <trkpt lat="44.34623" lon="4.82434">
        <ele>106.15</ele>
        <time>2026-08-27T08:46:38Z</time>
      </trkpt>
      <trkpt lat="44.34673" lon="4.82457">
        <ele>106.84</ele>
        <time>2026-08-27T08:46:55Z</time>
      </trkpt>
      <trkpt lat="44.34728" lon="4.82464">
        <ele>107.62</ele>
        <time>2026-08-27T08:47:12Z</time>
      </trkpt>
      <trkpt lat="44.34787" lon="4.82476">
        <ele>108.21</ele>
        <time>2026-08-27T08:47:29Z</time>
      </trkpt>
      <trkpt lat="44.34809" lon="4.8253">
        <ele>109.41</ele>
        <time>2026-08-27T08:47:43Z</time>
      </trkpt>
      <trkpt lat="44.34825" lon="4.82558">
        <ele>110.64</ele>
        <time>2026-08-27T08:47:53Z</time>
      </trkpt>
      <trkpt lat="44.34857" lon="4.82568">
        <ele>110.2</ele>
        <time>2026-08-27T08:48:04Z</time>
      </trkpt>
      <trkpt lat="44.34889" lon="4.82607">
        <ele>111.23</ele>
        <time>2026-08-27T08:48:17Z</time>
      </trkpt>
      <trkpt lat="44.34925" lon="4.82649">
        <ele>112.31</ele>
        <time>2026-08-27T08:48:32Z</time>
      </trkpt>
      <trkpt lat="44.34962" lon="4.82683">
        <ele>113.65</ele>
        <time>2026-08-27T08:48:47Z</time>
      </trkpt>
      <trkpt lat="44.34984" lon="4.8271">
        <ele>114.18</ele>
        <time>2026-08-27T08:48:58Z</time>
      </trkpt>
      <trkpt lat="44.35017" lon="4.82759">
        <ele>114.96</ele>
        <time>2026-08-27T08:49:14Z</time>
      </trkpt>
      <trkpt lat="44.35057" lon="4.82812">
        <ele>116.16</ele>
        <time>2026-08-27T08:49:31Z</time>
      </trkpt>
      <trkpt lat="44.35063" lon="4.82849">
        <ele>117.28</ele>
        <time>2026-08-27T08:49:40Z</time>
      </trkpt>
      <trkpt lat="44.35042" lon="4.82878">
        <ele>116.9</ele>
        <time>2026-08-27T08:49:48Z</time>
      </trkpt>
      <trkpt lat="44.35042" lon="4.82882">
        <ele>116.7</ele>
        <time>2026-08-27T08:49:49Z</time>
      </trkpt>
      <trkpt lat="44.35043" lon="4.82885">
        <ele>116.62</ele>
        <time>2026-08-27T08:49:50Z</time>
      </trkpt>
      <trkpt lat="44.35045" lon="4.82888">
        <ele>116.67</ele>
        <time>2026-08-27T08:49:51Z</time>
      </trkpt>
      <trkpt lat="44.35048" lon="4.82889">
        <ele>116.53</ele>
        <time>2026-08-27T08:49:52Z</time>
      </trkpt>
      <trkpt lat="44.3505" lon="4.82889">
        <ele>116.65</ele>
        <time>2026-08-27T08:49:53Z</time>
      </trkpt>
      <trkpt lat="44.35053" lon="4.8289">
        <ele>116.5</ele>
        <time>2026-08-27T08:49:54Z</time>
      </trkpt>
      <trkpt lat="44.35056" lon="4.82891">
        <ele>116.62</ele>
        <time>2026-08-27T08:49:55Z</time>
      </trkpt>
      <trkpt lat="44.35094" lon="4.82899">
        <ele>118.48</ele>
        <time>2026-08-27T08:50:10Z</time>
      </trkpt>
      <trkpt lat="44.35125" lon="4.82909">
        <ele>119.42</ele>
        <time>2026-08-27T08:50:22Z</time>
      </trkpt>
      <trkpt lat="44.35144" lon="4.82926">
        <ele>119.85</ele>
        <time>2026-08-27T08:50:30Z</time>
      </trkpt>
      <trkpt lat="44.35152" lon="4.82962">
        <ele>120.47</ele>
        <time>2026-08-27T08:50:39Z</time>
      </trkpt>
      <trkpt lat="44.35156" lon="4.82985">
        <ele>122.01</ele>
        <time>2026-08-27T08:50:45Z</time>
      </trkpt>
      <trkpt lat="44.35175" lon="4.83022">
        <ele>123.97</ele>
        <time>2026-08-27T08:50:56Z</time>
      </trkpt>
      <trkpt lat="44.35178" lon="4.83023">
        <ele>124</ele>
        <time>2026-08-27T08:50:57Z</time>
      </trkpt>
      <trkpt lat="44.3518" lon="4.83023">
        <ele>123.89</ele>
        <time>2026-08-27T08:50:58Z</time>
      </trkpt>
      <trkpt lat="44.35184" lon="4.83023">
        <ele>123.5</ele>
        <time>2026-08-27T08:50:59Z</time>
      </trkpt>
      <trkpt lat="44.35188" lon="4.83026">
        <ele>123.13</ele>
        <time>2026-08-27T08:51:00Z</time>
      </trkpt>
      <trkpt lat="44.35191" lon="4.83029">
        <ele>122.85</ele>
        <time>2026-08-27T08:51:01Z</time>
      </trkpt>
      <trkpt lat="44.35193" lon="4.83033">
        <ele>122.78</ele>
        <time>2026-08-27T08:51:02Z</time>
      </trkpt>
      <trkpt lat="44.35195" lon="4.83036">
        <ele>123.01</ele>
        <time>2026-08-27T08:51:03Z</time>
      </trkpt>
      <trkpt lat="44.35197" lon="4.83039">
        <ele>123.13</ele>
        <time>2026-08-27T08:51:04Z</time>
      </trkpt>
      <trkpt lat="44.35198" lon="4.83042">
        <ele>123.16</ele>
        <time>2026-08-27T08:51:05Z</time>
      </trkpt>
      <trkpt lat="44.35206" lon="4.83057">
        <ele>123.58</ele>
        <time>2026-08-27T08:51:16Z</time>
      </trkpt>
      <trkpt lat="44.35208" lon="4.83066">
        <ele>123.58</ele>
        <time>2026-08-27T08:51:52Z</time>
      </trkpt>
      <trkpt lat="44.35211" lon="4.83072">
        <ele>123.83</ele>
        <time>2026-08-27T08:51:56Z</time>
      </trkpt>
      <trkpt lat="44.35212" lon="4.83075">
        <ele>123.81</ele>
        <time>2026-08-27T08:51:57Z</time>
      </trkpt>
      <trkpt lat="44.35213" lon="4.83077">
        <ele>123.9</ele>
        <time>2026-08-27T08:51:58Z</time>
      </trkpt>
      <trkpt lat="44.35214" lon="4.8308">
        <ele>124.08</ele>
        <time>2026-08-27T08:51:59Z</time>
      </trkpt>
      <trkpt lat="44.35215" lon="4.83082">
        <ele>124.15</ele>
        <time>2026-08-27T08:52:00Z</time>
      </trkpt>
      <trkpt lat="44.35216" lon="4.83085">
        <ele>124.27</ele>
        <time>2026-08-27T08:52:01Z</time>
      </trkpt>
      <trkpt lat="44.35218" lon="4.83088">
        <ele>124.37</ele>
        <time>2026-08-27T08:52:02Z</time>
      </trkpt>
      <trkpt lat="44.3522" lon="4.83091">
        <ele>124.54</ele>
        <time>2026-08-27T08:52:03Z</time>
      </trkpt>
      <trkpt lat="44.35246" lon="4.83135">
        <ele>125.34</ele>
        <time>2026-08-27T08:52:16Z</time>
      </trkpt>
      <trkpt lat="44.35271" lon="4.83176">
        <ele>124.83</ele>
        <time>2026-08-27T08:52:27Z</time>
      </trkpt>
      <trkpt lat="44.35295" lon="4.8323">
        <ele>124.36</ele>
        <time>2026-08-27T08:52:39Z</time>
      </trkpt>
      <trkpt lat="44.35312" lon="4.83268">
        <ele>123.87</ele>
        <time>2026-08-27T08:52:47Z</time>
      </trkpt>
      <trkpt lat="44.35314" lon="4.83273">
        <ele>123.78</ele>
        <time>2026-08-27T08:52:48Z</time>
      </trkpt>
      <trkpt lat="44.35325" lon="4.8329">
        <ele>123.65</ele>
        <time>2026-08-27T08:52:52Z</time>
      </trkpt>
      <trkpt lat="44.3535" lon="4.8335">
        <ele>122.64</ele>
        <time>2026-08-27T08:53:04Z</time>
      </trkpt>
      <trkpt lat="44.35353" lon="4.83353">
        <ele>122.32</ele>
        <time>2026-08-27T08:53:05Z</time>
      </trkpt>
      <trkpt lat="44.35356" lon="4.83354">
        <ele>122.09</ele>
        <time>2026-08-27T08:53:06Z</time>
      </trkpt>
      <trkpt lat="44.3536" lon="4.83356">
        <ele>121.97</ele>
        <time>2026-08-27T08:53:07Z</time>
      </trkpt>
      <trkpt lat="44.35363" lon="4.83359">
        <ele>121.62</ele>
        <time>2026-08-27T08:53:08Z</time>
      </trkpt>
      <trkpt lat="44.35367" lon="4.83362">
        <ele>121.39</ele>
        <time>2026-08-27T08:53:09Z</time>
      </trkpt>
      <trkpt lat="44.3537" lon="4.83365">
        <ele>121.25</ele>
        <time>2026-08-27T08:53:10Z</time>
      </trkpt>
      <trkpt lat="44.35372" lon="4.83367">
        <ele>121.28</ele>
        <time>2026-08-27T08:53:11Z</time>
      </trkpt>
      <trkpt lat="44.35389" lon="4.83404">
        <ele>121.39</ele>
        <time>2026-08-27T08:53:21Z</time>
      </trkpt>
      <trkpt lat="44.35408" lon="4.83451">
        <ele>121.58</ele>
        <time>2026-08-27T08:53:31Z</time>
      </trkpt>
      <trkpt lat="44.35433" lon="4.83511">
        <ele>121.14</ele>
        <time>2026-08-27T08:53:44Z</time>
      </trkpt>
      <trkpt lat="44.35453" lon="4.83576">
        <ele>121.33</ele>
        <time>2026-08-27T08:53:57Z</time>
      </trkpt>
      <trkpt lat="44.35467" lon="4.83619">
        <ele>121.37</ele>
        <time>2026-08-27T08:54:06Z</time>
      </trkpt>
      <trkpt lat="44.35482" lon="4.83658">
        <ele>121.83</ele>
        <time>2026-08-27T08:54:15Z</time>
      </trkpt>
      <trkpt lat="44.35505" lon="4.83692">
        <ele>122.41</ele>
        <time>2026-08-27T08:54:26Z</time>
      </trkpt>
      <trkpt lat="44.35511" lon="4.83692">
        <ele>123.11</ele>
        <time>2026-08-27T08:54:29Z</time>
      </trkpt>
      <trkpt lat="44.35513" lon="4.83692">
        <ele>123.22</ele>
        <time>2026-08-27T08:54:30Z</time>
      </trkpt>
      <trkpt lat="44.35516" lon="4.83692">
        <ele>123.44</ele>
        <time>2026-08-27T08:54:31Z</time>
      </trkpt>
      <trkpt lat="44.35518" lon="4.83694">
        <ele>123.61</ele>
        <time>2026-08-27T08:54:32Z</time>
      </trkpt>
      <trkpt lat="44.35519" lon="4.83696">
        <ele>123.75</ele>
        <time>2026-08-27T08:54:33Z</time>
      </trkpt>
      <trkpt lat="44.35521" lon="4.83698">
        <ele>123.79</ele>
        <time>2026-08-27T08:54:34Z</time>
      </trkpt>
      <trkpt lat="44.35523" lon="4.83698">
        <ele>123.75</ele>
        <time>2026-08-27T08:54:35Z</time>
      </trkpt>
      <trkpt lat="44.35525" lon="4.83697">
        <ele>123.69</ele>
        <time>2026-08-27T08:54:36Z</time>
      </trkpt>
      <trkpt lat="44.35527" lon="4.83696">
        <ele>123.87</ele>
        <time>2026-08-27T08:54:37Z</time>
      </trkpt>
      <trkpt lat="44.35529" lon="4.83695">
        <ele>124</ele>
        <time>2026-08-27T08:54:38Z</time>
      </trkpt>
      <trkpt lat="44.35555" lon="4.83673">
        <ele>126.42</ele>
        <time>2026-08-27T08:54:51Z</time>
      </trkpt>
      <trkpt lat="44.35574" lon="4.83654">
        <ele>128.79</ele>
        <time>2026-08-27T08:55:03Z</time>
      </trkpt>
      <trkpt lat="44.35584" lon="4.8364">
        <ele>130.72</ele>
        <time>2026-08-27T08:55:10Z</time>
      </trkpt>
      <trkpt lat="44.35586" lon="4.83639">
        <ele>130.77</ele>
        <time>2026-08-27T08:55:11Z</time>
      </trkpt>
      <trkpt lat="44.35589" lon="4.8364">
        <ele>130.98</ele>
        <time>2026-08-27T08:55:12Z</time>
      </trkpt>
      <trkpt lat="44.35591" lon="4.83641">
        <ele>130.98</ele>
        <time>2026-08-27T08:55:13Z</time>
      </trkpt>
      <trkpt lat="44.35593" lon="4.83643">
        <ele>130.95</ele>
        <time>2026-08-27T08:55:14Z</time>
      </trkpt>
      <trkpt lat="44.35595" lon="4.83645">
        <ele>131.27</ele>
        <time>2026-08-27T08:55:15Z</time>
      </trkpt>
      <trkpt lat="44.35596" lon="4.83646">
        <ele>131.36</ele>
        <time>2026-08-27T08:55:16Z</time>
      </trkpt>
      <trkpt lat="44.35598" lon="4.83648">
        <ele>131.48</ele>
        <time>2026-08-27T08:55:17Z</time>
      </trkpt>
      <trkpt lat="44.356" lon="4.83649">
        <ele>131.46</ele>
        <time>2026-08-27T08:55:18Z</time>
      </trkpt>
      <trkpt lat="44.35608" lon="4.83659">
        <ele>131.57</ele>
        <time>2026-08-27T08:55:23Z</time>
      </trkpt>
      <trkpt lat="44.35609" lon="4.83661">
        <ele>131.61</ele>
        <time>2026-08-27T08:55:24Z</time>
      </trkpt>
      <trkpt lat="44.3561" lon="4.83663">
        <ele>131.39</ele>
        <time>2026-08-27T08:55:25Z</time>
      </trkpt>
      <trkpt lat="44.35614" lon="4.83666">
        <ele>131.62</ele>
        <time>2026-08-27T08:55:27Z</time>
      </trkpt>
      <trkpt lat="44.35622" lon="4.83671">
        <ele>132.49</ele>
        <time>2026-08-27T08:55:31Z</time>
      </trkpt>
      <trkpt lat="44.35623" lon="4.83673">
        <ele>132.6</ele>
        <time>2026-08-27T08:55:32Z</time>
      </trkpt>
      <trkpt lat="44.35625" lon="4.83674">
        <ele>132.66</ele>
        <time>2026-08-27T08:55:33Z</time>
      </trkpt>
      <trkpt lat="44.3563" lon="4.83677">
        <ele>132.8</ele>
        <time>2026-08-27T08:55:36Z</time>
      </trkpt>
      <trkpt lat="44.35632" lon="4.83678">
        <ele>132.83</ele>
        <time>2026-08-27T08:55:37Z</time>
      </trkpt>
      <trkpt lat="44.35634" lon="4.83678">
        <ele>133.04</ele>
        <time>2026-08-27T08:55:38Z</time>
      </trkpt>
      <trkpt lat="44.35635" lon="4.83678">
        <ele>133.29</ele>
        <time>2026-08-27T08:55:39Z</time>
      </trkpt>
      <trkpt lat="44.35637" lon="4.83679">
        <ele>133.38</ele>
        <time>2026-08-27T08:55:40Z</time>
      </trkpt>
      <trkpt lat="44.35639" lon="4.83681">
        <ele>133.62</ele>
        <time>2026-08-27T08:55:41Z</time>
      </trkpt>
      <trkpt lat="44.35641" lon="4.83682">
        <ele>133.72</ele>
        <time>2026-08-27T08:55:42Z</time>
      </trkpt>
      <trkpt lat="44.35643" lon="4.83683">
        <ele>134.02</ele>
        <time>2026-08-27T08:55:43Z</time>
      </trkpt>
      <trkpt lat="44.35646" lon="4.83683">
        <ele>134.33</ele>
        <time>2026-08-27T08:55:44Z</time>
      </trkpt>
      <trkpt lat="44.35648" lon="4.83684">
        <ele>134.37</ele>
        <time>2026-08-27T08:55:45Z</time>
      </trkpt>
      <trkpt lat="44.3565" lon="4.83684">
        <ele>134.7</ele>
        <time>2026-08-27T08:55:46Z</time>
      </trkpt>
      <trkpt lat="44.35652" lon="4.83684">
        <ele>135.15</ele>
        <time>2026-08-27T08:55:47Z</time>
      </trkpt>
      <trkpt lat="44.35654" lon="4.83683">
        <ele>135.19</ele>
        <time>2026-08-27T08:55:48Z</time>
      </trkpt>
      <trkpt lat="44.3567" lon="4.83668">
        <ele>138.56</ele>
        <time>2026-08-27T08:55:57Z</time>
      </trkpt>
      <trkpt lat="44.35677" lon="4.83666">
        <ele>139.27</ele>
        <time>2026-08-27T08:56:07Z</time>
      </trkpt>
      <trkpt lat="44.35679" lon="4.83666">
        <ele>139.32</ele>
        <time>2026-08-27T08:56:08Z</time>
      </trkpt>
      <trkpt lat="44.35681" lon="4.83667">
        <ele>139.79</ele>
        <time>2026-08-27T08:56:09Z</time>
      </trkpt>
      <trkpt lat="44.35683" lon="4.83668">
        <ele>139.75</ele>
        <time>2026-08-27T08:56:10Z</time>
      </trkpt>
      <trkpt lat="44.35684" lon="4.83669">
        <ele>140.09</ele>
        <time>2026-08-27T08:56:11Z</time>
      </trkpt>
      <trkpt lat="44.35686" lon="4.83671">
        <ele>140.39</ele>
        <time>2026-08-27T08:56:12Z</time>
      </trkpt>
      <trkpt lat="44.35688" lon="4.83672">
        <ele>140.27</ele>
        <time>2026-08-27T08:56:13Z</time>
      </trkpt>
      <trkpt lat="44.35698" lon="4.83678">
        <ele>141.32</ele>
        <time>2026-08-27T08:56:18Z</time>
      </trkpt>
      <trkpt lat="44.357" lon="4.83677">
        <ele>141.56</ele>
        <time>2026-08-27T08:56:19Z</time>
      </trkpt>
      <trkpt lat="44.35702" lon="4.83676">
        <ele>141.92</ele>
        <time>2026-08-27T08:56:20Z</time>
      </trkpt>
      <trkpt lat="44.35712" lon="4.83666">
        <ele>144.31</ele>
        <time>2026-08-27T08:56:27Z</time>
      </trkpt>
      <trkpt lat="44.35713" lon="4.83664">
        <ele>144.59</ele>
        <time>2026-08-27T08:56:28Z</time>
      </trkpt>
      <trkpt lat="44.35714" lon="4.83662">
        <ele>144.81</ele>
        <time>2026-08-27T08:56:29Z</time>
      </trkpt>
      <trkpt lat="44.35715" lon="4.83659">
        <ele>145.24</ele>
        <time>2026-08-27T08:56:30Z</time>
      </trkpt>
      <trkpt lat="44.35717" lon="4.83657">
        <ele>145.47</ele>
        <time>2026-08-27T08:56:31Z</time>
      </trkpt>
      <trkpt lat="44.35718" lon="4.83656">
        <ele>145.84</ele>
        <time>2026-08-27T08:56:32Z</time>
      </trkpt>
      <trkpt lat="44.3572" lon="4.83654">
        <ele>146.27</ele>
        <time>2026-08-27T08:56:33Z</time>
      </trkpt>
      <trkpt lat="44.35721" lon="4.83653">
        <ele>146.56</ele>
        <time>2026-08-27T08:56:34Z</time>
      </trkpt>
      <trkpt lat="44.35723" lon="4.83653">
        <ele>146.64</ele>
        <time>2026-08-27T08:56:35Z</time>
      </trkpt>
      <trkpt lat="44.35725" lon="4.83653">
        <ele>146.88</ele>
        <time>2026-08-27T08:56:36Z</time>
      </trkpt>
      <trkpt lat="44.35727" lon="4.83653">
        <ele>147.21</ele>
        <time>2026-08-27T08:56:37Z</time>
      </trkpt>
      <trkpt lat="44.35729" lon="4.83653">
        <ele>147.5</ele>
        <time>2026-08-27T08:56:38Z</time>
      </trkpt>
      <trkpt lat="44.3573" lon="4.83653">
        <ele>147.79</ele>
        <time>2026-08-27T08:56:39Z</time>
      </trkpt>
      <trkpt lat="44.35732" lon="4.83654">
        <ele>147.83</ele>
        <time>2026-08-27T08:56:40Z</time>
      </trkpt>
      <trkpt lat="44.35734" lon="4.83654">
        <ele>148.11</ele>
        <time>2026-08-27T08:56:41Z</time>
      </trkpt>
      <trkpt lat="44.35758" lon="4.8366">
        <ele>151.17</ele>
        <time>2026-08-27T08:56:54Z</time>
      </trkpt>
      <trkpt lat="44.35773" lon="4.83664">
        <ele>152.71</ele>
        <time>2026-08-27T08:57:02Z</time>
      </trkpt>
      <trkpt lat="44.35774" lon="4.83663">
        <ele>152.96</ele>
        <time>2026-08-27T08:57:03Z</time>
      </trkpt>
      <trkpt lat="44.35776" lon="4.83663">
        <ele>153.16</ele>
        <time>2026-08-27T08:57:04Z</time>
      </trkpt>
      <trkpt lat="44.35797" lon="4.83665">
        <ele>156.42</ele>
        <time>2026-08-27T08:57:16Z</time>
      </trkpt>
      <trkpt lat="44.35814" lon="4.83657">
        <ele>159.55</ele>
        <time>2026-08-27T08:57:25Z</time>
      </trkpt>
      <trkpt lat="44.35817" lon="4.83651">
        <ele>160.56</ele>
        <time>2026-08-27T08:57:28Z</time>
      </trkpt>
      <trkpt lat="44.35828" lon="4.83629">
        <ele>163.66</ele>
        <time>2026-08-27T08:57:39Z</time>
      </trkpt>
      <trkpt lat="44.35841" lon="4.83608">
        <ele>166.79</ele>
        <time>2026-08-27T08:57:50Z</time>
      </trkpt>
      <trkpt lat="44.35846" lon="4.83591">
        <ele>168.55</ele>
        <time>2026-08-27T08:57:57Z</time>
      </trkpt>
      <trkpt lat="44.35847" lon="4.83589">
        <ele>168.88</ele>
        <time>2026-08-27T08:57:58Z</time>
      </trkpt>
      <trkpt lat="44.35848" lon="4.83587">
        <ele>169.16</ele>
        <time>2026-08-27T08:57:59Z</time>
      </trkpt>
      <trkpt lat="44.3585" lon="4.83584">
        <ele>169.24</ele>
        <time>2026-08-27T08:58:00Z</time>
      </trkpt>
      <trkpt lat="44.3585" lon="4.83582">
        <ele>169.71</ele>
        <time>2026-08-27T08:58:01Z</time>
      </trkpt>
      <trkpt lat="44.35851" lon="4.83579">
        <ele>170</ele>
        <time>2026-08-27T08:58:02Z</time>
      </trkpt>
      <trkpt lat="44.35852" lon="4.83577">
        <ele>170.31</ele>
        <time>2026-08-27T08:58:03Z</time>
      </trkpt>
      <trkpt lat="44.35852" lon="4.83574">
        <ele>170.64</ele>
        <time>2026-08-27T08:58:04Z</time>
      </trkpt>
      <trkpt lat="44.35862" lon="4.83541">
        <ele>173.9</ele>
        <time>2026-08-27T08:58:17Z</time>
      </trkpt>
      <trkpt lat="44.3587" lon="4.83512">
        <ele>176.76</ele>
        <time>2026-08-27T08:58:29Z</time>
      </trkpt>
      <trkpt lat="44.35877" lon="4.83496">
        <ele>179.42</ele>
        <time>2026-08-27T08:58:37Z</time>
      </trkpt>
      <trkpt lat="44.35878" lon="4.83493">
        <ele>179.55</ele>
        <time>2026-08-27T08:58:38Z</time>
      </trkpt>
      <trkpt lat="44.35883" lon="4.8348">
        <ele>181.14</ele>
        <time>2026-08-27T08:58:44Z</time>
      </trkpt>
      <trkpt lat="44.35883" lon="4.83477">
        <ele>181.38</ele>
        <time>2026-08-27T08:58:45Z</time>
      </trkpt>
      <trkpt lat="44.35887" lon="4.83444">
        <ele>184.58</ele>
        <time>2026-08-27T08:58:58Z</time>
      </trkpt>
      <trkpt lat="44.35897" lon="4.83406">
        <ele>187.74</ele>
        <time>2026-08-27T08:59:12Z</time>
      </trkpt>
      <trkpt lat="44.35908" lon="4.83364">
        <ele>189.82</ele>
        <time>2026-08-27T08:59:26Z</time>
      </trkpt>
      <trkpt lat="44.3592" lon="4.83345">
        <ele>189.66</ele>
        <time>2026-08-27T08:59:35Z</time>
      </trkpt>
      <trkpt lat="44.35922" lon="4.83345">
        <ele>189.76</ele>
        <time>2026-08-27T08:59:36Z</time>
      </trkpt>
      <trkpt lat="44.3593" lon="4.83348">
        <ele>190.55</ele>
        <time>2026-08-27T08:59:40Z</time>
      </trkpt>
      <trkpt lat="44.35931" lon="4.83349">
        <ele>190.66</ele>
        <time>2026-08-27T08:59:41Z</time>
      </trkpt>
      <trkpt lat="44.35957" lon="4.83366">
        <ele>193.27</ele>
        <time>2026-08-27T08:59:54Z</time>
      </trkpt>
      <trkpt lat="44.35979" lon="4.83376">
        <ele>195.06</ele>
        <time>2026-08-27T09:00:05Z</time>
      </trkpt>
      <trkpt lat="44.36003" lon="4.83378">
        <ele>198.12</ele>
        <time>2026-08-27T09:00:16Z</time>
      </trkpt>
      <trkpt lat="44.36022" lon="4.83386">
        <ele>199.09</ele>
        <time>2026-08-27T09:00:27Z</time>
      </trkpt>
      <trkpt lat="44.36028" lon="4.83385">
        <ele>198.57</ele>
        <time>2026-08-27T09:00:45Z</time>
      </trkpt>
      <trkpt lat="44.36029" lon="4.83385">
        <ele>199.1</ele>
        <time>2026-08-27T09:01:32Z</time>
      </trkpt>
      <trkpt lat="44.3603" lon="4.83384">
        <ele>199.33</ele>
        <time>2026-08-27T09:02:30Z</time>
      </trkpt>
      <trkpt lat="44.3603" lon="4.83386">
        <ele>199.49</ele>
        <time>2026-08-27T09:03:29Z</time>
      </trkpt>
      <trkpt lat="44.3603" lon="4.8339">
        <ele>199.64</ele>
        <time>2026-08-27T09:04:43Z</time>
      </trkpt>
      <trkpt lat="44.3603" lon="4.83387">
        <ele>200.09</ele>
        <time>2026-08-27T09:05:54Z</time>
      </trkpt>
      <trkpt lat="44.3603" lon="4.8339">
        <ele>200.37</ele>
        <time>2026-08-27T09:06:54Z</time>
      </trkpt>
      <trkpt lat="44.3603" lon="4.83386">
        <ele>200.75</ele>
        <time>2026-08-27T09:07:58Z</time>
      </trkpt>
      <trkpt lat="44.36028" lon="4.83389">
        <ele>201.36</ele>
        <time>2026-08-27T09:09:22Z</time>
      </trkpt>
      <trkpt lat="44.36029" lon="4.83387">
        <ele>202</ele>
        <time>2026-08-27T09:10:34Z</time>
      </trkpt>
      <trkpt lat="44.3603" lon="4.83387">
        <ele>202.15</ele>
        <time>2026-08-27T09:11:40Z</time>
      </trkpt>
      <trkpt lat="44.3603" lon="4.83386">
        <ele>202.23</ele>
        <time>2026-08-27T09:12:16Z</time>
      </trkpt>
      <trkpt lat="44.3603" lon="4.83381">
        <ele>202.48</ele>
        <time>2026-08-27T09:13:11Z</time>
      </trkpt>
      <trkpt lat="44.36031" lon="4.83385">
        <ele>203.16</ele>
        <time>2026-08-27T09:14:37Z</time>
      </trkpt>
      <trkpt lat="44.36034" lon="4.83385">
        <ele>203.62</ele>
        <time>2026-08-27T09:15:42Z</time>
      </trkpt>
      <trkpt lat="44.36035" lon="4.83389">
        <ele>204.84</ele>
        <time>2026-08-27T09:16:37Z</time>
      </trkpt>
      <trkpt lat="44.36049" lon="4.834">
        <ele>205.16</ele>
        <time>2026-08-27T09:16:48Z</time>
      </trkpt>
      <trkpt lat="44.3606" lon="4.8341">
        <ele>206.02</ele>
        <time>2026-08-27T09:16:57Z</time>
      </trkpt>
      <trkpt lat="44.36061" lon="4.83412">
        <ele>206.15</ele>
        <time>2026-08-27T09:16:58Z</time>
      </trkpt>
      <trkpt lat="44.36062" lon="4.83414">
        <ele>206.18</ele>
        <time>2026-08-27T09:16:59Z</time>
      </trkpt>
      <trkpt lat="44.36081" lon="4.8343">
        <ele>207.67</ele>
        <time>2026-08-27T09:17:10Z</time>
      </trkpt>
      <trkpt lat="44.36083" lon="4.83435">
        <ele>208</ele>
        <time>2026-08-27T09:17:12Z</time>
      </trkpt>
      <trkpt lat="44.36091" lon="4.83444">
        <ele>208.12</ele>
        <time>2026-08-27T09:17:16Z</time>
      </trkpt>
      <trkpt lat="44.36095" lon="4.83446">
        <ele>207.94</ele>
        <time>2026-08-27T09:17:17Z</time>
      </trkpt>
      <trkpt lat="44.36098" lon="4.83448">
        <ele>207.83</ele>
        <time>2026-08-27T09:17:18Z</time>
      </trkpt>
      <trkpt lat="44.3613" lon="4.83462">
        <ele>206.95</ele>
        <time>2026-08-27T09:17:29Z</time>
      </trkpt>
      <trkpt lat="44.36163" lon="4.83474">
        <ele>207.42</ele>
        <time>2026-08-27T09:17:41Z</time>
      </trkpt>
      <trkpt lat="44.36167" lon="4.83478">
        <ele>206.66</ele>
        <time>2026-08-27T09:17:43Z</time>
      </trkpt>
      <trkpt lat="44.36169" lon="4.83481">
        <ele>206.14</ele>
        <time>2026-08-27T09:17:44Z</time>
      </trkpt>
      <trkpt lat="44.3617" lon="4.83484">
        <ele>205.9</ele>
        <time>2026-08-27T09:17:45Z</time>
      </trkpt>
      <trkpt lat="44.3617" lon="4.83487">
        <ele>205.72</ele>
        <time>2026-08-27T09:17:46Z</time>
      </trkpt>
      <trkpt lat="44.36171" lon="4.83491">
        <ele>205.56</ele>
        <time>2026-08-27T09:17:47Z</time>
      </trkpt>
      <trkpt lat="44.36171" lon="4.83496">
        <ele>205.38</ele>
        <time>2026-08-27T09:17:48Z</time>
      </trkpt>
      <trkpt lat="44.36172" lon="4.83501">
        <ele>205.29</ele>
        <time>2026-08-27T09:17:49Z</time>
      </trkpt>
      <trkpt lat="44.36173" lon="4.83506">
        <ele>205.17</ele>
        <time>2026-08-27T09:17:50Z</time>
      </trkpt>
      <trkpt lat="44.36174" lon="4.83511">
        <ele>204.54</ele>
        <time>2026-08-27T09:17:51Z</time>
      </trkpt>
      <trkpt lat="44.36175" lon="4.83517">
        <ele>204.46</ele>
        <time>2026-08-27T09:17:52Z</time>
      </trkpt>
      <trkpt lat="44.36177" lon="4.83523">
        <ele>203.75</ele>
        <time>2026-08-27T09:17:53Z</time>
      </trkpt>
      <trkpt lat="44.36181" lon="4.8354">
        <ele>202.72</ele>
        <time>2026-08-27T09:17:56Z</time>
      </trkpt>
      <trkpt lat="44.36181" lon="4.83545">
        <ele>202.47</ele>
        <time>2026-08-27T09:17:57Z</time>
      </trkpt>
      <trkpt lat="44.36182" lon="4.83549">
        <ele>202</ele>
        <time>2026-08-27T09:17:58Z</time>
      </trkpt>
      <trkpt lat="44.36184" lon="4.83552">
        <ele>201.91</ele>
        <time>2026-08-27T09:17:59Z</time>
      </trkpt>
      <trkpt lat="44.36185" lon="4.83553">
        <ele>201.91</ele>
        <time>2026-08-27T09:18:00Z</time>
      </trkpt>
      <trkpt lat="44.36187" lon="4.83555">
        <ele>201.79</ele>
        <time>2026-08-27T09:18:01Z</time>
      </trkpt>
      <trkpt lat="44.3619" lon="4.83556">
        <ele>201.57</ele>
        <time>2026-08-27T09:18:02Z</time>
      </trkpt>
      <trkpt lat="44.36193" lon="4.83556">
        <ele>201.42</ele>
        <time>2026-08-27T09:18:03Z</time>
      </trkpt>
      <trkpt lat="44.36196" lon="4.83556">
        <ele>201.12</ele>
        <time>2026-08-27T09:18:04Z</time>
      </trkpt>
      <trkpt lat="44.36202" lon="4.83556">
        <ele>200.52</ele>
        <time>2026-08-27T09:18:06Z</time>
      </trkpt>
      <trkpt lat="44.36206" lon="4.83556">
        <ele>199.87</ele>
        <time>2026-08-27T09:18:07Z</time>
      </trkpt>
      <trkpt lat="44.3621" lon="4.83556">
        <ele>199.47</ele>
        <time>2026-08-27T09:18:08Z</time>
      </trkpt>
      <trkpt lat="44.36213" lon="4.83555">
        <ele>198.88</ele>
        <time>2026-08-27T09:18:09Z</time>
      </trkpt>
      <trkpt lat="44.36217" lon="4.83553">
        <ele>198.79</ele>
        <time>2026-08-27T09:18:10Z</time>
      </trkpt>
      <trkpt lat="44.3622" lon="4.83551">
        <ele>198.47</ele>
        <time>2026-08-27T09:18:11Z</time>
      </trkpt>
      <trkpt lat="44.36229" lon="4.83547">
        <ele>196.96</ele>
        <time>2026-08-27T09:18:19Z</time>
      </trkpt>
      <trkpt lat="44.36233" lon="4.83546">
        <ele>197.27</ele>
        <time>2026-08-27T09:19:11Z</time>
      </trkpt>
      <trkpt lat="44.36236" lon="4.83545">
        <ele>198.05</ele>
        <time>2026-08-27T09:19:58Z</time>
      </trkpt>
      <trkpt lat="44.36243" lon="4.83544">
        <ele>197.41</ele>
        <time>2026-08-27T09:20:10Z</time>
      </trkpt>
      <trkpt lat="44.36245" lon="4.83543">
        <ele>197.26</ele>
        <time>2026-08-27T09:20:11Z</time>
      </trkpt>
      <trkpt lat="44.36247" lon="4.83542">
        <ele>197.42</ele>
        <time>2026-08-27T09:20:12Z</time>
      </trkpt>
      <trkpt lat="44.36249" lon="4.83543">
        <ele>197.53</ele>
        <time>2026-08-27T09:20:13Z</time>
      </trkpt>
      <trkpt lat="44.36251" lon="4.83543">
        <ele>197.5</ele>
        <time>2026-08-27T09:20:14Z</time>
      </trkpt>
      <trkpt lat="44.36253" lon="4.83543">
        <ele>197.52</ele>
        <time>2026-08-27T09:20:15Z</time>
      </trkpt>
      <trkpt lat="44.36255" lon="4.83542">
        <ele>197.71</ele>
        <time>2026-08-27T09:20:16Z</time>
      </trkpt>
      <trkpt lat="44.36257" lon="4.8354">
        <ele>197.57</ele>
        <time>2026-08-27T09:20:17Z</time>
      </trkpt>
      <trkpt lat="44.3626" lon="4.83537">
        <ele>197.19</ele>
        <time>2026-08-27T09:20:18Z</time>
      </trkpt>
      <trkpt lat="44.36262" lon="4.83534">
        <ele>197.22</ele>
        <time>2026-08-27T09:20:19Z</time>
      </trkpt>
      <trkpt lat="44.36265" lon="4.83533">
        <ele>197.57</ele>
        <time>2026-08-27T09:20:20Z</time>
      </trkpt>
      <trkpt lat="44.36268" lon="4.83532">
        <ele>197.69</ele>
        <time>2026-08-27T09:20:21Z</time>
      </trkpt>
      <trkpt lat="44.36271" lon="4.83531">
        <ele>197.95</ele>
        <time>2026-08-27T09:20:22Z</time>
      </trkpt>
      <trkpt lat="44.36274" lon="4.83529">
        <ele>198.09</ele>
        <time>2026-08-27T09:20:23Z</time>
      </trkpt>
      <trkpt lat="44.36277" lon="4.83529">
        <ele>198.2</ele>
        <time>2026-08-27T09:20:24Z</time>
      </trkpt>
      <trkpt lat="44.3628" lon="4.83528">
        <ele>198.26</ele>
        <time>2026-08-27T09:20:25Z</time>
      </trkpt>
      <trkpt lat="44.36284" lon="4.83527">
        <ele>198.4</ele>
        <time>2026-08-27T09:20:26Z</time>
      </trkpt>
      <trkpt lat="44.36306" lon="4.83525">
        <ele>198.39</ele>
        <time>2026-08-27T09:20:34Z</time>
      </trkpt>
      <trkpt lat="44.36333" lon="4.83525">
        <ele>198.24</ele>
        <time>2026-08-27T09:20:42Z</time>
      </trkpt>
      <trkpt lat="44.36357" lon="4.83496">
        <ele>200.48</ele>
        <time>2026-08-27T09:20:52Z</time>
      </trkpt>
      <trkpt lat="44.36359" lon="4.8349">
        <ele>201.02</ele>
        <time>2026-08-27T09:20:54Z</time>
      </trkpt>
      <trkpt lat="44.36358" lon="4.83487">
        <ele>201.62</ele>
        <time>2026-08-27T09:20:55Z</time>
      </trkpt>
      <trkpt lat="44.36358" lon="4.83484">
        <ele>202.1</ele>
        <time>2026-08-27T09:20:56Z</time>
      </trkpt>
      <trkpt lat="44.36359" lon="4.83481">
        <ele>202.5</ele>
        <time>2026-08-27T09:20:57Z</time>
      </trkpt>
      <trkpt lat="44.36359" lon="4.83478">
        <ele>202.84</ele>
        <time>2026-08-27T09:20:58Z</time>
      </trkpt>
      <trkpt lat="44.3636" lon="4.83475">
        <ele>203.16</ele>
        <time>2026-08-27T09:20:59Z</time>
      </trkpt>
      <trkpt lat="44.36359" lon="4.83472">
        <ele>203.64</ele>
        <time>2026-08-27T09:21:00Z</time>
      </trkpt>
      <trkpt lat="44.36359" lon="4.8347">
        <ele>203.99</ele>
        <time>2026-08-27T09:21:01Z</time>
      </trkpt>
      <trkpt lat="44.36359" lon="4.83466">
        <ele>204.4</ele>
        <time>2026-08-27T09:21:02Z</time>
      </trkpt>
      <trkpt lat="44.36359" lon="4.83463">
        <ele>204.83</ele>
        <time>2026-08-27T09:21:03Z</time>
      </trkpt>
      <trkpt lat="44.3636" lon="4.8346">
        <ele>205.19</ele>
        <time>2026-08-27T09:21:04Z</time>
      </trkpt>
      <trkpt lat="44.3636" lon="4.83457">
        <ele>205.88</ele>
        <time>2026-08-27T09:21:05Z</time>
      </trkpt>
      <trkpt lat="44.36364" lon="4.83439">
        <ele>208.09</ele>
        <time>2026-08-27T09:21:10Z</time>
      </trkpt>
      <trkpt lat="44.36363" lon="4.83436">
        <ele>208.7</ele>
        <time>2026-08-27T09:21:11Z</time>
      </trkpt>
      <trkpt lat="44.36361" lon="4.83433">
        <ele>209.06</ele>
        <time>2026-08-27T09:21:12Z</time>
      </trkpt>
      <trkpt lat="44.36355" lon="4.83408">
        <ele>212.45</ele>
        <time>2026-08-27T09:21:21Z</time>
      </trkpt>
      <trkpt lat="44.3634" lon="4.83391">
        <ele>212.41</ele>
        <time>2026-08-27T09:21:31Z</time>
      </trkpt>
      <trkpt lat="44.36299" lon="4.83384">
        <ele>211.93</ele>
        <time>2026-08-27T09:21:47Z</time>
      </trkpt>
      <trkpt lat="44.36275" lon="4.83387">
        <ele>210.94</ele>
        <time>2026-08-27T09:21:55Z</time>
      </trkpt>
      <trkpt lat="44.36255" lon="4.83389">
        <ele>210.1</ele>
        <time>2026-08-27T09:21:59Z</time>
      </trkpt>
      <trkpt lat="44.3625" lon="4.8339">
        <ele>209.44</ele>
        <time>2026-08-27T09:22:00Z</time>
      </trkpt>
      <trkpt lat="44.36246" lon="4.8339">
        <ele>209.35</ele>
        <time>2026-08-27T09:22:01Z</time>
      </trkpt>
      <trkpt lat="44.36241" lon="4.83389">
        <ele>209.32</ele>
        <time>2026-08-27T09:22:02Z</time>
      </trkpt>
      <trkpt lat="44.36237" lon="4.83389">
        <ele>208.84</ele>
        <time>2026-08-27T09:22:03Z</time>
      </trkpt>
      <trkpt lat="44.36233" lon="4.8339">
        <ele>209.03</ele>
        <time>2026-08-27T09:22:04Z</time>
      </trkpt>
      <trkpt lat="44.36229" lon="4.83391">
        <ele>208.03</ele>
        <time>2026-08-27T09:22:05Z</time>
      </trkpt>
      <trkpt lat="44.36225" lon="4.83392">
        <ele>207.83</ele>
        <time>2026-08-27T09:22:06Z</time>
      </trkpt>
      <trkpt lat="44.3622" lon="4.83391">
        <ele>206.76</ele>
        <time>2026-08-27T09:22:08Z</time>
      </trkpt>
      <trkpt lat="44.36219" lon="4.8339">
        <ele>206.75</ele>
        <time>2026-08-27T09:22:09Z</time>
      </trkpt>
      <trkpt lat="44.36218" lon="4.83388">
        <ele>206.76</ele>
        <time>2026-08-27T09:22:10Z</time>
      </trkpt>
      <trkpt lat="44.36219" lon="4.83386">
        <ele>206.9</ele>
        <time>2026-08-27T09:22:11Z</time>
      </trkpt>
      <trkpt lat="44.3622" lon="4.83384">
        <ele>206.99</ele>
        <time>2026-08-27T09:22:12Z</time>
      </trkpt>
      <trkpt lat="44.36225" lon="4.83353">
        <ele>206.62</ele>
        <time>2026-08-27T09:22:23Z</time>
      </trkpt>
      <trkpt lat="44.36226" lon="4.83351">
        <ele>206.29</ele>
        <time>2026-08-27T09:22:24Z</time>
      </trkpt>
      <trkpt lat="44.36227" lon="4.83347">
        <ele>205.71</ele>
        <time>2026-08-27T09:22:25Z</time>
      </trkpt>
      <trkpt lat="44.36238" lon="4.83327">
        <ele>204.57</ele>
        <time>2026-08-27T09:22:30Z</time>
      </trkpt>
      <trkpt lat="44.36239" lon="4.83322">
        <ele>204.09</ele>
        <time>2026-08-27T09:22:31Z</time>
      </trkpt>
      <trkpt lat="44.3624" lon="4.83315">
        <ele>203.55</ele>
        <time>2026-08-27T09:22:32Z</time>
      </trkpt>
      <trkpt lat="44.36242" lon="4.83309">
        <ele>202</ele>
        <time>2026-08-27T09:22:33Z</time>
      </trkpt>
      <trkpt lat="44.36245" lon="4.83304">
        <ele>202.01</ele>
        <time>2026-08-27T09:22:34Z</time>
      </trkpt>
      <trkpt lat="44.36247" lon="4.83301">
        <ele>202.03</ele>
        <time>2026-08-27T09:22:35Z</time>
      </trkpt>
      <trkpt lat="44.36248" lon="4.83298">
        <ele>202.31</ele>
        <time>2026-08-27T09:22:36Z</time>
      </trkpt>
      <trkpt lat="44.36249" lon="4.83293">
        <ele>202.42</ele>
        <time>2026-08-27T09:22:37Z</time>
      </trkpt>
      <trkpt lat="44.36254" lon="4.83259">
        <ele>204.07</ele>
        <time>2026-08-27T09:22:47Z</time>
      </trkpt>
      <trkpt lat="44.36253" lon="4.83257">
        <ele>204.22</ele>
        <time>2026-08-27T09:22:49Z</time>
      </trkpt>
      <trkpt lat="44.36252" lon="4.83255">
        <ele>204.13</ele>
        <time>2026-08-27T09:22:50Z</time>
      </trkpt>
      <trkpt lat="44.36251" lon="4.83253">
        <ele>203.79</ele>
        <time>2026-08-27T09:22:51Z</time>
      </trkpt>
      <trkpt lat="44.3625" lon="4.8325">
        <ele>203.5</ele>
        <time>2026-08-27T09:22:52Z</time>
      </trkpt>
      <trkpt lat="44.36249" lon="4.83247">
        <ele>203.29</ele>
        <time>2026-08-27T09:22:53Z</time>
      </trkpt>
      <trkpt lat="44.36248" lon="4.83244">
        <ele>203.06</ele>
        <time>2026-08-27T09:22:54Z</time>
      </trkpt>
      <trkpt lat="44.36247" lon="4.83227">
        <ele>201.78</ele>
        <time>2026-08-27T09:22:59Z</time>
      </trkpt>
      <trkpt lat="44.36246" lon="4.83225">
        <ele>201.17</ele>
        <time>2026-08-27T09:23:00Z</time>
      </trkpt>
      <trkpt lat="44.36244" lon="4.83223">
        <ele>200.94</ele>
        <time>2026-08-27T09:23:01Z</time>
      </trkpt>
      <trkpt lat="44.36241" lon="4.83219">
        <ele>200.18</ele>
        <time>2026-08-27T09:23:03Z</time>
      </trkpt>
      <trkpt lat="44.36241" lon="4.83217">
        <ele>199.99</ele>
        <time>2026-08-27T09:23:04Z</time>
      </trkpt>
      <trkpt lat="44.36241" lon="4.83215">
        <ele>199.85</ele>
        <time>2026-08-27T09:23:05Z</time>
      </trkpt>
      <trkpt lat="44.36244" lon="4.83211">
        <ele>198.13</ele>
        <time>2026-08-27T09:23:08Z</time>
      </trkpt>
      <trkpt lat="44.36259" lon="4.83209">
        <ele>199.35</ele>
        <time>2026-08-27T09:23:17Z</time>
      </trkpt>
      <trkpt lat="44.36281" lon="4.8321">
        <ele>201.01</ele>
        <time>2026-08-27T09:23:28Z</time>
      </trkpt>
      <trkpt lat="44.36289" lon="4.83214">
        <ele>201.43</ele>
        <time>2026-08-27T09:23:32Z</time>
      </trkpt>
      <trkpt lat="44.36291" lon="4.83215">
        <ele>201.64</ele>
        <time>2026-08-27T09:23:33Z</time>
      </trkpt>
      <trkpt lat="44.36292" lon="4.83215">
        <ele>201.96</ele>
        <time>2026-08-27T09:23:34Z</time>
      </trkpt>
      <trkpt lat="44.36294" lon="4.83215">
        <ele>202.04</ele>
        <time>2026-08-27T09:23:35Z</time>
      </trkpt>
      <trkpt lat="44.36296" lon="4.83215">
        <ele>202.15</ele>
        <time>2026-08-27T09:23:36Z</time>
      </trkpt>
      <trkpt lat="44.36298" lon="4.83216">
        <ele>202.18</ele>
        <time>2026-08-27T09:23:37Z</time>
      </trkpt>
      <trkpt lat="44.363" lon="4.83217">
        <ele>202.38</ele>
        <time>2026-08-27T09:23:38Z</time>
      </trkpt>
      <trkpt lat="44.36324" lon="4.83227">
        <ele>205.2</ele>
        <time>2026-08-27T09:23:49Z</time>
      </trkpt>
      <trkpt lat="44.36332" lon="4.8323">
        <ele>205.66</ele>
        <time>2026-08-27T09:23:59Z</time>
      </trkpt>
      <trkpt lat="44.36334" lon="4.8323">
        <ele>205.85</ele>
        <time>2026-08-27T09:24:00Z</time>
      </trkpt>
      <trkpt lat="44.36336" lon="4.8323">
        <ele>206.19</ele>
        <time>2026-08-27T09:24:01Z</time>
      </trkpt>
      <trkpt lat="44.36338" lon="4.83228">
        <ele>206.56</ele>
        <time>2026-08-27T09:24:02Z</time>
      </trkpt>
      <trkpt lat="44.3634" lon="4.83228">
        <ele>206.91</ele>
        <time>2026-08-27T09:24:03Z</time>
      </trkpt>
      <trkpt lat="44.36342" lon="4.83228">
        <ele>207.29</ele>
        <time>2026-08-27T09:24:04Z</time>
      </trkpt>
      <trkpt lat="44.36344" lon="4.83227">
        <ele>207.52</ele>
        <time>2026-08-27T09:24:05Z</time>
      </trkpt>
      <trkpt lat="44.36346" lon="4.83227">
        <ele>207.75</ele>
        <time>2026-08-27T09:24:06Z</time>
      </trkpt>
      <trkpt lat="44.36348" lon="4.83226">
        <ele>208.23</ele>
        <time>2026-08-27T09:24:07Z</time>
      </trkpt>
      <trkpt lat="44.3635" lon="4.83226">
        <ele>208.43</ele>
        <time>2026-08-27T09:24:08Z</time>
      </trkpt>
      <trkpt lat="44.36352" lon="4.83225">
        <ele>208.67</ele>
        <time>2026-08-27T09:24:09Z</time>
      </trkpt>
      <trkpt lat="44.36354" lon="4.83225">
        <ele>208.9</ele>
        <time>2026-08-27T09:24:10Z</time>
      </trkpt>
      <trkpt lat="44.36355" lon="4.83225">
        <ele>209.1</ele>
        <time>2026-08-27T09:24:11Z</time>
      </trkpt>
      <trkpt lat="44.36357" lon="4.83224">
        <ele>209.38</ele>
        <time>2026-08-27T09:24:12Z</time>
      </trkpt>
      <trkpt lat="44.36367" lon="4.83222">
        <ele>210.63</ele>
        <time>2026-08-27T09:24:18Z</time>
      </trkpt>
      <trkpt lat="44.36369" lon="4.83221">
        <ele>210.8</ele>
        <time>2026-08-27T09:24:19Z</time>
      </trkpt>
      <trkpt lat="44.3637" lon="4.8322">
        <ele>211.07</ele>
        <time>2026-08-27T09:24:20Z</time>
      </trkpt>
      <trkpt lat="44.36371" lon="4.83218">
        <ele>211.37</ele>
        <time>2026-08-27T09:24:21Z</time>
      </trkpt>
      <trkpt lat="44.36372" lon="4.83216">
        <ele>211.89</ele>
        <time>2026-08-27T09:24:22Z</time>
      </trkpt>
      <trkpt lat="44.36373" lon="4.83214">
        <ele>211.88</ele>
        <time>2026-08-27T09:24:23Z</time>
      </trkpt>
      <trkpt lat="44.36374" lon="4.83212">
        <ele>212.7</ele>
        <time>2026-08-27T09:24:24Z</time>
      </trkpt>
      <trkpt lat="44.36375" lon="4.83211">
        <ele>212.89</ele>
        <time>2026-08-27T09:24:25Z</time>
      </trkpt>
      <trkpt lat="44.36376" lon="4.83209">
        <ele>212.98</ele>
        <time>2026-08-27T09:24:26Z</time>
      </trkpt>
      <trkpt lat="44.36377" lon="4.83202">
        <ele>213.36</ele>
        <time>2026-08-27T09:24:40Z</time>
      </trkpt>
      <trkpt lat="44.36376" lon="4.83181">
        <ele>214.29</ele>
        <time>2026-08-27T09:24:49Z</time>
      </trkpt>
      <trkpt lat="44.36377" lon="4.83179">
        <ele>214.33</ele>
        <time>2026-08-27T09:24:50Z</time>
      </trkpt>
      <trkpt lat="44.36379" lon="4.83178">
        <ele>214.7</ele>
        <time>2026-08-27T09:24:51Z</time>
      </trkpt>
      <trkpt lat="44.36381" lon="4.83178">
        <ele>214.85</ele>
        <time>2026-08-27T09:24:52Z</time>
      </trkpt>
      <trkpt lat="44.36383" lon="4.83179">
        <ele>215.05</ele>
        <time>2026-08-27T09:24:53Z</time>
      </trkpt>
      <trkpt lat="44.36385" lon="4.8318">
        <ele>215.03</ele>
        <time>2026-08-27T09:24:54Z</time>
      </trkpt>
      <trkpt lat="44.36414" lon="4.83199">
        <ele>216.42</ele>
        <time>2026-08-27T09:25:09Z</time>
      </trkpt>
      <trkpt lat="44.36445" lon="4.83216">
        <ele>218.45</ele>
        <time>2026-08-27T09:25:24Z</time>
      </trkpt>
      <trkpt lat="44.36474" lon="4.8321">
        <ele>221.42</ele>
        <time>2026-08-27T09:25:37Z</time>
      </trkpt>
      <trkpt lat="44.36475" lon="4.83208">
        <ele>221.83</ele>
        <time>2026-08-27T09:25:38Z</time>
      </trkpt>
      <trkpt lat="44.36476" lon="4.83205">
        <ele>222.01</ele>
        <time>2026-08-27T09:25:39Z</time>
      </trkpt>
      <trkpt lat="44.36487" lon="4.83174">
        <ele>225.22</ele>
        <time>2026-08-27T09:25:50Z</time>
      </trkpt>
      <trkpt lat="44.36497" lon="4.83148">
        <ele>228.69</ele>
        <time>2026-08-27T09:25:59Z</time>
      </trkpt>
      <trkpt lat="44.36502" lon="4.83134">
        <ele>230.21</ele>
        <time>2026-08-27T09:26:04Z</time>
      </trkpt>
      <trkpt lat="44.36504" lon="4.83133">
        <ele>230.33</ele>
        <time>2026-08-27T09:26:05Z</time>
      </trkpt>
      <trkpt lat="44.36506" lon="4.83132">
        <ele>230.48</ele>
        <time>2026-08-27T09:26:06Z</time>
      </trkpt>
      <trkpt lat="44.36508" lon="4.83132">
        <ele>230.7</ele>
        <time>2026-08-27T09:26:07Z</time>
      </trkpt>
      <trkpt lat="44.36511" lon="4.83132">
        <ele>230.89</ele>
        <time>2026-08-27T09:26:08Z</time>
      </trkpt>
      <trkpt lat="44.36527" lon="4.83133">
        <ele>232.08</ele>
        <time>2026-08-27T09:26:21Z</time>
      </trkpt>
      <trkpt lat="44.36542" lon="4.83135">
        <ele>232.5</ele>
        <time>2026-08-27T09:26:35Z</time>
      </trkpt>
      <trkpt lat="44.36568" lon="4.83139">
        <ele>232.48</ele>
        <time>2026-08-27T09:26:47Z</time>
      </trkpt>
      <trkpt lat="44.3657" lon="4.83141">
        <ele>232.57</ele>
        <time>2026-08-27T09:26:48Z</time>
      </trkpt>
      <trkpt lat="44.36571" lon="4.83143">
        <ele>232.79</ele>
        <time>2026-08-27T09:26:49Z</time>
      </trkpt>
      <trkpt lat="44.36573" lon="4.83146">
        <ele>233.04</ele>
        <time>2026-08-27T09:26:50Z</time>
      </trkpt>
      <trkpt lat="44.36575" lon="4.83148">
        <ele>233.12</ele>
        <time>2026-08-27T09:26:51Z</time>
      </trkpt>
      <trkpt lat="44.36577" lon="4.8315">
        <ele>233.13</ele>
        <time>2026-08-27T09:26:52Z</time>
      </trkpt>
      <trkpt lat="44.36579" lon="4.83152">
        <ele>233.45</ele>
        <time>2026-08-27T09:26:53Z</time>
      </trkpt>
      <trkpt lat="44.36581" lon="4.83154">
        <ele>233.63</ele>
        <time>2026-08-27T09:26:54Z</time>
      </trkpt>
      <trkpt lat="44.36583" lon="4.83156">
        <ele>233.39</ele>
        <time>2026-08-27T09:26:55Z</time>
      </trkpt>
      <trkpt lat="44.36585" lon="4.83158">
        <ele>233.58</ele>
        <time>2026-08-27T09:26:56Z</time>
      </trkpt>
      <trkpt lat="44.36587" lon="4.83159">
        <ele>233.79</ele>
        <time>2026-08-27T09:26:57Z</time>
      </trkpt>
      <trkpt lat="44.36588" lon="4.83159">
        <ele>233.66</ele>
        <time>2026-08-27T09:26:58Z</time>
      </trkpt>
      <trkpt lat="44.3659" lon="4.83158">
        <ele>233.81</ele>
        <time>2026-08-27T09:26:59Z</time>
      </trkpt>
      <trkpt lat="44.36612" lon="4.8316">
        <ele>234.47</ele>
        <time>2026-08-27T09:27:08Z</time>
      </trkpt>
      <trkpt lat="44.36629" lon="4.83167">
        <ele>235.51</ele>
        <time>2026-08-27T09:27:16Z</time>
      </trkpt>
      <trkpt lat="44.36632" lon="4.83167">
        <ele>235.53</ele>
        <time>2026-08-27T09:27:17Z</time>
      </trkpt>
      <trkpt lat="44.36634" lon="4.83168">
        <ele>235.7</ele>
        <time>2026-08-27T09:27:18Z</time>
      </trkpt>
      <trkpt lat="44.3664" lon="4.83169">
        <ele>235.78</ele>
        <time>2026-08-27T09:27:20Z</time>
      </trkpt>
      <trkpt lat="44.36642" lon="4.83172">
        <ele>235.79</ele>
        <time>2026-08-27T09:27:21Z</time>
      </trkpt>
      <trkpt lat="44.36644" lon="4.83174">
        <ele>236.27</ele>
        <time>2026-08-27T09:27:22Z</time>
      </trkpt>
      <trkpt lat="44.36646" lon="4.83175">
        <ele>236.58</ele>
        <time>2026-08-27T09:27:23Z</time>
      </trkpt>
      <trkpt lat="44.36648" lon="4.83178">
        <ele>236.72</ele>
        <time>2026-08-27T09:27:24Z</time>
      </trkpt>
      <trkpt lat="44.3665" lon="4.8318">
        <ele>237.08</ele>
        <time>2026-08-27T09:27:25Z</time>
      </trkpt>
      <trkpt lat="44.36652" lon="4.83182">
        <ele>237.39</ele>
        <time>2026-08-27T09:27:26Z</time>
      </trkpt>
      <trkpt lat="44.36654" lon="4.83184">
        <ele>237.71</ele>
        <time>2026-08-27T09:27:27Z</time>
      </trkpt>
      <trkpt lat="44.36656" lon="4.83186">
        <ele>237.79</ele>
        <time>2026-08-27T09:27:28Z</time>
      </trkpt>
      <trkpt lat="44.36657" lon="4.83187">
        <ele>237.95</ele>
        <time>2026-08-27T09:27:29Z</time>
      </trkpt>
      <trkpt lat="44.36657" lon="4.8319">
        <ele>238.07</ele>
        <time>2026-08-27T09:27:30Z</time>
      </trkpt>
      <trkpt lat="44.36659" lon="4.83192">
        <ele>238.2</ele>
        <time>2026-08-27T09:27:31Z</time>
      </trkpt>
      <trkpt lat="44.3666" lon="4.83193">
        <ele>238.26</ele>
        <time>2026-08-27T09:27:32Z</time>
      </trkpt>
      <trkpt lat="44.36668" lon="4.83202">
        <ele>238.74</ele>
        <time>2026-08-27T09:27:36Z</time>
      </trkpt>
      <trkpt lat="44.36671" lon="4.83204">
        <ele>238.7</ele>
        <time>2026-08-27T09:27:37Z</time>
      </trkpt>
      <trkpt lat="44.36673" lon="4.83206">
        <ele>238.78</ele>
        <time>2026-08-27T09:27:38Z</time>
      </trkpt>
      <trkpt lat="44.36679" lon="4.83213">
        <ele>238.75</ele>
        <time>2026-08-27T09:27:41Z</time>
      </trkpt>
      <trkpt lat="44.36681" lon="4.83215">
        <ele>238.75</ele>
        <time>2026-08-27T09:27:42Z</time>
      </trkpt>
      <trkpt lat="44.36684" lon="4.83218">
        <ele>238.78</ele>
        <time>2026-08-27T09:27:44Z</time>
      </trkpt>
      <trkpt lat="44.36688" lon="4.83227">
        <ele>238.63</ele>
        <time>2026-08-27T09:27:56Z</time>
      </trkpt>
      <trkpt lat="44.36688" lon="4.83229">
        <ele>238.64</ele>
        <time>2026-08-27T09:28:00Z</time>
      </trkpt>
      <trkpt lat="44.36687" lon="4.83231">
        <ele>238.65</ele>
        <time>2026-08-27T09:28:01Z</time>
      </trkpt>
      <trkpt lat="44.36686" lon="4.83234">
        <ele>238.57</ele>
        <time>2026-08-27T09:28:02Z</time>
      </trkpt>
      <trkpt lat="44.36685" lon="4.83236">
        <ele>238.28</ele>
        <time>2026-08-27T09:28:03Z</time>
      </trkpt>
      <trkpt lat="44.36683" lon="4.83239">
        <ele>238.16</ele>
        <time>2026-08-27T09:28:04Z</time>
      </trkpt>
      <trkpt lat="44.36681" lon="4.83242">
        <ele>237.95</ele>
        <time>2026-08-27T09:28:05Z</time>
      </trkpt>
      <trkpt lat="44.36679" lon="4.83245">
        <ele>237.58</ele>
        <time>2026-08-27T09:28:06Z</time>
      </trkpt>
      <trkpt lat="44.36664" lon="4.83263">
        <ele>235.46</ele>
        <time>2026-08-27T09:28:11Z</time>
      </trkpt>
      <trkpt lat="44.36661" lon="4.83266">
        <ele>234.54</ele>
        <time>2026-08-27T09:28:12Z</time>
      </trkpt>
      <trkpt lat="44.36654" lon="4.83274">
        <ele>233.31</ele>
        <time>2026-08-27T09:28:14Z</time>
      </trkpt>
      <trkpt lat="44.36637" lon="4.83294">
        <ele>230.19</ele>
        <time>2026-08-27T09:28:19Z</time>
      </trkpt>
      <trkpt lat="44.3663" lon="4.83302">
        <ele>228.73</ele>
        <time>2026-08-27T09:28:21Z</time>
      </trkpt>
      <trkpt lat="44.36627" lon="4.83306">
        <ele>227.9</ele>
        <time>2026-08-27T09:28:22Z</time>
      </trkpt>
      <trkpt lat="44.36623" lon="4.8331">
        <ele>227.46</ele>
        <time>2026-08-27T09:28:23Z</time>
      </trkpt>
      <trkpt lat="44.36619" lon="4.83314">
        <ele>226.77</ele>
        <time>2026-08-27T09:28:24Z</time>
      </trkpt>
      <trkpt lat="44.36616" lon="4.83318">
        <ele>226.57</ele>
        <time>2026-08-27T09:28:25Z</time>
      </trkpt>
      <trkpt lat="44.36614" lon="4.83321">
        <ele>225.88</ele>
        <time>2026-08-27T09:28:26Z</time>
      </trkpt>
      <trkpt lat="44.36612" lon="4.83325">
        <ele>225.63</ele>
        <time>2026-08-27T09:28:27Z</time>
      </trkpt>
      <trkpt lat="44.36601" lon="4.83353">
        <ele>224.74</ele>
        <time>2026-08-27T09:28:33Z</time>
      </trkpt>
      <trkpt lat="44.36601" lon="4.83355">
        <ele>224.68</ele>
        <time>2026-08-27T09:28:34Z</time>
      </trkpt>
      <trkpt lat="44.36602" lon="4.83357">
        <ele>224.77</ele>
        <time>2026-08-27T09:28:35Z</time>
      </trkpt>
      <trkpt lat="44.36602" lon="4.83359">
        <ele>224.83</ele>
        <time>2026-08-27T09:28:36Z</time>
      </trkpt>
      <trkpt lat="44.36603" lon="4.83359">
        <ele>224.89</ele>
        <time>2026-08-27T09:28:37Z</time>
      </trkpt>
      <trkpt lat="44.36604" lon="4.8336">
        <ele>225.03</ele>
        <time>2026-08-27T09:28:38Z</time>
      </trkpt>
      <trkpt lat="44.36604" lon="4.83366">
        <ele>225.52</ele>
        <time>2026-08-27T09:28:50Z</time>
      </trkpt>
      <trkpt lat="44.36606" lon="4.83365">
        <ele>225.56</ele>
        <time>2026-08-27T09:28:51Z</time>
      </trkpt>
      <trkpt lat="44.36608" lon="4.83365">
        <ele>225.85</ele>
        <time>2026-08-27T09:28:52Z</time>
      </trkpt>
      <trkpt lat="44.3661" lon="4.83365">
        <ele>226.09</ele>
        <time>2026-08-27T09:28:53Z</time>
      </trkpt>
      <trkpt lat="44.36613" lon="4.83366">
        <ele>226.37</ele>
        <time>2026-08-27T09:28:54Z</time>
      </trkpt>
      <trkpt lat="44.36615" lon="4.83366">
        <ele>226.52</ele>
        <time>2026-08-27T09:28:55Z</time>
      </trkpt>
      <trkpt lat="44.36618" lon="4.83367">
        <ele>226.71</ele>
        <time>2026-08-27T09:28:56Z</time>
      </trkpt>
      <trkpt lat="44.36621" lon="4.83368">
        <ele>226.87</ele>
        <time>2026-08-27T09:28:57Z</time>
      </trkpt>
      <trkpt lat="44.36644" lon="4.83374">
        <ele>228.61</ele>
        <time>2026-08-27T09:29:07Z</time>
      </trkpt>
      <trkpt lat="44.36645" lon="4.83376">
        <ele>228.78</ele>
        <time>2026-08-27T09:29:08Z</time>
      </trkpt>
      <trkpt lat="44.36645" lon="4.83382">
        <ele>227.97</ele>
        <time>2026-08-27T09:29:13Z</time>
      </trkpt>
      <trkpt lat="44.36645" lon="4.83385">
        <ele>227.93</ele>
        <time>2026-08-27T09:29:14Z</time>
      </trkpt>
      <trkpt lat="44.36645" lon="4.83387">
        <ele>227.64</ele>
        <time>2026-08-27T09:29:15Z</time>
      </trkpt>
      <trkpt lat="44.36645" lon="4.8339">
        <ele>227.35</ele>
        <time>2026-08-27T09:29:16Z</time>
      </trkpt>
      <trkpt lat="44.36645" lon="4.83393">
        <ele>226.73</ele>
        <time>2026-08-27T09:29:17Z</time>
      </trkpt>
      <trkpt lat="44.36644" lon="4.83397">
        <ele>226.39</ele>
        <time>2026-08-27T09:29:18Z</time>
      </trkpt>
      <trkpt lat="44.36643" lon="4.83401">
        <ele>225.76</ele>
        <time>2026-08-27T09:29:19Z</time>
      </trkpt>
      <trkpt lat="44.36643" lon="4.83404">
        <ele>225.19</ele>
        <time>2026-08-27T09:29:20Z</time>
      </trkpt>
      <trkpt lat="44.36644" lon="4.83407">
        <ele>224.5</ele>
        <time>2026-08-27T09:29:21Z</time>
      </trkpt>
      <trkpt lat="44.36645" lon="4.8341">
        <ele>224.02</ele>
        <time>2026-08-27T09:29:22Z</time>
      </trkpt>
      <trkpt lat="44.36647" lon="4.83412">
        <ele>223.87</ele>
        <time>2026-08-27T09:29:23Z</time>
      </trkpt>
      <trkpt lat="44.36649" lon="4.83415">
        <ele>223.85</ele>
        <time>2026-08-27T09:29:24Z</time>
      </trkpt>
      <trkpt lat="44.3665" lon="4.83417">
        <ele>223.69</ele>
        <time>2026-08-27T09:29:25Z</time>
      </trkpt>
      <trkpt lat="44.36651" lon="4.8342">
        <ele>223.58</ele>
        <time>2026-08-27T09:29:26Z</time>
      </trkpt>
      <trkpt lat="44.36651" lon="4.83424">
        <ele>223.1</ele>
        <time>2026-08-27T09:29:27Z</time>
      </trkpt>
      <trkpt lat="44.36651" lon="4.8343">
        <ele>221.81</ele>
        <time>2026-08-27T09:29:29Z</time>
      </trkpt>
      <trkpt lat="44.3665" lon="4.83434">
        <ele>221.13</ele>
        <time>2026-08-27T09:29:30Z</time>
      </trkpt>
      <trkpt lat="44.3665" lon="4.83437">
        <ele>220.4</ele>
        <time>2026-08-27T09:29:31Z</time>
      </trkpt>
      <trkpt lat="44.36651" lon="4.83441">
        <ele>219.71</ele>
        <time>2026-08-27T09:29:32Z</time>
      </trkpt>
      <trkpt lat="44.36652" lon="4.83445">
        <ele>219.17</ele>
        <time>2026-08-27T09:29:33Z</time>
      </trkpt>
      <trkpt lat="44.36652" lon="4.83451">
        <ele>218.5</ele>
        <time>2026-08-27T09:29:34Z</time>
      </trkpt>
      <trkpt lat="44.36652" lon="4.83457">
        <ele>217.83</ele>
        <time>2026-08-27T09:29:35Z</time>
      </trkpt>
      <trkpt lat="44.36652" lon="4.83463">
        <ele>217.07</ele>
        <time>2026-08-27T09:29:36Z</time>
      </trkpt>
      <trkpt lat="44.36654" lon="4.83479">
        <ele>214.95</ele>
        <time>2026-08-27T09:29:39Z</time>
      </trkpt>
      <trkpt lat="44.36656" lon="4.83483">
        <ele>214.56</ele>
        <time>2026-08-27T09:29:40Z</time>
      </trkpt>
      <trkpt lat="44.36657" lon="4.83486">
        <ele>214.44</ele>
        <time>2026-08-27T09:29:41Z</time>
      </trkpt>
      <trkpt lat="44.36659" lon="4.83489">
        <ele>213.99</ele>
        <time>2026-08-27T09:29:42Z</time>
      </trkpt>
      <trkpt lat="44.3666" lon="4.83492">
        <ele>213.88</ele>
        <time>2026-08-27T09:29:43Z</time>
      </trkpt>
      <trkpt lat="44.3666" lon="4.83497">
        <ele>213.27</ele>
        <time>2026-08-27T09:29:45Z</time>
      </trkpt>
      <trkpt lat="44.3666" lon="4.83499">
        <ele>212.71</ele>
        <time>2026-08-27T09:29:46Z</time>
      </trkpt>
      <trkpt lat="44.3666" lon="4.83503">
        <ele>212.29</ele>
        <time>2026-08-27T09:29:47Z</time>
      </trkpt>
      <trkpt lat="44.3666" lon="4.83505">
        <ele>211.77</ele>
        <time>2026-08-27T09:29:48Z</time>
      </trkpt>
      <trkpt lat="44.3666" lon="4.83508">
        <ele>211.39</ele>
        <time>2026-08-27T09:29:49Z</time>
      </trkpt>
      <trkpt lat="44.36661" lon="4.83529">
        <ele>210.1</ele>
        <time>2026-08-27T09:30:03Z</time>
      </trkpt>
      <trkpt lat="44.36661" lon="4.83531">
        <ele>209.74</ele>
        <time>2026-08-27T09:30:04Z</time>
      </trkpt>
      <trkpt lat="44.36661" lon="4.83534">
        <ele>209.3</ele>
        <time>2026-08-27T09:30:05Z</time>
      </trkpt>
      <trkpt lat="44.36661" lon="4.83538">
        <ele>208.93</ele>
        <time>2026-08-27T09:30:06Z</time>
      </trkpt>
      <trkpt lat="44.3666" lon="4.83542">
        <ele>208.35</ele>
        <time>2026-08-27T09:30:07Z</time>
      </trkpt>
      <trkpt lat="44.3666" lon="4.83547">
        <ele>207.72</ele>
        <time>2026-08-27T09:30:08Z</time>
      </trkpt>
      <trkpt lat="44.3666" lon="4.83552">
        <ele>207.23</ele>
        <time>2026-08-27T09:30:09Z</time>
      </trkpt>
      <trkpt lat="44.36661" lon="4.83557">
        <ele>206.96</ele>
        <time>2026-08-27T09:30:10Z</time>
      </trkpt>
      <trkpt lat="44.36661" lon="4.83562">
        <ele>206.51</ele>
        <time>2026-08-27T09:30:11Z</time>
      </trkpt>
      <trkpt lat="44.36661" lon="4.83565">
        <ele>206.4</ele>
        <time>2026-08-27T09:30:12Z</time>
      </trkpt>
      <trkpt lat="44.36661" lon="4.83569">
        <ele>205.87</ele>
        <time>2026-08-27T09:30:13Z</time>
      </trkpt>
      <trkpt lat="44.3666" lon="4.83573">
        <ele>205.39</ele>
        <time>2026-08-27T09:30:14Z</time>
      </trkpt>
      <trkpt lat="44.36659" lon="4.83577">
        <ele>204.52</ele>
        <time>2026-08-27T09:30:15Z</time>
      </trkpt>
      <trkpt lat="44.36658" lon="4.83581">
        <ele>203.71</ele>
        <time>2026-08-27T09:30:16Z</time>
      </trkpt>
      <trkpt lat="44.36658" lon="4.83586">
        <ele>203.03</ele>
        <time>2026-08-27T09:30:17Z</time>
      </trkpt>
      <trkpt lat="44.36657" lon="4.8359">
        <ele>202.41</ele>
        <time>2026-08-27T09:30:18Z</time>
      </trkpt>
      <trkpt lat="44.36654" lon="4.83592">
        <ele>201.98</ele>
        <time>2026-08-27T09:30:19Z</time>
      </trkpt>
      <trkpt lat="44.36652" lon="4.83594">
        <ele>201.35</ele>
        <time>2026-08-27T09:30:20Z</time>
      </trkpt>
      <trkpt lat="44.36649" lon="4.83595">
        <ele>200.91</ele>
        <time>2026-08-27T09:30:21Z</time>
      </trkpt>
      <trkpt lat="44.36647" lon="4.83597">
        <ele>200.41</ele>
        <time>2026-08-27T09:30:22Z</time>
      </trkpt>
      <trkpt lat="44.36644" lon="4.83603">
        <ele>199.16</ele>
        <time>2026-08-27T09:30:25Z</time>
      </trkpt>
      <trkpt lat="44.36639" lon="4.83609">
        <ele>198.99</ele>
        <time>2026-08-27T09:30:29Z</time>
      </trkpt>
      <trkpt lat="44.36637" lon="4.8361">
        <ele>198.86</ele>
        <time>2026-08-27T09:30:33Z</time>
      </trkpt>
      <trkpt lat="44.36627" lon="4.83593">
        <ele>200.1</ele>
        <time>2026-08-27T09:30:40Z</time>
      </trkpt>
      <trkpt lat="44.36606" lon="4.83595">
        <ele>199.73</ele>
        <time>2026-08-27T09:30:49Z</time>
      </trkpt>
      <trkpt lat="44.36591" lon="4.83592">
        <ele>198.61</ele>
        <time>2026-08-27T09:30:55Z</time>
      </trkpt>
      <trkpt lat="44.36582" lon="4.83596">
        <ele>196.83</ele>
        <time>2026-08-27T09:30:59Z</time>
      </trkpt>
      <trkpt lat="44.36575" lon="4.83598">
        <ele>196.48</ele>
        <time>2026-08-27T09:31:01Z</time>
      </trkpt>
      <trkpt lat="44.36559" lon="4.83609">
        <ele>194.07</ele>
        <time>2026-08-27T09:31:08Z</time>
      </trkpt>
      <trkpt lat="44.3654" lon="4.83635">
        <ele>191.65</ele>
        <time>2026-08-27T09:31:17Z</time>
      </trkpt>
      <trkpt lat="44.36531" lon="4.8364">
        <ele>191.41</ele>
        <time>2026-08-27T09:31:25Z</time>
      </trkpt>
      <trkpt lat="44.3651" lon="4.8366">
        <ele>187.95</ele>
        <time>2026-08-27T09:31:32Z</time>
      </trkpt>
      <trkpt lat="44.36497" lon="4.83669">
        <ele>184.75</ele>
        <time>2026-08-27T09:31:37Z</time>
      </trkpt>
      <trkpt lat="44.36491" lon="4.83674">
        <ele>182.37</ele>
        <time>2026-08-27T09:31:40Z</time>
      </trkpt>
      <trkpt lat="44.36485" lon="4.83684">
        <ele>180.29</ele>
        <time>2026-08-27T09:31:46Z</time>
      </trkpt>
      <trkpt lat="44.36476" lon="4.83705">
        <ele>177.2</ele>
        <time>2026-08-27T09:31:56Z</time>
      </trkpt>
      <trkpt lat="44.36475" lon="4.83731">
        <ele>174.72</ele>
        <time>2026-08-27T09:32:02Z</time>
      </trkpt>
      <trkpt lat="44.36474" lon="4.83738">
        <ele>173.81</ele>
        <time>2026-08-27T09:32:03Z</time>
      </trkpt>
      <trkpt lat="44.3647" lon="4.83761">
        <ele>171.98</ele>
        <time>2026-08-27T09:32:07Z</time>
      </trkpt>
      <trkpt lat="44.36468" lon="4.83767">
        <ele>171.23</ele>
        <time>2026-08-27T09:32:08Z</time>
      </trkpt>
      <trkpt lat="44.36465" lon="4.83773">
        <ele>170.19</ele>
        <time>2026-08-27T09:32:09Z</time>
      </trkpt>
      <trkpt lat="44.36462" lon="4.83779">
        <ele>169.32</ele>
        <time>2026-08-27T09:32:10Z</time>
      </trkpt>
      <trkpt lat="44.3646" lon="4.83783">
        <ele>168.28</ele>
        <time>2026-08-27T09:32:11Z</time>
      </trkpt>
      <trkpt lat="44.3646" lon="4.83787">
        <ele>167.9</ele>
        <time>2026-08-27T09:32:12Z</time>
      </trkpt>
      <trkpt lat="44.3646" lon="4.83791">
        <ele>167.79</ele>
        <time>2026-08-27T09:32:13Z</time>
      </trkpt>
      <trkpt lat="44.36459" lon="4.83822">
        <ele>168.35</ele>
        <time>2026-08-27T09:32:23Z</time>
      </trkpt>
      <trkpt lat="44.36457" lon="4.83826">
        <ele>168.38</ele>
        <time>2026-08-27T09:32:25Z</time>
      </trkpt>
      <trkpt lat="44.36455" lon="4.83829">
        <ele>168.27</ele>
        <time>2026-08-27T09:32:29Z</time>
      </trkpt>
      <trkpt lat="44.36437" lon="4.83846">
        <ele>166.07</ele>
        <time>2026-08-27T09:32:36Z</time>
      </trkpt>
      <trkpt lat="44.36424" lon="4.83847">
        <ele>164.48</ele>
        <time>2026-08-27T09:32:40Z</time>
      </trkpt>
      <trkpt lat="44.36421" lon="4.83848">
        <ele>164.85</ele>
        <time>2026-08-27T09:32:41Z</time>
      </trkpt>
      <trkpt lat="44.36408" lon="4.83876">
        <ele>165.87</ele>
        <time>2026-08-27T09:32:50Z</time>
      </trkpt>
      <trkpt lat="44.36404" lon="4.83888">
        <ele>166.15</ele>
        <time>2026-08-27T09:33:01Z</time>
      </trkpt>
      <trkpt lat="44.364" lon="4.83896">
        <ele>166.76</ele>
        <time>2026-08-27T09:33:22Z</time>
      </trkpt>
      <trkpt lat="44.36393" lon="4.8391">
        <ele>167.88</ele>
        <time>2026-08-27T09:33:32Z</time>
      </trkpt>
      <trkpt lat="44.36393" lon="4.83914">
        <ele>168.32</ele>
        <time>2026-08-27T09:33:50Z</time>
      </trkpt>
      <trkpt lat="44.36396" lon="4.83914">
        <ele>168.48</ele>
        <time>2026-08-27T09:33:52Z</time>
      </trkpt>
      <trkpt lat="44.36398" lon="4.83915">
        <ele>168.66</ele>
        <time>2026-08-27T09:33:53Z</time>
      </trkpt>
      <trkpt lat="44.36406" lon="4.83921">
        <ele>169.64</ele>
        <time>2026-08-27T09:33:58Z</time>
      </trkpt>
      <trkpt lat="44.36407" lon="4.83923">
        <ele>169.97</ele>
        <time>2026-08-27T09:33:59Z</time>
      </trkpt>
      <trkpt lat="44.36408" lon="4.83926">
        <ele>170.17</ele>
        <time>2026-08-27T09:34:02Z</time>
      </trkpt>
      <trkpt lat="44.36407" lon="4.83928">
        <ele>170.31</ele>
        <time>2026-08-27T09:34:03Z</time>
      </trkpt>
      <trkpt lat="44.36405" lon="4.83929">
        <ele>170.32</ele>
        <time>2026-08-27T09:34:04Z</time>
      </trkpt>
      <trkpt lat="44.36403" lon="4.83931">
        <ele>170.38</ele>
        <time>2026-08-27T09:34:05Z</time>
      </trkpt>
      <trkpt lat="44.36401" lon="4.83932">
        <ele>170.48</ele>
        <time>2026-08-27T09:34:06Z</time>
      </trkpt>
      <trkpt lat="44.36377" lon="4.83952">
        <ele>173.63</ele>
        <time>2026-08-27T09:34:17Z</time>
      </trkpt>
      <trkpt lat="44.36368" lon="4.83957">
        <ele>176.94</ele>
        <time>2026-08-27T09:34:21Z</time>
      </trkpt>
      <trkpt lat="44.36366" lon="4.83959">
        <ele>177.47</ele>
        <time>2026-08-27T09:34:22Z</time>
      </trkpt>
      <trkpt lat="44.36364" lon="4.83959">
        <ele>177.8</ele>
        <time>2026-08-27T09:34:23Z</time>
      </trkpt>
      <trkpt lat="44.36361" lon="4.8396">
        <ele>178.38</ele>
        <time>2026-08-27T09:34:24Z</time>
      </trkpt>
      <trkpt lat="44.36358" lon="4.83961">
        <ele>178.77</ele>
        <time>2026-08-27T09:34:25Z</time>
      </trkpt>
      <trkpt lat="44.36356" lon="4.83962">
        <ele>179.27</ele>
        <time>2026-08-27T09:34:26Z</time>
      </trkpt>
      <trkpt lat="44.36345" lon="4.8397">
        <ele>179.77</ele>
        <time>2026-08-27T09:34:32Z</time>
      </trkpt>
      <trkpt lat="44.36338" lon="4.83974">
        <ele>179.54</ele>
        <time>2026-08-27T09:34:45Z</time>
      </trkpt>
      <trkpt lat="44.36335" lon="4.83975">
        <ele>179.6</ele>
        <time>2026-08-27T09:34:46Z</time>
      </trkpt>
      <trkpt lat="44.36308" lon="4.83999">
        <ele>179.1</ele>
        <time>2026-08-27T09:34:57Z</time>
      </trkpt>
      <trkpt lat="44.36304" lon="4.84002">
        <ele>179.45</ele>
        <time>2026-08-27T09:34:59Z</time>
      </trkpt>
      <trkpt lat="44.36287" lon="4.84005">
        <ele>179.17</ele>
        <time>2026-08-27T09:35:04Z</time>
      </trkpt>
      <trkpt lat="44.36283" lon="4.84007">
        <ele>178.29</ele>
        <time>2026-08-27T09:35:05Z</time>
      </trkpt>
      <trkpt lat="44.3628" lon="4.8401">
        <ele>177.63</ele>
        <time>2026-08-27T09:35:06Z</time>
      </trkpt>
      <trkpt lat="44.36276" lon="4.84012">
        <ele>177.06</ele>
        <time>2026-08-27T09:35:07Z</time>
      </trkpt>
      <trkpt lat="44.36273" lon="4.84012">
        <ele>176.45</ele>
        <time>2026-08-27T09:35:08Z</time>
      </trkpt>
      <trkpt lat="44.3627" lon="4.84013">
        <ele>175.97</ele>
        <time>2026-08-27T09:35:09Z</time>
      </trkpt>
      <trkpt lat="44.36266" lon="4.84014">
        <ele>174.9</ele>
        <time>2026-08-27T09:35:10Z</time>
      </trkpt>
      <trkpt lat="44.36252" lon="4.84013">
        <ele>171.56</ele>
        <time>2026-08-27T09:35:15Z</time>
      </trkpt>
      <trkpt lat="44.3625" lon="4.84013">
        <ele>170.93</ele>
        <time>2026-08-27T09:35:16Z</time>
      </trkpt>
      <trkpt lat="44.36247" lon="4.84011">
        <ele>170.4</ele>
        <time>2026-08-27T09:35:17Z</time>
      </trkpt>
      <trkpt lat="44.36244" lon="4.84011">
        <ele>169.66</ele>
        <time>2026-08-27T09:35:18Z</time>
      </trkpt>
      <trkpt lat="44.36242" lon="4.84012">
        <ele>169.24</ele>
        <time>2026-08-27T09:35:19Z</time>
      </trkpt>
      <trkpt lat="44.3624" lon="4.84014">
        <ele>168.72</ele>
        <time>2026-08-27T09:35:20Z</time>
      </trkpt>
      <trkpt lat="44.36238" lon="4.84016">
        <ele>168.13</ele>
        <time>2026-08-27T09:35:21Z</time>
      </trkpt>
      <trkpt lat="44.36235" lon="4.84017">
        <ele>167.33</ele>
        <time>2026-08-27T09:35:22Z</time>
      </trkpt>
      <trkpt lat="44.36232" lon="4.84017">
        <ele>166.59</ele>
        <time>2026-08-27T09:35:23Z</time>
      </trkpt>
      <trkpt lat="44.36228" lon="4.84017">
        <ele>165.93</ele>
        <time>2026-08-27T09:35:24Z</time>
      </trkpt>
      <trkpt lat="44.36215" lon="4.84018">
        <ele>162.56</ele>
        <time>2026-08-27T09:35:28Z</time>
      </trkpt>
      <trkpt lat="44.36213" lon="4.8402">
        <ele>162.14</ele>
        <time>2026-08-27T09:35:29Z</time>
      </trkpt>
      <trkpt lat="44.3621" lon="4.84021">
        <ele>161.29</ele>
        <time>2026-08-27T09:35:30Z</time>
      </trkpt>
      <trkpt lat="44.36203" lon="4.84026">
        <ele>158.06</ele>
        <time>2026-08-27T09:35:34Z</time>
      </trkpt>
      <trkpt lat="44.36196" lon="4.84028">
        <ele>155.7</ele>
        <time>2026-08-27T09:35:37Z</time>
      </trkpt>
      <trkpt lat="44.36193" lon="4.84028">
        <ele>154.98</ele>
        <time>2026-08-27T09:35:38Z</time>
      </trkpt>
      <trkpt lat="44.36191" lon="4.84028">
        <ele>154.17</ele>
        <time>2026-08-27T09:35:39Z</time>
      </trkpt>
      <trkpt lat="44.36188" lon="4.84029">
        <ele>153.46</ele>
        <time>2026-08-27T09:35:41Z</time>
      </trkpt>
      <trkpt lat="44.36178" lon="4.84029">
        <ele>153.37</ele>
        <time>2026-08-27T09:35:57Z</time>
      </trkpt>
      <trkpt lat="44.36176" lon="4.8403">
        <ele>153.08</ele>
        <time>2026-08-27T09:35:58Z</time>
      </trkpt>
      <trkpt lat="44.36173" lon="4.8403">
        <ele>152.71</ele>
        <time>2026-08-27T09:35:59Z</time>
      </trkpt>
      <trkpt lat="44.36168" lon="4.84031">
        <ele>151.33</ele>
        <time>2026-08-27T09:36:01Z</time>
      </trkpt>
      <trkpt lat="44.36167" lon="4.84029">
        <ele>150.86</ele>
        <time>2026-08-27T09:36:02Z</time>
      </trkpt>
      <trkpt lat="44.36166" lon="4.84028">
        <ele>150.76</ele>
        <time>2026-08-27T09:36:03Z</time>
      </trkpt>
      <trkpt lat="44.36166" lon="4.84025">
        <ele>151.11</ele>
        <time>2026-08-27T09:36:05Z</time>
      </trkpt>
      <trkpt lat="44.36167" lon="4.84023">
        <ele>151.34</ele>
        <time>2026-08-27T09:36:06Z</time>
      </trkpt>
      <trkpt lat="44.36168" lon="4.84021">
        <ele>151.59</ele>
        <time>2026-08-27T09:36:07Z</time>
      </trkpt>
      <trkpt lat="44.36168" lon="4.84019">
        <ele>151.86</ele>
        <time>2026-08-27T09:36:08Z</time>
      </trkpt>
      <trkpt lat="44.36169" lon="4.84017">
        <ele>151.88</ele>
        <time>2026-08-27T09:36:09Z</time>
      </trkpt>
      <trkpt lat="44.36169" lon="4.84015">
        <ele>151.94</ele>
        <time>2026-08-27T09:36:10Z</time>
      </trkpt>
      <trkpt lat="44.3617" lon="4.84013">
        <ele>152.05</ele>
        <time>2026-08-27T09:36:11Z</time>
      </trkpt>
      <trkpt lat="44.36187" lon="4.8399">
        <ele>153.79</ele>
        <time>2026-08-27T09:36:21Z</time>
      </trkpt>
      <trkpt lat="44.36206" lon="4.83971">
        <ele>156.84</ele>
        <time>2026-08-27T09:36:30Z</time>
      </trkpt>
      <trkpt lat="44.36207" lon="4.8397">
        <ele>157.1</ele>
        <time>2026-08-27T09:36:31Z</time>
      </trkpt>
      <trkpt lat="44.36227" lon="4.83959">
        <ele>160.12</ele>
        <time>2026-08-27T09:36:40Z</time>
      </trkpt>
      <trkpt lat="44.36256" lon="4.83946">
        <ele>162.4</ele>
        <time>2026-08-27T09:36:54Z</time>
      </trkpt>
      <trkpt lat="44.36258" lon="4.83944">
        <ele>162.44</ele>
        <time>2026-08-27T09:36:55Z</time>
      </trkpt>
      <trkpt lat="44.3626" lon="4.83943">
        <ele>162.39</ele>
        <time>2026-08-27T09:36:56Z</time>
      </trkpt>
      <trkpt lat="44.36262" lon="4.83941">
        <ele>162.52</ele>
        <time>2026-08-27T09:36:57Z</time>
      </trkpt>
      <trkpt lat="44.36265" lon="4.8394">
        <ele>162.51</ele>
        <time>2026-08-27T09:36:58Z</time>
      </trkpt>
      <trkpt lat="44.36293" lon="4.83919">
        <ele>161.65</ele>
        <time>2026-08-27T09:37:09Z</time>
      </trkpt>
      <trkpt lat="44.36318" lon="4.83913">
        <ele>163.61</ele>
        <time>2026-08-27T09:37:20Z</time>
      </trkpt>
      <trkpt lat="44.36338" lon="4.83911">
        <ele>165.25</ele>
        <time>2026-08-27T09:37:30Z</time>
      </trkpt>
      <trkpt lat="44.36368" lon="4.83914">
        <ele>167.29</ele>
        <time>2026-08-27T09:37:43Z</time>
      </trkpt>
      <trkpt lat="44.36395" lon="4.83923">
        <ele>168.94</ele>
        <time>2026-08-27T09:37:54Z</time>
      </trkpt>
      <trkpt lat="44.36401" lon="4.83929">
        <ele>169.24</ele>
        <time>2026-08-27T09:37:58Z</time>
      </trkpt>
      <trkpt lat="44.36407" lon="4.83929">
        <ele>169.31</ele>
        <time>2026-08-27T09:38:04Z</time>
      </trkpt>
      <trkpt lat="44.36408" lon="4.83928">
        <ele>169.31</ele>
        <time>2026-08-27T09:38:05Z</time>
      </trkpt>
      <trkpt lat="44.3641" lon="4.83928">
        <ele>169.34</ele>
        <time>2026-08-27T09:38:06Z</time>
      </trkpt>
      <trkpt lat="44.36412" lon="4.83928">
        <ele>169.09</ele>
        <time>2026-08-27T09:38:07Z</time>
      </trkpt>
      <trkpt lat="44.36415" lon="4.83927">
        <ele>169.14</ele>
        <time>2026-08-27T09:38:08Z</time>
      </trkpt>
      <trkpt lat="44.36446" lon="4.83911">
        <ele>170.49</ele>
        <time>2026-08-27T09:38:20Z</time>
      </trkpt>
      <trkpt lat="44.36462" lon="4.83908">
        <ele>171.16</ele>
        <time>2026-08-27T09:38:26Z</time>
      </trkpt>
      <trkpt lat="44.36463" lon="4.8391">
        <ele>171.03</ele>
        <time>2026-08-27T09:38:27Z</time>
      </trkpt>
      <trkpt lat="44.36468" lon="4.83916">
        <ele>170.54</ele>
        <time>2026-08-27T09:38:29Z</time>
      </trkpt>
      <trkpt lat="44.36471" lon="4.8392">
        <ele>170.16</ele>
        <time>2026-08-27T09:38:30Z</time>
      </trkpt>
      <trkpt lat="44.36473" lon="4.83924">
        <ele>169.79</ele>
        <time>2026-08-27T09:38:31Z</time>
      </trkpt>
      <trkpt lat="44.3648" lon="4.83932">
        <ele>168.49</ele>
        <time>2026-08-27T09:38:34Z</time>
      </trkpt>
      <trkpt lat="44.36485" lon="4.83932">
        <ele>168.43</ele>
        <time>2026-08-27T09:38:36Z</time>
      </trkpt>
      <trkpt lat="44.36489" lon="4.8393">
        <ele>169.06</ele>
        <time>2026-08-27T09:38:38Z</time>
      </trkpt>
      <trkpt lat="44.36492" lon="4.83929">
        <ele>169.11</ele>
        <time>2026-08-27T09:38:39Z</time>
      </trkpt>
      <trkpt lat="44.36494" lon="4.83927">
        <ele>169.47</ele>
        <time>2026-08-27T09:38:40Z</time>
      </trkpt>
      <trkpt lat="44.36496" lon="4.83924">
        <ele>169.77</ele>
        <time>2026-08-27T09:38:41Z</time>
      </trkpt>
      <trkpt lat="44.36512" lon="4.83924">
        <ele>170.56</ele>
        <time>2026-08-27T09:38:47Z</time>
      </trkpt>
      <trkpt lat="44.36546" lon="4.83926">
        <ele>172.06</ele>
        <time>2026-08-27T09:38:59Z</time>
      </trkpt>
      <trkpt lat="44.36559" lon="4.83929">
        <ele>172.86</ele>
        <time>2026-08-27T09:39:04Z</time>
      </trkpt>
      <trkpt lat="44.36562" lon="4.83929">
        <ele>173.15</ele>
        <time>2026-08-27T09:39:05Z</time>
      </trkpt>
      <trkpt lat="44.36565" lon="4.83929">
        <ele>173.33</ele>
        <time>2026-08-27T09:39:06Z</time>
      </trkpt>
      <trkpt lat="44.36567" lon="4.83929">
        <ele>173.34</ele>
        <time>2026-08-27T09:39:07Z</time>
      </trkpt>
      <trkpt lat="44.3657" lon="4.83928">
        <ele>173.26</ele>
        <time>2026-08-27T09:39:08Z</time>
      </trkpt>
      <trkpt lat="44.36573" lon="4.83927">
        <ele>173.54</ele>
        <time>2026-08-27T09:39:09Z</time>
      </trkpt>
      <trkpt lat="44.36575" lon="4.83925">
        <ele>173.8</ele>
        <time>2026-08-27T09:39:10Z</time>
      </trkpt>
      <trkpt lat="44.36577" lon="4.83923">
        <ele>173.89</ele>
        <time>2026-08-27T09:39:11Z</time>
      </trkpt>
      <trkpt lat="44.3658" lon="4.83923">
        <ele>174.03</ele>
        <time>2026-08-27T09:39:12Z</time>
      </trkpt>
      <trkpt lat="44.36589" lon="4.83916">
        <ele>174.83</ele>
        <time>2026-08-27T09:39:19Z</time>
      </trkpt>
      <trkpt lat="44.36608" lon="4.83928">
        <ele>174.51</ele>
        <time>2026-08-27T09:39:27Z</time>
      </trkpt>
      <trkpt lat="44.36611" lon="4.8393">
        <ele>174.08</ele>
        <time>2026-08-27T09:39:28Z</time>
      </trkpt>
      <trkpt lat="44.36613" lon="4.83931">
        <ele>173.77</ele>
        <time>2026-08-27T09:39:29Z</time>
      </trkpt>
      <trkpt lat="44.36614" lon="4.8393">
        <ele>173.62</ele>
        <time>2026-08-27T09:39:30Z</time>
      </trkpt>
      <trkpt lat="44.36615" lon="4.83929">
        <ele>173.55</ele>
        <time>2026-08-27T09:39:31Z</time>
      </trkpt>
      <trkpt lat="44.36617" lon="4.83927">
        <ele>173.53</ele>
        <time>2026-08-27T09:39:32Z</time>
      </trkpt>
      <trkpt lat="44.36619" lon="4.83926">
        <ele>173.48</ele>
        <time>2026-08-27T09:39:33Z</time>
      </trkpt>
      <trkpt lat="44.36623" lon="4.83925">
        <ele>173.69</ele>
        <time>2026-08-27T09:39:35Z</time>
      </trkpt>
      <trkpt lat="44.36625" lon="4.83926">
        <ele>173.63</ele>
        <time>2026-08-27T09:39:36Z</time>
      </trkpt>
      <trkpt lat="44.36627" lon="4.83928">
        <ele>174.06</ele>
        <time>2026-08-27T09:39:37Z</time>
      </trkpt>
      <trkpt lat="44.36628" lon="4.83929">
        <ele>174.19</ele>
        <time>2026-08-27T09:39:38Z</time>
      </trkpt>
      <trkpt lat="44.3663" lon="4.83929">
        <ele>174.54</ele>
        <time>2026-08-27T09:39:39Z</time>
      </trkpt>
      <trkpt lat="44.36633" lon="4.8393">
        <ele>174.53</ele>
        <time>2026-08-27T09:39:40Z</time>
      </trkpt>
      <trkpt lat="44.36643" lon="4.8393">
        <ele>176.26</ele>
        <time>2026-08-27T09:39:44Z</time>
      </trkpt>
      <trkpt lat="44.36646" lon="4.83928">
        <ele>176.61</ele>
        <time>2026-08-27T09:39:45Z</time>
      </trkpt>
      <trkpt lat="44.36649" lon="4.83927">
        <ele>176.96</ele>
        <time>2026-08-27T09:39:46Z</time>
      </trkpt>
      <trkpt lat="44.36651" lon="4.83927">
        <ele>177.22</ele>
        <time>2026-08-27T09:39:47Z</time>
      </trkpt>
      <trkpt lat="44.36654" lon="4.83927">
        <ele>177.72</ele>
        <time>2026-08-27T09:39:48Z</time>
      </trkpt>
      <trkpt lat="44.36662" lon="4.83928">
        <ele>178.18</ele>
        <time>2026-08-27T09:39:56Z</time>
      </trkpt>
      <trkpt lat="44.36664" lon="4.8393">
        <ele>178.11</ele>
        <time>2026-08-27T09:40:02Z</time>
      </trkpt>
      <trkpt lat="44.36665" lon="4.8393">
        <ele>178.12</ele>
        <time>2026-08-27T09:40:03Z</time>
      </trkpt>
      <trkpt lat="44.36669" lon="4.8393">
        <ele>177.49</ele>
        <time>2026-08-27T09:40:13Z</time>
      </trkpt>
      <trkpt lat="44.36673" lon="4.83928">
        <ele>178.39</ele>
        <time>2026-08-27T09:40:21Z</time>
      </trkpt>
      <trkpt lat="44.36675" lon="4.83924">
        <ele>178.85</ele>
        <time>2026-08-27T09:40:23Z</time>
      </trkpt>
      <trkpt lat="44.36677" lon="4.83922">
        <ele>179.12</ele>
        <time>2026-08-27T09:40:24Z</time>
      </trkpt>
      <trkpt lat="44.36679" lon="4.83921">
        <ele>179.41</ele>
        <time>2026-08-27T09:40:25Z</time>
      </trkpt>
      <trkpt lat="44.36681" lon="4.83921">
        <ele>179.83</ele>
        <time>2026-08-27T09:40:26Z</time>
      </trkpt>
      <trkpt lat="44.36684" lon="4.83921">
        <ele>180.04</ele>
        <time>2026-08-27T09:40:27Z</time>
      </trkpt>
      <trkpt lat="44.36686" lon="4.83921">
        <ele>180.37</ele>
        <time>2026-08-27T09:40:28Z</time>
      </trkpt>
      <trkpt lat="44.36689" lon="4.8392">
        <ele>180.67</ele>
        <time>2026-08-27T09:40:29Z</time>
      </trkpt>
      <trkpt lat="44.36691" lon="4.83919">
        <ele>181.01</ele>
        <time>2026-08-27T09:40:30Z</time>
      </trkpt>
      <trkpt lat="44.36693" lon="4.83918">
        <ele>181.43</ele>
        <time>2026-08-27T09:40:31Z</time>
      </trkpt>
      <trkpt lat="44.36714" lon="4.83911">
        <ele>184.1</ele>
        <time>2026-08-27T09:40:41Z</time>
      </trkpt>
      <trkpt lat="44.36718" lon="4.83908">
        <ele>184.61</ele>
        <time>2026-08-27T09:40:43Z</time>
      </trkpt>
      <trkpt lat="44.3674" lon="4.83883">
        <ele>186.42</ele>
        <time>2026-08-27T09:40:59Z</time>
      </trkpt>
      <trkpt lat="44.36742" lon="4.8388">
        <ele>186.42</ele>
        <time>2026-08-27T09:41:03Z</time>
      </trkpt>
      <trkpt lat="44.36741" lon="4.83878">
        <ele>186.32</ele>
        <time>2026-08-27T09:41:04Z</time>
      </trkpt>
      <trkpt lat="44.36742" lon="4.83874">
        <ele>185.9</ele>
        <time>2026-08-27T09:41:08Z</time>
      </trkpt>
      <trkpt lat="44.36747" lon="4.83868">
        <ele>185.65</ele>
        <time>2026-08-27T09:41:11Z</time>
      </trkpt>
      <trkpt lat="44.36748" lon="4.83865">
        <ele>185.46</ele>
        <time>2026-08-27T09:41:12Z</time>
      </trkpt>
      <trkpt lat="44.36751" lon="4.83851">
        <ele>183.3</ele>
        <time>2026-08-27T09:41:17Z</time>
      </trkpt>
      <trkpt lat="44.36749" lon="4.83846">
        <ele>182.96</ele>
        <time>2026-08-27T09:41:18Z</time>
      </trkpt>
      <trkpt lat="44.36747" lon="4.83843">
        <ele>183.36</ele>
        <time>2026-08-27T09:41:19Z</time>
      </trkpt>
      <trkpt lat="44.36745" lon="4.83841">
        <ele>183.34</ele>
        <time>2026-08-27T09:41:20Z</time>
      </trkpt>
      <trkpt lat="44.36743" lon="4.8384">
        <ele>183.61</ele>
        <time>2026-08-27T09:41:21Z</time>
      </trkpt>
      <trkpt lat="44.36742" lon="4.83839">
        <ele>183.61</ele>
        <time>2026-08-27T09:41:22Z</time>
      </trkpt>
      <trkpt lat="44.3674" lon="4.83836">
        <ele>183.58</ele>
        <time>2026-08-27T09:41:39Z</time>
      </trkpt>
      <trkpt lat="44.36737" lon="4.83837">
        <ele>183.85</ele>
        <time>2026-08-27T09:41:46Z</time>
      </trkpt>
      <trkpt lat="44.36736" lon="4.83837">
        <ele>184.1</ele>
        <time>2026-08-27T09:41:47Z</time>
      </trkpt>
      <trkpt lat="44.36734" lon="4.83836">
        <ele>184.04</ele>
        <time>2026-08-27T09:41:48Z</time>
      </trkpt>
      <trkpt lat="44.36733" lon="4.83836">
        <ele>184.07</ele>
        <time>2026-08-27T09:41:49Z</time>
      </trkpt>
      <trkpt lat="44.36731" lon="4.83837">
        <ele>184.16</ele>
        <time>2026-08-27T09:41:50Z</time>
      </trkpt>
      <trkpt lat="44.36729" lon="4.83838">
        <ele>184.13</ele>
        <time>2026-08-27T09:41:51Z</time>
      </trkpt>
      <trkpt lat="44.36728" lon="4.83838">
        <ele>184.13</ele>
        <time>2026-08-27T09:41:52Z</time>
      </trkpt>
      <trkpt lat="44.36726" lon="4.83839">
        <ele>184.17</ele>
        <time>2026-08-27T09:41:53Z</time>
      </trkpt>
      <trkpt lat="44.36725" lon="4.83839">
        <ele>184.25</ele>
        <time>2026-08-27T09:41:54Z</time>
      </trkpt>
      <trkpt lat="44.36723" lon="4.83838">
        <ele>184.42</ele>
        <time>2026-08-27T09:41:55Z</time>
      </trkpt>
      <trkpt lat="44.36721" lon="4.83838">
        <ele>184.44</ele>
        <time>2026-08-27T09:41:56Z</time>
      </trkpt>
      <trkpt lat="44.3672" lon="4.83837">
        <ele>184.47</ele>
        <time>2026-08-27T09:41:57Z</time>
      </trkpt>
      <trkpt lat="44.36696" lon="4.83837">
        <ele>186.55</ele>
        <time>2026-08-27T09:42:09Z</time>
      </trkpt>
      <trkpt lat="44.36666" lon="4.83831">
        <ele>189.21</ele>
        <time>2026-08-27T09:42:23Z</time>
      </trkpt>
      <trkpt lat="44.36664" lon="4.8383">
        <ele>189.46</ele>
        <time>2026-08-27T09:42:24Z</time>
      </trkpt>
      <trkpt lat="44.36647" lon="4.83815">
        <ele>189.11</ele>
        <time>2026-08-27T09:42:31Z</time>
      </trkpt>
      <trkpt lat="44.36639" lon="4.83808">
        <ele>188.38</ele>
        <time>2026-08-27T09:42:34Z</time>
      </trkpt>
      <trkpt lat="44.36638" lon="4.83806">
        <ele>188.13</ele>
        <time>2026-08-27T09:42:35Z</time>
      </trkpt>
      <trkpt lat="44.36638" lon="4.83803">
        <ele>188.14</ele>
        <time>2026-08-27T09:42:36Z</time>
      </trkpt>
      <trkpt lat="44.36638" lon="4.83801">
        <ele>188.32</ele>
        <time>2026-08-27T09:42:37Z</time>
      </trkpt>
      <trkpt lat="44.36639" lon="4.83799">
        <ele>188.33</ele>
        <time>2026-08-27T09:42:38Z</time>
      </trkpt>
      <trkpt lat="44.36641" lon="4.83798">
        <ele>188.56</ele>
        <time>2026-08-27T09:42:39Z</time>
      </trkpt>
      <trkpt lat="44.36642" lon="4.83796">
        <ele>188.86</ele>
        <time>2026-08-27T09:42:40Z</time>
      </trkpt>
      <trkpt lat="44.36663" lon="4.8378">
        <ele>192.2</ele>
        <time>2026-08-27T09:42:52Z</time>
      </trkpt>
      <trkpt lat="44.36688" lon="4.83763">
        <ele>195.3</ele>
        <time>2026-08-27T09:43:04Z</time>
      </trkpt>
      <trkpt lat="44.36707" lon="4.83751">
        <ele>198.36</ele>
        <time>2026-08-27T09:43:12Z</time>
      </trkpt>
      <trkpt lat="44.36725" lon="4.83734">
        <ele>200.16</ele>
        <time>2026-08-27T09:43:23Z</time>
      </trkpt>
      <trkpt lat="44.3673" lon="4.8373">
        <ele>199.88</ele>
        <time>2026-08-27T09:43:52Z</time>
      </trkpt>
      <trkpt lat="44.36731" lon="4.83728">
        <ele>199.76</ele>
        <time>2026-08-27T09:43:53Z</time>
      </trkpt>
      <trkpt lat="44.36732" lon="4.83726">
        <ele>199.47</ele>
        <time>2026-08-27T09:43:54Z</time>
      </trkpt>
      <trkpt lat="44.36733" lon="4.83724">
        <ele>199.29</ele>
        <time>2026-08-27T09:43:55Z</time>
      </trkpt>
      <trkpt lat="44.36734" lon="4.83723">
        <ele>199.16</ele>
        <time>2026-08-27T09:43:56Z</time>
      </trkpt>
      <trkpt lat="44.36761" lon="4.83681">
        <ele>197.58</ele>
        <time>2026-08-27T09:44:06Z</time>
      </trkpt>
      <trkpt lat="44.36768" lon="4.83671">
        <ele>197.38</ele>
        <time>2026-08-27T09:44:14Z</time>
      </trkpt>
      <trkpt lat="44.36782" lon="4.83651">
        <ele>197.03</ele>
        <time>2026-08-27T09:44:23Z</time>
      </trkpt>
      <trkpt lat="44.36798" lon="4.8362">
        <ele>195.75</ele>
        <time>2026-08-27T09:44:29Z</time>
      </trkpt>
      <trkpt lat="44.368" lon="4.83615">
        <ele>195.92</ele>
        <time>2026-08-27T09:44:30Z</time>
      </trkpt>
      <trkpt lat="44.36802" lon="4.8361">
        <ele>195.83</ele>
        <time>2026-08-27T09:44:31Z</time>
      </trkpt>
      <trkpt lat="44.36804" lon="4.83605">
        <ele>195.71</ele>
        <time>2026-08-27T09:44:32Z</time>
      </trkpt>
      <trkpt lat="44.36805" lon="4.83599">
        <ele>195.64</ele>
        <time>2026-08-27T09:44:33Z</time>
      </trkpt>
      <trkpt lat="44.3683" lon="4.8355">
        <ele>195.01</ele>
        <time>2026-08-27T09:44:45Z</time>
      </trkpt>
      <trkpt lat="44.36853" lon="4.83523">
        <ele>198.24</ele>
        <time>2026-08-27T09:44:55Z</time>
      </trkpt>
      <trkpt lat="44.36867" lon="4.83505">
        <ele>201.26</ele>
        <time>2026-08-27T09:45:03Z</time>
      </trkpt>
      <trkpt lat="44.36885" lon="4.83474">
        <ele>203.57</ele>
        <time>2026-08-27T09:45:16Z</time>
      </trkpt>
      <trkpt lat="44.36901" lon="4.83444">
        <ele>205.28</ele>
        <time>2026-08-27T09:45:28Z</time>
      </trkpt>
      <trkpt lat="44.36912" lon="4.83404">
        <ele>206.41</ele>
        <time>2026-08-27T09:45:40Z</time>
      </trkpt>
      <trkpt lat="44.36913" lon="4.83401">
        <ele>207.03</ele>
        <time>2026-08-27T09:45:41Z</time>
      </trkpt>
      <trkpt lat="44.36913" lon="4.83398">
        <ele>207.43</ele>
        <time>2026-08-27T09:45:42Z</time>
      </trkpt>
      <trkpt lat="44.36916" lon="4.83374">
        <ele>208.51</ele>
        <time>2026-08-27T09:45:51Z</time>
      </trkpt>
      <trkpt lat="44.36917" lon="4.83371">
        <ele>208.87</ele>
        <time>2026-08-27T09:45:52Z</time>
      </trkpt>
      <trkpt lat="44.36925" lon="4.83357">
        <ele>212.18</ele>
        <time>2026-08-27T09:45:59Z</time>
      </trkpt>
      <trkpt lat="44.36936" lon="4.83341">
        <ele>215.27</ele>
        <time>2026-08-27T09:46:08Z</time>
      </trkpt>
      <trkpt lat="44.36954" lon="4.83336">
        <ele>218.45</ele>
        <time>2026-08-27T09:46:19Z</time>
      </trkpt>
      <trkpt lat="44.36973" lon="4.83341">
        <ele>221.01</ele>
        <time>2026-08-27T09:46:33Z</time>
      </trkpt>
      <trkpt lat="44.36977" lon="4.83344">
        <ele>221.57</ele>
        <time>2026-08-27T09:46:36Z</time>
      </trkpt>
      <trkpt lat="44.36978" lon="4.83346">
        <ele>221.78</ele>
        <time>2026-08-27T09:46:37Z</time>
      </trkpt>
      <trkpt lat="44.36988" lon="4.83354">
        <ele>223.13</ele>
        <time>2026-08-27T09:46:47Z</time>
      </trkpt>
      <trkpt lat="44.37008" lon="4.83359">
        <ele>223.87</ele>
        <time>2026-08-27T09:47:02Z</time>
      </trkpt>
      <trkpt lat="44.37019" lon="4.83363">
        <ele>224.72</ele>
        <time>2026-08-27T09:47:08Z</time>
      </trkpt>
      <trkpt lat="44.37021" lon="4.83362">
        <ele>224.91</ele>
        <time>2026-08-27T09:47:09Z</time>
      </trkpt>
      <trkpt lat="44.37022" lon="4.8336">
        <ele>224.77</ele>
        <time>2026-08-27T09:47:10Z</time>
      </trkpt>
      <trkpt lat="44.37023" lon="4.83358">
        <ele>224.85</ele>
        <time>2026-08-27T09:47:11Z</time>
      </trkpt>
      <trkpt lat="44.37025" lon="4.83356">
        <ele>224.71</ele>
        <time>2026-08-27T09:47:12Z</time>
      </trkpt>
      <trkpt lat="44.37031" lon="4.83352">
        <ele>224.89</ele>
        <time>2026-08-27T09:47:28Z</time>
      </trkpt>
      <trkpt lat="44.37031" lon="4.83352">
        <ele>224.47</ele>
        <time>2026-08-27T09:47:59Z</time>
      </trkpt>
      <trkpt lat="44.37032" lon="4.83349">
        <ele>224.85</ele>
        <time>2026-08-27T09:48:19Z</time>
      </trkpt>
      <trkpt lat="44.37031" lon="4.83315">
        <ele>225.51</ele>
        <time>2026-08-27T09:48:30Z</time>
      </trkpt>
      <trkpt lat="44.37022" lon="4.83274">
        <ele>228.65</ele>
        <time>2026-08-27T09:48:43Z</time>
      </trkpt>
      <trkpt lat="44.3702" lon="4.83241">
        <ele>231.79</ele>
        <time>2026-08-27T09:48:53Z</time>
      </trkpt>
      <trkpt lat="44.37018" lon="4.8321">
        <ele>235</ele>
        <time>2026-08-27T09:49:04Z</time>
      </trkpt>
      <trkpt lat="44.37012" lon="4.83171">
        <ele>236.2</ele>
        <time>2026-08-27T09:49:17Z</time>
      </trkpt>
      <trkpt lat="44.37013" lon="4.83168">
        <ele>236.32</ele>
        <time>2026-08-27T09:49:18Z</time>
      </trkpt>
      <trkpt lat="44.37012" lon="4.83165">
        <ele>236.32</ele>
        <time>2026-08-27T09:49:19Z</time>
      </trkpt>
      <trkpt lat="44.37011" lon="4.83163">
        <ele>236.22</ele>
        <time>2026-08-27T09:49:20Z</time>
      </trkpt>
      <trkpt lat="44.3701" lon="4.8316">
        <ele>236.25</ele>
        <time>2026-08-27T09:49:21Z</time>
      </trkpt>
      <trkpt lat="44.37009" lon="4.83158">
        <ele>236.3</ele>
        <time>2026-08-27T09:49:22Z</time>
      </trkpt>
      <trkpt lat="44.36981" lon="4.83135">
        <ele>236.67</ele>
        <time>2026-08-27T09:49:33Z</time>
      </trkpt>
      <trkpt lat="44.36943" lon="4.83122">
        <ele>236.42</ele>
        <time>2026-08-27T09:49:43Z</time>
      </trkpt>
      <trkpt lat="44.3694" lon="4.83118">
        <ele>236.4</ele>
        <time>2026-08-27T09:49:44Z</time>
      </trkpt>
      <trkpt lat="44.36937" lon="4.83113">
        <ele>235.99</ele>
        <time>2026-08-27T09:49:45Z</time>
      </trkpt>
      <trkpt lat="44.36935" lon="4.83107">
        <ele>236.02</ele>
        <time>2026-08-27T09:49:46Z</time>
      </trkpt>
      <trkpt lat="44.36935" lon="4.83101">
        <ele>235.75</ele>
        <time>2026-08-27T09:49:47Z</time>
      </trkpt>
      <trkpt lat="44.36935" lon="4.83094">
        <ele>235.64</ele>
        <time>2026-08-27T09:49:48Z</time>
      </trkpt>
      <trkpt lat="44.36941" lon="4.82974">
        <ele>237.94</ele>
        <time>2026-08-27T09:50:08Z</time>
      </trkpt>
      <trkpt lat="44.36932" lon="4.82932">
        <ele>240.21</ele>
        <time>2026-08-27T09:50:18Z</time>
      </trkpt>
      <trkpt lat="44.36933" lon="4.82929">
        <ele>240.26</ele>
        <time>2026-08-27T09:50:19Z</time>
      </trkpt>
      <trkpt lat="44.36935" lon="4.82927">
        <ele>240.5</ele>
        <time>2026-08-27T09:50:20Z</time>
      </trkpt>
      <trkpt lat="44.36938" lon="4.82927">
        <ele>240.65</ele>
        <time>2026-08-27T09:50:21Z</time>
      </trkpt>
      <trkpt lat="44.3694" lon="4.82929">
        <ele>240.59</ele>
        <time>2026-08-27T09:50:22Z</time>
      </trkpt>
      <trkpt lat="44.36942" lon="4.82931">
        <ele>240.54</ele>
        <time>2026-08-27T09:50:23Z</time>
      </trkpt>
      <trkpt lat="44.36961" lon="4.82946">
        <ele>241.32</ele>
        <time>2026-08-27T09:50:31Z</time>
      </trkpt>
      <trkpt lat="44.36964" lon="4.82946">
        <ele>241.48</ele>
        <time>2026-08-27T09:50:32Z</time>
      </trkpt>
      <trkpt lat="44.36996" lon="4.82956">
        <ele>244.23</ele>
        <time>2026-08-27T09:50:45Z</time>
      </trkpt>
      <trkpt lat="44.36998" lon="4.82957">
        <ele>244.59</ele>
        <time>2026-08-27T09:50:46Z</time>
      </trkpt>
      <trkpt lat="44.37007" lon="4.82964">
        <ele>245.33</ele>
        <time>2026-08-27T09:50:51Z</time>
      </trkpt>
      <trkpt lat="44.37009" lon="4.82963">
        <ele>245.37</ele>
        <time>2026-08-27T09:50:52Z</time>
      </trkpt>
      <trkpt lat="44.37009" lon="4.82961">
        <ele>245.43</ele>
        <time>2026-08-27T09:50:53Z</time>
      </trkpt>
      <trkpt lat="44.37009" lon="4.82959">
        <ele>245.55</ele>
        <time>2026-08-27T09:50:54Z</time>
      </trkpt>
      <trkpt lat="44.37009" lon="4.82957">
        <ele>245.55</ele>
        <time>2026-08-27T09:50:55Z</time>
      </trkpt>
      <trkpt lat="44.37012" lon="4.82946">
        <ele>246.94</ele>
        <time>2026-08-27T09:51:06Z</time>
      </trkpt>
      <trkpt lat="44.37015" lon="4.82942">
        <ele>247.48</ele>
        <time>2026-08-27T09:51:21Z</time>
      </trkpt>
      <trkpt lat="44.37016" lon="4.82939">
        <ele>247.69</ele>
        <time>2026-08-27T09:51:22Z</time>
      </trkpt>
      <trkpt lat="44.37017" lon="4.82936">
        <ele>247.91</ele>
        <time>2026-08-27T09:51:23Z</time>
      </trkpt>
      <trkpt lat="44.37018" lon="4.82933">
        <ele>247.94</ele>
        <time>2026-08-27T09:51:24Z</time>
      </trkpt>
      <trkpt lat="44.37019" lon="4.8293">
        <ele>248.23</ele>
        <time>2026-08-27T09:51:25Z</time>
      </trkpt>
      <trkpt lat="44.37019" lon="4.82928">
        <ele>248.45</ele>
        <time>2026-08-27T09:51:26Z</time>
      </trkpt>
      <trkpt lat="44.3702" lon="4.82925">
        <ele>248.83</ele>
        <time>2026-08-27T09:51:27Z</time>
      </trkpt>
      <trkpt lat="44.37021" lon="4.82923">
        <ele>249.07</ele>
        <time>2026-08-27T09:51:28Z</time>
      </trkpt>
      <trkpt lat="44.37024" lon="4.82917">
        <ele>250.3</ele>
        <time>2026-08-27T09:51:31Z</time>
      </trkpt>
      <trkpt lat="44.37025" lon="4.82915">
        <ele>250.46</ele>
        <time>2026-08-27T09:51:32Z</time>
      </trkpt>
      <trkpt lat="44.37025" lon="4.82912">
        <ele>250.54</ele>
        <time>2026-08-27T09:51:33Z</time>
      </trkpt>
      <trkpt lat="44.37031" lon="4.82882">
        <ele>252.97</ele>
        <time>2026-08-27T09:51:46Z</time>
      </trkpt>
      <trkpt lat="44.37038" lon="4.82866">
        <ele>253.28</ele>
        <time>2026-08-27T09:51:57Z</time>
      </trkpt>
      <trkpt lat="44.37041" lon="4.82856">
        <ele>254.13</ele>
        <time>2026-08-27T09:52:01Z</time>
      </trkpt>
      <trkpt lat="44.37049" lon="4.8282">
        <ele>257.24</ele>
        <time>2026-08-27T09:52:14Z</time>
      </trkpt>
      <trkpt lat="44.37043" lon="4.82774">
        <ele>260.32</ele>
        <time>2026-08-27T09:52:27Z</time>
      </trkpt>
      <trkpt lat="44.3704" lon="4.8274">
        <ele>262.87</ele>
        <time>2026-08-27T09:52:38Z</time>
      </trkpt>
      <trkpt lat="44.37037" lon="4.827">
        <ele>264.31</ele>
        <time>2026-08-27T09:52:50Z</time>
      </trkpt>
      <trkpt lat="44.37032" lon="4.82654">
        <ele>266.24</ele>
        <time>2026-08-27T09:53:04Z</time>
      </trkpt>
      <trkpt lat="44.37038" lon="4.82615">
        <ele>268.79</ele>
        <time>2026-08-27T09:53:17Z</time>
      </trkpt>
      <trkpt lat="44.37041" lon="4.82608">
        <ele>269.3</ele>
        <time>2026-08-27T09:53:20Z</time>
      </trkpt>
      <trkpt lat="44.37041" lon="4.82605">
        <ele>269.47</ele>
        <time>2026-08-27T09:53:21Z</time>
      </trkpt>
      <trkpt lat="44.37049" lon="4.82572">
        <ele>271.92</ele>
        <time>2026-08-27T09:53:33Z</time>
      </trkpt>
      <trkpt lat="44.37051" lon="4.82551">
        <ele>272.64</ele>
        <time>2026-08-27T09:53:46Z</time>
      </trkpt>
      <trkpt lat="44.37053" lon="4.82545">
        <ele>272.54</ele>
        <time>2026-08-27T09:53:49Z</time>
      </trkpt>
      <trkpt lat="44.37054" lon="4.82542">
        <ele>272.77</ele>
        <time>2026-08-27T09:53:50Z</time>
      </trkpt>
      <trkpt lat="44.37055" lon="4.8254">
        <ele>273.05</ele>
        <time>2026-08-27T09:53:51Z</time>
      </trkpt>
      <trkpt lat="44.37055" lon="4.82538">
        <ele>272.99</ele>
        <time>2026-08-27T09:53:52Z</time>
      </trkpt>
      <trkpt lat="44.37064" lon="4.82514">
        <ele>274.29</ele>
        <time>2026-08-27T09:54:03Z</time>
      </trkpt>
      <trkpt lat="44.37067" lon="4.82505">
        <ele>275.31</ele>
        <time>2026-08-27T09:54:08Z</time>
      </trkpt>
      <trkpt lat="44.37067" lon="4.82502">
        <ele>275.49</ele>
        <time>2026-08-27T09:54:09Z</time>
      </trkpt>
      <trkpt lat="44.37068" lon="4.825">
        <ele>275.62</ele>
        <time>2026-08-27T09:54:10Z</time>
      </trkpt>
      <trkpt lat="44.37069" lon="4.82498">
        <ele>275.89</ele>
        <time>2026-08-27T09:54:11Z</time>
      </trkpt>
      <trkpt lat="44.3707" lon="4.82495">
        <ele>275.91</ele>
        <time>2026-08-27T09:54:12Z</time>
      </trkpt>
      <trkpt lat="44.37072" lon="4.82493">
        <ele>276.34</ele>
        <time>2026-08-27T09:54:13Z</time>
      </trkpt>
      <trkpt lat="44.37074" lon="4.82491">
        <ele>276.46</ele>
        <time>2026-08-27T09:54:14Z</time>
      </trkpt>
      <trkpt lat="44.37087" lon="4.82463">
        <ele>277.67</ele>
        <time>2026-08-27T09:54:25Z</time>
      </trkpt>
      <trkpt lat="44.37106" lon="4.82428">
        <ele>279.25</ele>
        <time>2026-08-27T09:54:39Z</time>
      </trkpt>
      <trkpt lat="44.37117" lon="4.82389">
        <ele>280.18</ele>
        <time>2026-08-27T09:54:53Z</time>
      </trkpt>
      <trkpt lat="44.37121" lon="4.82363">
        <ele>280.27</ele>
        <time>2026-08-27T09:55:01Z</time>
      </trkpt>
      <trkpt lat="44.37121" lon="4.8236">
        <ele>280.4</ele>
        <time>2026-08-27T09:55:02Z</time>
      </trkpt>
      <trkpt lat="44.37122" lon="4.82357">
        <ele>280.35</ele>
        <time>2026-08-27T09:55:03Z</time>
      </trkpt>
      <trkpt lat="44.3713" lon="4.82316">
        <ele>280.98</ele>
        <time>2026-08-27T09:55:15Z</time>
      </trkpt>
      <trkpt lat="44.37133" lon="4.82298">
        <ele>281.52</ele>
        <time>2026-08-27T09:55:21Z</time>
      </trkpt>
      <trkpt lat="44.37133" lon="4.82294">
        <ele>281.81</ele>
        <time>2026-08-27T09:55:22Z</time>
      </trkpt>
      <trkpt lat="44.37134" lon="4.82291">
        <ele>281.95</ele>
        <time>2026-08-27T09:55:23Z</time>
      </trkpt>
      <trkpt lat="44.37135" lon="4.82288">
        <ele>281.9</ele>
        <time>2026-08-27T09:55:24Z</time>
      </trkpt>
      <trkpt lat="44.37136" lon="4.82285">
        <ele>282.21</ele>
        <time>2026-08-27T09:55:25Z</time>
      </trkpt>
      <trkpt lat="44.37137" lon="4.82282">
        <ele>282.19</ele>
        <time>2026-08-27T09:55:26Z</time>
      </trkpt>
      <trkpt lat="44.37138" lon="4.82279">
        <ele>282.44</ele>
        <time>2026-08-27T09:55:27Z</time>
      </trkpt>
      <trkpt lat="44.37155" lon="4.82238">
        <ele>283.11</ele>
        <time>2026-08-27T09:55:41Z</time>
      </trkpt>
      <trkpt lat="44.37164" lon="4.82227">
        <ele>283.08</ele>
        <time>2026-08-27T09:55:45Z</time>
      </trkpt>
      <trkpt lat="44.37166" lon="4.82226">
        <ele>282.93</ele>
        <time>2026-08-27T09:55:46Z</time>
      </trkpt>
      <trkpt lat="44.37168" lon="4.82224">
        <ele>282.72</ele>
        <time>2026-08-27T09:55:47Z</time>
      </trkpt>
      <trkpt lat="44.3717" lon="4.82222">
        <ele>282.87</ele>
        <time>2026-08-27T09:55:48Z</time>
      </trkpt>
      <trkpt lat="44.37172" lon="4.8222">
        <ele>282.78</ele>
        <time>2026-08-27T09:55:49Z</time>
      </trkpt>
      <trkpt lat="44.37174" lon="4.82219">
        <ele>282.77</ele>
        <time>2026-08-27T09:55:50Z</time>
      </trkpt>
      <trkpt lat="44.37176" lon="4.82217">
        <ele>282.75</ele>
        <time>2026-08-27T09:55:51Z</time>
      </trkpt>
      <trkpt lat="44.37188" lon="4.82208">
        <ele>282.72</ele>
        <time>2026-08-27T09:56:01Z</time>
      </trkpt>
      <trkpt lat="44.37217" lon="4.82183">
        <ele>281.97</ele>
        <time>2026-08-27T09:56:12Z</time>
      </trkpt>
      <trkpt lat="44.3723" lon="4.82167">
        <ele>281.27</ele>
        <time>2026-08-27T09:56:17Z</time>
      </trkpt>
      <trkpt lat="44.37233" lon="4.82163">
        <ele>280.98</ele>
        <time>2026-08-27T09:56:18Z</time>
      </trkpt>
      <trkpt lat="44.37236" lon="4.82159">
        <ele>280.81</ele>
        <time>2026-08-27T09:56:19Z</time>
      </trkpt>
      <trkpt lat="44.37254" lon="4.82143">
        <ele>279.53</ele>
        <time>2026-08-27T09:56:24Z</time>
      </trkpt>
      <trkpt lat="44.37257" lon="4.8214">
        <ele>279.73</ele>
        <time>2026-08-27T09:56:25Z</time>
      </trkpt>
      <trkpt lat="44.37261" lon="4.82136">
        <ele>278.99</ele>
        <time>2026-08-27T09:56:26Z</time>
      </trkpt>
      <trkpt lat="44.37268" lon="4.82129">
        <ele>278.82</ele>
        <time>2026-08-27T09:56:28Z</time>
      </trkpt>
      <trkpt lat="44.37271" lon="4.82124">
        <ele>278.49</ele>
        <time>2026-08-27T09:56:29Z</time>
      </trkpt>
      <trkpt lat="44.37273" lon="4.8212">
        <ele>277.91</ele>
        <time>2026-08-27T09:56:30Z</time>
      </trkpt>
      <trkpt lat="44.37276" lon="4.82115">
        <ele>277.64</ele>
        <time>2026-08-27T09:56:31Z</time>
      </trkpt>
      <trkpt lat="44.37277" lon="4.8211">
        <ele>277.49</ele>
        <time>2026-08-27T09:56:32Z</time>
      </trkpt>
      <trkpt lat="44.37278" lon="4.82105">
        <ele>277.26</ele>
        <time>2026-08-27T09:56:33Z</time>
      </trkpt>
      <trkpt lat="44.37278" lon="4.82101">
        <ele>277.01</ele>
        <time>2026-08-27T09:56:34Z</time>
      </trkpt>
      <trkpt lat="44.37279" lon="4.82097">
        <ele>276.94</ele>
        <time>2026-08-27T09:56:35Z</time>
      </trkpt>
      <trkpt lat="44.3728" lon="4.82093">
        <ele>276.71</ele>
        <time>2026-08-27T09:56:36Z</time>
      </trkpt>
      <trkpt lat="44.37282" lon="4.82087">
        <ele>276.33</ele>
        <time>2026-08-27T09:56:38Z</time>
      </trkpt>
      <trkpt lat="44.37284" lon="4.82077">
        <ele>276.2</ele>
        <time>2026-08-27T09:56:48Z</time>
      </trkpt>
      <trkpt lat="44.37285" lon="4.82075">
        <ele>276</ele>
        <time>2026-08-27T09:56:49Z</time>
      </trkpt>
      <trkpt lat="44.37287" lon="4.82074">
        <ele>275.98</ele>
        <time>2026-08-27T09:56:50Z</time>
      </trkpt>
      <trkpt lat="44.37289" lon="4.82072">
        <ele>275.77</ele>
        <time>2026-08-27T09:56:51Z</time>
      </trkpt>
      <trkpt lat="44.37292" lon="4.8207">
        <ele>275.57</ele>
        <time>2026-08-27T09:56:52Z</time>
      </trkpt>
      <trkpt lat="44.37295" lon="4.82069">
        <ele>275.5</ele>
        <time>2026-08-27T09:56:53Z</time>
      </trkpt>
      <trkpt lat="44.37297" lon="4.82068">
        <ele>275.42</ele>
        <time>2026-08-27T09:56:54Z</time>
      </trkpt>
      <trkpt lat="44.37299" lon="4.82067">
        <ele>275.31</ele>
        <time>2026-08-27T09:56:55Z</time>
      </trkpt>
      <trkpt lat="44.37302" lon="4.82064">
        <ele>275.1</ele>
        <time>2026-08-27T09:56:56Z</time>
      </trkpt>
      <trkpt lat="44.37305" lon="4.82061">
        <ele>275</ele>
        <time>2026-08-27T09:56:57Z</time>
      </trkpt>
      <trkpt lat="44.37307" lon="4.82059">
        <ele>275.06</ele>
        <time>2026-08-27T09:56:58Z</time>
      </trkpt>
      <trkpt lat="44.37332" lon="4.82043">
        <ele>273.23</ele>
        <time>2026-08-27T09:57:05Z</time>
      </trkpt>
      <trkpt lat="44.37337" lon="4.82042">
        <ele>273.12</ele>
        <time>2026-08-27T09:57:06Z</time>
      </trkpt>
      <trkpt lat="44.37341" lon="4.82042">
        <ele>273.11</ele>
        <time>2026-08-27T09:57:07Z</time>
      </trkpt>
      <trkpt lat="44.37345" lon="4.82042">
        <ele>272.94</ele>
        <time>2026-08-27T09:57:08Z</time>
      </trkpt>
      <trkpt lat="44.37349" lon="4.82042">
        <ele>272.74</ele>
        <time>2026-08-27T09:57:09Z</time>
      </trkpt>
      <trkpt lat="44.37353" lon="4.82042">
        <ele>272.39</ele>
        <time>2026-08-27T09:57:10Z</time>
      </trkpt>
      <trkpt lat="44.37357" lon="4.82042">
        <ele>272.58</ele>
        <time>2026-08-27T09:57:11Z</time>
      </trkpt>
      <trkpt lat="44.37385" lon="4.82029">
        <ele>270.21</ele>
        <time>2026-08-27T09:57:19Z</time>
      </trkpt>
      <trkpt lat="44.37401" lon="4.82017">
        <ele>268.1</ele>
        <time>2026-08-27T09:57:27Z</time>
      </trkpt>
      <trkpt lat="44.37407" lon="4.82008">
        <ele>267.54</ele>
        <time>2026-08-27T09:57:31Z</time>
      </trkpt>
      <trkpt lat="44.37409" lon="4.82006">
        <ele>267.13</ele>
        <time>2026-08-27T09:57:32Z</time>
      </trkpt>
      <trkpt lat="44.37411" lon="4.82003">
        <ele>266.67</ele>
        <time>2026-08-27T09:57:33Z</time>
      </trkpt>
      <trkpt lat="44.37413" lon="4.82001">
        <ele>266.14</ele>
        <time>2026-08-27T09:57:34Z</time>
      </trkpt>
      <trkpt lat="44.37416" lon="4.82001">
        <ele>265.91</ele>
        <time>2026-08-27T09:57:35Z</time>
      </trkpt>
      <trkpt lat="44.37418" lon="4.82003">
        <ele>265.94</ele>
        <time>2026-08-27T09:57:36Z</time>
      </trkpt>
      <trkpt lat="44.3742" lon="4.82006">
        <ele>265.92</ele>
        <time>2026-08-27T09:57:37Z</time>
      </trkpt>
      <trkpt lat="44.37445" lon="4.82037">
        <ele>267.11</ele>
        <time>2026-08-27T09:57:51Z</time>
      </trkpt>
      <trkpt lat="44.37482" lon="4.82077">
        <ele>268.7</ele>
        <time>2026-08-27T09:58:09Z</time>
      </trkpt>
      <trkpt lat="44.37521" lon="4.82132">
        <ele>270.03</ele>
        <time>2026-08-27T09:58:29Z</time>
      </trkpt>
      <trkpt lat="44.37548" lon="4.82135">
        <ele>270.62</ele>
        <time>2026-08-27T09:58:41Z</time>
      </trkpt>
      <trkpt lat="44.37589" lon="4.82115">
        <ele>270.79</ele>
        <time>2026-08-27T09:58:55Z</time>
      </trkpt>
      <trkpt lat="44.3762" lon="4.82071">
        <ele>272.25</ele>
        <time>2026-08-27T09:59:11Z</time>
      </trkpt>
      <trkpt lat="44.37623" lon="4.8205">
        <ele>272.63</ele>
        <time>2026-08-27T09:59:17Z</time>
      </trkpt>
      <trkpt lat="44.37626" lon="4.82048">
        <ele>272.71</ele>
        <time>2026-08-27T09:59:18Z</time>
      </trkpt>
      <trkpt lat="44.37637" lon="4.82041">
        <ele>273.65</ele>
        <time>2026-08-27T09:59:23Z</time>
      </trkpt>
      <trkpt lat="44.37639" lon="4.82042">
        <ele>273.68</ele>
        <time>2026-08-27T09:59:24Z</time>
      </trkpt>
      <trkpt lat="44.37641" lon="4.82042">
        <ele>273.98</ele>
        <time>2026-08-27T09:59:25Z</time>
      </trkpt>
      <trkpt lat="44.37663" lon="4.82063">
        <ele>275.96</ele>
        <time>2026-08-27T09:59:36Z</time>
      </trkpt>
      <trkpt lat="44.37687" lon="4.82119">
        <ele>276.19</ele>
        <time>2026-08-27T09:59:52Z</time>
      </trkpt>
      <trkpt lat="44.37709" lon="4.82154">
        <ele>278.38</ele>
        <time>2026-08-27T10:00:05Z</time>
      </trkpt>
      <trkpt lat="44.37709" lon="4.82154">
        <ele>278.7</ele>
        <time>2026-08-27T10:00:27Z</time>
      </trkpt>
      <trkpt lat="44.37708" lon="4.82156">
        <ele>278.78</ele>
        <time>2026-08-27T10:00:50Z</time>
      </trkpt>
      <trkpt lat="44.37718" lon="4.82193">
        <ele>279.27</ele>
        <time>2026-08-27T10:01:01Z</time>
      </trkpt>
      <trkpt lat="44.37736" lon="4.82229">
        <ele>282.26</ele>
        <time>2026-08-27T10:01:12Z</time>
      </trkpt>
      <trkpt lat="44.37742" lon="4.82269">
        <ele>282.2</ele>
        <time>2026-08-27T10:01:20Z</time>
      </trkpt>
      <trkpt lat="44.37742" lon="4.82275">
        <ele>281.79</ele>
        <time>2026-08-27T10:01:21Z</time>
      </trkpt>
      <trkpt lat="44.37743" lon="4.82281">
        <ele>281.87</ele>
        <time>2026-08-27T10:01:22Z</time>
      </trkpt>
      <trkpt lat="44.37745" lon="4.82286">
        <ele>281.75</ele>
        <time>2026-08-27T10:01:23Z</time>
      </trkpt>
      <trkpt lat="44.37746" lon="4.82291">
        <ele>281.97</ele>
        <time>2026-08-27T10:01:24Z</time>
      </trkpt>
      <trkpt lat="44.37746" lon="4.82296">
        <ele>281.64</ele>
        <time>2026-08-27T10:01:25Z</time>
      </trkpt>
      <trkpt lat="44.37746" lon="4.823">
        <ele>281.53</ele>
        <time>2026-08-27T10:01:26Z</time>
      </trkpt>
      <trkpt lat="44.37744" lon="4.82303">
        <ele>281.36</ele>
        <time>2026-08-27T10:01:27Z</time>
      </trkpt>
      <trkpt lat="44.37742" lon="4.82306">
        <ele>280.77</ele>
        <time>2026-08-27T10:01:28Z</time>
      </trkpt>
      <trkpt lat="44.3774" lon="4.8231">
        <ele>280.31</ele>
        <time>2026-08-27T10:01:29Z</time>
      </trkpt>
      <trkpt lat="44.37739" lon="4.82311">
        <ele>279.95</ele>
        <time>2026-08-27T10:01:30Z</time>
      </trkpt>
      <trkpt lat="44.37736" lon="4.82309">
        <ele>279.36</ele>
        <time>2026-08-27T10:01:36Z</time>
      </trkpt>
      <trkpt lat="44.37732" lon="4.823">
        <ele>278.66</ele>
        <time>2026-08-27T10:01:39Z</time>
      </trkpt>
      <trkpt lat="44.37729" lon="4.82297">
        <ele>278.48</ele>
        <time>2026-08-27T10:01:40Z</time>
      </trkpt>
      <trkpt lat="44.37727" lon="4.82297">
        <ele>278.04</ele>
        <time>2026-08-27T10:01:41Z</time>
      </trkpt>
      <trkpt lat="44.37725" lon="4.82298">
        <ele>277.92</ele>
        <time>2026-08-27T10:01:42Z</time>
      </trkpt>
      <trkpt lat="44.37723" lon="4.82301">
        <ele>277.5</ele>
        <time>2026-08-27T10:01:43Z</time>
      </trkpt>
      <trkpt lat="44.37723" lon="4.82305">
        <ele>277.31</ele>
        <time>2026-08-27T10:01:44Z</time>
      </trkpt>
      <trkpt lat="44.37724" lon="4.82309">
        <ele>277.42</ele>
        <time>2026-08-27T10:01:45Z</time>
      </trkpt>
      <trkpt lat="44.37724" lon="4.82313">
        <ele>277.52</ele>
        <time>2026-08-27T10:01:46Z</time>
      </trkpt>
      <trkpt lat="44.37724" lon="4.82316">
        <ele>277.25</ele>
        <time>2026-08-27T10:01:47Z</time>
      </trkpt>
      <trkpt lat="44.37725" lon="4.82319">
        <ele>277.16</ele>
        <time>2026-08-27T10:01:48Z</time>
      </trkpt>
      <trkpt lat="44.37727" lon="4.82322">
        <ele>277.32</ele>
        <time>2026-08-27T10:01:49Z</time>
      </trkpt>
      <trkpt lat="44.37727" lon="4.82325">
        <ele>277.62</ele>
        <time>2026-08-27T10:01:50Z</time>
      </trkpt>
      <trkpt lat="44.37727" lon="4.82329">
        <ele>277.64</ele>
        <time>2026-08-27T10:01:51Z</time>
      </trkpt>
      <trkpt lat="44.37727" lon="4.82332">
        <ele>277.61</ele>
        <time>2026-08-27T10:01:52Z</time>
      </trkpt>
      <trkpt lat="44.37727" lon="4.82335">
        <ele>277.62</ele>
        <time>2026-08-27T10:01:53Z</time>
      </trkpt>
      <trkpt lat="44.37728" lon="4.82339">
        <ele>277.69</ele>
        <time>2026-08-27T10:01:54Z</time>
      </trkpt>
      <trkpt lat="44.37728" lon="4.82344">
        <ele>277.84</ele>
        <time>2026-08-27T10:01:55Z</time>
      </trkpt>
      <trkpt lat="44.37727" lon="4.82349">
        <ele>277.91</ele>
        <time>2026-08-27T10:01:56Z</time>
      </trkpt>
      <trkpt lat="44.37727" lon="4.82354">
        <ele>278.06</ele>
        <time>2026-08-27T10:01:57Z</time>
      </trkpt>
      <trkpt lat="44.37727" lon="4.82358">
        <ele>278.01</ele>
        <time>2026-08-27T10:01:58Z</time>
      </trkpt>
      <trkpt lat="44.37727" lon="4.82374">
        <ele>277.91</ele>
        <time>2026-08-27T10:02:02Z</time>
      </trkpt>
      <trkpt lat="44.3773" lon="4.82377">
        <ele>278.09</ele>
        <time>2026-08-27T10:02:03Z</time>
      </trkpt>
      <trkpt lat="44.37738" lon="4.82388">
        <ele>278.47</ele>
        <time>2026-08-27T10:02:06Z</time>
      </trkpt>
      <trkpt lat="44.37739" lon="4.82392">
        <ele>278.48</ele>
        <time>2026-08-27T10:02:07Z</time>
      </trkpt>
      <trkpt lat="44.3774" lon="4.82395">
        <ele>278.59</ele>
        <time>2026-08-27T10:02:08Z</time>
      </trkpt>
      <trkpt lat="44.37741" lon="4.82399">
        <ele>278.76</ele>
        <time>2026-08-27T10:02:09Z</time>
      </trkpt>
      <trkpt lat="44.37742" lon="4.82402">
        <ele>278.92</ele>
        <time>2026-08-27T10:02:10Z</time>
      </trkpt>
      <trkpt lat="44.37754" lon="4.82435">
        <ele>279.53</ele>
        <time>2026-08-27T10:02:19Z</time>
      </trkpt>
      <trkpt lat="44.37755" lon="4.82438">
        <ele>279.5</ele>
        <time>2026-08-27T10:02:20Z</time>
      </trkpt>
      <trkpt lat="44.37754" lon="4.82441">
        <ele>279.26</ele>
        <time>2026-08-27T10:02:31Z</time>
      </trkpt>
      <trkpt lat="44.37754" lon="4.82444">
        <ele>279.35</ele>
        <time>2026-08-27T10:02:38Z</time>
      </trkpt>
      <trkpt lat="44.37753" lon="4.82446">
        <ele>279.28</ele>
        <time>2026-08-27T10:02:39Z</time>
      </trkpt>
      <trkpt lat="44.37751" lon="4.82447">
        <ele>279.26</ele>
        <time>2026-08-27T10:02:40Z</time>
      </trkpt>
      <trkpt lat="44.37748" lon="4.82448">
        <ele>279.24</ele>
        <time>2026-08-27T10:02:41Z</time>
      </trkpt>
      <trkpt lat="44.37746" lon="4.82448">
        <ele>279.05</ele>
        <time>2026-08-27T10:02:42Z</time>
      </trkpt>
      <trkpt lat="44.37743" lon="4.82447">
        <ele>279.06</ele>
        <time>2026-08-27T10:02:43Z</time>
      </trkpt>
      <trkpt lat="44.37741" lon="4.82446">
        <ele>279.15</ele>
        <time>2026-08-27T10:02:44Z</time>
      </trkpt>
      <trkpt lat="44.37732" lon="4.82442">
        <ele>278.76</ele>
        <time>2026-08-27T10:02:54Z</time>
      </trkpt>
      <trkpt lat="44.3772" lon="4.82425">
        <ele>279.03</ele>
        <time>2026-08-27T10:03:10Z</time>
      </trkpt>
      <trkpt lat="44.37718" lon="4.82421">
        <ele>279.05</ele>
        <time>2026-08-27T10:03:12Z</time>
      </trkpt>
      <trkpt lat="44.37709" lon="4.82396">
        <ele>279.54</ele>
        <time>2026-08-27T10:10:40Z</time>
      </trkpt>
      <trkpt lat="44.37701" lon="4.82369">
        <ele>279.13</ele>
        <time>2026-08-27T10:10:51Z</time>
      </trkpt>
      <trkpt lat="44.37674" lon="4.82328">
        <ele>278.57</ele>
        <time>2026-08-27T10:11:05Z</time>
      </trkpt>
      <trkpt lat="44.37634" lon="4.82301">
        <ele>277.84</ele>
        <time>2026-08-27T10:11:18Z</time>
      </trkpt>
      <trkpt lat="44.37595" lon="4.82287">
        <ele>277.69</ele>
        <time>2026-08-27T10:11:29Z</time>
      </trkpt>
      <trkpt lat="44.37591" lon="4.82286">
        <ele>277.67</ele>
        <time>2026-08-27T10:11:30Z</time>
      </trkpt>
      <trkpt lat="44.37587" lon="4.82284">
        <ele>277.45</ele>
        <time>2026-08-27T10:11:31Z</time>
      </trkpt>
      <trkpt lat="44.37583" lon="4.82283">
        <ele>277.5</ele>
        <time>2026-08-27T10:11:32Z</time>
      </trkpt>
      <trkpt lat="44.37579" lon="4.82283">
        <ele>277.55</ele>
        <time>2026-08-27T10:11:33Z</time>
      </trkpt>
      <trkpt lat="44.37576" lon="4.82283">
        <ele>277.61</ele>
        <time>2026-08-27T10:11:34Z</time>
      </trkpt>
      <trkpt lat="44.37574" lon="4.82284">
        <ele>277.77</ele>
        <time>2026-08-27T10:11:35Z</time>
      </trkpt>
      <trkpt lat="44.37547" lon="4.82298">
        <ele>279.53</ele>
        <time>2026-08-27T10:11:46Z</time>
      </trkpt>
      <trkpt lat="44.37541" lon="4.82303">
        <ele>279.49</ele>
        <time>2026-08-27T10:11:49Z</time>
      </trkpt>
      <trkpt lat="44.37538" lon="4.82302">
        <ele>279.74</ele>
        <time>2026-08-27T10:11:50Z</time>
      </trkpt>
      <trkpt lat="44.37536" lon="4.823">
        <ele>279.68</ele>
        <time>2026-08-27T10:11:51Z</time>
      </trkpt>
      <trkpt lat="44.37532" lon="4.82297">
        <ele>279.92</ele>
        <time>2026-08-27T10:11:53Z</time>
      </trkpt>
      <trkpt lat="44.3753" lon="4.82297">
        <ele>279.97</ele>
        <time>2026-08-27T10:11:54Z</time>
      </trkpt>
      <trkpt lat="44.37518" lon="4.82299">
        <ele>280.64</ele>
        <time>2026-08-27T10:11:59Z</time>
      </trkpt>
      <trkpt lat="44.37517" lon="4.82301">
        <ele>280.77</ele>
        <time>2026-08-27T10:12:00Z</time>
      </trkpt>
      <trkpt lat="44.37516" lon="4.82303">
        <ele>280.75</ele>
        <time>2026-08-27T10:12:01Z</time>
      </trkpt>
      <trkpt lat="44.37516" lon="4.82305">
        <ele>280.73</ele>
        <time>2026-08-27T10:12:02Z</time>
      </trkpt>
      <trkpt lat="44.37515" lon="4.82308">
        <ele>280.79</ele>
        <time>2026-08-27T10:12:03Z</time>
      </trkpt>
      <trkpt lat="44.37515" lon="4.82311">
        <ele>280.97</ele>
        <time>2026-08-27T10:12:04Z</time>
      </trkpt>
      <trkpt lat="44.37514" lon="4.82314">
        <ele>281.13</ele>
        <time>2026-08-27T10:12:05Z</time>
      </trkpt>
      <trkpt lat="44.37515" lon="4.82318">
        <ele>281.23</ele>
        <time>2026-08-27T10:12:06Z</time>
      </trkpt>
      <trkpt lat="44.37515" lon="4.82321">
        <ele>281.36</ele>
        <time>2026-08-27T10:12:07Z</time>
      </trkpt>
      <trkpt lat="44.37515" lon="4.82325">
        <ele>281.38</ele>
        <time>2026-08-27T10:12:08Z</time>
      </trkpt>
      <trkpt lat="44.37514" lon="4.82328">
        <ele>281.54</ele>
        <time>2026-08-27T10:12:09Z</time>
      </trkpt>
      <trkpt lat="44.37512" lon="4.82331">
        <ele>281.69</ele>
        <time>2026-08-27T10:12:10Z</time>
      </trkpt>
      <trkpt lat="44.3751" lon="4.82333">
        <ele>281.84</ele>
        <time>2026-08-27T10:12:11Z</time>
      </trkpt>
      <trkpt lat="44.37508" lon="4.82334">
        <ele>282.1</ele>
        <time>2026-08-27T10:12:12Z</time>
      </trkpt>
      <trkpt lat="44.37506" lon="4.82336">
        <ele>282.14</ele>
        <time>2026-08-27T10:12:13Z</time>
      </trkpt>
      <trkpt lat="44.37505" lon="4.82338">
        <ele>282.42</ele>
        <time>2026-08-27T10:12:14Z</time>
      </trkpt>
      <trkpt lat="44.37504" lon="4.82341">
        <ele>282.63</ele>
        <time>2026-08-27T10:12:15Z</time>
      </trkpt>
      <trkpt lat="44.37503" lon="4.82344">
        <ele>282.68</ele>
        <time>2026-08-27T10:12:16Z</time>
      </trkpt>
      <trkpt lat="44.37503" lon="4.82347">
        <ele>282.82</ele>
        <time>2026-08-27T10:12:17Z</time>
      </trkpt>
      <trkpt lat="44.37505" lon="4.8235">
        <ele>283.04</ele>
        <time>2026-08-27T10:12:18Z</time>
      </trkpt>
      <trkpt lat="44.37507" lon="4.82353">
        <ele>283.15</ele>
        <time>2026-08-27T10:12:19Z</time>
      </trkpt>
      <trkpt lat="44.37509" lon="4.82355">
        <ele>283.13</ele>
        <time>2026-08-27T10:12:20Z</time>
      </trkpt>
      <trkpt lat="44.37511" lon="4.82359">
        <ele>283.08</ele>
        <time>2026-08-27T10:12:21Z</time>
      </trkpt>
      <trkpt lat="44.37511" lon="4.82363">
        <ele>282.94</ele>
        <time>2026-08-27T10:12:22Z</time>
      </trkpt>
      <trkpt lat="44.37511" lon="4.82367">
        <ele>282.95</ele>
        <time>2026-08-27T10:12:23Z</time>
      </trkpt>
      <trkpt lat="44.3751" lon="4.82372">
        <ele>282.91</ele>
        <time>2026-08-27T10:12:24Z</time>
      </trkpt>
      <trkpt lat="44.37513" lon="4.82429">
        <ele>282.05</ele>
        <time>2026-08-27T10:12:35Z</time>
      </trkpt>
      <trkpt lat="44.37503" lon="4.82465">
        <ele>282.39</ele>
        <time>2026-08-27T10:12:44Z</time>
      </trkpt>
      <trkpt lat="44.37492" lon="4.82503">
        <ele>282.11</ele>
        <time>2026-08-27T10:12:54Z</time>
      </trkpt>
      <trkpt lat="44.37474" lon="4.82532">
        <ele>281.82</ele>
        <time>2026-08-27T10:13:02Z</time>
      </trkpt>
      <trkpt lat="44.37471" lon="4.8254">
        <ele>281.86</ele>
        <time>2026-08-27T10:13:04Z</time>
      </trkpt>
      <trkpt lat="44.3747" lon="4.82544">
        <ele>281.51</ele>
        <time>2026-08-27T10:13:05Z</time>
      </trkpt>
      <trkpt lat="44.37469" lon="4.82548">
        <ele>281.4</ele>
        <time>2026-08-27T10:13:06Z</time>
      </trkpt>
      <trkpt lat="44.37469" lon="4.82551">
        <ele>281.19</ele>
        <time>2026-08-27T10:13:07Z</time>
      </trkpt>
      <trkpt lat="44.3747" lon="4.82555">
        <ele>281.09</ele>
        <time>2026-08-27T10:13:10Z</time>
      </trkpt>
      <trkpt lat="44.37472" lon="4.82556">
        <ele>281.02</ele>
        <time>2026-08-27T10:13:11Z</time>
      </trkpt>
      <trkpt lat="44.37472" lon="4.82559">
        <ele>280.96</ele>
        <time>2026-08-27T10:13:12Z</time>
      </trkpt>
      <trkpt lat="44.37473" lon="4.82561">
        <ele>280.92</ele>
        <time>2026-08-27T10:13:13Z</time>
      </trkpt>
      <trkpt lat="44.37474" lon="4.82563">
        <ele>280.82</ele>
        <time>2026-08-27T10:13:14Z</time>
      </trkpt>
      <trkpt lat="44.37477" lon="4.82565">
        <ele>280.75</ele>
        <time>2026-08-27T10:13:15Z</time>
      </trkpt>
      <trkpt lat="44.375" lon="4.82574">
        <ele>279.82</ele>
        <time>2026-08-27T10:13:25Z</time>
      </trkpt>
      <trkpt lat="44.37502" lon="4.82577">
        <ele>279.84</ele>
        <time>2026-08-27T10:13:26Z</time>
      </trkpt>
      <trkpt lat="44.37503" lon="4.8258">
        <ele>279.71</ele>
        <time>2026-08-27T10:13:27Z</time>
      </trkpt>
      <trkpt lat="44.37504" lon="4.82584">
        <ele>279.71</ele>
        <time>2026-08-27T10:13:28Z</time>
      </trkpt>
      <trkpt lat="44.37505" lon="4.82587">
        <ele>279.81</ele>
        <time>2026-08-27T10:13:29Z</time>
      </trkpt>
      <trkpt lat="44.37506" lon="4.8259">
        <ele>279.9</ele>
        <time>2026-08-27T10:13:30Z</time>
      </trkpt>
      <trkpt lat="44.37507" lon="4.82595">
        <ele>279.66</ele>
        <time>2026-08-27T10:13:31Z</time>
      </trkpt>
      <trkpt lat="44.37509" lon="4.82599">
        <ele>279.8</ele>
        <time>2026-08-27T10:13:32Z</time>
      </trkpt>
      <trkpt lat="44.37511" lon="4.82603">
        <ele>279.79</ele>
        <time>2026-08-27T10:13:33Z</time>
      </trkpt>
      <trkpt lat="44.37513" lon="4.82606">
        <ele>279.67</ele>
        <time>2026-08-27T10:13:34Z</time>
      </trkpt>
      <trkpt lat="44.37515" lon="4.8261">
        <ele>279.79</ele>
        <time>2026-08-27T10:13:35Z</time>
      </trkpt>
      <trkpt lat="44.37527" lon="4.82628">
        <ele>279.8</ele>
        <time>2026-08-27T10:13:40Z</time>
      </trkpt>
      <trkpt lat="44.37536" lon="4.82643">
        <ele>278.74</ele>
        <time>2026-08-27T10:13:43Z</time>
      </trkpt>
      <trkpt lat="44.37542" lon="4.82656">
        <ele>278.01</ele>
        <time>2026-08-27T10:13:45Z</time>
      </trkpt>
      <trkpt lat="44.37544" lon="4.82662">
        <ele>277.98</ele>
        <time>2026-08-27T10:13:46Z</time>
      </trkpt>
      <trkpt lat="44.37543" lon="4.82668">
        <ele>278.31</ele>
        <time>2026-08-27T10:13:47Z</time>
      </trkpt>
      <trkpt lat="44.37542" lon="4.82672">
        <ele>278.34</ele>
        <time>2026-08-27T10:13:48Z</time>
      </trkpt>
      <trkpt lat="44.37541" lon="4.82675">
        <ele>278.58</ele>
        <time>2026-08-27T10:13:49Z</time>
      </trkpt>
      <trkpt lat="44.3754" lon="4.82678">
        <ele>278.72</ele>
        <time>2026-08-27T10:13:50Z</time>
      </trkpt>
      <trkpt lat="44.37539" lon="4.82681">
        <ele>278.98</ele>
        <time>2026-08-27T10:13:51Z</time>
      </trkpt>
      <trkpt lat="44.37537" lon="4.82685">
        <ele>279.19</ele>
        <time>2026-08-27T10:13:52Z</time>
      </trkpt>
      <trkpt lat="44.3753" lon="4.82697">
        <ele>280.39</ele>
        <time>2026-08-27T10:13:57Z</time>
      </trkpt>
      <trkpt lat="44.37528" lon="4.82698">
        <ele>280.56</ele>
        <time>2026-08-27T10:13:58Z</time>
      </trkpt>
      <trkpt lat="44.37527" lon="4.82699">
        <ele>281.03</ele>
        <time>2026-08-27T10:13:59Z</time>
      </trkpt>
      <trkpt lat="44.37526" lon="4.82701">
        <ele>281.22</ele>
        <time>2026-08-27T10:14:00Z</time>
      </trkpt>
      <trkpt lat="44.37525" lon="4.82704">
        <ele>281.46</ele>
        <time>2026-08-27T10:14:01Z</time>
      </trkpt>
      <trkpt lat="44.37517" lon="4.82732">
        <ele>281.64</ele>
        <time>2026-08-27T10:14:10Z</time>
      </trkpt>
      <trkpt lat="44.37512" lon="4.8275">
        <ele>281.33</ele>
        <time>2026-08-27T10:14:16Z</time>
      </trkpt>
      <trkpt lat="44.37512" lon="4.82753">
        <ele>281.32</ele>
        <time>2026-08-27T10:14:17Z</time>
      </trkpt>
      <trkpt lat="44.37513" lon="4.82755">
        <ele>281.28</ele>
        <time>2026-08-27T10:14:18Z</time>
      </trkpt>
      <trkpt lat="44.37513" lon="4.82757">
        <ele>281.48</ele>
        <time>2026-08-27T10:14:19Z</time>
      </trkpt>
      <trkpt lat="44.37514" lon="4.82761">
        <ele>281.35</ele>
        <time>2026-08-27T10:14:25Z</time>
      </trkpt>
      <trkpt lat="44.37515" lon="4.82761">
        <ele>281.53</ele>
        <time>2026-08-27T10:14:26Z</time>
      </trkpt>
      <trkpt lat="44.37517" lon="4.82761">
        <ele>281.49</ele>
        <time>2026-08-27T10:14:27Z</time>
      </trkpt>
      <trkpt lat="44.37519" lon="4.82762">
        <ele>281.55</ele>
        <time>2026-08-27T10:14:28Z</time>
      </trkpt>
      <trkpt lat="44.37521" lon="4.82764">
        <ele>281.73</ele>
        <time>2026-08-27T10:14:29Z</time>
      </trkpt>
      <trkpt lat="44.37523" lon="4.82767">
        <ele>281.76</ele>
        <time>2026-08-27T10:14:30Z</time>
      </trkpt>
      <trkpt lat="44.37525" lon="4.82769">
        <ele>281.83</ele>
        <time>2026-08-27T10:14:31Z</time>
      </trkpt>
      <trkpt lat="44.37527" lon="4.8277">
        <ele>281.76</ele>
        <time>2026-08-27T10:14:32Z</time>
      </trkpt>
      <trkpt lat="44.37532" lon="4.82776">
        <ele>282.11</ele>
        <time>2026-08-27T10:14:35Z</time>
      </trkpt>
      <trkpt lat="44.37534" lon="4.82777">
        <ele>282.38</ele>
        <time>2026-08-27T10:14:36Z</time>
      </trkpt>
      <trkpt lat="44.37536" lon="4.82778">
        <ele>282.52</ele>
        <time>2026-08-27T10:14:37Z</time>
      </trkpt>
      <trkpt lat="44.37538" lon="4.8278">
        <ele>282.6</ele>
        <time>2026-08-27T10:14:38Z</time>
      </trkpt>
      <trkpt lat="44.37541" lon="4.82781">
        <ele>282.69</ele>
        <time>2026-08-27T10:14:39Z</time>
      </trkpt>
      <trkpt lat="44.37544" lon="4.82783">
        <ele>282.71</ele>
        <time>2026-08-27T10:14:40Z</time>
      </trkpt>
      <trkpt lat="44.37546" lon="4.82786">
        <ele>282.9</ele>
        <time>2026-08-27T10:14:41Z</time>
      </trkpt>
      <trkpt lat="44.37548" lon="4.82788">
        <ele>283.31</ele>
        <time>2026-08-27T10:14:42Z</time>
      </trkpt>
      <trkpt lat="44.3755" lon="4.8279">
        <ele>283.69</ele>
        <time>2026-08-27T10:14:43Z</time>
      </trkpt>
      <trkpt lat="44.37552" lon="4.82792">
        <ele>284.01</ele>
        <time>2026-08-27T10:14:44Z</time>
      </trkpt>
      <trkpt lat="44.37553" lon="4.82793">
        <ele>284.27</ele>
        <time>2026-08-27T10:14:45Z</time>
      </trkpt>
      <trkpt lat="44.37556" lon="4.82795">
        <ele>284.36</ele>
        <time>2026-08-27T10:14:46Z</time>
      </trkpt>
      <trkpt lat="44.37558" lon="4.82796">
        <ele>284.4</ele>
        <time>2026-08-27T10:14:47Z</time>
      </trkpt>
      <trkpt lat="44.3756" lon="4.82797">
        <ele>284.61</ele>
        <time>2026-08-27T10:14:48Z</time>
      </trkpt>
      <trkpt lat="44.37561" lon="4.82799">
        <ele>284.6</ele>
        <time>2026-08-27T10:14:49Z</time>
      </trkpt>
      <trkpt lat="44.37563" lon="4.82801">
        <ele>284.74</ele>
        <time>2026-08-27T10:14:50Z</time>
      </trkpt>
      <trkpt lat="44.37585" lon="4.82822">
        <ele>285.31</ele>
        <time>2026-08-27T10:15:01Z</time>
      </trkpt>
      <trkpt lat="44.37586" lon="4.82822">
        <ele>285.38</ele>
        <time>2026-08-27T10:15:02Z</time>
      </trkpt>
      <trkpt lat="44.37588" lon="4.82823">
        <ele>285.3</ele>
        <time>2026-08-27T10:15:03Z</time>
      </trkpt>
      <trkpt lat="44.37589" lon="4.82826">
        <ele>285.08</ele>
        <time>2026-08-27T10:15:04Z</time>
      </trkpt>
      <trkpt lat="44.37591" lon="4.82828">
        <ele>285.16</ele>
        <time>2026-08-27T10:15:05Z</time>
      </trkpt>
      <trkpt lat="44.37594" lon="4.82829">
        <ele>285.39</ele>
        <time>2026-08-27T10:15:06Z</time>
      </trkpt>
      <trkpt lat="44.37597" lon="4.82831">
        <ele>285.15</ele>
        <time>2026-08-27T10:15:07Z</time>
      </trkpt>
      <trkpt lat="44.376" lon="4.82832">
        <ele>285</ele>
        <time>2026-08-27T10:15:08Z</time>
      </trkpt>
      <trkpt lat="44.37602" lon="4.82834">
        <ele>285.08</ele>
        <time>2026-08-27T10:15:09Z</time>
      </trkpt>
      <trkpt lat="44.37604" lon="4.82836">
        <ele>284.96</ele>
        <time>2026-08-27T10:15:10Z</time>
      </trkpt>
      <trkpt lat="44.37607" lon="4.82838">
        <ele>284.97</ele>
        <time>2026-08-27T10:15:11Z</time>
      </trkpt>
      <trkpt lat="44.37608" lon="4.82841">
        <ele>285.01</ele>
        <time>2026-08-27T10:15:12Z</time>
      </trkpt>
      <trkpt lat="44.37609" lon="4.82844">
        <ele>285.07</ele>
        <time>2026-08-27T10:15:13Z</time>
      </trkpt>
      <trkpt lat="44.37609" lon="4.82847">
        <ele>285.06</ele>
        <time>2026-08-27T10:15:14Z</time>
      </trkpt>
      <trkpt lat="44.37608" lon="4.8285">
        <ele>284.94</ele>
        <time>2026-08-27T10:15:15Z</time>
      </trkpt>
      <trkpt lat="44.37609" lon="4.82854">
        <ele>284.95</ele>
        <time>2026-08-27T10:15:16Z</time>
      </trkpt>
      <trkpt lat="44.37611" lon="4.82856">
        <ele>284.91</ele>
        <time>2026-08-27T10:15:17Z</time>
      </trkpt>
      <trkpt lat="44.37613" lon="4.82858">
        <ele>285.13</ele>
        <time>2026-08-27T10:15:18Z</time>
      </trkpt>
      <trkpt lat="44.37619" lon="4.82865">
        <ele>285.7</ele>
        <time>2026-08-27T10:15:22Z</time>
      </trkpt>
      <trkpt lat="44.37621" lon="4.82868">
        <ele>285.62</ele>
        <time>2026-08-27T10:15:23Z</time>
      </trkpt>
      <trkpt lat="44.37622" lon="4.8287">
        <ele>285.31</ele>
        <time>2026-08-27T10:15:24Z</time>
      </trkpt>
      <trkpt lat="44.37625" lon="4.82872">
        <ele>285.13</ele>
        <time>2026-08-27T10:15:25Z</time>
      </trkpt>
      <trkpt lat="44.37627" lon="4.82874">
        <ele>285.05</ele>
        <time>2026-08-27T10:15:26Z</time>
      </trkpt>
      <trkpt lat="44.37629" lon="4.82877">
        <ele>285.01</ele>
        <time>2026-08-27T10:15:27Z</time>
      </trkpt>
      <trkpt lat="44.37631" lon="4.8288">
        <ele>284.98</ele>
        <time>2026-08-27T10:15:28Z</time>
      </trkpt>
      <trkpt lat="44.37633" lon="4.82882">
        <ele>284.98</ele>
        <time>2026-08-27T10:15:29Z</time>
      </trkpt>
      <trkpt lat="44.37636" lon="4.82885">
        <ele>285.08</ele>
        <time>2026-08-27T10:15:30Z</time>
      </trkpt>
      <trkpt lat="44.37638" lon="4.82887">
        <ele>285.05</ele>
        <time>2026-08-27T10:15:31Z</time>
      </trkpt>
      <trkpt lat="44.37641" lon="4.82889">
        <ele>285.17</ele>
        <time>2026-08-27T10:15:32Z</time>
      </trkpt>
      <trkpt lat="44.37643" lon="4.8289">
        <ele>285.05</ele>
        <time>2026-08-27T10:15:33Z</time>
      </trkpt>
      <trkpt lat="44.37645" lon="4.82892">
        <ele>285.07</ele>
        <time>2026-08-27T10:15:34Z</time>
      </trkpt>
      <trkpt lat="44.37647" lon="4.82892">
        <ele>285.13</ele>
        <time>2026-08-27T10:15:35Z</time>
      </trkpt>
      <trkpt lat="44.37648" lon="4.82894">
        <ele>285.19</ele>
        <time>2026-08-27T10:15:36Z</time>
      </trkpt>
      <trkpt lat="44.3765" lon="4.82896">
        <ele>285.11</ele>
        <time>2026-08-27T10:15:37Z</time>
      </trkpt>
      <trkpt lat="44.37652" lon="4.82898">
        <ele>284.98</ele>
        <time>2026-08-27T10:15:38Z</time>
      </trkpt>
      <trkpt lat="44.37653" lon="4.829">
        <ele>284.93</ele>
        <time>2026-08-27T10:15:39Z</time>
      </trkpt>
      <trkpt lat="44.37655" lon="4.829">
        <ele>284.93</ele>
        <time>2026-08-27T10:15:40Z</time>
      </trkpt>
      <trkpt lat="44.37657" lon="4.82902">
        <ele>284.91</ele>
        <time>2026-08-27T10:15:41Z</time>
      </trkpt>
      <trkpt lat="44.37658" lon="4.82903">
        <ele>284.95</ele>
        <time>2026-08-27T10:15:42Z</time>
      </trkpt>
      <trkpt lat="44.3766" lon="4.82904">
        <ele>284.87</ele>
        <time>2026-08-27T10:15:43Z</time>
      </trkpt>
      <trkpt lat="44.37662" lon="4.82903">
        <ele>285.08</ele>
        <time>2026-08-27T10:15:44Z</time>
      </trkpt>
      <trkpt lat="44.37665" lon="4.82901">
        <ele>284.9</ele>
        <time>2026-08-27T10:15:45Z</time>
      </trkpt>
      <trkpt lat="44.37669" lon="4.82901">
        <ele>284.89</ele>
        <time>2026-08-27T10:15:47Z</time>
      </trkpt>
      <trkpt lat="44.3767" lon="4.82902">
        <ele>285.02</ele>
        <time>2026-08-27T10:15:48Z</time>
      </trkpt>
      <trkpt lat="44.3768" lon="4.82905">
        <ele>284.64</ele>
        <time>2026-08-27T10:16:00Z</time>
      </trkpt>
      <trkpt lat="44.37682" lon="4.82906">
        <ele>284.51</ele>
        <time>2026-08-27T10:16:07Z</time>
      </trkpt>
      <trkpt lat="44.37684" lon="4.82906">
        <ele>284.65</ele>
        <time>2026-08-27T10:16:08Z</time>
      </trkpt>
      <trkpt lat="44.37705" lon="4.82909">
        <ele>284.08</ele>
        <time>2026-08-27T10:16:18Z</time>
      </trkpt>
      <trkpt lat="44.37719" lon="4.82909">
        <ele>282.86</ele>
        <time>2026-08-27T10:16:24Z</time>
      </trkpt>
      <trkpt lat="44.37722" lon="4.8291">
        <ele>282.76</ele>
        <time>2026-08-27T10:16:25Z</time>
      </trkpt>
      <trkpt lat="44.37725" lon="4.82912">
        <ele>282.57</ele>
        <time>2026-08-27T10:16:26Z</time>
      </trkpt>
      <trkpt lat="44.37728" lon="4.82914">
        <ele>282.4</ele>
        <time>2026-08-27T10:16:27Z</time>
      </trkpt>
      <trkpt lat="44.3773" lon="4.82916">
        <ele>282.31</ele>
        <time>2026-08-27T10:16:28Z</time>
      </trkpt>
      <trkpt lat="44.37732" lon="4.82916">
        <ele>282.09</ele>
        <time>2026-08-27T10:16:29Z</time>
      </trkpt>
      <trkpt lat="44.37734" lon="4.82915">
        <ele>282.03</ele>
        <time>2026-08-27T10:16:30Z</time>
      </trkpt>
      <trkpt lat="44.37736" lon="4.82914">
        <ele>282.01</ele>
        <time>2026-08-27T10:16:31Z</time>
      </trkpt>
      <trkpt lat="44.37738" lon="4.82914">
        <ele>281.63</ele>
        <time>2026-08-27T10:16:32Z</time>
      </trkpt>
      <trkpt lat="44.37762" lon="4.82917">
        <ele>279.98</ele>
        <time>2026-08-27T10:16:40Z</time>
      </trkpt>
      <trkpt lat="44.37764" lon="4.82919">
        <ele>279.89</ele>
        <time>2026-08-27T10:16:41Z</time>
      </trkpt>
      <trkpt lat="44.37767" lon="4.82919">
        <ele>279.66</ele>
        <time>2026-08-27T10:16:42Z</time>
      </trkpt>
      <trkpt lat="44.37769" lon="4.8292">
        <ele>279.34</ele>
        <time>2026-08-27T10:16:43Z</time>
      </trkpt>
      <trkpt lat="44.37772" lon="4.8292">
        <ele>279.11</ele>
        <time>2026-08-27T10:16:45Z</time>
      </trkpt>
      <trkpt lat="44.37774" lon="4.82921">
        <ele>278.93</ele>
        <time>2026-08-27T10:16:46Z</time>
      </trkpt>
      <trkpt lat="44.37775" lon="4.82923">
        <ele>278.6</ele>
        <time>2026-08-27T10:16:47Z</time>
      </trkpt>
      <trkpt lat="44.3778" lon="4.82923">
        <ele>278.17</ele>
        <time>2026-08-27T10:16:49Z</time>
      </trkpt>
      <trkpt lat="44.37783" lon="4.82923">
        <ele>278.08</ele>
        <time>2026-08-27T10:16:50Z</time>
      </trkpt>
      <trkpt lat="44.37785" lon="4.82924">
        <ele>277.97</ele>
        <time>2026-08-27T10:16:51Z</time>
      </trkpt>
      <trkpt lat="44.37788" lon="4.82925">
        <ele>277.75</ele>
        <time>2026-08-27T10:16:52Z</time>
      </trkpt>
      <trkpt lat="44.3779" lon="4.82926">
        <ele>277.7</ele>
        <time>2026-08-27T10:16:53Z</time>
      </trkpt>
      <trkpt lat="44.37792" lon="4.82927">
        <ele>277.59</ele>
        <time>2026-08-27T10:16:54Z</time>
      </trkpt>
      <trkpt lat="44.37795" lon="4.82927">
        <ele>277.51</ele>
        <time>2026-08-27T10:16:55Z</time>
      </trkpt>
      <trkpt lat="44.37799" lon="4.82928">
        <ele>277.32</ele>
        <time>2026-08-27T10:16:56Z</time>
      </trkpt>
      <trkpt lat="44.37822" lon="4.82932">
        <ele>274.66</ele>
        <time>2026-08-27T10:17:05Z</time>
      </trkpt>
      <trkpt lat="44.37827" lon="4.82932">
        <ele>274.5</ele>
        <time>2026-08-27T10:17:08Z</time>
      </trkpt>
      <trkpt lat="44.37828" lon="4.82932">
        <ele>274.42</ele>
        <time>2026-08-27T10:17:09Z</time>
      </trkpt>
      <trkpt lat="44.37838" lon="4.82936">
        <ele>274.51</ele>
        <time>2026-08-27T10:17:21Z</time>
      </trkpt>
      <trkpt lat="44.37853" lon="4.82961">
        <ele>274.31</ele>
        <time>2026-08-27T10:17:32Z</time>
      </trkpt>
      <trkpt lat="44.37871" lon="4.83005">
        <ele>273.93</ele>
        <time>2026-08-27T10:17:42Z</time>
      </trkpt>
      <trkpt lat="44.3789" lon="4.83056">
        <ele>273.2</ele>
        <time>2026-08-27T10:17:52Z</time>
      </trkpt>
      <trkpt lat="44.37894" lon="4.83069">
        <ele>273.18</ele>
        <time>2026-08-27T10:17:54Z</time>
      </trkpt>
      <trkpt lat="44.379" lon="4.8309">
        <ele>272.7</ele>
        <time>2026-08-27T10:17:57Z</time>
      </trkpt>
      <trkpt lat="44.37934" lon="4.83206">
        <ele>270.55</ele>
        <time>2026-08-27T10:18:15Z</time>
      </trkpt>
      <trkpt lat="44.37936" lon="4.83212">
        <ele>270.42</ele>
        <time>2026-08-27T10:18:16Z</time>
      </trkpt>
      <trkpt lat="44.37938" lon="4.83218">
        <ele>270.32</ele>
        <time>2026-08-27T10:18:17Z</time>
      </trkpt>
      <trkpt lat="44.37939" lon="4.83224">
        <ele>269.99</ele>
        <time>2026-08-27T10:18:18Z</time>
      </trkpt>
      <trkpt lat="44.37939" lon="4.8323">
        <ele>269.9</ele>
        <time>2026-08-27T10:18:19Z</time>
      </trkpt>
      <trkpt lat="44.37939" lon="4.83236">
        <ele>270.07</ele>
        <time>2026-08-27T10:18:20Z</time>
      </trkpt>
      <trkpt lat="44.37931" lon="4.83263">
        <ele>269.71</ele>
        <time>2026-08-27T10:18:26Z</time>
      </trkpt>
      <trkpt lat="44.37915" lon="4.83286">
        <ele>269.73</ele>
        <time>2026-08-27T10:18:31Z</time>
      </trkpt>
      <trkpt lat="44.37889" lon="4.83331">
        <ele>269.34</ele>
        <time>2026-08-27T10:18:42Z</time>
      </trkpt>
      <trkpt lat="44.37889" lon="4.83334">
        <ele>269.26</ele>
        <time>2026-08-27T10:18:43Z</time>
      </trkpt>
      <trkpt lat="44.3789" lon="4.83338">
        <ele>269.25</ele>
        <time>2026-08-27T10:18:44Z</time>
      </trkpt>
      <trkpt lat="44.37901" lon="4.83375">
        <ele>267.74</ele>
        <time>2026-08-27T10:18:52Z</time>
      </trkpt>
      <trkpt lat="44.37902" lon="4.83381">
        <ele>267.57</ele>
        <time>2026-08-27T10:18:53Z</time>
      </trkpt>
      <trkpt lat="44.37902" lon="4.83388">
        <ele>266.8</ele>
        <time>2026-08-27T10:18:54Z</time>
      </trkpt>
      <trkpt lat="44.37902" lon="4.83396">
        <ele>266.62</ele>
        <time>2026-08-27T10:18:55Z</time>
      </trkpt>
      <trkpt lat="44.37902" lon="4.83403">
        <ele>266.2</ele>
        <time>2026-08-27T10:18:56Z</time>
      </trkpt>
      <trkpt lat="44.37905" lon="4.83409">
        <ele>265.9</ele>
        <time>2026-08-27T10:18:57Z</time>
      </trkpt>
      <trkpt lat="44.37907" lon="4.83417">
        <ele>265.7</ele>
        <time>2026-08-27T10:18:58Z</time>
      </trkpt>
      <trkpt lat="44.3791" lon="4.83424">
        <ele>265.56</ele>
        <time>2026-08-27T10:18:59Z</time>
      </trkpt>
      <trkpt lat="44.37915" lon="4.83438">
        <ele>265.26</ele>
        <time>2026-08-27T10:19:01Z</time>
      </trkpt>
      <trkpt lat="44.37916" lon="4.83446">
        <ele>265.2</ele>
        <time>2026-08-27T10:19:02Z</time>
      </trkpt>
      <trkpt lat="44.37933" lon="4.83503">
        <ele>265.01</ele>
        <time>2026-08-27T10:19:12Z</time>
      </trkpt>
      <trkpt lat="44.37942" lon="4.83543">
        <ele>264.57</ele>
        <time>2026-08-27T10:19:19Z</time>
      </trkpt>
      <trkpt lat="44.37946" lon="4.83561">
        <ele>264.56</ele>
        <time>2026-08-27T10:19:22Z</time>
      </trkpt>
      <trkpt lat="44.37949" lon="4.83567">
        <ele>264.17</ele>
        <time>2026-08-27T10:19:23Z</time>
      </trkpt>
      <trkpt lat="44.37951" lon="4.83573">
        <ele>263.85</ele>
        <time>2026-08-27T10:19:24Z</time>
      </trkpt>
      <trkpt lat="44.37954" lon="4.83579">
        <ele>264.29</ele>
        <time>2026-08-27T10:19:25Z</time>
      </trkpt>
      <trkpt lat="44.37956" lon="4.83585">
        <ele>263.99</ele>
        <time>2026-08-27T10:19:26Z</time>
      </trkpt>
      <trkpt lat="44.37958" lon="4.83591">
        <ele>263.91</ele>
        <time>2026-08-27T10:19:27Z</time>
      </trkpt>
      <trkpt lat="44.37959" lon="4.83597">
        <ele>263.79</ele>
        <time>2026-08-27T10:19:28Z</time>
      </trkpt>
      <trkpt lat="44.3796" lon="4.83604">
        <ele>263.72</ele>
        <time>2026-08-27T10:19:29Z</time>
      </trkpt>
      <trkpt lat="44.37962" lon="4.83625">
        <ele>263.51</ele>
        <time>2026-08-27T10:19:32Z</time>
      </trkpt>
      <trkpt lat="44.37961" lon="4.83631">
        <ele>263.55</ele>
        <time>2026-08-27T10:19:33Z</time>
      </trkpt>
      <trkpt lat="44.3796" lon="4.83638">
        <ele>263.64</ele>
        <time>2026-08-27T10:19:34Z</time>
      </trkpt>
      <trkpt lat="44.37957" lon="4.83644">
        <ele>263.69</ele>
        <time>2026-08-27T10:19:35Z</time>
      </trkpt>
      <trkpt lat="44.37955" lon="4.8365">
        <ele>263.36</ele>
        <time>2026-08-27T10:19:36Z</time>
      </trkpt>
      <trkpt lat="44.37952" lon="4.83656">
        <ele>263.33</ele>
        <time>2026-08-27T10:19:37Z</time>
      </trkpt>
      <trkpt lat="44.3795" lon="4.83662">
        <ele>263.71</ele>
        <time>2026-08-27T10:19:38Z</time>
      </trkpt>
      <trkpt lat="44.37948" lon="4.83669">
        <ele>263.07</ele>
        <time>2026-08-27T10:19:39Z</time>
      </trkpt>
      <trkpt lat="44.37942" lon="4.83688">
        <ele>262.74</ele>
        <time>2026-08-27T10:19:42Z</time>
      </trkpt>
      <trkpt lat="44.37941" lon="4.83694">
        <ele>262.76</ele>
        <time>2026-08-27T10:19:43Z</time>
      </trkpt>
      <trkpt lat="44.37938" lon="4.83699">
        <ele>262.62</ele>
        <time>2026-08-27T10:19:44Z</time>
      </trkpt>
      <trkpt lat="44.37936" lon="4.83704">
        <ele>262.49</ele>
        <time>2026-08-27T10:19:45Z</time>
      </trkpt>
      <trkpt lat="44.37934" lon="4.8371">
        <ele>262.53</ele>
        <time>2026-08-27T10:19:46Z</time>
      </trkpt>
      <trkpt lat="44.37926" lon="4.83762">
        <ele>262.63</ele>
        <time>2026-08-27T10:19:58Z</time>
      </trkpt>
      <trkpt lat="44.37924" lon="4.83768">
        <ele>262.62</ele>
        <time>2026-08-27T10:19:59Z</time>
      </trkpt>
      <trkpt lat="44.37922" lon="4.83773">
        <ele>262.57</ele>
        <time>2026-08-27T10:20:00Z</time>
      </trkpt>
      <trkpt lat="44.37915" lon="4.83787">
        <ele>262.22</ele>
        <time>2026-08-27T10:20:03Z</time>
      </trkpt>
      <trkpt lat="44.37913" lon="4.83793">
        <ele>261.97</ele>
        <time>2026-08-27T10:20:04Z</time>
      </trkpt>
      <trkpt lat="44.37913" lon="4.83799">
        <ele>261.86</ele>
        <time>2026-08-27T10:20:05Z</time>
      </trkpt>
      <trkpt lat="44.37912" lon="4.83813">
        <ele>261.28</ele>
        <time>2026-08-27T10:20:07Z</time>
      </trkpt>
      <trkpt lat="44.37909" lon="4.83819">
        <ele>261.11</ele>
        <time>2026-08-27T10:20:08Z</time>
      </trkpt>
      <trkpt lat="44.37906" lon="4.83825">
        <ele>260.89</ele>
        <time>2026-08-27T10:20:09Z</time>
      </trkpt>
      <trkpt lat="44.37904" lon="4.83831">
        <ele>260.51</ele>
        <time>2026-08-27T10:20:10Z</time>
      </trkpt>
      <trkpt lat="44.37901" lon="4.83837">
        <ele>260.66</ele>
        <time>2026-08-27T10:20:11Z</time>
      </trkpt>
      <trkpt lat="44.37899" lon="4.83843">
        <ele>260.29</ele>
        <time>2026-08-27T10:20:12Z</time>
      </trkpt>
      <trkpt lat="44.37899" lon="4.83849">
        <ele>260.12</ele>
        <time>2026-08-27T10:20:13Z</time>
      </trkpt>
      <trkpt lat="44.37898" lon="4.83856">
        <ele>259.88</ele>
        <time>2026-08-27T10:20:14Z</time>
      </trkpt>
      <trkpt lat="44.37898" lon="4.83862">
        <ele>259.38</ele>
        <time>2026-08-27T10:20:15Z</time>
      </trkpt>
      <trkpt lat="44.37897" lon="4.83874">
        <ele>259.26</ele>
        <time>2026-08-27T10:20:17Z</time>
      </trkpt>
      <trkpt lat="44.37895" lon="4.83894">
        <ele>258.85</ele>
        <time>2026-08-27T10:20:20Z</time>
      </trkpt>
      <trkpt lat="44.37894" lon="4.839">
        <ele>258.74</ele>
        <time>2026-08-27T10:20:21Z</time>
      </trkpt>
      <trkpt lat="44.3789" lon="4.83913">
        <ele>258.5</ele>
        <time>2026-08-27T10:20:23Z</time>
      </trkpt>
      <trkpt lat="44.37883" lon="4.83933">
        <ele>257.44</ele>
        <time>2026-08-27T10:20:27Z</time>
      </trkpt>
      <trkpt lat="44.37883" lon="4.83938">
        <ele>257.11</ele>
        <time>2026-08-27T10:20:30Z</time>
      </trkpt>
      <trkpt lat="44.37884" lon="4.83941">
        <ele>257.05</ele>
        <time>2026-08-27T10:20:31Z</time>
      </trkpt>
      <trkpt lat="44.37885" lon="4.83944">
        <ele>257.25</ele>
        <time>2026-08-27T10:20:32Z</time>
      </trkpt>
      <trkpt lat="44.37887" lon="4.83947">
        <ele>257.25</ele>
        <time>2026-08-27T10:20:33Z</time>
      </trkpt>
      <trkpt lat="44.37889" lon="4.83948">
        <ele>257.33</ele>
        <time>2026-08-27T10:20:34Z</time>
      </trkpt>
      <trkpt lat="44.37891" lon="4.83948">
        <ele>257.5</ele>
        <time>2026-08-27T10:20:35Z</time>
      </trkpt>
      <trkpt lat="44.37894" lon="4.83948">
        <ele>257.72</ele>
        <time>2026-08-27T10:20:36Z</time>
      </trkpt>
      <trkpt lat="44.37897" lon="4.83949">
        <ele>257.63</ele>
        <time>2026-08-27T10:20:37Z</time>
      </trkpt>
      <trkpt lat="44.37899" lon="4.83948">
        <ele>257.8</ele>
        <time>2026-08-27T10:20:38Z</time>
      </trkpt>
      <trkpt lat="44.37899" lon="4.83945">
        <ele>257.88</ele>
        <time>2026-08-27T10:20:39Z</time>
      </trkpt>
      <trkpt lat="44.379" lon="4.83942">
        <ele>257.98</ele>
        <time>2026-08-27T10:20:40Z</time>
      </trkpt>
      <trkpt lat="44.37902" lon="4.83939">
        <ele>258</ele>
        <time>2026-08-27T10:20:41Z</time>
      </trkpt>
      <trkpt lat="44.37904" lon="4.83939">
        <ele>257.92</ele>
        <time>2026-08-27T10:20:42Z</time>
      </trkpt>
      <trkpt lat="44.37906" lon="4.8394">
        <ele>258.01</ele>
        <time>2026-08-27T10:20:43Z</time>
      </trkpt>
      <trkpt lat="44.37906" lon="4.83943">
        <ele>257.89</ele>
        <time>2026-08-27T10:20:44Z</time>
      </trkpt>
      <trkpt lat="44.37907" lon="4.83946">
        <ele>257.9</ele>
        <time>2026-08-27T10:20:45Z</time>
      </trkpt>
      <trkpt lat="44.37906" lon="4.8395">
        <ele>257.67</ele>
        <time>2026-08-27T10:20:46Z</time>
      </trkpt>
      <trkpt lat="44.37906" lon="4.83952">
        <ele>257.59</ele>
        <time>2026-08-27T10:20:47Z</time>
      </trkpt>
      <trkpt lat="44.37906" lon="4.83955">
        <ele>257.49</ele>
        <time>2026-08-27T10:20:48Z</time>
      </trkpt>
      <trkpt lat="44.37906" lon="4.83957">
        <ele>257.47</ele>
        <time>2026-08-27T10:20:49Z</time>
      </trkpt>
      <trkpt lat="44.37905" lon="4.83959">
        <ele>257.44</ele>
        <time>2026-08-27T10:20:50Z</time>
      </trkpt>
      <trkpt lat="44.37906" lon="4.83964">
        <ele>257.18</ele>
        <time>2026-08-27T10:20:54Z</time>
      </trkpt>
      <trkpt lat="44.37909" lon="4.83966">
        <ele>257.04</ele>
        <time>2026-08-27T10:20:55Z</time>
      </trkpt>
      <trkpt lat="44.37919" lon="4.83982">
        <ele>256.86</ele>
        <time>2026-08-27T10:20:59Z</time>
      </trkpt>
      <trkpt lat="44.37918" lon="4.83986">
        <ele>256.6</ele>
        <time>2026-08-27T10:21:00Z</time>
      </trkpt>
      <trkpt lat="44.37917" lon="4.83989">
        <ele>256.82</ele>
        <time>2026-08-27T10:21:01Z</time>
      </trkpt>
      <trkpt lat="44.37917" lon="4.83992">
        <ele>256.76</ele>
        <time>2026-08-27T10:21:02Z</time>
      </trkpt>
      <trkpt lat="44.37917" lon="4.83996">
        <ele>256.51</ele>
        <time>2026-08-27T10:21:03Z</time>
      </trkpt>
      <trkpt lat="44.37917" lon="4.84">
        <ele>256.7</ele>
        <time>2026-08-27T10:21:04Z</time>
      </trkpt>
      <trkpt lat="44.37917" lon="4.84005">
        <ele>256.56</ele>
        <time>2026-08-27T10:21:05Z</time>
      </trkpt>
      <trkpt lat="44.37916" lon="4.8401">
        <ele>256.15</ele>
        <time>2026-08-27T10:21:06Z</time>
      </trkpt>
      <trkpt lat="44.37916" lon="4.84014">
        <ele>256.27</ele>
        <time>2026-08-27T10:21:07Z</time>
      </trkpt>
      <trkpt lat="44.37916" lon="4.84019">
        <ele>256.18</ele>
        <time>2026-08-27T10:21:08Z</time>
      </trkpt>
      <trkpt lat="44.37917" lon="4.84022">
        <ele>256.16</ele>
        <time>2026-08-27T10:21:09Z</time>
      </trkpt>
      <trkpt lat="44.37919" lon="4.84025">
        <ele>256.31</ele>
        <time>2026-08-27T10:21:10Z</time>
      </trkpt>
      <trkpt lat="44.37921" lon="4.84028">
        <ele>256.33</ele>
        <time>2026-08-27T10:21:11Z</time>
      </trkpt>
      <trkpt lat="44.37923" lon="4.84032">
        <ele>256.14</ele>
        <time>2026-08-27T10:21:12Z</time>
      </trkpt>
      <trkpt lat="44.37925" lon="4.84035">
        <ele>256.32</ele>
        <time>2026-08-27T10:21:13Z</time>
      </trkpt>
      <trkpt lat="44.37927" lon="4.84039">
        <ele>256.08</ele>
        <time>2026-08-27T10:21:14Z</time>
      </trkpt>
      <trkpt lat="44.37927" lon="4.84044">
        <ele>256.13</ele>
        <time>2026-08-27T10:21:15Z</time>
      </trkpt>
      <trkpt lat="44.37927" lon="4.84047">
        <ele>255.78</ele>
        <time>2026-08-27T10:21:16Z</time>
      </trkpt>
      <trkpt lat="44.37926" lon="4.84051">
        <ele>255.25</ele>
        <time>2026-08-27T10:21:17Z</time>
      </trkpt>
      <trkpt lat="44.37925" lon="4.84055">
        <ele>254.97</ele>
        <time>2026-08-27T10:21:18Z</time>
      </trkpt>
      <trkpt lat="44.37924" lon="4.8406">
        <ele>254.68</ele>
        <time>2026-08-27T10:21:19Z</time>
      </trkpt>
      <trkpt lat="44.37924" lon="4.84067">
        <ele>254.15</ele>
        <time>2026-08-27T10:21:20Z</time>
      </trkpt>
      <trkpt lat="44.37924" lon="4.84074">
        <ele>253.39</ele>
        <time>2026-08-27T10:21:21Z</time>
      </trkpt>
      <trkpt lat="44.37924" lon="4.84081">
        <ele>253.14</ele>
        <time>2026-08-27T10:21:22Z</time>
      </trkpt>
      <trkpt lat="44.37922" lon="4.8409">
        <ele>252.05</ele>
        <time>2026-08-27T10:21:24Z</time>
      </trkpt>
      <trkpt lat="44.3792" lon="4.84093">
        <ele>252.15</ele>
        <time>2026-08-27T10:21:25Z</time>
      </trkpt>
      <trkpt lat="44.37917" lon="4.84095">
        <ele>251.78</ele>
        <time>2026-08-27T10:21:26Z</time>
      </trkpt>
      <trkpt lat="44.37917" lon="4.84098">
        <ele>251.29</ele>
        <time>2026-08-27T10:21:27Z</time>
      </trkpt>
      <trkpt lat="44.37917" lon="4.84101">
        <ele>250.72</ele>
        <time>2026-08-27T10:21:28Z</time>
      </trkpt>
      <trkpt lat="44.37919" lon="4.84102">
        <ele>250.35</ele>
        <time>2026-08-27T10:21:29Z</time>
      </trkpt>
      <trkpt lat="44.3792" lon="4.84105">
        <ele>250.6</ele>
        <time>2026-08-27T10:21:30Z</time>
      </trkpt>
      <trkpt lat="44.37922" lon="4.84111">
        <ele>250.23</ele>
        <time>2026-08-27T10:21:39Z</time>
      </trkpt>
      <trkpt lat="44.37922" lon="4.84114">
        <ele>249.85</ele>
        <time>2026-08-27T10:21:40Z</time>
      </trkpt>
      <trkpt lat="44.37922" lon="4.84117">
        <ele>249.68</ele>
        <time>2026-08-27T10:21:41Z</time>
      </trkpt>
      <trkpt lat="44.37921" lon="4.8412">
        <ele>249.27</ele>
        <time>2026-08-27T10:21:42Z</time>
      </trkpt>
      <trkpt lat="44.3792" lon="4.84123">
        <ele>248.9</ele>
        <time>2026-08-27T10:21:43Z</time>
      </trkpt>
      <trkpt lat="44.37916" lon="4.84132">
        <ele>248.15</ele>
        <time>2026-08-27T10:21:45Z</time>
      </trkpt>
      <trkpt lat="44.37913" lon="4.84135">
        <ele>248.02</ele>
        <time>2026-08-27T10:21:46Z</time>
      </trkpt>
      <trkpt lat="44.37905" lon="4.8414">
        <ele>247.3</ele>
        <time>2026-08-27T10:21:48Z</time>
      </trkpt>
      <trkpt lat="44.37901" lon="4.84142">
        <ele>247.2</ele>
        <time>2026-08-27T10:21:49Z</time>
      </trkpt>
      <trkpt lat="44.37898" lon="4.84143">
        <ele>246.79</ele>
        <time>2026-08-27T10:21:50Z</time>
      </trkpt>
      <trkpt lat="44.37897" lon="4.84145">
        <ele>246.46</ele>
        <time>2026-08-27T10:21:51Z</time>
      </trkpt>
      <trkpt lat="44.37897" lon="4.84148">
        <ele>246.41</ele>
        <time>2026-08-27T10:21:52Z</time>
      </trkpt>
      <trkpt lat="44.37897" lon="4.84152">
        <ele>246.26</ele>
        <time>2026-08-27T10:21:53Z</time>
      </trkpt>
      <trkpt lat="44.37895" lon="4.84159">
        <ele>246.11</ele>
        <time>2026-08-27T10:22:02Z</time>
      </trkpt>
      <trkpt lat="44.37893" lon="4.84162">
        <ele>246.03</ele>
        <time>2026-08-27T10:22:03Z</time>
      </trkpt>
      <trkpt lat="44.3789" lon="4.84164">
        <ele>245.92</ele>
        <time>2026-08-27T10:22:04Z</time>
      </trkpt>
      <trkpt lat="44.37887" lon="4.84166">
        <ele>245.68</ele>
        <time>2026-08-27T10:22:05Z</time>
      </trkpt>
      <trkpt lat="44.37883" lon="4.84169">
        <ele>245.55</ele>
        <time>2026-08-27T10:22:06Z</time>
      </trkpt>
      <trkpt lat="44.3788" lon="4.84174">
        <ele>245.43</ele>
        <time>2026-08-27T10:22:07Z</time>
      </trkpt>
      <trkpt lat="44.37879" lon="4.84179">
        <ele>245.03</ele>
        <time>2026-08-27T10:22:08Z</time>
      </trkpt>
      <trkpt lat="44.37876" lon="4.84185">
        <ele>244.77</ele>
        <time>2026-08-27T10:22:09Z</time>
      </trkpt>
      <trkpt lat="44.37875" lon="4.8419">
        <ele>244.32</ele>
        <time>2026-08-27T10:22:10Z</time>
      </trkpt>
      <trkpt lat="44.37873" lon="4.84193">
        <ele>244.43</ele>
        <time>2026-08-27T10:22:11Z</time>
      </trkpt>
      <trkpt lat="44.37872" lon="4.84195">
        <ele>244.25</ele>
        <time>2026-08-27T10:22:12Z</time>
      </trkpt>
      <trkpt lat="44.37871" lon="4.84196">
        <ele>244.1</ele>
        <time>2026-08-27T10:22:13Z</time>
      </trkpt>
      <trkpt lat="44.3787" lon="4.84198">
        <ele>243.79</ele>
        <time>2026-08-27T10:22:14Z</time>
      </trkpt>
      <trkpt lat="44.37871" lon="4.842">
        <ele>243.84</ele>
        <time>2026-08-27T10:22:15Z</time>
      </trkpt>
      <trkpt lat="44.37871" lon="4.84202">
        <ele>243.84</ele>
        <time>2026-08-27T10:22:16Z</time>
      </trkpt>
      <trkpt lat="44.37867" lon="4.84208">
        <ele>243.41</ele>
        <time>2026-08-27T10:22:21Z</time>
      </trkpt>
      <trkpt lat="44.37868" lon="4.84211">
        <ele>243.21</ele>
        <time>2026-08-27T10:22:22Z</time>
      </trkpt>
      <trkpt lat="44.37872" lon="4.8422">
        <ele>243.41</ele>
        <time>2026-08-27T10:22:25Z</time>
      </trkpt>
      <trkpt lat="44.37871" lon="4.84222">
        <ele>243.36</ele>
        <time>2026-08-27T10:22:26Z</time>
      </trkpt>
      <trkpt lat="44.37869" lon="4.84226">
        <ele>243.21</ele>
        <time>2026-08-27T10:22:27Z</time>
      </trkpt>
      <trkpt lat="44.37868" lon="4.8423">
        <ele>242.99</ele>
        <time>2026-08-27T10:22:28Z</time>
      </trkpt>
      <trkpt lat="44.37867" lon="4.84234">
        <ele>242.88</ele>
        <time>2026-08-27T10:22:29Z</time>
      </trkpt>
      <trkpt lat="44.37865" lon="4.84239">
        <ele>242.59</ele>
        <time>2026-08-27T10:22:31Z</time>
      </trkpt>
      <trkpt lat="44.37863" lon="4.84241">
        <ele>242.48</ele>
        <time>2026-08-27T10:22:32Z</time>
      </trkpt>
      <trkpt lat="44.37861" lon="4.84241">
        <ele>242.02</ele>
        <time>2026-08-27T10:22:33Z</time>
      </trkpt>
      <trkpt lat="44.37859" lon="4.84243">
        <ele>241.73</ele>
        <time>2026-08-27T10:22:34Z</time>
      </trkpt>
      <trkpt lat="44.37858" lon="4.84247">
        <ele>241.47</ele>
        <time>2026-08-27T10:22:35Z</time>
      </trkpt>
      <trkpt lat="44.37857" lon="4.84251">
        <ele>241.36</ele>
        <time>2026-08-27T10:22:36Z</time>
      </trkpt>
      <trkpt lat="44.37857" lon="4.84255">
        <ele>241.32</ele>
        <time>2026-08-27T10:22:37Z</time>
      </trkpt>
      <trkpt lat="44.37856" lon="4.84258">
        <ele>241.32</ele>
        <time>2026-08-27T10:22:38Z</time>
      </trkpt>
      <trkpt lat="44.37855" lon="4.84262">
        <ele>241.16</ele>
        <time>2026-08-27T10:22:39Z</time>
      </trkpt>
      <trkpt lat="44.37849" lon="4.84274">
        <ele>240.91</ele>
        <time>2026-08-27T10:22:47Z</time>
      </trkpt>
      <trkpt lat="44.37847" lon="4.84276">
        <ele>240.79</ele>
        <time>2026-08-27T10:22:48Z</time>
      </trkpt>
      <trkpt lat="44.37845" lon="4.84279">
        <ele>240.5</ele>
        <time>2026-08-27T10:22:49Z</time>
      </trkpt>
      <trkpt lat="44.37843" lon="4.84282">
        <ele>240.48</ele>
        <time>2026-08-27T10:22:50Z</time>
      </trkpt>
      <trkpt lat="44.37841" lon="4.84286">
        <ele>240.07</ele>
        <time>2026-08-27T10:22:51Z</time>
      </trkpt>
      <trkpt lat="44.3784" lon="4.8429">
        <ele>239.75</ele>
        <time>2026-08-27T10:22:52Z</time>
      </trkpt>
      <trkpt lat="44.37841" lon="4.84293">
        <ele>239.47</ele>
        <time>2026-08-27T10:22:53Z</time>
      </trkpt>
      <trkpt lat="44.37842" lon="4.84294">
        <ele>239.61</ele>
        <time>2026-08-27T10:22:54Z</time>
      </trkpt>
      <trkpt lat="44.37844" lon="4.84296">
        <ele>239.87</ele>
        <time>2026-08-27T10:22:55Z</time>
      </trkpt>
      <trkpt lat="44.37845" lon="4.84298">
        <ele>239.82</ele>
        <time>2026-08-27T10:22:56Z</time>
      </trkpt>
      <trkpt lat="44.37845" lon="4.843">
        <ele>239.99</ele>
        <time>2026-08-27T10:22:57Z</time>
      </trkpt>
      <trkpt lat="44.37846" lon="4.84304">
        <ele>239.74</ele>
        <time>2026-08-27T10:22:58Z</time>
      </trkpt>
      <trkpt lat="44.37847" lon="4.84308">
        <ele>239.56</ele>
        <time>2026-08-27T10:22:59Z</time>
      </trkpt>
      <trkpt lat="44.37848" lon="4.84314">
        <ele>239.21</ele>
        <time>2026-08-27T10:23:01Z</time>
      </trkpt>
      <trkpt lat="44.37849" lon="4.84316">
        <ele>239.18</ele>
        <time>2026-08-27T10:23:02Z</time>
      </trkpt>
      <trkpt lat="44.3785" lon="4.84318">
        <ele>239.4</ele>
        <time>2026-08-27T10:23:03Z</time>
      </trkpt>
      <trkpt lat="44.3785" lon="4.8432">
        <ele>239.06</ele>
        <time>2026-08-27T10:23:04Z</time>
      </trkpt>
      <trkpt lat="44.3785" lon="4.84323">
        <ele>238.9</ele>
        <time>2026-08-27T10:23:06Z</time>
      </trkpt>
      <trkpt lat="44.3785" lon="4.84326">
        <ele>238.66</ele>
        <time>2026-08-27T10:23:07Z</time>
      </trkpt>
      <trkpt lat="44.37851" lon="4.84329">
        <ele>238.42</ele>
        <time>2026-08-27T10:23:08Z</time>
      </trkpt>
      <trkpt lat="44.37859" lon="4.84339">
        <ele>239.32</ele>
        <time>2026-08-27T10:23:13Z</time>
      </trkpt>
      <trkpt lat="44.3786" lon="4.84342">
        <ele>239.25</ele>
        <time>2026-08-27T10:23:14Z</time>
      </trkpt>
      <trkpt lat="44.37861" lon="4.84346">
        <ele>239.12</ele>
        <time>2026-08-27T10:23:15Z</time>
      </trkpt>
      <trkpt lat="44.37861" lon="4.84349">
        <ele>239.04</ele>
        <time>2026-08-27T10:23:16Z</time>
      </trkpt>
      <trkpt lat="44.3786" lon="4.84352">
        <ele>238.72</ele>
        <time>2026-08-27T10:23:17Z</time>
      </trkpt>
      <trkpt lat="44.3786" lon="4.84357">
        <ele>238.58</ele>
        <time>2026-08-27T10:23:18Z</time>
      </trkpt>
      <trkpt lat="44.37861" lon="4.84362">
        <ele>238.03</ele>
        <time>2026-08-27T10:23:19Z</time>
      </trkpt>
      <trkpt lat="44.37862" lon="4.84366">
        <ele>237.94</ele>
        <time>2026-08-27T10:23:20Z</time>
      </trkpt>
      <trkpt lat="44.37863" lon="4.84368">
        <ele>237.96</ele>
        <time>2026-08-27T10:23:21Z</time>
      </trkpt>
      <trkpt lat="44.37864" lon="4.8437">
        <ele>238.09</ele>
        <time>2026-08-27T10:23:22Z</time>
      </trkpt>
      <trkpt lat="44.37865" lon="4.84373">
        <ele>238.08</ele>
        <time>2026-08-27T10:23:23Z</time>
      </trkpt>
      <trkpt lat="44.37865" lon="4.84375">
        <ele>238.13</ele>
        <time>2026-08-27T10:23:24Z</time>
      </trkpt>
      <trkpt lat="44.37865" lon="4.84377">
        <ele>238.14</ele>
        <time>2026-08-27T10:23:25Z</time>
      </trkpt>
      <trkpt lat="44.37865" lon="4.8438">
        <ele>238.19</ele>
        <time>2026-08-27T10:23:26Z</time>
      </trkpt>
      <trkpt lat="44.37865" lon="4.84383">
        <ele>238.19</ele>
        <time>2026-08-27T10:23:27Z</time>
      </trkpt>
      <trkpt lat="44.37866" lon="4.84386">
        <ele>238.07</ele>
        <time>2026-08-27T10:23:28Z</time>
      </trkpt>
      <trkpt lat="44.37867" lon="4.84389">
        <ele>238.13</ele>
        <time>2026-08-27T10:23:29Z</time>
      </trkpt>
      <trkpt lat="44.37867" lon="4.84392">
        <ele>238.22</ele>
        <time>2026-08-27T10:23:30Z</time>
      </trkpt>
      <trkpt lat="44.37867" lon="4.84395">
        <ele>237.79</ele>
        <time>2026-08-27T10:23:31Z</time>
      </trkpt>
      <trkpt lat="44.37866" lon="4.84397">
        <ele>237.57</ele>
        <time>2026-08-27T10:23:32Z</time>
      </trkpt>
      <trkpt lat="44.37866" lon="4.844">
        <ele>237.3</ele>
        <time>2026-08-27T10:23:33Z</time>
      </trkpt>
      <trkpt lat="44.37866" lon="4.84404">
        <ele>236.9</ele>
        <time>2026-08-27T10:23:34Z</time>
      </trkpt>
      <trkpt lat="44.37866" lon="4.84412">
        <ele>236.48</ele>
        <time>2026-08-27T10:23:37Z</time>
      </trkpt>
      <trkpt lat="44.37866" lon="4.84415">
        <ele>236.32</ele>
        <time>2026-08-27T10:23:38Z</time>
      </trkpt>
      <trkpt lat="44.37867" lon="4.84419">
        <ele>236.18</ele>
        <time>2026-08-27T10:23:39Z</time>
      </trkpt>
      <trkpt lat="44.37868" lon="4.84422">
        <ele>236.21</ele>
        <time>2026-08-27T10:23:40Z</time>
      </trkpt>
      <trkpt lat="44.37869" lon="4.84431">
        <ele>236.23</ele>
        <time>2026-08-27T10:23:51Z</time>
      </trkpt>
      <trkpt lat="44.37871" lon="4.84434">
        <ele>236.14</ele>
        <time>2026-08-27T10:23:55Z</time>
      </trkpt>
      <trkpt lat="44.37867" lon="4.84463">
        <ele>236.72</ele>
        <time>2026-08-27T10:24:02Z</time>
      </trkpt>
      <trkpt lat="44.37848" lon="4.84496">
        <ele>235.28</ele>
        <time>2026-08-27T10:24:12Z</time>
      </trkpt>
      <trkpt lat="44.3782" lon="4.84501">
        <ele>233.5</ele>
        <time>2026-08-27T10:24:21Z</time>
      </trkpt>
      <trkpt lat="44.37815" lon="4.84503">
        <ele>233.31</ele>
        <time>2026-08-27T10:24:24Z</time>
      </trkpt>
      <trkpt lat="44.37801" lon="4.8451">
        <ele>233.16</ele>
        <time>2026-08-27T10:24:35Z</time>
      </trkpt>
      <trkpt lat="44.37795" lon="4.84511">
        <ele>233.1</ele>
        <time>2026-08-27T10:24:47Z</time>
      </trkpt>
      <trkpt lat="44.37782" lon="4.84535">
        <ele>232.11</ele>
        <time>2026-08-27T10:24:55Z</time>
      </trkpt>
      <trkpt lat="44.37772" lon="4.84549">
        <ele>231.97</ele>
        <time>2026-08-27T10:25:03Z</time>
      </trkpt>
      <trkpt lat="44.37771" lon="4.84552">
        <ele>232.07</ele>
        <time>2026-08-27T10:25:04Z</time>
      </trkpt>
      <trkpt lat="44.37769" lon="4.84559">
        <ele>232.21</ele>
        <time>2026-08-27T10:25:06Z</time>
      </trkpt>
      <trkpt lat="44.37767" lon="4.84577">
        <ele>231.91</ele>
        <time>2026-08-27T10:25:11Z</time>
      </trkpt>
      <trkpt lat="44.37741" lon="4.846">
        <ele>231.23</ele>
        <time>2026-08-27T10:25:22Z</time>
      </trkpt>
      <trkpt lat="44.37739" lon="4.84603">
        <ele>231.14</ele>
        <time>2026-08-27T10:25:24Z</time>
      </trkpt>
      <trkpt lat="44.37728" lon="4.84603">
        <ele>230.65</ele>
        <time>2026-08-27T10:25:29Z</time>
      </trkpt>
      <trkpt lat="44.37703" lon="4.84598">
        <ele>229.27</ele>
        <time>2026-08-27T10:25:38Z</time>
      </trkpt>
      <trkpt lat="44.37691" lon="4.84596">
        <ele>228.48</ele>
        <time>2026-08-27T10:25:44Z</time>
      </trkpt>
      <trkpt lat="44.37671" lon="4.84603">
        <ele>228.17</ele>
        <time>2026-08-27T10:25:55Z</time>
      </trkpt>
      <trkpt lat="44.3766" lon="4.84609">
        <ele>228.34</ele>
        <time>2026-08-27T10:26:00Z</time>
      </trkpt>
      <trkpt lat="44.37655" lon="4.84612">
        <ele>228.21</ele>
        <time>2026-08-27T10:26:02Z</time>
      </trkpt>
      <trkpt lat="44.37643" lon="4.84627">
        <ele>228.72</ele>
        <time>2026-08-27T10:26:13Z</time>
      </trkpt>
      <trkpt lat="44.37634" lon="4.84639">
        <ele>228.76</ele>
        <time>2026-08-27T10:26:17Z</time>
      </trkpt>
      <trkpt lat="44.37616" lon="4.84644">
        <ele>227.71</ele>
        <time>2026-08-27T10:26:22Z</time>
      </trkpt>
      <trkpt lat="44.37606" lon="4.84659">
        <ele>226.01</ele>
        <time>2026-08-27T10:26:26Z</time>
      </trkpt>
      <trkpt lat="44.37606" lon="4.84673">
        <ele>225.67</ele>
        <time>2026-08-27T10:26:31Z</time>
      </trkpt>
      <trkpt lat="44.37604" lon="4.84688">
        <ele>225.06</ele>
        <time>2026-08-27T10:26:37Z</time>
      </trkpt>
      <trkpt lat="44.37595" lon="4.84704">
        <ele>224.27</ele>
        <time>2026-08-27T10:26:42Z</time>
      </trkpt>
      <trkpt lat="44.37583" lon="4.84716">
        <ele>223.09</ele>
        <time>2026-08-27T10:26:46Z</time>
      </trkpt>
      <trkpt lat="44.3758" lon="4.84725">
        <ele>222.39</ele>
        <time>2026-08-27T10:26:50Z</time>
      </trkpt>
      <trkpt lat="44.37586" lon="4.84761">
        <ele>221.81</ele>
        <time>2026-08-27T10:27:01Z</time>
      </trkpt>
      <trkpt lat="44.37586" lon="4.84769">
        <ele>221.71</ele>
        <time>2026-08-27T10:27:07Z</time>
      </trkpt>
      <trkpt lat="44.37576" lon="4.84782">
        <ele>221.18</ele>
        <time>2026-08-27T10:27:14Z</time>
      </trkpt>
      <trkpt lat="44.37559" lon="4.84796">
        <ele>221.16</ele>
        <time>2026-08-27T10:27:21Z</time>
      </trkpt>
      <trkpt lat="44.37547" lon="4.84804">
        <ele>220.47</ele>
        <time>2026-08-27T10:27:28Z</time>
      </trkpt>
      <trkpt lat="44.37546" lon="4.84808">
        <ele>219.84</ele>
        <time>2026-08-27T10:27:30Z</time>
      </trkpt>
      <trkpt lat="44.37554" lon="4.84839">
        <ele>217.35</ele>
        <time>2026-08-27T10:27:40Z</time>
      </trkpt>
      <trkpt lat="44.37555" lon="4.84841">
        <ele>217.39</ele>
        <time>2026-08-27T10:27:41Z</time>
      </trkpt>
      <trkpt lat="44.37564" lon="4.8486">
        <ele>216.21</ele>
        <time>2026-08-27T10:27:46Z</time>
      </trkpt>
      <trkpt lat="44.37561" lon="4.8488">
        <ele>214.14</ele>
        <time>2026-08-27T10:27:55Z</time>
      </trkpt>
      <trkpt lat="44.3756" lon="4.84881">
        <ele>214.3</ele>
        <time>2026-08-27T10:27:57Z</time>
      </trkpt>
      <trkpt lat="44.3756" lon="4.84885">
        <ele>214.24</ele>
        <time>2026-08-27T10:28:02Z</time>
      </trkpt>
      <trkpt lat="44.37553" lon="4.84913">
        <ele>211.82</ele>
        <time>2026-08-27T10:28:11Z</time>
      </trkpt>
      <trkpt lat="44.3754" lon="4.84936">
        <ele>207.38</ele>
        <time>2026-08-27T10:28:17Z</time>
      </trkpt>
      <trkpt lat="44.37537" lon="4.8494">
        <ele>206.39</ele>
        <time>2026-08-27T10:28:18Z</time>
      </trkpt>
      <trkpt lat="44.37515" lon="4.84958">
        <ele>202.35</ele>
        <time>2026-08-27T10:28:23Z</time>
      </trkpt>
      <trkpt lat="44.37509" lon="4.84962">
        <ele>201.84</ele>
        <time>2026-08-27T10:28:24Z</time>
      </trkpt>
      <trkpt lat="44.37485" lon="4.84982">
        <ele>197.68</ele>
        <time>2026-08-27T10:28:29Z</time>
      </trkpt>
      <trkpt lat="44.37474" lon="4.84996">
        <ele>194.57</ele>
        <time>2026-08-27T10:28:33Z</time>
      </trkpt>
      <trkpt lat="44.37466" lon="4.85004">
        <ele>193.68</ele>
        <time>2026-08-27T10:28:35Z</time>
      </trkpt>
      <trkpt lat="44.37461" lon="4.85009">
        <ele>192.36</ele>
        <time>2026-08-27T10:28:37Z</time>
      </trkpt>
      <trkpt lat="44.37454" lon="4.85025">
        <ele>192.07</ele>
        <time>2026-08-27T10:28:49Z</time>
      </trkpt>
      <trkpt lat="44.3745" lon="4.85032">
        <ele>191.56</ele>
        <time>2026-08-27T10:28:54Z</time>
      </trkpt>
      <trkpt lat="44.37447" lon="4.85034">
        <ele>191.28</ele>
        <time>2026-08-27T10:28:55Z</time>
      </trkpt>
      <trkpt lat="44.37434" lon="4.85048">
        <ele>189.5</ele>
        <time>2026-08-27T10:28:59Z</time>
      </trkpt>
      <trkpt lat="44.37426" lon="4.85055">
        <ele>187.92</ele>
        <time>2026-08-27T10:29:01Z</time>
      </trkpt>
      <trkpt lat="44.37416" lon="4.85065">
        <ele>185.31</ele>
        <time>2026-08-27T10:29:05Z</time>
      </trkpt>
      <trkpt lat="44.37416" lon="4.85066">
        <ele>185.04</ele>
        <time>2026-08-27T10:29:06Z</time>
      </trkpt>
      <trkpt lat="44.37415" lon="4.85068">
        <ele>184.83</ele>
        <time>2026-08-27T10:29:07Z</time>
      </trkpt>
      <trkpt lat="44.37413" lon="4.8507">
        <ele>184.1</ele>
        <time>2026-08-27T10:29:08Z</time>
      </trkpt>
      <trkpt lat="44.3741" lon="4.85072">
        <ele>183.68</ele>
        <time>2026-08-27T10:29:09Z</time>
      </trkpt>
      <trkpt lat="44.37407" lon="4.85075">
        <ele>183.36</ele>
        <time>2026-08-27T10:29:10Z</time>
      </trkpt>
      <trkpt lat="44.37404" lon="4.85078">
        <ele>182.8</ele>
        <time>2026-08-27T10:29:11Z</time>
      </trkpt>
      <trkpt lat="44.37393" lon="4.85084">
        <ele>181.15</ele>
        <time>2026-08-27T10:29:14Z</time>
      </trkpt>
      <trkpt lat="44.37389" lon="4.85087">
        <ele>180.35</ele>
        <time>2026-08-27T10:29:15Z</time>
      </trkpt>
      <trkpt lat="44.37386" lon="4.8509">
        <ele>180.01</ele>
        <time>2026-08-27T10:29:16Z</time>
      </trkpt>
      <trkpt lat="44.37379" lon="4.85094">
        <ele>178.43</ele>
        <time>2026-08-27T10:29:19Z</time>
      </trkpt>
      <trkpt lat="44.37378" lon="4.85096">
        <ele>178.12</ele>
        <time>2026-08-27T10:29:20Z</time>
      </trkpt>
      <trkpt lat="44.37374" lon="4.85102">
        <ele>176.75</ele>
        <time>2026-08-27T10:29:23Z</time>
      </trkpt>
      <trkpt lat="44.37372" lon="4.85107">
        <ele>176.47</ele>
        <time>2026-08-27T10:29:24Z</time>
      </trkpt>
      <trkpt lat="44.37371" lon="4.85112">
        <ele>176.23</ele>
        <time>2026-08-27T10:29:25Z</time>
      </trkpt>
      <trkpt lat="44.37368" lon="4.85116">
        <ele>175.48</ele>
        <time>2026-08-27T10:29:26Z</time>
      </trkpt>
      <trkpt lat="44.37366" lon="4.8512">
        <ele>174.62</ele>
        <time>2026-08-27T10:29:27Z</time>
      </trkpt>
      <trkpt lat="44.37365" lon="4.85122">
        <ele>174.35</ele>
        <time>2026-08-27T10:29:28Z</time>
      </trkpt>
      <trkpt lat="44.3736" lon="4.85137">
        <ele>173.88</ele>
        <time>2026-08-27T10:29:42Z</time>
      </trkpt>
      <trkpt lat="44.37361" lon="4.85139">
        <ele>173.85</ele>
        <time>2026-08-27T10:29:43Z</time>
      </trkpt>
      <trkpt lat="44.37363" lon="4.85143">
        <ele>173.47</ele>
        <time>2026-08-27T10:29:47Z</time>
      </trkpt>
      <trkpt lat="44.37365" lon="4.85146">
        <ele>173.64</ele>
        <time>2026-08-27T10:29:48Z</time>
      </trkpt>
      <trkpt lat="44.37366" lon="4.85147">
        <ele>173.43</ele>
        <time>2026-08-27T10:29:49Z</time>
      </trkpt>
      <trkpt lat="44.37367" lon="4.85149">
        <ele>173.35</ele>
        <time>2026-08-27T10:29:50Z</time>
      </trkpt>
      <trkpt lat="44.37367" lon="4.85151">
        <ele>173.08</ele>
        <time>2026-08-27T10:29:51Z</time>
      </trkpt>
      <trkpt lat="44.37369" lon="4.85153">
        <ele>172.95</ele>
        <time>2026-08-27T10:29:52Z</time>
      </trkpt>
      <trkpt lat="44.3737" lon="4.85156">
        <ele>172.87</ele>
        <time>2026-08-27T10:29:53Z</time>
      </trkpt>
      <trkpt lat="44.37371" lon="4.85158">
        <ele>172.63</ele>
        <time>2026-08-27T10:29:54Z</time>
      </trkpt>
      <trkpt lat="44.37371" lon="4.8516">
        <ele>171.95</ele>
        <time>2026-08-27T10:29:56Z</time>
      </trkpt>
      <trkpt lat="44.37369" lon="4.85161">
        <ele>171.6</ele>
        <time>2026-08-27T10:29:57Z</time>
      </trkpt>
      <trkpt lat="44.37368" lon="4.85163">
        <ele>171.17</ele>
        <time>2026-08-27T10:29:58Z</time>
      </trkpt>
      <trkpt lat="44.37368" lon="4.85167">
        <ele>170.8</ele>
        <time>2026-08-27T10:29:59Z</time>
      </trkpt>
      <trkpt lat="44.37367" lon="4.8517">
        <ele>170.15</ele>
        <time>2026-08-27T10:30:00Z</time>
      </trkpt>
      <trkpt lat="44.37365" lon="4.85172">
        <ele>169.46</ele>
        <time>2026-08-27T10:30:01Z</time>
      </trkpt>
      <trkpt lat="44.37362" lon="4.85174">
        <ele>169.07</ele>
        <time>2026-08-27T10:30:02Z</time>
      </trkpt>
      <trkpt lat="44.3736" lon="4.85174">
        <ele>169.09</ele>
        <time>2026-08-27T10:30:03Z</time>
      </trkpt>
      <trkpt lat="44.37357" lon="4.85175">
        <ele>168.95</ele>
        <time>2026-08-27T10:30:04Z</time>
      </trkpt>
      <trkpt lat="44.37355" lon="4.85176">
        <ele>168.67</ele>
        <time>2026-08-27T10:30:05Z</time>
      </trkpt>
      <trkpt lat="44.37352" lon="4.85177">
        <ele>168.68</ele>
        <time>2026-08-27T10:30:06Z</time>
      </trkpt>
      <trkpt lat="44.37349" lon="4.85178">
        <ele>168.32</ele>
        <time>2026-08-27T10:30:07Z</time>
      </trkpt>
      <trkpt lat="44.37347" lon="4.8518">
        <ele>167.77</ele>
        <time>2026-08-27T10:30:08Z</time>
      </trkpt>
      <trkpt lat="44.37346" lon="4.85183">
        <ele>167.54</ele>
        <time>2026-08-27T10:30:09Z</time>
      </trkpt>
      <trkpt lat="44.37346" lon="4.85185">
        <ele>167.04</ele>
        <time>2026-08-27T10:30:10Z</time>
      </trkpt>
      <trkpt lat="44.37343" lon="4.85191">
        <ele>166.52</ele>
        <time>2026-08-27T10:30:16Z</time>
      </trkpt>
      <trkpt lat="44.37342" lon="4.85194">
        <ele>166.38</ele>
        <time>2026-08-27T10:30:17Z</time>
      </trkpt>
      <trkpt lat="44.37342" lon="4.85197">
        <ele>166.16</ele>
        <time>2026-08-27T10:30:18Z</time>
      </trkpt>
      <trkpt lat="44.37344" lon="4.85209">
        <ele>164.43</ele>
        <time>2026-08-27T10:30:22Z</time>
      </trkpt>
      <trkpt lat="44.37344" lon="4.85211">
        <ele>163.94</ele>
        <time>2026-08-27T10:30:23Z</time>
      </trkpt>
      <trkpt lat="44.37344" lon="4.85215">
        <ele>163</ele>
        <time>2026-08-27T10:30:25Z</time>
      </trkpt>
      <trkpt lat="44.37345" lon="4.85217">
        <ele>162.45</ele>
        <time>2026-08-27T10:30:26Z</time>
      </trkpt>
      <trkpt lat="44.37349" lon="4.85226">
        <ele>161.33</ele>
        <time>2026-08-27T10:30:28Z</time>
      </trkpt>
      <trkpt lat="44.37352" lon="4.85231">
        <ele>160.82</ele>
        <time>2026-08-27T10:30:29Z</time>
      </trkpt>
      <trkpt lat="44.37354" lon="4.85236">
        <ele>160.34</ele>
        <time>2026-08-27T10:30:30Z</time>
      </trkpt>
      <trkpt lat="44.37369" lon="4.85279">
        <ele>162.26</ele>
        <time>2026-08-27T10:30:40Z</time>
      </trkpt>
      <trkpt lat="44.37371" lon="4.85289">
        <ele>162.05</ele>
        <time>2026-08-27T10:30:52Z</time>
      </trkpt>
      <trkpt lat="44.37375" lon="4.85298">
        <ele>161.72</ele>
        <time>2026-08-27T10:31:16Z</time>
      </trkpt>
      <trkpt lat="44.37376" lon="4.85303">
        <ele>161.48</ele>
        <time>2026-08-27T10:31:17Z</time>
      </trkpt>
      <trkpt lat="44.37384" lon="4.85339">
        <ele>159.75</ele>
        <time>2026-08-27T10:31:23Z</time>
      </trkpt>
      <trkpt lat="44.37388" lon="4.85354">
        <ele>159.22</ele>
        <time>2026-08-27T10:31:25Z</time>
      </trkpt>
      <trkpt lat="44.3739" lon="4.8537">
        <ele>158.78</ele>
        <time>2026-08-27T10:31:27Z</time>
      </trkpt>
      <trkpt lat="44.37406" lon="4.8545">
        <ele>156.17</ele>
        <time>2026-08-27T10:31:37Z</time>
      </trkpt>
      <trkpt lat="44.37406" lon="4.85456">
        <ele>156.07</ele>
        <time>2026-08-27T10:31:38Z</time>
      </trkpt>
      <trkpt lat="44.37404" lon="4.85463">
        <ele>155.89</ele>
        <time>2026-08-27T10:31:39Z</time>
      </trkpt>
      <trkpt lat="44.37402" lon="4.85468">
        <ele>155.54</ele>
        <time>2026-08-27T10:31:40Z</time>
      </trkpt>
      <trkpt lat="44.374" lon="4.85473">
        <ele>155.33</ele>
        <time>2026-08-27T10:31:41Z</time>
      </trkpt>
      <trkpt lat="44.37396" lon="4.85478">
        <ele>154.87</ele>
        <time>2026-08-27T10:31:42Z</time>
      </trkpt>
      <trkpt lat="44.37385" lon="4.85488">
        <ele>153.85</ele>
        <time>2026-08-27T10:31:45Z</time>
      </trkpt>
      <trkpt lat="44.37381" lon="4.85488">
        <ele>153.53</ele>
        <time>2026-08-27T10:31:46Z</time>
      </trkpt>
      <trkpt lat="44.37377" lon="4.85486">
        <ele>153.14</ele>
        <time>2026-08-27T10:31:47Z</time>
      </trkpt>
      <trkpt lat="44.37373" lon="4.85484">
        <ele>153.2</ele>
        <time>2026-08-27T10:31:48Z</time>
      </trkpt>
      <trkpt lat="44.37369" lon="4.85481">
        <ele>153.13</ele>
        <time>2026-08-27T10:31:49Z</time>
      </trkpt>
      <trkpt lat="44.37335" lon="4.85457">
        <ele>153.63</ele>
        <time>2026-08-27T10:31:59Z</time>
      </trkpt>
      <trkpt lat="44.37252" lon="4.85407">
        <ele>154.39</ele>
        <time>2026-08-27T10:32:15Z</time>
      </trkpt>
      <trkpt lat="44.37184" lon="4.85343">
        <ele>153.06</ele>
        <time>2026-08-27T10:32:28Z</time>
      </trkpt>
      <trkpt lat="44.37166" lon="4.85326">
        <ele>152.3</ele>
        <time>2026-08-27T10:32:32Z</time>
      </trkpt>
      <trkpt lat="44.37093" lon="4.85282">
        <ele>150.18</ele>
        <time>2026-08-27T10:32:47Z</time>
      </trkpt>
      <trkpt lat="44.37006" lon="4.85238">
        <ele>147.18</ele>
        <time>2026-08-27T10:33:03Z</time>
      </trkpt>
      <trkpt lat="44.36984" lon="4.8522">
        <ele>146.64</ele>
        <time>2026-08-27T10:33:09Z</time>
      </trkpt>
      <trkpt lat="44.36983" lon="4.85216">
        <ele>146.76</ele>
        <time>2026-08-27T10:33:10Z</time>
      </trkpt>
      <trkpt lat="44.36984" lon="4.85212">
        <ele>146.63</ele>
        <time>2026-08-27T10:33:11Z</time>
      </trkpt>
      <trkpt lat="44.36985" lon="4.85209">
        <ele>147.12</ele>
        <time>2026-08-27T10:33:12Z</time>
      </trkpt>
      <trkpt lat="44.36986" lon="4.85206">
        <ele>147.46</ele>
        <time>2026-08-27T10:33:13Z</time>
      </trkpt>
      <trkpt lat="44.36987" lon="4.85202">
        <ele>147.58</ele>
        <time>2026-08-27T10:33:14Z</time>
      </trkpt>
      <trkpt lat="44.36997" lon="4.85168">
        <ele>150.71</ele>
        <time>2026-08-27T10:33:24Z</time>
      </trkpt>
      <trkpt lat="44.37005" lon="4.85128">
        <ele>153.2</ele>
        <time>2026-08-27T10:33:36Z</time>
      </trkpt>
      <trkpt lat="44.37017" lon="4.85089">
        <ele>155.42</ele>
        <time>2026-08-27T10:33:47Z</time>
      </trkpt>
      <trkpt lat="44.37018" lon="4.85087">
        <ele>155.74</ele>
        <time>2026-08-27T10:33:48Z</time>
      </trkpt>
      <trkpt lat="44.3702" lon="4.85086">
        <ele>156.04</ele>
        <time>2026-08-27T10:33:49Z</time>
      </trkpt>
      <trkpt lat="44.37022" lon="4.85085">
        <ele>156.21</ele>
        <time>2026-08-27T10:33:50Z</time>
      </trkpt>
      <trkpt lat="44.37024" lon="4.85084">
        <ele>156.43</ele>
        <time>2026-08-27T10:33:51Z</time>
      </trkpt>
      <trkpt lat="44.37026" lon="4.85083">
        <ele>156.72</ele>
        <time>2026-08-27T10:33:52Z</time>
      </trkpt>
      <trkpt lat="44.37059" lon="4.85074">
        <ele>159.12</ele>
        <time>2026-08-27T10:34:05Z</time>
      </trkpt>
      <trkpt lat="44.37084" lon="4.85046">
        <ele>162.28</ele>
        <time>2026-08-27T10:34:16Z</time>
      </trkpt>
      <trkpt lat="44.37094" lon="4.85028">
        <ele>164.51</ele>
        <time>2026-08-27T10:34:23Z</time>
      </trkpt>
      <trkpt lat="44.37096" lon="4.85027">
        <ele>164.82</ele>
        <time>2026-08-27T10:34:24Z</time>
      </trkpt>
      <trkpt lat="44.3712" lon="4.85013">
        <ele>167.85</ele>
        <time>2026-08-27T10:34:35Z</time>
      </trkpt>
      <trkpt lat="44.3715" lon="4.84997">
        <ele>170.87</ele>
        <time>2026-08-27T10:34:48Z</time>
      </trkpt>
      <trkpt lat="44.37155" lon="4.84989">
        <ele>172.28</ele>
        <time>2026-08-27T10:34:51Z</time>
      </trkpt>
      <trkpt lat="44.37161" lon="4.84976">
        <ele>174.05</ele>
        <time>2026-08-27T10:34:56Z</time>
      </trkpt>
      <trkpt lat="44.37171" lon="4.8496">
        <ele>176.84</ele>
        <time>2026-08-27T10:35:03Z</time>
      </trkpt>
      <trkpt lat="44.37174" lon="4.84955">
        <ele>177.46</ele>
        <time>2026-08-27T10:35:05Z</time>
      </trkpt>
      <trkpt lat="44.37175" lon="4.84952">
        <ele>177.83</ele>
        <time>2026-08-27T10:35:06Z</time>
      </trkpt>
      <trkpt lat="44.37176" lon="4.8495">
        <ele>178.08</ele>
        <time>2026-08-27T10:35:07Z</time>
      </trkpt>
      <trkpt lat="44.37177" lon="4.84947">
        <ele>178.41</ele>
        <time>2026-08-27T10:35:08Z</time>
      </trkpt>
      <trkpt lat="44.37178" lon="4.84943">
        <ele>178.83</ele>
        <time>2026-08-27T10:35:09Z</time>
      </trkpt>
      <trkpt lat="44.37178" lon="4.8494">
        <ele>179.32</ele>
        <time>2026-08-27T10:35:10Z</time>
      </trkpt>
      <trkpt lat="44.37176" lon="4.84918">
        <ele>180.95</ele>
        <time>2026-08-27T10:35:21Z</time>
      </trkpt>
      <trkpt lat="44.37174" lon="4.84911">
        <ele>180.75</ele>
        <time>2026-08-27T10:36:04Z</time>
      </trkpt>
      <trkpt lat="44.37175" lon="4.84905">
        <ele>181.98</ele>
        <time>2026-08-27T10:36:35Z</time>
      </trkpt>
      <trkpt lat="44.37174" lon="4.84893">
        <ele>183.16</ele>
        <time>2026-08-27T10:36:40Z</time>
      </trkpt>
      <trkpt lat="44.37175" lon="4.84889">
        <ele>183.66</ele>
        <time>2026-08-27T10:36:42Z</time>
      </trkpt>
      <trkpt lat="44.37175" lon="4.84886">
        <ele>183.73</ele>
        <time>2026-08-27T10:36:43Z</time>
      </trkpt>
      <trkpt lat="44.37174" lon="4.84884">
        <ele>183.95</ele>
        <time>2026-08-27T10:36:44Z</time>
      </trkpt>
      <trkpt lat="44.37174" lon="4.84881">
        <ele>184.31</ele>
        <time>2026-08-27T10:36:45Z</time>
      </trkpt>
      <trkpt lat="44.37173" lon="4.84879">
        <ele>184.5</ele>
        <time>2026-08-27T10:36:46Z</time>
      </trkpt>
      <trkpt lat="44.37173" lon="4.84876">
        <ele>184.58</ele>
        <time>2026-08-27T10:36:47Z</time>
      </trkpt>
      <trkpt lat="44.37171" lon="4.84874">
        <ele>184.71</ele>
        <time>2026-08-27T10:36:48Z</time>
      </trkpt>
      <trkpt lat="44.3717" lon="4.84872">
        <ele>185.02</ele>
        <time>2026-08-27T10:36:49Z</time>
      </trkpt>
      <trkpt lat="44.37168" lon="4.8487">
        <ele>185.02</ele>
        <time>2026-08-27T10:36:50Z</time>
      </trkpt>
      <trkpt lat="44.37168" lon="4.84867">
        <ele>185.14</ele>
        <time>2026-08-27T10:36:51Z</time>
      </trkpt>
      <trkpt lat="44.37167" lon="4.84864">
        <ele>185.1</ele>
        <time>2026-08-27T10:36:52Z</time>
      </trkpt>
      <trkpt lat="44.37166" lon="4.84862">
        <ele>185.19</ele>
        <time>2026-08-27T10:36:53Z</time>
      </trkpt>
      <trkpt lat="44.37166" lon="4.84859">
        <ele>185.17</ele>
        <time>2026-08-27T10:36:54Z</time>
      </trkpt>
      <trkpt lat="44.37166" lon="4.84856">
        <ele>185.44</ele>
        <time>2026-08-27T10:36:55Z</time>
      </trkpt>
      <trkpt lat="44.37164" lon="4.8485">
        <ele>185.36</ele>
        <time>2026-08-27T10:36:57Z</time>
      </trkpt>
      <trkpt lat="44.37162" lon="4.84848">
        <ele>185.46</ele>
        <time>2026-08-27T10:36:58Z</time>
      </trkpt>
      <trkpt lat="44.3716" lon="4.84847">
        <ele>185.17</ele>
        <time>2026-08-27T10:36:59Z</time>
      </trkpt>
      <trkpt lat="44.37159" lon="4.84845">
        <ele>185.28</ele>
        <time>2026-08-27T10:37:00Z</time>
      </trkpt>
      <trkpt lat="44.37159" lon="4.84843">
        <ele>185.28</ele>
        <time>2026-08-27T10:37:01Z</time>
      </trkpt>
      <trkpt lat="44.37157" lon="4.84841">
        <ele>185.26</ele>
        <time>2026-08-27T10:37:02Z</time>
      </trkpt>
      <trkpt lat="44.37156" lon="4.8484">
        <ele>185.37</ele>
        <time>2026-08-27T10:37:03Z</time>
      </trkpt>
      <trkpt lat="44.37154" lon="4.84838">
        <ele>185.38</ele>
        <time>2026-08-27T10:37:04Z</time>
      </trkpt>
      <trkpt lat="44.37152" lon="4.84837">
        <ele>185.36</ele>
        <time>2026-08-27T10:37:05Z</time>
      </trkpt>
      <trkpt lat="44.3715" lon="4.84836">
        <ele>185.26</ele>
        <time>2026-08-27T10:37:06Z</time>
      </trkpt>
      <trkpt lat="44.37136" lon="4.84825">
        <ele>185.24</ele>
        <time>2026-08-27T10:37:12Z</time>
      </trkpt>
      <trkpt lat="44.37133" lon="4.84823">
        <ele>185.15</ele>
        <time>2026-08-27T10:37:13Z</time>
      </trkpt>
      <trkpt lat="44.37131" lon="4.84821">
        <ele>185.02</ele>
        <time>2026-08-27T10:37:14Z</time>
      </trkpt>
      <trkpt lat="44.37131" lon="4.84818">
        <ele>184.89</ele>
        <time>2026-08-27T10:37:15Z</time>
      </trkpt>
      <trkpt lat="44.37131" lon="4.84816">
        <ele>184.85</ele>
        <time>2026-08-27T10:37:16Z</time>
      </trkpt>
      <trkpt lat="44.37131" lon="4.84813">
        <ele>185.05</ele>
        <time>2026-08-27T10:37:17Z</time>
      </trkpt>
      <trkpt lat="44.3713" lon="4.84803">
        <ele>185.53</ele>
        <time>2026-08-27T10:37:25Z</time>
      </trkpt>
      <trkpt lat="44.37131" lon="4.84802">
        <ele>185.6</ele>
        <time>2026-08-27T10:37:26Z</time>
      </trkpt>
      <trkpt lat="44.37133" lon="4.84799">
        <ele>185.81</ele>
        <time>2026-08-27T10:37:27Z</time>
      </trkpt>
      <trkpt lat="44.37134" lon="4.84796">
        <ele>186.03</ele>
        <time>2026-08-27T10:37:28Z</time>
      </trkpt>
      <trkpt lat="44.37136" lon="4.84793">
        <ele>186.4</ele>
        <time>2026-08-27T10:37:29Z</time>
      </trkpt>
      <trkpt lat="44.37137" lon="4.8479">
        <ele>186.56</ele>
        <time>2026-08-27T10:37:30Z</time>
      </trkpt>
      <trkpt lat="44.37139" lon="4.84789">
        <ele>186.9</ele>
        <time>2026-08-27T10:37:31Z</time>
      </trkpt>
      <trkpt lat="44.37141" lon="4.84788">
        <ele>186.8</ele>
        <time>2026-08-27T10:37:32Z</time>
      </trkpt>
      <trkpt lat="44.37143" lon="4.84787">
        <ele>187.29</ele>
        <time>2026-08-27T10:37:33Z</time>
      </trkpt>
      <trkpt lat="44.37145" lon="4.84787">
        <ele>187.32</ele>
        <time>2026-08-27T10:37:34Z</time>
      </trkpt>
      <trkpt lat="44.37147" lon="4.84785">
        <ele>187.47</ele>
        <time>2026-08-27T10:37:35Z</time>
      </trkpt>
      <trkpt lat="44.37148" lon="4.84782">
        <ele>187.79</ele>
        <time>2026-08-27T10:37:36Z</time>
      </trkpt>
      <trkpt lat="44.37149" lon="4.84779">
        <ele>187.72</ele>
        <time>2026-08-27T10:37:37Z</time>
      </trkpt>
      <trkpt lat="44.37149" lon="4.84776">
        <ele>187.93</ele>
        <time>2026-08-27T10:37:38Z</time>
      </trkpt>
      <trkpt lat="44.37149" lon="4.84773">
        <ele>188.16</ele>
        <time>2026-08-27T10:37:39Z</time>
      </trkpt>
      <trkpt lat="44.37149" lon="4.84771">
        <ele>188.13</ele>
        <time>2026-08-27T10:37:40Z</time>
      </trkpt>
      <trkpt lat="44.37149" lon="4.84768">
        <ele>187.81</ele>
        <time>2026-08-27T10:37:41Z</time>
      </trkpt>
      <trkpt lat="44.37149" lon="4.84765">
        <ele>187.82</ele>
        <time>2026-08-27T10:37:42Z</time>
      </trkpt>
      <trkpt lat="44.37149" lon="4.84762">
        <ele>187.71</ele>
        <time>2026-08-27T10:37:43Z</time>
      </trkpt>
      <trkpt lat="44.37148" lon="4.84757">
        <ele>187.43</ele>
        <time>2026-08-27T10:37:45Z</time>
      </trkpt>
      <trkpt lat="44.37146" lon="4.84756">
        <ele>187.26</ele>
        <time>2026-08-27T10:37:46Z</time>
      </trkpt>
      <trkpt lat="44.37145" lon="4.84755">
        <ele>187.13</ele>
        <time>2026-08-27T10:37:47Z</time>
      </trkpt>
      <trkpt lat="44.37144" lon="4.84754">
        <ele>186.88</ele>
        <time>2026-08-27T10:37:48Z</time>
      </trkpt>
      <trkpt lat="44.37142" lon="4.84754">
        <ele>186.56</ele>
        <time>2026-08-27T10:37:49Z</time>
      </trkpt>
      <trkpt lat="44.37141" lon="4.84752">
        <ele>186.4</ele>
        <time>2026-08-27T10:37:51Z</time>
      </trkpt>
      <trkpt lat="44.37139" lon="4.84753">
        <ele>186.24</ele>
        <time>2026-08-27T10:37:52Z</time>
      </trkpt>
      <trkpt lat="44.37138" lon="4.84754">
        <ele>186.13</ele>
        <time>2026-08-27T10:37:53Z</time>
      </trkpt>
      <trkpt lat="44.37136" lon="4.84755">
        <ele>185.93</ele>
        <time>2026-08-27T10:37:54Z</time>
      </trkpt>
      <trkpt lat="44.37135" lon="4.84755">
        <ele>185.65</ele>
        <time>2026-08-27T10:37:55Z</time>
      </trkpt>
      <trkpt lat="44.37132" lon="4.84756">
        <ele>185.56</ele>
        <time>2026-08-27T10:37:56Z</time>
      </trkpt>
      <trkpt lat="44.37129" lon="4.84756">
        <ele>185.14</ele>
        <time>2026-08-27T10:37:57Z</time>
      </trkpt>
      <trkpt lat="44.37127" lon="4.84755">
        <ele>184.82</ele>
        <time>2026-08-27T10:37:58Z</time>
      </trkpt>
      <trkpt lat="44.37126" lon="4.84752">
        <ele>184.35</ele>
        <time>2026-08-27T10:37:59Z</time>
      </trkpt>
      <trkpt lat="44.37126" lon="4.84749">
        <ele>184.04</ele>
        <time>2026-08-27T10:38:00Z</time>
      </trkpt>
      <trkpt lat="44.37126" lon="4.84745">
        <ele>183.9</ele>
        <time>2026-08-27T10:38:01Z</time>
      </trkpt>
      <trkpt lat="44.37126" lon="4.8474">
        <ele>183.58</ele>
        <time>2026-08-27T10:38:02Z</time>
      </trkpt>
      <trkpt lat="44.37124" lon="4.84737">
        <ele>183.32</ele>
        <time>2026-08-27T10:38:03Z</time>
      </trkpt>
      <trkpt lat="44.37121" lon="4.84736">
        <ele>182.85</ele>
        <time>2026-08-27T10:38:04Z</time>
      </trkpt>
      <trkpt lat="44.37118" lon="4.84736">
        <ele>182.28</ele>
        <time>2026-08-27T10:38:05Z</time>
      </trkpt>
      <trkpt lat="44.37115" lon="4.84736">
        <ele>182.06</ele>
        <time>2026-08-27T10:38:06Z</time>
      </trkpt>
      <trkpt lat="44.37112" lon="4.84738">
        <ele>181.5</ele>
        <time>2026-08-27T10:38:07Z</time>
      </trkpt>
      <trkpt lat="44.37103" lon="4.84743">
        <ele>180.45</ele>
        <time>2026-08-27T10:38:09Z</time>
      </trkpt>
      <trkpt lat="44.371" lon="4.84746">
        <ele>179.93</ele>
        <time>2026-08-27T10:38:10Z</time>
      </trkpt>
      <trkpt lat="44.37098" lon="4.84749">
        <ele>179.38</ele>
        <time>2026-08-27T10:38:11Z</time>
      </trkpt>
      <trkpt lat="44.37097" lon="4.84751">
        <ele>179.28</ele>
        <time>2026-08-27T10:38:12Z</time>
      </trkpt>
      <trkpt lat="44.37096" lon="4.84754">
        <ele>179.26</ele>
        <time>2026-08-27T10:38:13Z</time>
      </trkpt>
      <trkpt lat="44.37093" lon="4.84757">
        <ele>179.17</ele>
        <time>2026-08-27T10:38:14Z</time>
      </trkpt>
      <trkpt lat="44.37091" lon="4.8476">
        <ele>179.08</ele>
        <time>2026-08-27T10:38:15Z</time>
      </trkpt>
      <trkpt lat="44.37089" lon="4.84762">
        <ele>178.51</ele>
        <time>2026-08-27T10:38:16Z</time>
      </trkpt>
      <trkpt lat="44.37086" lon="4.84763">
        <ele>178.03</ele>
        <time>2026-08-27T10:38:17Z</time>
      </trkpt>
      <trkpt lat="44.37084" lon="4.84763">
        <ele>177.46</ele>
        <time>2026-08-27T10:38:18Z</time>
      </trkpt>
      <trkpt lat="44.37082" lon="4.84764">
        <ele>176.8</ele>
        <time>2026-08-27T10:38:20Z</time>
      </trkpt>
      <trkpt lat="44.37078" lon="4.84766">
        <ele>176.33</ele>
        <time>2026-08-27T10:38:29Z</time>
      </trkpt>
      <trkpt lat="44.37076" lon="4.84768">
        <ele>176.18</ele>
        <time>2026-08-27T10:38:30Z</time>
      </trkpt>
      <trkpt lat="44.37073" lon="4.84771">
        <ele>175.86</ele>
        <time>2026-08-27T10:38:31Z</time>
      </trkpt>
      <trkpt lat="44.3707" lon="4.84775">
        <ele>175.47</ele>
        <time>2026-08-27T10:38:32Z</time>
      </trkpt>
      <trkpt lat="44.37069" lon="4.84778">
        <ele>175.35</ele>
        <time>2026-08-27T10:38:33Z</time>
      </trkpt>
      <trkpt lat="44.37068" lon="4.84782">
        <ele>175.31</ele>
        <time>2026-08-27T10:38:34Z</time>
      </trkpt>
      <trkpt lat="44.37067" lon="4.84785">
        <ele>175.54</ele>
        <time>2026-08-27T10:38:35Z</time>
      </trkpt>
      <trkpt lat="44.37065" lon="4.84788">
        <ele>175.74</ele>
        <time>2026-08-27T10:38:36Z</time>
      </trkpt>
      <trkpt lat="44.37063" lon="4.84789">
        <ele>175.72</ele>
        <time>2026-08-27T10:38:37Z</time>
      </trkpt>
      <trkpt lat="44.37059" lon="4.84789">
        <ele>175.36</ele>
        <time>2026-08-27T10:38:38Z</time>
      </trkpt>
      <trkpt lat="44.37055" lon="4.8479">
        <ele>174.91</ele>
        <time>2026-08-27T10:38:39Z</time>
      </trkpt>
      <trkpt lat="44.37052" lon="4.84791">
        <ele>174.3</ele>
        <time>2026-08-27T10:38:40Z</time>
      </trkpt>
      <trkpt lat="44.37048" lon="4.84791">
        <ele>173.09</ele>
        <time>2026-08-27T10:38:41Z</time>
      </trkpt>
      <trkpt lat="44.37044" lon="4.84791">
        <ele>172.49</ele>
        <time>2026-08-27T10:38:42Z</time>
      </trkpt>
      <trkpt lat="44.37039" lon="4.84792">
        <ele>171.68</ele>
        <time>2026-08-27T10:38:43Z</time>
      </trkpt>
      <trkpt lat="44.37033" lon="4.84792">
        <ele>170.87</ele>
        <time>2026-08-27T10:38:44Z</time>
      </trkpt>
      <trkpt lat="44.37028" lon="4.84793">
        <ele>169.88</ele>
        <time>2026-08-27T10:38:45Z</time>
      </trkpt>
      <trkpt lat="44.37026" lon="4.84793">
        <ele>169.39</ele>
        <time>2026-08-27T10:38:46Z</time>
      </trkpt>
      <trkpt lat="44.37012" lon="4.84793">
        <ele>167.83</ele>
        <time>2026-08-27T10:38:55Z</time>
      </trkpt>
      <trkpt lat="44.37009" lon="4.84794">
        <ele>167.81</ele>
        <time>2026-08-27T10:38:56Z</time>
      </trkpt>
      <trkpt lat="44.37006" lon="4.84795">
        <ele>167.67</ele>
        <time>2026-08-27T10:38:57Z</time>
      </trkpt>
      <trkpt lat="44.37003" lon="4.84794">
        <ele>167.48</ele>
        <time>2026-08-27T10:38:58Z</time>
      </trkpt>
      <trkpt lat="44.36999" lon="4.84795">
        <ele>167.2</ele>
        <time>2026-08-27T10:38:59Z</time>
      </trkpt>
      <trkpt lat="44.36996" lon="4.84796">
        <ele>166.9</ele>
        <time>2026-08-27T10:39:00Z</time>
      </trkpt>
      <trkpt lat="44.36992" lon="4.84795">
        <ele>166.42</ele>
        <time>2026-08-27T10:39:01Z</time>
      </trkpt>
      <trkpt lat="44.36988" lon="4.84794">
        <ele>166.03</ele>
        <time>2026-08-27T10:39:02Z</time>
      </trkpt>
      <trkpt lat="44.36984" lon="4.84792">
        <ele>165.98</ele>
        <time>2026-08-27T10:39:03Z</time>
      </trkpt>
      <trkpt lat="44.36979" lon="4.84791">
        <ele>165.23</ele>
        <time>2026-08-27T10:39:04Z</time>
      </trkpt>
      <trkpt lat="44.36974" lon="4.84791">
        <ele>164.84</ele>
        <time>2026-08-27T10:39:05Z</time>
      </trkpt>
      <trkpt lat="44.36971" lon="4.84792">
        <ele>164.5</ele>
        <time>2026-08-27T10:39:06Z</time>
      </trkpt>
      <trkpt lat="44.36956" lon="4.84796">
        <ele>162.87</ele>
        <time>2026-08-27T10:39:10Z</time>
      </trkpt>
      <trkpt lat="44.36954" lon="4.84798">
        <ele>162.77</ele>
        <time>2026-08-27T10:39:11Z</time>
      </trkpt>
      <trkpt lat="44.36953" lon="4.848">
        <ele>162.93</ele>
        <time>2026-08-27T10:39:12Z</time>
      </trkpt>
      <trkpt lat="44.36952" lon="4.84802">
        <ele>163.11</ele>
        <time>2026-08-27T10:39:13Z</time>
      </trkpt>
      <trkpt lat="44.36951" lon="4.84803">
        <ele>163.22</ele>
        <time>2026-08-27T10:39:14Z</time>
      </trkpt>
      <trkpt lat="44.3695" lon="4.84804">
        <ele>163.18</ele>
        <time>2026-08-27T10:39:15Z</time>
      </trkpt>
      <trkpt lat="44.36949" lon="4.84805">
        <ele>163.19</ele>
        <time>2026-08-27T10:39:16Z</time>
      </trkpt>
      <trkpt lat="44.36946" lon="4.84805">
        <ele>163.05</ele>
        <time>2026-08-27T10:39:17Z</time>
      </trkpt>
      <trkpt lat="44.36938" lon="4.8481">
        <ele>162.8</ele>
        <time>2026-08-27T10:39:20Z</time>
      </trkpt>
      <trkpt lat="44.36936" lon="4.84812">
        <ele>162.75</ele>
        <time>2026-08-27T10:39:21Z</time>
      </trkpt>
      <trkpt lat="44.36935" lon="4.84813">
        <ele>162.74</ele>
        <time>2026-08-27T10:39:22Z</time>
      </trkpt>
      <trkpt lat="44.36932" lon="4.84818">
        <ele>163.14</ele>
        <time>2026-08-27T10:39:27Z</time>
      </trkpt>
      <trkpt lat="44.36931" lon="4.8482">
        <ele>163.35</ele>
        <time>2026-08-27T10:39:28Z</time>
      </trkpt>
      <trkpt lat="44.3693" lon="4.84822">
        <ele>163.57</ele>
        <time>2026-08-27T10:39:29Z</time>
      </trkpt>
      <trkpt lat="44.36927" lon="4.84823">
        <ele>163.49</ele>
        <time>2026-08-27T10:39:30Z</time>
      </trkpt>
      <trkpt lat="44.36925" lon="4.84825">
        <ele>163.59</ele>
        <time>2026-08-27T10:39:31Z</time>
      </trkpt>
      <trkpt lat="44.36924" lon="4.84827">
        <ele>163.35</ele>
        <time>2026-08-27T10:39:32Z</time>
      </trkpt>
      <trkpt lat="44.36924" lon="4.84831">
        <ele>163.67</ele>
        <time>2026-08-27T10:39:33Z</time>
      </trkpt>
      <trkpt lat="44.36923" lon="4.84834">
        <ele>163.73</ele>
        <time>2026-08-27T10:39:34Z</time>
      </trkpt>
      <trkpt lat="44.36921" lon="4.84836">
        <ele>163.9</ele>
        <time>2026-08-27T10:39:35Z</time>
      </trkpt>
      <trkpt lat="44.36918" lon="4.84838">
        <ele>163.7</ele>
        <time>2026-08-27T10:39:36Z</time>
      </trkpt>
      <trkpt lat="44.36917" lon="4.8484">
        <ele>163.49</ele>
        <time>2026-08-27T10:39:37Z</time>
      </trkpt>
      <trkpt lat="44.36916" lon="4.84842">
        <ele>163.4</ele>
        <time>2026-08-27T10:39:38Z</time>
      </trkpt>
      <trkpt lat="44.36915" lon="4.84846">
        <ele>163.31</ele>
        <time>2026-08-27T10:39:39Z</time>
      </trkpt>
      <trkpt lat="44.36916" lon="4.8485">
        <ele>163.52</ele>
        <time>2026-08-27T10:39:40Z</time>
      </trkpt>
      <trkpt lat="44.36916" lon="4.84853">
        <ele>163.26</ele>
        <time>2026-08-27T10:39:41Z</time>
      </trkpt>
      <trkpt lat="44.36916" lon="4.84859">
        <ele>162.97</ele>
        <time>2026-08-27T10:39:43Z</time>
      </trkpt>
      <trkpt lat="44.36918" lon="4.8486">
        <ele>162.98</ele>
        <time>2026-08-27T10:39:44Z</time>
      </trkpt>
      <trkpt lat="44.36919" lon="4.8486">
        <ele>163.12</ele>
        <time>2026-08-27T10:39:45Z</time>
      </trkpt>
      <trkpt lat="44.3692" lon="4.8486">
        <ele>163.34</ele>
        <time>2026-08-27T10:39:46Z</time>
      </trkpt>
      <trkpt lat="44.36922" lon="4.84859">
        <ele>163.51</ele>
        <time>2026-08-27T10:39:47Z</time>
      </trkpt>
      <trkpt lat="44.36924" lon="4.84858">
        <ele>163.81</ele>
        <time>2026-08-27T10:39:48Z</time>
      </trkpt>
      <trkpt lat="44.36923" lon="4.84861">
        <ele>164.09</ele>
        <time>2026-08-27T10:40:02Z</time>
      </trkpt>
      <trkpt lat="44.36928" lon="4.84858">
        <ele>164.88</ele>
        <time>2026-08-27T10:40:27Z</time>
      </trkpt>
      <trkpt lat="44.3693" lon="4.84857">
        <ele>165.16</ele>
        <time>2026-08-27T10:40:28Z</time>
      </trkpt>
      <trkpt lat="44.36932" lon="4.84856">
        <ele>165.43</ele>
        <time>2026-08-27T10:40:29Z</time>
      </trkpt>
      <trkpt lat="44.36934" lon="4.84855">
        <ele>165.56</ele>
        <time>2026-08-27T10:40:30Z</time>
      </trkpt>
      <trkpt lat="44.36937" lon="4.84854">
        <ele>165.86</ele>
        <time>2026-08-27T10:40:31Z</time>
      </trkpt>
      <trkpt lat="44.36967" lon="4.84843">
        <ele>168.92</ele>
        <time>2026-08-27T10:40:44Z</time>
      </trkpt>
      <trkpt lat="44.37002" lon="4.8483">
        <ele>172.1</ele>
        <time>2026-08-27T10:40:59Z</time>
      </trkpt>
      <trkpt lat="44.37036" lon="4.84818">
        <ele>175.13</ele>
        <time>2026-08-27T10:41:13Z</time>
      </trkpt>
      <trkpt lat="44.37057" lon="4.84811">
        <ele>178.18</ele>
        <time>2026-08-27T10:41:22Z</time>
      </trkpt>
      <trkpt lat="44.37081" lon="4.848">
        <ele>181.44</ele>
        <time>2026-08-27T10:41:31Z</time>
      </trkpt>
      <trkpt lat="44.37097" lon="4.84801">
        <ele>183.89</ele>
        <time>2026-08-27T10:41:36Z</time>
      </trkpt>
      <trkpt lat="44.37118" lon="4.84791">
        <ele>186.82</ele>
        <time>2026-08-27T10:41:45Z</time>
      </trkpt>
      <trkpt lat="44.37128" lon="4.84781">
        <ele>188.05</ele>
        <time>2026-08-27T10:41:50Z</time>
      </trkpt>
      <trkpt lat="44.37138" lon="4.84778">
        <ele>188.54</ele>
        <time>2026-08-27T10:41:54Z</time>
      </trkpt>
      <trkpt lat="44.37139" lon="4.84776">
        <ele>188.7</ele>
        <time>2026-08-27T10:41:55Z</time>
      </trkpt>
      <trkpt lat="44.3714" lon="4.84775">
        <ele>188.97</ele>
        <time>2026-08-27T10:41:56Z</time>
      </trkpt>
      <trkpt lat="44.37142" lon="4.84774">
        <ele>189</ele>
        <time>2026-08-27T10:41:57Z</time>
      </trkpt>
      <trkpt lat="44.37144" lon="4.84773">
        <ele>189.14</ele>
        <time>2026-08-27T10:41:58Z</time>
      </trkpt>
      <trkpt lat="44.37161" lon="4.84764">
        <ele>190.01</ele>
        <time>2026-08-27T10:42:05Z</time>
      </trkpt>
      <trkpt lat="44.37161" lon="4.84761">
        <ele>190.09</ele>
        <time>2026-08-27T10:42:06Z</time>
      </trkpt>
      <trkpt lat="44.37162" lon="4.84758">
        <ele>190.38</ele>
        <time>2026-08-27T10:42:07Z</time>
      </trkpt>
      <trkpt lat="44.37163" lon="4.84756">
        <ele>190.32</ele>
        <time>2026-08-27T10:42:08Z</time>
      </trkpt>
      <trkpt lat="44.37163" lon="4.84754">
        <ele>190.38</ele>
        <time>2026-08-27T10:42:09Z</time>
      </trkpt>
      <trkpt lat="44.37165" lon="4.84752">
        <ele>190.47</ele>
        <time>2026-08-27T10:42:10Z</time>
      </trkpt>
      <trkpt lat="44.37167" lon="4.8475">
        <ele>190.52</ele>
        <time>2026-08-27T10:42:11Z</time>
      </trkpt>
      <trkpt lat="44.37169" lon="4.84749">
        <ele>190.87</ele>
        <time>2026-08-27T10:42:12Z</time>
      </trkpt>
      <trkpt lat="44.37171" lon="4.84747">
        <ele>190.93</ele>
        <time>2026-08-27T10:42:13Z</time>
      </trkpt>
      <trkpt lat="44.37173" lon="4.84746">
        <ele>191.22</ele>
        <time>2026-08-27T10:42:14Z</time>
      </trkpt>
      <trkpt lat="44.372" lon="4.84729">
        <ele>194.19</ele>
        <time>2026-08-27T10:42:27Z</time>
      </trkpt>
      <trkpt lat="44.37233" lon="4.84705">
        <ele>196.97</ele>
        <time>2026-08-27T10:42:43Z</time>
      </trkpt>
      <trkpt lat="44.37261" lon="4.84695">
        <ele>200.32</ele>
        <time>2026-08-27T10:42:55Z</time>
      </trkpt>
      <trkpt lat="44.37276" lon="4.8469">
        <ele>202.15</ele>
        <time>2026-08-27T10:43:03Z</time>
      </trkpt>
      <trkpt lat="44.37278" lon="4.84689">
        <ele>202.47</ele>
        <time>2026-08-27T10:43:04Z</time>
      </trkpt>
      <trkpt lat="44.3728" lon="4.84687">
        <ele>202.71</ele>
        <time>2026-08-27T10:43:05Z</time>
      </trkpt>
      <trkpt lat="44.37311" lon="4.84681">
        <ele>205.47</ele>
        <time>2026-08-27T10:43:17Z</time>
      </trkpt>
      <trkpt lat="44.37343" lon="4.84674">
        <ele>207.63</ele>
        <time>2026-08-27T10:43:30Z</time>
      </trkpt>
      <trkpt lat="44.37371" lon="4.84668">
        <ele>208.28</ele>
        <time>2026-08-27T10:43:43Z</time>
      </trkpt>
      <trkpt lat="44.37386" lon="4.8466">
        <ele>208.85</ele>
        <time>2026-08-27T10:43:55Z</time>
      </trkpt>
      <trkpt lat="44.37397" lon="4.84646">
        <ele>208.5</ele>
        <time>2026-08-27T10:44:16Z</time>
      </trkpt>
      <trkpt lat="44.37397" lon="4.84643">
        <ele>208.31</ele>
        <time>2026-08-27T10:44:17Z</time>
      </trkpt>
      <trkpt lat="44.37395" lon="4.84641">
        <ele>208.07</ele>
        <time>2026-08-27T10:44:18Z</time>
      </trkpt>
      <trkpt lat="44.37393" lon="4.8464">
        <ele>207.98</ele>
        <time>2026-08-27T10:44:19Z</time>
      </trkpt>
      <trkpt lat="44.3739" lon="4.84641">
        <ele>207.9</ele>
        <time>2026-08-27T10:44:20Z</time>
      </trkpt>
      <trkpt lat="44.37387" lon="4.84642">
        <ele>207.89</ele>
        <time>2026-08-27T10:44:21Z</time>
      </trkpt>
      <trkpt lat="44.37367" lon="4.84643">
        <ele>206.69</ele>
        <time>2026-08-27T10:44:26Z</time>
      </trkpt>
      <trkpt lat="44.37364" lon="4.84645">
        <ele>206.53</ele>
        <time>2026-08-27T10:44:27Z</time>
      </trkpt>
      <trkpt lat="44.37361" lon="4.84647">
        <ele>206.9</ele>
        <time>2026-08-27T10:44:28Z</time>
      </trkpt>
      <trkpt lat="44.37359" lon="4.84646">
        <ele>206.74</ele>
        <time>2026-08-27T10:44:29Z</time>
      </trkpt>
      <trkpt lat="44.37357" lon="4.84644">
        <ele>206.49</ele>
        <time>2026-08-27T10:44:30Z</time>
      </trkpt>
      <trkpt lat="44.37354" lon="4.84641">
        <ele>206.26</ele>
        <time>2026-08-27T10:44:31Z</time>
      </trkpt>
      <trkpt lat="44.37353" lon="4.84637">
        <ele>205.98</ele>
        <time>2026-08-27T10:44:32Z</time>
      </trkpt>
      <trkpt lat="44.37352" lon="4.84633">
        <ele>205.54</ele>
        <time>2026-08-27T10:44:33Z</time>
      </trkpt>
      <trkpt lat="44.3735" lon="4.84628">
        <ele>204.95</ele>
        <time>2026-08-27T10:44:34Z</time>
      </trkpt>
      <trkpt lat="44.37349" lon="4.84623">
        <ele>204.83</ele>
        <time>2026-08-27T10:44:35Z</time>
      </trkpt>
      <trkpt lat="44.37348" lon="4.84617">
        <ele>203.75</ele>
        <time>2026-08-27T10:44:36Z</time>
      </trkpt>
      <trkpt lat="44.37344" lon="4.84605">
        <ele>202.71</ele>
        <time>2026-08-27T10:44:38Z</time>
      </trkpt>
      <trkpt lat="44.37341" lon="4.84602">
        <ele>202.01</ele>
        <time>2026-08-27T10:44:39Z</time>
      </trkpt>
      <trkpt lat="44.37338" lon="4.846">
        <ele>201.64</ele>
        <time>2026-08-27T10:44:40Z</time>
      </trkpt>
      <trkpt lat="44.37326" lon="4.84596">
        <ele>200.25</ele>
        <time>2026-08-27T10:44:43Z</time>
      </trkpt>
      <trkpt lat="44.37322" lon="4.84595">
        <ele>199.91</ele>
        <time>2026-08-27T10:44:44Z</time>
      </trkpt>
      <trkpt lat="44.37319" lon="4.84595">
        <ele>199.72</ele>
        <time>2026-08-27T10:44:45Z</time>
      </trkpt>
      <trkpt lat="44.37307" lon="4.8459">
        <ele>198.01</ele>
        <time>2026-08-27T10:44:54Z</time>
      </trkpt>
      <trkpt lat="44.37299" lon="4.84591">
        <ele>197.99</ele>
        <time>2026-08-27T10:45:00Z</time>
      </trkpt>
      <trkpt lat="44.37296" lon="4.84593">
        <ele>198</ele>
        <time>2026-08-27T10:45:01Z</time>
      </trkpt>
      <trkpt lat="44.37294" lon="4.84594">
        <ele>197.72</ele>
        <time>2026-08-27T10:45:02Z</time>
      </trkpt>
      <trkpt lat="44.37291" lon="4.84597">
        <ele>197.54</ele>
        <time>2026-08-27T10:45:03Z</time>
      </trkpt>
      <trkpt lat="44.37289" lon="4.84599">
        <ele>197.45</ele>
        <time>2026-08-27T10:45:04Z</time>
      </trkpt>
      <trkpt lat="44.37287" lon="4.84602">
        <ele>197.15</ele>
        <time>2026-08-27T10:45:05Z</time>
      </trkpt>
      <trkpt lat="44.37285" lon="4.84605">
        <ele>197.23</ele>
        <time>2026-08-27T10:45:06Z</time>
      </trkpt>
      <trkpt lat="44.37279" lon="4.84624">
        <ele>199.52</ele>
        <time>2026-08-27T10:45:12Z</time>
      </trkpt>
      <trkpt lat="44.37278" lon="4.84627">
        <ele>199.91</ele>
        <time>2026-08-27T10:45:13Z</time>
      </trkpt>
      <trkpt lat="44.37275" lon="4.84629">
        <ele>200.13</ele>
        <time>2026-08-27T10:45:14Z</time>
      </trkpt>
      <trkpt lat="44.37273" lon="4.84631">
        <ele>200.05</ele>
        <time>2026-08-27T10:45:15Z</time>
      </trkpt>
      <trkpt lat="44.37271" lon="4.84634">
        <ele>200.09</ele>
        <time>2026-08-27T10:45:16Z</time>
      </trkpt>
      <trkpt lat="44.37268" lon="4.84636">
        <ele>200.02</ele>
        <time>2026-08-27T10:45:17Z</time>
      </trkpt>
      <trkpt lat="44.37265" lon="4.84639">
        <ele>200.17</ele>
        <time>2026-08-27T10:45:18Z</time>
      </trkpt>
      <trkpt lat="44.37263" lon="4.84641">
        <ele>200.06</ele>
        <time>2026-08-27T10:45:19Z</time>
      </trkpt>
      <trkpt lat="44.37259" lon="4.84643">
        <ele>199.88</ele>
        <time>2026-08-27T10:45:20Z</time>
      </trkpt>
      <trkpt lat="44.37256" lon="4.84646">
        <ele>199.81</ele>
        <time>2026-08-27T10:45:21Z</time>
      </trkpt>
      <trkpt lat="44.37253" lon="4.84649">
        <ele>199.66</ele>
        <time>2026-08-27T10:45:22Z</time>
      </trkpt>
      <trkpt lat="44.3725" lon="4.84651">
        <ele>199.41</ele>
        <time>2026-08-27T10:45:23Z</time>
      </trkpt>
      <trkpt lat="44.37247" lon="4.84653">
        <ele>199.39</ele>
        <time>2026-08-27T10:45:24Z</time>
      </trkpt>
      <trkpt lat="44.37245" lon="4.84655">
        <ele>199.26</ele>
        <time>2026-08-27T10:45:25Z</time>
      </trkpt>
      <trkpt lat="44.37243" lon="4.84658">
        <ele>199.17</ele>
        <time>2026-08-27T10:45:26Z</time>
      </trkpt>
      <trkpt lat="44.37235" lon="4.84666">
        <ele>198.7</ele>
        <time>2026-08-27T10:45:29Z</time>
      </trkpt>
      <trkpt lat="44.37232" lon="4.84665">
        <ele>197.92</ele>
        <time>2026-08-27T10:45:30Z</time>
      </trkpt>
      <trkpt lat="44.37229" lon="4.84664">
        <ele>197.75</ele>
        <time>2026-08-27T10:45:31Z</time>
      </trkpt>
      <trkpt lat="44.37227" lon="4.84663">
        <ele>197.46</ele>
        <time>2026-08-27T10:45:32Z</time>
      </trkpt>
      <trkpt lat="44.37223" lon="4.84663">
        <ele>196.88</ele>
        <time>2026-08-27T10:45:33Z</time>
      </trkpt>
      <trkpt lat="44.3722" lon="4.84663">
        <ele>196.51</ele>
        <time>2026-08-27T10:45:34Z</time>
      </trkpt>
      <trkpt lat="44.37216" lon="4.84663">
        <ele>195.84</ele>
        <time>2026-08-27T10:45:35Z</time>
      </trkpt>
      <trkpt lat="44.37213" lon="4.84661">
        <ele>195.25</ele>
        <time>2026-08-27T10:45:36Z</time>
      </trkpt>
      <trkpt lat="44.37211" lon="4.84662">
        <ele>194.63</ele>
        <time>2026-08-27T10:45:37Z</time>
      </trkpt>
      <trkpt lat="44.37209" lon="4.84664">
        <ele>194.39</ele>
        <time>2026-08-27T10:45:38Z</time>
      </trkpt>
      <trkpt lat="44.37208" lon="4.84666">
        <ele>194.19</ele>
        <time>2026-08-27T10:45:39Z</time>
      </trkpt>
      <trkpt lat="44.37207" lon="4.84669">
        <ele>194.19</ele>
        <time>2026-08-27T10:45:40Z</time>
      </trkpt>
      <trkpt lat="44.37202" lon="4.84674">
        <ele>194.08</ele>
        <time>2026-08-27T10:45:46Z</time>
      </trkpt>
      <trkpt lat="44.372" lon="4.84677">
        <ele>194.13</ele>
        <time>2026-08-27T10:45:47Z</time>
      </trkpt>
      <trkpt lat="44.37198" lon="4.8468">
        <ele>193.84</ele>
        <time>2026-08-27T10:45:48Z</time>
      </trkpt>
      <trkpt lat="44.37196" lon="4.84685">
        <ele>193.76</ele>
        <time>2026-08-27T10:45:49Z</time>
      </trkpt>
      <trkpt lat="44.37194" lon="4.84689">
        <ele>193.84</ele>
        <time>2026-08-27T10:45:50Z</time>
      </trkpt>
      <trkpt lat="44.37192" lon="4.84694">
        <ele>193.81</ele>
        <time>2026-08-27T10:45:51Z</time>
      </trkpt>
      <trkpt lat="44.37188" lon="4.84703">
        <ele>193.61</ele>
        <time>2026-08-27T10:45:53Z</time>
      </trkpt>
      <trkpt lat="44.37185" lon="4.84708">
        <ele>193.03</ele>
        <time>2026-08-27T10:45:54Z</time>
      </trkpt>
      <trkpt lat="44.37183" lon="4.84714">
        <ele>192.71</ele>
        <time>2026-08-27T10:45:55Z</time>
      </trkpt>
      <trkpt lat="44.3718" lon="4.8472">
        <ele>192.28</ele>
        <time>2026-08-27T10:45:56Z</time>
      </trkpt>
      <trkpt lat="44.37177" lon="4.84726">
        <ele>192.12</ele>
        <time>2026-08-27T10:45:57Z</time>
      </trkpt>
      <trkpt lat="44.37173" lon="4.84731">
        <ele>191.38</ele>
        <time>2026-08-27T10:45:58Z</time>
      </trkpt>
      <trkpt lat="44.37169" lon="4.84738">
        <ele>190.81</ele>
        <time>2026-08-27T10:45:59Z</time>
      </trkpt>
      <trkpt lat="44.37167" lon="4.84744">
        <ele>190.11</ele>
        <time>2026-08-27T10:46:00Z</time>
      </trkpt>
      <trkpt lat="44.37164" lon="4.84749">
        <ele>190.08</ele>
        <time>2026-08-27T10:46:01Z</time>
      </trkpt>
      <trkpt lat="44.37161" lon="4.84752">
        <ele>189.29</ele>
        <time>2026-08-27T10:46:02Z</time>
      </trkpt>
      <trkpt lat="44.37158" lon="4.84753">
        <ele>189.39</ele>
        <time>2026-08-27T10:46:03Z</time>
      </trkpt>
      <trkpt lat="44.37155" lon="4.84753">
        <ele>188.88</ele>
        <time>2026-08-27T10:46:04Z</time>
      </trkpt>
      <trkpt lat="44.37153" lon="4.84752">
        <ele>188.6</ele>
        <time>2026-08-27T10:46:05Z</time>
      </trkpt>
      <trkpt lat="44.37152" lon="4.8475">
        <ele>188.26</ele>
        <time>2026-08-27T10:46:06Z</time>
      </trkpt>
      <trkpt lat="44.3715" lon="4.84748">
        <ele>187.99</ele>
        <time>2026-08-27T10:46:07Z</time>
      </trkpt>
      <trkpt lat="44.37148" lon="4.84748">
        <ele>187.62</ele>
        <time>2026-08-27T10:46:17Z</time>
      </trkpt>
      <trkpt lat="44.37146" lon="4.84748">
        <ele>187.47</ele>
        <time>2026-08-27T10:46:18Z</time>
      </trkpt>
      <trkpt lat="44.37144" lon="4.84747">
        <ele>187.5</ele>
        <time>2026-08-27T10:46:19Z</time>
      </trkpt>
      <trkpt lat="44.37143" lon="4.84747">
        <ele>187.28</ele>
        <time>2026-08-27T10:46:20Z</time>
      </trkpt>
      <trkpt lat="44.37142" lon="4.84748">
        <ele>187.09</ele>
        <time>2026-08-27T10:46:21Z</time>
      </trkpt>
      <trkpt lat="44.37139" lon="4.8475">
        <ele>187</ele>
        <time>2026-08-27T10:46:22Z</time>
      </trkpt>
      <trkpt lat="44.37135" lon="4.84751">
        <ele>186.88</ele>
        <time>2026-08-27T10:46:23Z</time>
      </trkpt>
      <trkpt lat="44.37132" lon="4.84752">
        <ele>185.99</ele>
        <time>2026-08-27T10:46:24Z</time>
      </trkpt>
      <trkpt lat="44.37129" lon="4.84752">
        <ele>185.57</ele>
        <time>2026-08-27T10:46:25Z</time>
      </trkpt>
      <trkpt lat="44.37128" lon="4.84749">
        <ele>185.1</ele>
        <time>2026-08-27T10:46:26Z</time>
      </trkpt>
      <trkpt lat="44.37127" lon="4.84746">
        <ele>184.9</ele>
        <time>2026-08-27T10:46:27Z</time>
      </trkpt>
      <trkpt lat="44.37127" lon="4.84741">
        <ele>184.94</ele>
        <time>2026-08-27T10:46:28Z</time>
      </trkpt>
      <trkpt lat="44.37125" lon="4.84734">
        <ele>183.93</ele>
        <time>2026-08-27T10:46:30Z</time>
      </trkpt>
      <trkpt lat="44.37122" lon="4.84733">
        <ele>183.88</ele>
        <time>2026-08-27T10:46:31Z</time>
      </trkpt>
      <trkpt lat="44.37118" lon="4.84735">
        <ele>183.37</ele>
        <time>2026-08-27T10:46:32Z</time>
      </trkpt>
      <trkpt lat="44.37111" lon="4.8474">
        <ele>182.45</ele>
        <time>2026-08-27T10:46:34Z</time>
      </trkpt>
      <trkpt lat="44.37092" lon="4.84762">
        <ele>179.82</ele>
        <time>2026-08-27T10:46:42Z</time>
      </trkpt>
      <trkpt lat="44.37089" lon="4.84762">
        <ele>179.12</ele>
        <time>2026-08-27T10:46:43Z</time>
      </trkpt>
      <trkpt lat="44.37088" lon="4.84761">
        <ele>178.32</ele>
        <time>2026-08-27T10:46:44Z</time>
      </trkpt>
      <trkpt lat="44.37082" lon="4.8476">
        <ele>177.46</ele>
        <time>2026-08-27T10:46:57Z</time>
      </trkpt>
      <trkpt lat="44.37081" lon="4.84754">
        <ele>176.48</ele>
        <time>2026-08-27T10:47:00Z</time>
      </trkpt>
      <trkpt lat="44.3708" lon="4.84735">
        <ele>172.78</ele>
        <time>2026-08-27T10:47:05Z</time>
      </trkpt>
      <trkpt lat="44.3708" lon="4.84721">
        <ele>171.34</ele>
        <time>2026-08-27T10:47:08Z</time>
      </trkpt>
      <trkpt lat="44.37086" lon="4.84684">
        <ele>171.86</ele>
        <time>2026-08-27T10:47:18Z</time>
      </trkpt>
      <trkpt lat="44.37092" lon="4.84654">
        <ele>171.47</ele>
        <time>2026-08-27T10:47:25Z</time>
      </trkpt>
      <trkpt lat="44.37108" lon="4.84631">
        <ele>174.89</ele>
        <time>2026-08-27T10:47:35Z</time>
      </trkpt>
      <trkpt lat="44.3711" lon="4.84629">
        <ele>175.49</ele>
        <time>2026-08-27T10:47:36Z</time>
      </trkpt>
      <trkpt lat="44.37129" lon="4.84604">
        <ele>177.55</ele>
        <time>2026-08-27T10:47:47Z</time>
      </trkpt>
      <trkpt lat="44.3713" lon="4.84601">
        <ele>177.82</ele>
        <time>2026-08-27T10:47:48Z</time>
      </trkpt>
      <trkpt lat="44.37149" lon="4.84578">
        <ele>178.83</ele>
        <time>2026-08-27T10:47:59Z</time>
      </trkpt>
      <trkpt lat="44.37158" lon="4.84564">
        <ele>178.65</ele>
        <time>2026-08-27T10:48:13Z</time>
      </trkpt>
      <trkpt lat="44.37176" lon="4.84553">
        <ele>181.74</ele>
        <time>2026-08-27T10:48:21Z</time>
      </trkpt>
      <trkpt lat="44.37179" lon="4.84549">
        <ele>182.41</ele>
        <time>2026-08-27T10:48:23Z</time>
      </trkpt>
      <trkpt lat="44.37192" lon="4.8455">
        <ele>184.95</ele>
        <time>2026-08-27T10:48:29Z</time>
      </trkpt>
      <trkpt lat="44.37198" lon="4.84552">
        <ele>186.51</ele>
        <time>2026-08-27T10:48:32Z</time>
      </trkpt>
      <trkpt lat="44.37217" lon="4.84559">
        <ele>187.77</ele>
        <time>2026-08-27T10:48:42Z</time>
      </trkpt>
      <trkpt lat="44.3723" lon="4.84552">
        <ele>188.07</ele>
        <time>2026-08-27T10:48:53Z</time>
      </trkpt>
      <trkpt lat="44.37233" lon="4.8455">
        <ele>188.08</ele>
        <time>2026-08-27T10:49:01Z</time>
      </trkpt>
      <trkpt lat="44.3724" lon="4.84548">
        <ele>188.54</ele>
        <time>2026-08-27T10:49:05Z</time>
      </trkpt>
      <trkpt lat="44.37252" lon="4.84547">
        <ele>189.66</ele>
        <time>2026-08-27T10:49:17Z</time>
      </trkpt>
      <trkpt lat="44.37257" lon="4.8455">
        <ele>189.89</ele>
        <time>2026-08-27T10:50:13Z</time>
      </trkpt>
      <trkpt lat="44.37261" lon="4.84548">
        <ele>190.91</ele>
        <time>2026-08-27T10:50:36Z</time>
      </trkpt>
      <trkpt lat="44.37274" lon="4.84546">
        <ele>192.22</ele>
        <time>2026-08-27T10:50:43Z</time>
      </trkpt>
      <trkpt lat="44.37282" lon="4.84548">
        <ele>192.86</ele>
        <time>2026-08-27T10:50:48Z</time>
      </trkpt>
      <trkpt lat="44.37299" lon="4.84564">
        <ele>196.46</ele>
        <time>2026-08-27T10:50:58Z</time>
      </trkpt>
      <trkpt lat="44.37307" lon="4.84576">
        <ele>198.77</ele>
        <time>2026-08-27T10:51:03Z</time>
      </trkpt>
      <trkpt lat="44.37314" lon="4.84577">
        <ele>199.25</ele>
        <time>2026-08-27T10:51:16Z</time>
      </trkpt>
      <trkpt lat="44.37331" lon="4.84576">
        <ele>200.44</ele>
        <time>2026-08-27T10:51:29Z</time>
      </trkpt>
      <trkpt lat="44.37334" lon="4.84576">
        <ele>200.56</ele>
        <time>2026-08-27T10:51:30Z</time>
      </trkpt>
      <trkpt lat="44.37336" lon="4.84574">
        <ele>200.58</ele>
        <time>2026-08-27T10:51:31Z</time>
      </trkpt>
      <trkpt lat="44.3734" lon="4.84572">
        <ele>199.67</ele>
        <time>2026-08-27T10:51:33Z</time>
      </trkpt>
      <trkpt lat="44.37342" lon="4.84572">
        <ele>199.37</ele>
        <time>2026-08-27T10:51:34Z</time>
      </trkpt>
      <trkpt lat="44.37344" lon="4.84573">
        <ele>199.7</ele>
        <time>2026-08-27T10:51:35Z</time>
      </trkpt>
      <trkpt lat="44.37347" lon="4.84574">
        <ele>200.12</ele>
        <time>2026-08-27T10:51:36Z</time>
      </trkpt>
      <trkpt lat="44.37349" lon="4.84574">
        <ele>200.13</ele>
        <time>2026-08-27T10:51:37Z</time>
      </trkpt>
      <trkpt lat="44.37352" lon="4.84574">
        <ele>200.36</ele>
        <time>2026-08-27T10:51:38Z</time>
      </trkpt>
      <trkpt lat="44.37365" lon="4.84571">
        <ele>200.43</ele>
        <time>2026-08-27T10:51:43Z</time>
      </trkpt>
      <trkpt lat="44.37382" lon="4.8455">
        <ele>202.79</ele>
        <time>2026-08-27T10:51:51Z</time>
      </trkpt>
      <trkpt lat="44.37391" lon="4.84544">
        <ele>204.72</ele>
        <time>2026-08-27T10:52:00Z</time>
      </trkpt>
      <trkpt lat="44.37395" lon="4.84543">
        <ele>204.98</ele>
        <time>2026-08-27T10:52:04Z</time>
      </trkpt>
      <trkpt lat="44.37399" lon="4.84536">
        <ele>206.4</ele>
        <time>2026-08-27T10:52:08Z</time>
      </trkpt>
      <trkpt lat="44.37391" lon="4.84521">
        <ele>207.06</ele>
        <time>2026-08-27T10:52:15Z</time>
      </trkpt>
      <trkpt lat="44.37387" lon="4.84498">
        <ele>209.24</ele>
        <time>2026-08-27T10:52:25Z</time>
      </trkpt>
      <trkpt lat="44.37394" lon="4.84485">
        <ele>211.41</ele>
        <time>2026-08-27T10:52:33Z</time>
      </trkpt>
      <trkpt lat="44.37395" lon="4.84483">
        <ele>211.95</ele>
        <time>2026-08-27T10:52:34Z</time>
      </trkpt>
      <trkpt lat="44.37407" lon="4.84477">
        <ele>214.11</ele>
        <time>2026-08-27T10:52:43Z</time>
      </trkpt>
      <trkpt lat="44.37412" lon="4.84468">
        <ele>214.83</ele>
        <time>2026-08-27T10:52:47Z</time>
      </trkpt>
      <trkpt lat="44.37415" lon="4.84449">
        <ele>215.25</ele>
        <time>2026-08-27T10:52:55Z</time>
      </trkpt>
      <trkpt lat="44.3743" lon="4.84436">
        <ele>215.29</ele>
        <time>2026-08-27T10:53:04Z</time>
      </trkpt>
      <trkpt lat="44.37438" lon="4.84425">
        <ele>215.03</ele>
        <time>2026-08-27T10:53:15Z</time>
      </trkpt>
      <trkpt lat="44.37444" lon="4.84417">
        <ele>215.3</ele>
        <time>2026-08-27T10:53:47Z</time>
      </trkpt>
      <trkpt lat="44.37452" lon="4.84396">
        <ele>214.73</ele>
        <time>2026-08-27T10:53:57Z</time>
      </trkpt>
      <trkpt lat="44.37455" lon="4.84392">
        <ele>214.12</ele>
        <time>2026-08-27T10:53:58Z</time>
      </trkpt>
      <trkpt lat="44.37458" lon="4.84387">
        <ele>213.66</ele>
        <time>2026-08-27T10:53:59Z</time>
      </trkpt>
      <trkpt lat="44.37461" lon="4.84383">
        <ele>213.07</ele>
        <time>2026-08-27T10:54:00Z</time>
      </trkpt>
      <trkpt lat="44.37465" lon="4.84379">
        <ele>212.89</ele>
        <time>2026-08-27T10:54:01Z</time>
      </trkpt>
      <trkpt lat="44.37469" lon="4.84375">
        <ele>211.82</ele>
        <time>2026-08-27T10:54:02Z</time>
      </trkpt>
      <trkpt lat="44.37473" lon="4.84371">
        <ele>212.09</ele>
        <time>2026-08-27T10:54:03Z</time>
      </trkpt>
      <trkpt lat="44.37477" lon="4.84367">
        <ele>211.49</ele>
        <time>2026-08-27T10:54:04Z</time>
      </trkpt>
      <trkpt lat="44.3748" lon="4.84362">
        <ele>210.71</ele>
        <time>2026-08-27T10:54:05Z</time>
      </trkpt>
      <trkpt lat="44.37491" lon="4.84357">
        <ele>209.29</ele>
        <time>2026-08-27T10:54:08Z</time>
      </trkpt>
      <trkpt lat="44.37503" lon="4.84354">
        <ele>208.02</ele>
        <time>2026-08-27T10:54:11Z</time>
      </trkpt>
      <trkpt lat="44.37506" lon="4.84354">
        <ele>207.65</ele>
        <time>2026-08-27T10:54:12Z</time>
      </trkpt>
      <trkpt lat="44.37508" lon="4.84333">
        <ele>209.04</ele>
        <time>2026-08-27T10:54:21Z</time>
      </trkpt>
      <trkpt lat="44.37504" lon="4.84313">
        <ele>212.29</ele>
        <time>2026-08-27T10:54:29Z</time>
      </trkpt>
      <trkpt lat="44.37503" lon="4.84308">
        <ele>213.48</ele>
        <time>2026-08-27T10:54:31Z</time>
      </trkpt>
      <trkpt lat="44.37501" lon="4.84292">
        <ele>215.69</ele>
        <time>2026-08-27T10:54:37Z</time>
      </trkpt>
      <trkpt lat="44.37497" lon="4.8427">
        <ele>218.73</ele>
        <time>2026-08-27T10:54:45Z</time>
      </trkpt>
      <trkpt lat="44.37496" lon="4.84247">
        <ele>221.18</ele>
        <time>2026-08-27T10:54:53Z</time>
      </trkpt>
      <trkpt lat="44.37497" lon="4.84228">
        <ele>221.47</ele>
        <time>2026-08-27T10:55:06Z</time>
      </trkpt>
      <trkpt lat="44.37497" lon="4.84222">
        <ele>221.42</ele>
        <time>2026-08-27T10:55:34Z</time>
      </trkpt>
      <trkpt lat="44.37497" lon="4.84221">
        <ele>221.55</ele>
        <time>2026-08-27T10:55:35Z</time>
      </trkpt>
      <trkpt lat="44.37497" lon="4.84219">
        <ele>221.41</ele>
        <time>2026-08-27T10:55:36Z</time>
      </trkpt>
      <trkpt lat="44.37511" lon="4.84186">
        <ele>220.59</ele>
        <time>2026-08-27T10:55:46Z</time>
      </trkpt>
      <trkpt lat="44.37513" lon="4.84181">
        <ele>220.46</ele>
        <time>2026-08-27T10:55:47Z</time>
      </trkpt>
      <trkpt lat="44.37514" lon="4.84176">
        <ele>220.38</ele>
        <time>2026-08-27T10:55:48Z</time>
      </trkpt>
      <trkpt lat="44.37514" lon="4.84172">
        <ele>220.72</ele>
        <time>2026-08-27T10:55:49Z</time>
      </trkpt>
      <trkpt lat="44.37515" lon="4.84168">
        <ele>221.22</ele>
        <time>2026-08-27T10:55:50Z</time>
      </trkpt>
      <trkpt lat="44.37526" lon="4.84135">
        <ele>221.67</ele>
        <time>2026-08-27T10:55:57Z</time>
      </trkpt>
      <trkpt lat="44.37527" lon="4.8413">
        <ele>221.62</ele>
        <time>2026-08-27T10:55:58Z</time>
      </trkpt>
      <trkpt lat="44.3753" lon="4.84125">
        <ele>221.94</ele>
        <time>2026-08-27T10:55:59Z</time>
      </trkpt>
      <trkpt lat="44.37532" lon="4.84121">
        <ele>222.12</ele>
        <time>2026-08-27T10:56:00Z</time>
      </trkpt>
      <trkpt lat="44.37534" lon="4.84117">
        <ele>222.65</ele>
        <time>2026-08-27T10:56:01Z</time>
      </trkpt>
      <trkpt lat="44.37534" lon="4.84113">
        <ele>222.94</ele>
        <time>2026-08-27T10:56:02Z</time>
      </trkpt>
      <trkpt lat="44.37534" lon="4.84108">
        <ele>223.12</ele>
        <time>2026-08-27T10:56:03Z</time>
      </trkpt>
      <trkpt lat="44.37533" lon="4.84105">
        <ele>223.25</ele>
        <time>2026-08-27T10:56:04Z</time>
      </trkpt>
      <trkpt lat="44.37532" lon="4.84101">
        <ele>223.15</ele>
        <time>2026-08-27T10:56:05Z</time>
      </trkpt>
      <trkpt lat="44.37531" lon="4.84098">
        <ele>223.43</ele>
        <time>2026-08-27T10:56:06Z</time>
      </trkpt>
      <trkpt lat="44.3753" lon="4.84094">
        <ele>223.72</ele>
        <time>2026-08-27T10:56:07Z</time>
      </trkpt>
      <trkpt lat="44.37508" lon="4.8406">
        <ele>226.34</ele>
        <time>2026-08-27T10:56:18Z</time>
      </trkpt>
      <trkpt lat="44.37484" lon="4.84041">
        <ele>228.28</ele>
        <time>2026-08-27T10:56:29Z</time>
      </trkpt>
      <trkpt lat="44.37483" lon="4.84039">
        <ele>228.39</ele>
        <time>2026-08-27T10:56:30Z</time>
      </trkpt>
      <trkpt lat="44.37482" lon="4.84037">
        <ele>228.45</ele>
        <time>2026-08-27T10:56:31Z</time>
      </trkpt>
      <trkpt lat="44.37481" lon="4.84035">
        <ele>228.76</ele>
        <time>2026-08-27T10:56:32Z</time>
      </trkpt>
      <trkpt lat="44.37483" lon="4.84027">
        <ele>229.53</ele>
        <time>2026-08-27T10:56:36Z</time>
      </trkpt>
      <trkpt lat="44.37484" lon="4.84021">
        <ele>230.39</ele>
        <time>2026-08-27T10:56:39Z</time>
      </trkpt>
      <trkpt lat="44.37496" lon="4.83997">
        <ele>232.19</ele>
        <time>2026-08-27T10:56:51Z</time>
      </trkpt>
      <trkpt lat="44.37503" lon="4.8396">
        <ele>234.51</ele>
        <time>2026-08-27T10:57:06Z</time>
      </trkpt>
      <trkpt lat="44.37503" lon="4.83958">
        <ele>234.66</ele>
        <time>2026-08-27T10:57:07Z</time>
      </trkpt>
      <trkpt lat="44.37514" lon="4.83924">
        <ele>237.09</ele>
        <time>2026-08-27T10:57:18Z</time>
      </trkpt>
      <trkpt lat="44.37526" lon="4.83919">
        <ele>237.51</ele>
        <time>2026-08-27T10:57:25Z</time>
      </trkpt>
      <trkpt lat="44.37554" lon="4.83919">
        <ele>238.09</ele>
        <time>2026-08-27T10:57:38Z</time>
      </trkpt>
      <trkpt lat="44.37588" lon="4.8393">
        <ele>240.63</ele>
        <time>2026-08-27T10:57:51Z</time>
      </trkpt>
      <trkpt lat="44.37622" lon="4.83949">
        <ele>242.31</ele>
        <time>2026-08-27T10:58:05Z</time>
      </trkpt>
      <trkpt lat="44.37662" lon="4.83972">
        <ele>241.77</ele>
        <time>2026-08-27T10:58:17Z</time>
      </trkpt>
      <trkpt lat="44.37677" lon="4.83982">
        <ele>241.49</ele>
        <time>2026-08-27T10:58:21Z</time>
      </trkpt>
      <trkpt lat="44.37699" lon="4.83994">
        <ele>241.05</ele>
        <time>2026-08-27T10:58:26Z</time>
      </trkpt>
      <trkpt lat="44.37702" lon="4.83997">
        <ele>241</ele>
        <time>2026-08-27T10:58:27Z</time>
      </trkpt>
      <trkpt lat="44.37733" lon="4.8403">
        <ele>241.41</ele>
        <time>2026-08-27T10:58:38Z</time>
      </trkpt>
      <trkpt lat="44.37733" lon="4.84035">
        <ele>241.61</ele>
        <time>2026-08-27T10:58:51Z</time>
      </trkpt>
      <trkpt lat="44.37732" lon="4.84036">
        <ele>241.5</ele>
        <time>2026-08-27T10:58:55Z</time>
      </trkpt>
      <trkpt lat="44.3773" lon="4.84043">
        <ele>241.38</ele>
        <time>2026-08-27T10:58:58Z</time>
      </trkpt>
      <trkpt lat="44.37731" lon="4.84047">
        <ele>241.45</ele>
        <time>2026-08-27T10:58:59Z</time>
      </trkpt>
      <trkpt lat="44.37731" lon="4.84052">
        <ele>241.67</ele>
        <time>2026-08-27T10:59:00Z</time>
      </trkpt>
      <trkpt lat="44.37719" lon="4.84077">
        <ele>242.45</ele>
        <time>2026-08-27T10:59:07Z</time>
      </trkpt>
      <trkpt lat="44.37711" lon="4.84072">
        <ele>242.15</ele>
        <time>2026-08-27T10:59:10Z</time>
      </trkpt>
      <trkpt lat="44.37697" lon="4.84099">
        <ele>240.34</ele>
        <time>2026-08-27T10:59:19Z</time>
      </trkpt>
      <trkpt lat="44.3769" lon="4.84099">
        <ele>239.51</ele>
        <time>2026-08-27T10:59:23Z</time>
      </trkpt>
      <trkpt lat="44.37685" lon="4.84099">
        <ele>238.77</ele>
        <time>2026-08-27T10:59:28Z</time>
      </trkpt>
      <trkpt lat="44.37659" lon="4.84094">
        <ele>237.37</ele>
        <time>2026-08-27T10:59:36Z</time>
      </trkpt>
      <trkpt lat="44.37658" lon="4.84083">
        <ele>236.7</ele>
        <time>2026-08-27T10:59:40Z</time>
      </trkpt>
      <trkpt lat="44.37655" lon="4.84078">
        <ele>236.3</ele>
        <time>2026-08-27T10:59:42Z</time>
      </trkpt>
      <trkpt lat="44.37645" lon="4.84059">
        <ele>234.25</ele>
        <time>2026-08-27T10:59:50Z</time>
      </trkpt>
      <trkpt lat="44.37641" lon="4.8406">
        <ele>233.83</ele>
        <time>2026-08-27T10:59:51Z</time>
      </trkpt>
      <trkpt lat="44.37634" lon="4.84063">
        <ele>233.42</ele>
        <time>2026-08-27T10:59:53Z</time>
      </trkpt>
      <trkpt lat="44.37627" lon="4.84061">
        <ele>232.89</ele>
        <time>2026-08-27T10:59:55Z</time>
      </trkpt>
      <trkpt lat="44.37611" lon="4.84062">
        <ele>231.88</ele>
        <time>2026-08-27T11:00:03Z</time>
      </trkpt>
      <trkpt lat="44.37592" lon="4.84065">
        <ele>230.19</ele>
        <time>2026-08-27T11:00:08Z</time>
      </trkpt>
      <trkpt lat="44.37569" lon="4.84083">
        <ele>227.64</ele>
        <time>2026-08-27T11:00:14Z</time>
      </trkpt>
      <trkpt lat="44.37559" lon="4.84093">
        <ele>226.27</ele>
        <time>2026-08-27T11:00:17Z</time>
      </trkpt>
      <trkpt lat="44.37544" lon="4.84098">
        <ele>225.45</ele>
        <time>2026-08-27T11:00:23Z</time>
      </trkpt>
      <trkpt lat="44.37541" lon="4.841">
        <ele>224.9</ele>
        <time>2026-08-27T11:00:24Z</time>
      </trkpt>
      <trkpt lat="44.37539" lon="4.84099">
        <ele>224.33</ele>
        <time>2026-08-27T11:00:25Z</time>
      </trkpt>
      <trkpt lat="44.37537" lon="4.84098">
        <ele>224.32</ele>
        <time>2026-08-27T11:00:26Z</time>
      </trkpt>
      <trkpt lat="44.37535" lon="4.84098">
        <ele>224.14</ele>
        <time>2026-08-27T11:00:27Z</time>
      </trkpt>
      <trkpt lat="44.37532" lon="4.84099">
        <ele>223.93</ele>
        <time>2026-08-27T11:00:32Z</time>
      </trkpt>
      <trkpt lat="44.3753" lon="4.841">
        <ele>223.53</ele>
        <time>2026-08-27T11:00:33Z</time>
      </trkpt>
      <trkpt lat="44.37527" lon="4.84101">
        <ele>223.4</ele>
        <time>2026-08-27T11:00:34Z</time>
      </trkpt>
      <trkpt lat="44.37525" lon="4.841">
        <ele>222.83</ele>
        <time>2026-08-27T11:00:35Z</time>
      </trkpt>
      <trkpt lat="44.37512" lon="4.84104">
        <ele>221.79</ele>
        <time>2026-08-27T11:00:39Z</time>
      </trkpt>
      <trkpt lat="44.37503" lon="4.84114">
        <ele>219.66</ele>
        <time>2026-08-27T11:00:43Z</time>
      </trkpt>
      <trkpt lat="44.37468" lon="4.84122">
        <ele>216.98</ele>
        <time>2026-08-27T11:00:54Z</time>
      </trkpt>
      <trkpt lat="44.37465" lon="4.84122">
        <ele>217.01</ele>
        <time>2026-08-27T11:00:55Z</time>
      </trkpt>
      <trkpt lat="44.3744" lon="4.8413">
        <ele>216.65</ele>
        <time>2026-08-27T11:01:04Z</time>
      </trkpt>
      <trkpt lat="44.37436" lon="4.84132">
        <ele>216.13</ele>
        <time>2026-08-27T11:01:05Z</time>
      </trkpt>
      <trkpt lat="44.37428" lon="4.84134">
        <ele>215.61</ele>
        <time>2026-08-27T11:01:07Z</time>
      </trkpt>
      <trkpt lat="44.37416" lon="4.84141">
        <ele>214.24</ele>
        <time>2026-08-27T11:01:10Z</time>
      </trkpt>
      <trkpt lat="44.37411" lon="4.84147">
        <ele>211.52</ele>
        <time>2026-08-27T11:01:15Z</time>
      </trkpt>
      <trkpt lat="44.37408" lon="4.84149">
        <ele>211.27</ele>
        <time>2026-08-27T11:01:20Z</time>
      </trkpt>
      <trkpt lat="44.37385" lon="4.84165">
        <ele>208.72</ele>
        <time>2026-08-27T11:01:28Z</time>
      </trkpt>
      <trkpt lat="44.37354" lon="4.84172">
        <ele>207.36</ele>
        <time>2026-08-27T11:01:38Z</time>
      </trkpt>
      <trkpt lat="44.3735" lon="4.84174">
        <ele>207.43</ele>
        <time>2026-08-27T11:01:40Z</time>
      </trkpt>
      <trkpt lat="44.37337" lon="4.84176">
        <ele>208.2</ele>
        <time>2026-08-27T11:01:48Z</time>
      </trkpt>
      <trkpt lat="44.37315" lon="4.84189">
        <ele>208.46</ele>
        <time>2026-08-27T11:01:56Z</time>
      </trkpt>
      <trkpt lat="44.37296" lon="4.84207">
        <ele>207.1</ele>
        <time>2026-08-27T11:02:02Z</time>
      </trkpt>
      <trkpt lat="44.37278" lon="4.84219">
        <ele>206.7</ele>
        <time>2026-08-27T11:02:08Z</time>
      </trkpt>
      <trkpt lat="44.3727" lon="4.84236">
        <ele>204.23</ele>
        <time>2026-08-27T11:02:16Z</time>
      </trkpt>
      <trkpt lat="44.37271" lon="4.84247">
        <ele>201.64</ele>
        <time>2026-08-27T11:02:23Z</time>
      </trkpt>
      <trkpt lat="44.37267" lon="4.84256">
        <ele>200.28</ele>
        <time>2026-08-27T11:02:27Z</time>
      </trkpt>
      <trkpt lat="44.37263" lon="4.84261">
        <ele>199.42</ele>
        <time>2026-08-27T11:02:29Z</time>
      </trkpt>
      <trkpt lat="44.37259" lon="4.84274">
        <ele>196.85</ele>
        <time>2026-08-27T11:02:34Z</time>
      </trkpt>
      <trkpt lat="44.37245" lon="4.84296">
        <ele>193.86</ele>
        <time>2026-08-27T11:02:40Z</time>
      </trkpt>
      <trkpt lat="44.37238" lon="4.84315">
        <ele>192.95</ele>
        <time>2026-08-27T11:02:49Z</time>
      </trkpt>
      <trkpt lat="44.37219" lon="4.84341">
        <ele>192.63</ele>
        <time>2026-08-27T11:03:00Z</time>
      </trkpt>
      <trkpt lat="44.37214" lon="4.84349">
        <ele>192.83</ele>
        <time>2026-08-27T11:03:03Z</time>
      </trkpt>
      <trkpt lat="44.3721" lon="4.84356">
        <ele>193.03</ele>
        <time>2026-08-27T11:03:06Z</time>
      </trkpt>
      <trkpt lat="44.37203" lon="4.84372">
        <ele>192.53</ele>
        <time>2026-08-27T11:03:11Z</time>
      </trkpt>
      <trkpt lat="44.37193" lon="4.84403">
        <ele>190.7</ele>
        <time>2026-08-27T11:03:21Z</time>
      </trkpt>
      <trkpt lat="44.37178" lon="4.84437">
        <ele>189.84</ele>
        <time>2026-08-27T11:03:30Z</time>
      </trkpt>
      <trkpt lat="44.3716" lon="4.84473">
        <ele>187.65</ele>
        <time>2026-08-27T11:03:40Z</time>
      </trkpt>
      <trkpt lat="44.37134" lon="4.84506">
        <ele>185.7</ele>
        <time>2026-08-27T11:03:49Z</time>
      </trkpt>
      <trkpt lat="44.37126" lon="4.84513">
        <ele>185.49</ele>
        <time>2026-08-27T11:03:52Z</time>
      </trkpt>
      <trkpt lat="44.37112" lon="4.84534">
        <ele>185.39</ele>
        <time>2026-08-27T11:04:02Z</time>
      </trkpt>
      <trkpt lat="44.37103" lon="4.84549">
        <ele>184.87</ele>
        <time>2026-08-27T11:04:06Z</time>
      </trkpt>
      <trkpt lat="44.37083" lon="4.8458">
        <ele>184.02</ele>
        <time>2026-08-27T11:04:15Z</time>
      </trkpt>
      <trkpt lat="44.37075" lon="4.84593">
        <ele>184.12</ele>
        <time>2026-08-27T11:04:19Z</time>
      </trkpt>
      <trkpt lat="44.37067" lon="4.84611">
        <ele>182.91</ele>
        <time>2026-08-27T11:04:23Z</time>
      </trkpt>
      <trkpt lat="44.37064" lon="4.84615">
        <ele>182.46</ele>
        <time>2026-08-27T11:04:24Z</time>
      </trkpt>
      <trkpt lat="44.37061" lon="4.84619">
        <ele>182.6</ele>
        <time>2026-08-27T11:04:25Z</time>
      </trkpt>
      <trkpt lat="44.37056" lon="4.84627">
        <ele>183.05</ele>
        <time>2026-08-27T11:04:28Z</time>
      </trkpt>
      <trkpt lat="44.37055" lon="4.8463">
        <ele>182.95</ele>
        <time>2026-08-27T11:04:29Z</time>
      </trkpt>
      <trkpt lat="44.37054" lon="4.84634">
        <ele>182.76</ele>
        <time>2026-08-27T11:04:30Z</time>
      </trkpt>
      <trkpt lat="44.37052" lon="4.84636">
        <ele>182.55</ele>
        <time>2026-08-27T11:04:31Z</time>
      </trkpt>
      <trkpt lat="44.37047" lon="4.84645">
        <ele>182.7</ele>
        <time>2026-08-27T11:04:37Z</time>
      </trkpt>
      <trkpt lat="44.37045" lon="4.84646">
        <ele>182.86</ele>
        <time>2026-08-27T11:04:38Z</time>
      </trkpt>
      <trkpt lat="44.37045" lon="4.84648">
        <ele>182.97</ele>
        <time>2026-08-27T11:04:39Z</time>
      </trkpt>
      <trkpt lat="44.37044" lon="4.84651">
        <ele>182.54</ele>
        <time>2026-08-27T11:04:40Z</time>
      </trkpt>
      <trkpt lat="44.37043" lon="4.84654">
        <ele>182.34</ele>
        <time>2026-08-27T11:04:41Z</time>
      </trkpt>
      <trkpt lat="44.37042" lon="4.84656">
        <ele>182.21</ele>
        <time>2026-08-27T11:04:42Z</time>
      </trkpt>
      <trkpt lat="44.3704" lon="4.84658">
        <ele>182.12</ele>
        <time>2026-08-27T11:04:43Z</time>
      </trkpt>
      <trkpt lat="44.37038" lon="4.84661">
        <ele>182.03</ele>
        <time>2026-08-27T11:04:44Z</time>
      </trkpt>
      <trkpt lat="44.37035" lon="4.84664">
        <ele>181.95</ele>
        <time>2026-08-27T11:04:45Z</time>
      </trkpt>
      <trkpt lat="44.37033" lon="4.84668">
        <ele>181.59</ele>
        <time>2026-08-27T11:04:46Z</time>
      </trkpt>
      <trkpt lat="44.37031" lon="4.84672">
        <ele>181.38</ele>
        <time>2026-08-27T11:04:47Z</time>
      </trkpt>
      <trkpt lat="44.37028" lon="4.8468">
        <ele>180.21</ele>
        <time>2026-08-27T11:04:49Z</time>
      </trkpt>
      <trkpt lat="44.3703" lon="4.84684">
        <ele>179.55</ele>
        <time>2026-08-27T11:04:51Z</time>
      </trkpt>
      <trkpt lat="44.37029" lon="4.84686">
        <ele>178.99</ele>
        <time>2026-08-27T11:04:52Z</time>
      </trkpt>
      <trkpt lat="44.37025" lon="4.84691">
        <ele>178.05</ele>
        <time>2026-08-27T11:04:54Z</time>
      </trkpt>
      <trkpt lat="44.37017" lon="4.84698">
        <ele>177.55</ele>
        <time>2026-08-27T11:04:58Z</time>
      </trkpt>
      <trkpt lat="44.37006" lon="4.8471">
        <ele>175.72</ele>
        <time>2026-08-27T11:05:06Z</time>
      </trkpt>
      <trkpt lat="44.36989" lon="4.84722">
        <ele>173.62</ele>
        <time>2026-08-27T11:05:11Z</time>
      </trkpt>
      <trkpt lat="44.36978" lon="4.84725">
        <ele>172.41</ele>
        <time>2026-08-27T11:05:13Z</time>
      </trkpt>
      <trkpt lat="44.36967" lon="4.8473">
        <ele>171.7</ele>
        <time>2026-08-27T11:05:15Z</time>
      </trkpt>
      <trkpt lat="44.36955" lon="4.84733">
        <ele>169.98</ele>
        <time>2026-08-27T11:05:17Z</time>
      </trkpt>
      <trkpt lat="44.36937" lon="4.8474">
        <ele>167.83</ele>
        <time>2026-08-27T11:05:21Z</time>
      </trkpt>
      <trkpt lat="44.36913" lon="4.84751">
        <ele>166.83</ele>
        <time>2026-08-27T11:05:30Z</time>
      </trkpt>
      <trkpt lat="44.36899" lon="4.84758">
        <ele>166.69</ele>
        <time>2026-08-27T11:05:35Z</time>
      </trkpt>
      <trkpt lat="44.36875" lon="4.84778">
        <ele>164.94</ele>
        <time>2026-08-27T11:05:42Z</time>
      </trkpt>
      <trkpt lat="44.36862" lon="4.84789">
        <ele>163.88</ele>
        <time>2026-08-27T11:05:45Z</time>
      </trkpt>
      <trkpt lat="44.36859" lon="4.8479">
        <ele>163.83</ele>
        <time>2026-08-27T11:05:46Z</time>
      </trkpt>
      <trkpt lat="44.36856" lon="4.84791">
        <ele>164.02</ele>
        <time>2026-08-27T11:05:47Z</time>
      </trkpt>
      <trkpt lat="44.36853" lon="4.84793">
        <ele>164.28</ele>
        <time>2026-08-27T11:05:48Z</time>
      </trkpt>
      <trkpt lat="44.36851" lon="4.84797">
        <ele>164</ele>
        <time>2026-08-27T11:05:49Z</time>
      </trkpt>
      <trkpt lat="44.36848" lon="4.84801">
        <ele>163.64</ele>
        <time>2026-08-27T11:05:50Z</time>
      </trkpt>
      <trkpt lat="44.36844" lon="4.84807">
        <ele>163.21</ele>
        <time>2026-08-27T11:05:51Z</time>
      </trkpt>
      <trkpt lat="44.36841" lon="4.84813">
        <ele>162.54</ele>
        <time>2026-08-27T11:05:52Z</time>
      </trkpt>
      <trkpt lat="44.36838" lon="4.84818">
        <ele>161.98</ele>
        <time>2026-08-27T11:05:53Z</time>
      </trkpt>
      <trkpt lat="44.36831" lon="4.84831">
        <ele>160.46</ele>
        <time>2026-08-27T11:05:55Z</time>
      </trkpt>
      <trkpt lat="44.36828" lon="4.84837">
        <ele>159.54</ele>
        <time>2026-08-27T11:05:56Z</time>
      </trkpt>
      <trkpt lat="44.36824" lon="4.84843">
        <ele>158.52</ele>
        <time>2026-08-27T11:05:57Z</time>
      </trkpt>
      <trkpt lat="44.3682" lon="4.84848">
        <ele>158.36</ele>
        <time>2026-08-27T11:05:58Z</time>
      </trkpt>
      <trkpt lat="44.36815" lon="4.84852">
        <ele>157.79</ele>
        <time>2026-08-27T11:05:59Z</time>
      </trkpt>
      <trkpt lat="44.36811" lon="4.84854">
        <ele>157.38</ele>
        <time>2026-08-27T11:06:00Z</time>
      </trkpt>
      <trkpt lat="44.36808" lon="4.84856">
        <ele>156.68</ele>
        <time>2026-08-27T11:06:01Z</time>
      </trkpt>
      <trkpt lat="44.36806" lon="4.84858">
        <ele>156.4</ele>
        <time>2026-08-27T11:06:02Z</time>
      </trkpt>
      <trkpt lat="44.36798" lon="4.84869">
        <ele>156.16</ele>
        <time>2026-08-27T11:06:12Z</time>
      </trkpt>
      <trkpt lat="44.36795" lon="4.84871">
        <ele>156.12</ele>
        <time>2026-08-27T11:06:13Z</time>
      </trkpt>
      <trkpt lat="44.36792" lon="4.84871">
        <ele>155.69</ele>
        <time>2026-08-27T11:06:14Z</time>
      </trkpt>
      <trkpt lat="44.36789" lon="4.84871">
        <ele>155.44</ele>
        <time>2026-08-27T11:06:15Z</time>
      </trkpt>
      <trkpt lat="44.36786" lon="4.84871">
        <ele>155.33</ele>
        <time>2026-08-27T11:06:16Z</time>
      </trkpt>
      <trkpt lat="44.36782" lon="4.84871">
        <ele>154.99</ele>
        <time>2026-08-27T11:06:17Z</time>
      </trkpt>
      <trkpt lat="44.36777" lon="4.84872">
        <ele>154.89</ele>
        <time>2026-08-27T11:06:18Z</time>
      </trkpt>
      <trkpt lat="44.36773" lon="4.84874">
        <ele>154.41</ele>
        <time>2026-08-27T11:06:19Z</time>
      </trkpt>
      <trkpt lat="44.3677" lon="4.84876">
        <ele>154.2</ele>
        <time>2026-08-27T11:06:20Z</time>
      </trkpt>
      <trkpt lat="44.36768" lon="4.8488">
        <ele>153.69</ele>
        <time>2026-08-27T11:06:21Z</time>
      </trkpt>
      <trkpt lat="44.36766" lon="4.84884">
        <ele>153.34</ele>
        <time>2026-08-27T11:06:22Z</time>
      </trkpt>
      <trkpt lat="44.36763" lon="4.84888">
        <ele>153.16</ele>
        <time>2026-08-27T11:06:23Z</time>
      </trkpt>
      <trkpt lat="44.3676" lon="4.84891">
        <ele>153.39</ele>
        <time>2026-08-27T11:06:24Z</time>
      </trkpt>
      <trkpt lat="44.3675" lon="4.84901">
        <ele>153</ele>
        <time>2026-08-27T11:06:27Z</time>
      </trkpt>
      <trkpt lat="44.36746" lon="4.84903">
        <ele>153.06</ele>
        <time>2026-08-27T11:06:28Z</time>
      </trkpt>
      <trkpt lat="44.36741" lon="4.84905">
        <ele>152.76</ele>
        <time>2026-08-27T11:06:29Z</time>
      </trkpt>
      <trkpt lat="44.36737" lon="4.84908">
        <ele>152.31</ele>
        <time>2026-08-27T11:06:30Z</time>
      </trkpt>
      <trkpt lat="44.36733" lon="4.84912">
        <ele>152.25</ele>
        <time>2026-08-27T11:06:31Z</time>
      </trkpt>
      <trkpt lat="44.3673" lon="4.84917">
        <ele>151.66</ele>
        <time>2026-08-27T11:06:32Z</time>
      </trkpt>
      <trkpt lat="44.36728" lon="4.84922">
        <ele>151.48</ele>
        <time>2026-08-27T11:06:33Z</time>
      </trkpt>
      <trkpt lat="44.36725" lon="4.84927">
        <ele>150.94</ele>
        <time>2026-08-27T11:06:34Z</time>
      </trkpt>
      <trkpt lat="44.36722" lon="4.84931">
        <ele>151.2</ele>
        <time>2026-08-27T11:06:35Z</time>
      </trkpt>
      <trkpt lat="44.36707" lon="4.84941">
        <ele>150.12</ele>
        <time>2026-08-27T11:06:39Z</time>
      </trkpt>
      <trkpt lat="44.36704" lon="4.84944">
        <ele>150.28</ele>
        <time>2026-08-27T11:06:40Z</time>
      </trkpt>
      <trkpt lat="44.36679" lon="4.84963">
        <ele>149.18</ele>
        <time>2026-08-27T11:06:49Z</time>
      </trkpt>
      <trkpt lat="44.36665" lon="4.84973">
        <ele>149.16</ele>
        <time>2026-08-27T11:06:55Z</time>
      </trkpt>
      <trkpt lat="44.36661" lon="4.84981">
        <ele>148.93</ele>
        <time>2026-08-27T11:07:06Z</time>
      </trkpt>
      <trkpt lat="44.36658" lon="4.84985">
        <ele>149.07</ele>
        <time>2026-08-27T11:07:20Z</time>
      </trkpt>
      <trkpt lat="44.36657" lon="4.84987">
        <ele>149.12</ele>
        <time>2026-08-27T11:07:21Z</time>
      </trkpt>
      <trkpt lat="44.36656" lon="4.84991">
        <ele>149.13</ele>
        <time>2026-08-27T11:07:22Z</time>
      </trkpt>
      <trkpt lat="44.36645" lon="4.85006">
        <ele>148.84</ele>
        <time>2026-08-27T11:07:26Z</time>
      </trkpt>
      <trkpt lat="44.36624" lon="4.85037">
        <ele>148.41</ele>
        <time>2026-08-27T11:07:35Z</time>
      </trkpt>
      <trkpt lat="44.36623" lon="4.85042">
        <ele>148.52</ele>
        <time>2026-08-27T11:07:37Z</time>
      </trkpt>
      <trkpt lat="44.36623" lon="4.85045">
        <ele>148.49</ele>
        <time>2026-08-27T11:07:38Z</time>
      </trkpt>
      <trkpt lat="44.36622" lon="4.85049">
        <ele>148.67</ele>
        <time>2026-08-27T11:07:41Z</time>
      </trkpt>
      <trkpt lat="44.36621" lon="4.85051">
        <ele>148.72</ele>
        <time>2026-08-27T11:07:42Z</time>
      </trkpt>
      <trkpt lat="44.36619" lon="4.85054">
        <ele>148.67</ele>
        <time>2026-08-27T11:07:43Z</time>
      </trkpt>
      <trkpt lat="44.36617" lon="4.85057">
        <ele>148.58</ele>
        <time>2026-08-27T11:07:44Z</time>
      </trkpt>
      <trkpt lat="44.36613" lon="4.85061">
        <ele>148.48</ele>
        <time>2026-08-27T11:07:45Z</time>
      </trkpt>
      <trkpt lat="44.36564" lon="4.85122">
        <ele>145.46</ele>
        <time>2026-08-27T11:07:56Z</time>
      </trkpt>
      <trkpt lat="44.36494" lon="4.85208">
        <ele>142.11</ele>
        <time>2026-08-27T11:08:09Z</time>
      </trkpt>
      <trkpt lat="44.364" lon="4.85323">
        <ele>139.08</ele>
        <time>2026-08-27T11:08:27Z</time>
      </trkpt>
      <trkpt lat="44.36345" lon="4.85389">
        <ele>137.75</ele>
        <time>2026-08-27T11:08:39Z</time>
      </trkpt>
      <trkpt lat="44.36327" lon="4.85411">
        <ele>137.5</ele>
        <time>2026-08-27T11:08:44Z</time>
      </trkpt>
      <trkpt lat="44.36324" lon="4.85415">
        <ele>137.54</ele>
        <time>2026-08-27T11:08:45Z</time>
      </trkpt>
      <trkpt lat="44.36321" lon="4.85419">
        <ele>137.49</ele>
        <time>2026-08-27T11:08:46Z</time>
      </trkpt>
      <trkpt lat="44.36319" lon="4.85424">
        <ele>137.48</ele>
        <time>2026-08-27T11:08:47Z</time>
      </trkpt>
      <trkpt lat="44.36316" lon="4.85428">
        <ele>137.39</ele>
        <time>2026-08-27T11:08:48Z</time>
      </trkpt>
      <trkpt lat="44.36313" lon="4.85432">
        <ele>137.28</ele>
        <time>2026-08-27T11:08:49Z</time>
      </trkpt>
      <trkpt lat="44.363" lon="4.85454">
        <ele>136.99</ele>
        <time>2026-08-27T11:08:53Z</time>
      </trkpt>
      <trkpt lat="44.36296" lon="4.85458">
        <ele>136.79</ele>
        <time>2026-08-27T11:08:54Z</time>
      </trkpt>
      <trkpt lat="44.36292" lon="4.85462">
        <ele>136.72</ele>
        <time>2026-08-27T11:08:55Z</time>
      </trkpt>
      <trkpt lat="44.36288" lon="4.85465">
        <ele>136.75</ele>
        <time>2026-08-27T11:08:56Z</time>
      </trkpt>
      <trkpt lat="44.36283" lon="4.85467">
        <ele>136.75</ele>
        <time>2026-08-27T11:08:57Z</time>
      </trkpt>
      <trkpt lat="44.36278" lon="4.85468">
        <ele>136.89</ele>
        <time>2026-08-27T11:08:58Z</time>
      </trkpt>
      <trkpt lat="44.36273" lon="4.85469">
        <ele>136.97</ele>
        <time>2026-08-27T11:08:59Z</time>
      </trkpt>
      <trkpt lat="44.36255" lon="4.8547">
        <ele>137.33</ele>
        <time>2026-08-27T11:09:03Z</time>
      </trkpt>
      <trkpt lat="44.36227" lon="4.85474">
        <ele>138.02</ele>
        <time>2026-08-27T11:09:09Z</time>
      </trkpt>
      <trkpt lat="44.36223" lon="4.85476">
        <ele>137.97</ele>
        <time>2026-08-27T11:09:10Z</time>
      </trkpt>
      <trkpt lat="44.36219" lon="4.85479">
        <ele>137.93</ele>
        <time>2026-08-27T11:09:11Z</time>
      </trkpt>
      <trkpt lat="44.36215" lon="4.85483">
        <ele>137.93</ele>
        <time>2026-08-27T11:09:12Z</time>
      </trkpt>
      <trkpt lat="44.36212" lon="4.85488">
        <ele>138.12</ele>
        <time>2026-08-27T11:09:13Z</time>
      </trkpt>
      <trkpt lat="44.36209" lon="4.85493">
        <ele>138.12</ele>
        <time>2026-08-27T11:09:14Z</time>
      </trkpt>
      <trkpt lat="44.36206" lon="4.85498">
        <ele>137.98</ele>
        <time>2026-08-27T11:09:15Z</time>
      </trkpt>
      <trkpt lat="44.36203" lon="4.85503">
        <ele>137.99</ele>
        <time>2026-08-27T11:09:16Z</time>
      </trkpt>
      <trkpt lat="44.36154" lon="4.8561">
        <ele>138.92</ele>
        <time>2026-08-27T11:09:34Z</time>
      </trkpt>
      <trkpt lat="44.36139" lon="4.85647">
        <ele>139.02</ele>
        <time>2026-08-27T11:09:40Z</time>
      </trkpt>
      <trkpt lat="44.36136" lon="4.85659">
        <ele>139.01</ele>
        <time>2026-08-27T11:09:42Z</time>
      </trkpt>
      <trkpt lat="44.36134" lon="4.85665">
        <ele>139.15</ele>
        <time>2026-08-27T11:09:43Z</time>
      </trkpt>
      <trkpt lat="44.36133" lon="4.8567">
        <ele>139.04</ele>
        <time>2026-08-27T11:09:44Z</time>
      </trkpt>
      <trkpt lat="44.36133" lon="4.85675">
        <ele>139.14</ele>
        <time>2026-08-27T11:09:45Z</time>
      </trkpt>
      <trkpt lat="44.36134" lon="4.8568">
        <ele>139.1</ele>
        <time>2026-08-27T11:09:46Z</time>
      </trkpt>
      <trkpt lat="44.36135" lon="4.85686">
        <ele>139.32</ele>
        <time>2026-08-27T11:09:47Z</time>
      </trkpt>
      <trkpt lat="44.36136" lon="4.85691">
        <ele>139.28</ele>
        <time>2026-08-27T11:09:48Z</time>
      </trkpt>
      <trkpt lat="44.36137" lon="4.85697">
        <ele>139.27</ele>
        <time>2026-08-27T11:09:49Z</time>
      </trkpt>
      <trkpt lat="44.36138" lon="4.85703">
        <ele>139.46</ele>
        <time>2026-08-27T11:09:50Z</time>
      </trkpt>
      <trkpt lat="44.36138" lon="4.85709">
        <ele>139.66</ele>
        <time>2026-08-27T11:09:51Z</time>
      </trkpt>
      <trkpt lat="44.36138" lon="4.85714">
        <ele>139.73</ele>
        <time>2026-08-27T11:09:52Z</time>
      </trkpt>
      <trkpt lat="44.36137" lon="4.8572">
        <ele>139.56</ele>
        <time>2026-08-27T11:09:53Z</time>
      </trkpt>
      <trkpt lat="44.36135" lon="4.85725">
        <ele>139.59</ele>
        <time>2026-08-27T11:09:54Z</time>
      </trkpt>
      <trkpt lat="44.36123" lon="4.85754">
        <ele>139.4</ele>
        <time>2026-08-27T11:10:01Z</time>
      </trkpt>
      <trkpt lat="44.36121" lon="4.85759">
        <ele>139.35</ele>
        <time>2026-08-27T11:10:04Z</time>
      </trkpt>
      <trkpt lat="44.36122" lon="4.85761">
        <ele>139.38</ele>
        <time>2026-08-27T11:10:05Z</time>
      </trkpt>
      <trkpt lat="44.36124" lon="4.85763">
        <ele>139.5</ele>
        <time>2026-08-27T11:10:06Z</time>
      </trkpt>
      <trkpt lat="44.36126" lon="4.85765">
        <ele>139.55</ele>
        <time>2026-08-27T11:10:07Z</time>
      </trkpt>
      <trkpt lat="44.36149" lon="4.85782">
        <ele>139.88</ele>
        <time>2026-08-27T11:10:18Z</time>
      </trkpt>
      <trkpt lat="44.3616" lon="4.85793">
        <ele>140.12</ele>
        <time>2026-08-27T11:10:23Z</time>
      </trkpt>
      <trkpt lat="44.36162" lon="4.85795">
        <ele>140.61</ele>
        <time>2026-08-27T11:13:38Z</time>
      </trkpt>
    </trkseg>
  </trk>
</gpx>